<?xml version="1.0" encoding="UTF-8" standalone="no" ?>
<gpx xmlns="http://www.topografix.com/GPX/1/1" xmlns:xsi="http://www.w3.org/2001/XMLSchema-instance" xsi:schemaLocation="http://www.topografix.com/GPX/1/1 http://www.topografix.com/GPX/1/1/gpx.xsd" version="1.1" creator="VisuGPX - https://www.visugpx.com">
  <metadata>
    <name>Route - Petit Ballon 89-2153</name>
  </metadata>
  <trk>
    <name><![CDATA[7459785-petit ballon]]></name>
    <trkseg>
      <trkpt lat="48.152" lon="7.1683">
        <ele>425</ele>
        <time>2019-04-12T10:26:27Z</time>
      </trkpt>
      <trkpt lat="48.15198" lon="7.16831">
        <ele>425</ele>
        <time>2019-04-12T10:27:27Z</time>
      </trkpt>
      <trkpt lat="48.15189" lon="7.16831">
        <ele>425</ele>
        <time>2019-04-12T10:28:27Z</time>
      </trkpt>
      <trkpt lat="48.15183" lon="7.16831">
        <ele>425</ele>
        <time>2019-04-12T10:29:27Z</time>
      </trkpt>
      <trkpt lat="48.15169" lon="7.16826">
        <ele>426</ele>
        <time>2019-04-12T10:30:27Z</time>
      </trkpt>
      <trkpt lat="48.15167" lon="7.16818">
        <ele>427</ele>
        <time>2019-04-12T10:31:27Z</time>
      </trkpt>
      <trkpt lat="48.15164" lon="7.16812">
        <ele>427</ele>
        <time>2019-04-12T10:32:27Z</time>
      </trkpt>
      <trkpt lat="48.1516" lon="7.16805">
        <ele>428</ele>
        <time>2019-04-12T10:33:27Z</time>
      </trkpt>
      <trkpt lat="48.15154" lon="7.16797">
        <ele>430</ele>
        <time>2019-04-12T10:34:27Z</time>
      </trkpt>
      <trkpt lat="48.15146" lon="7.16787">
        <ele>431</ele>
        <time>2019-04-12T10:35:27Z</time>
      </trkpt>
      <trkpt lat="48.1513" lon="7.16774">
        <ele>434</ele>
        <time>2019-04-12T10:36:27Z</time>
      </trkpt>
      <trkpt lat="48.15114" lon="7.16758">
        <ele>436</ele>
        <time>2019-04-12T10:37:27Z</time>
      </trkpt>
      <trkpt lat="48.15098" lon="7.16741">
        <ele>437</ele>
        <time>2019-04-12T10:38:27Z</time>
      </trkpt>
      <trkpt lat="48.15087" lon="7.16728">
        <ele>438</ele>
        <time>2019-04-12T10:39:27Z</time>
      </trkpt>
      <trkpt lat="48.15076" lon="7.16714">
        <ele>440</ele>
        <time>2019-04-12T10:40:27Z</time>
      </trkpt>
      <trkpt lat="48.15067" lon="7.16701">
        <ele>442</ele>
        <time>2019-04-12T10:41:27Z</time>
      </trkpt>
      <trkpt lat="48.15061" lon="7.1669">
        <ele>442</ele>
        <time>2019-04-12T10:42:27Z</time>
      </trkpt>
      <trkpt lat="48.15055" lon="7.16676">
        <ele>443</ele>
        <time>2019-04-12T10:43:27Z</time>
      </trkpt>
      <trkpt lat="48.15046" lon="7.16656">
        <ele>444</ele>
        <time>2019-04-12T10:44:27Z</time>
      </trkpt>
      <trkpt lat="48.1504" lon="7.1664">
        <ele>444</ele>
        <time>2019-04-12T10:45:27Z</time>
      </trkpt>
      <trkpt lat="48.15033" lon="7.16622">
        <ele>444</ele>
        <time>2019-04-12T10:46:27Z</time>
      </trkpt>
      <trkpt lat="48.15026" lon="7.16607">
        <ele>444</ele>
        <time>2019-04-12T10:47:27Z</time>
      </trkpt>
      <trkpt lat="48.15017" lon="7.1659">
        <ele>444</ele>
        <time>2019-04-12T10:48:27Z</time>
      </trkpt>
      <trkpt lat="48.14996" lon="7.16553">
        <ele>445</ele>
        <time>2019-04-12T10:49:27Z</time>
      </trkpt>
      <trkpt lat="48.14986" lon="7.1654">
        <ele>447</ele>
        <time>2019-04-12T10:50:27Z</time>
      </trkpt>
      <trkpt lat="48.14984" lon="7.16537">
        <ele>447</ele>
        <time>2019-04-12T10:51:27Z</time>
      </trkpt>
      <trkpt lat="48.14982" lon="7.16535">
        <ele>448</ele>
        <time>2019-04-12T10:52:27Z</time>
      </trkpt>
      <trkpt lat="48.14977" lon="7.16532">
        <ele>448</ele>
        <time>2019-04-12T10:53:27Z</time>
      </trkpt>
      <trkpt lat="48.14977" lon="7.16532">
        <ele>448</ele>
        <time>2019-04-12T10:54:27Z</time>
      </trkpt>
      <trkpt lat="48.14977" lon="7.16548">
        <ele>448</ele>
        <time>2019-04-12T10:55:27Z</time>
      </trkpt>
      <trkpt lat="48.14977" lon="7.16558">
        <ele>448</ele>
        <time>2019-04-12T10:56:27Z</time>
      </trkpt>
      <trkpt lat="48.14978" lon="7.16568">
        <ele>448</ele>
        <time>2019-04-12T10:57:27Z</time>
      </trkpt>
      <trkpt lat="48.14978" lon="7.16574">
        <ele>448</ele>
        <time>2019-04-12T10:58:27Z</time>
      </trkpt>
      <trkpt lat="48.14978" lon="7.16581">
        <ele>448</ele>
        <time>2019-04-12T10:59:27Z</time>
      </trkpt>
      <trkpt lat="48.14978" lon="7.16587">
        <ele>449</ele>
        <time>2019-04-12T11:00:27Z</time>
      </trkpt>
      <trkpt lat="48.14978" lon="7.16587">
        <ele>449</ele>
        <time>2019-04-12T11:01:27Z</time>
      </trkpt>
      <trkpt lat="48.14975" lon="7.16587">
        <ele>449</ele>
        <time>2019-04-12T11:02:27Z</time>
      </trkpt>
      <trkpt lat="48.14972" lon="7.16587">
        <ele>450</ele>
        <time>2019-04-12T11:03:27Z</time>
      </trkpt>
      <trkpt lat="48.14969" lon="7.16586">
        <ele>450</ele>
        <time>2019-04-12T11:04:27Z</time>
      </trkpt>
      <trkpt lat="48.14965" lon="7.16582">
        <ele>451</ele>
        <time>2019-04-12T11:05:27Z</time>
      </trkpt>
      <trkpt lat="48.1496" lon="7.16573">
        <ele>452</ele>
        <time>2019-04-12T11:06:27Z</time>
      </trkpt>
      <trkpt lat="48.14948" lon="7.16553">
        <ele>453</ele>
        <time>2019-04-12T11:07:27Z</time>
      </trkpt>
      <trkpt lat="48.14942" lon="7.16535">
        <ele>454</ele>
        <time>2019-04-12T11:08:27Z</time>
      </trkpt>
      <trkpt lat="48.14935" lon="7.16517">
        <ele>455</ele>
        <time>2019-04-12T11:09:27Z</time>
      </trkpt>
      <trkpt lat="48.14927" lon="7.16503">
        <ele>456</ele>
        <time>2019-04-12T11:10:27Z</time>
      </trkpt>
      <trkpt lat="48.14912" lon="7.16479">
        <ele>458</ele>
        <time>2019-04-12T11:11:27Z</time>
      </trkpt>
      <trkpt lat="48.14898" lon="7.16458">
        <ele>461</ele>
        <time>2019-04-12T11:12:27Z</time>
      </trkpt>
      <trkpt lat="48.1488" lon="7.16433">
        <ele>465</ele>
        <time>2019-04-12T11:13:27Z</time>
      </trkpt>
      <trkpt lat="48.14863" lon="7.1641">
        <ele>469</ele>
        <time>2019-04-12T11:14:27Z</time>
      </trkpt>
      <trkpt lat="48.14844" lon="7.16384">
        <ele>472</ele>
        <time>2019-04-12T11:15:27Z</time>
      </trkpt>
      <trkpt lat="48.14826" lon="7.16357">
        <ele>475</ele>
        <time>2019-04-12T11:16:27Z</time>
      </trkpt>
      <trkpt lat="48.14808" lon="7.16325">
        <ele>478</ele>
        <time>2019-04-12T11:17:27Z</time>
      </trkpt>
      <trkpt lat="48.14796" lon="7.16303">
        <ele>480</ele>
        <time>2019-04-12T11:18:27Z</time>
      </trkpt>
      <trkpt lat="48.14791" lon="7.16293">
        <ele>480</ele>
        <time>2019-04-12T11:19:27Z</time>
      </trkpt>
      <trkpt lat="48.14786" lon="7.16284">
        <ele>481</ele>
        <time>2019-04-12T11:20:27Z</time>
      </trkpt>
      <trkpt lat="48.14781" lon="7.16277">
        <ele>482</ele>
        <time>2019-04-12T11:21:27Z</time>
      </trkpt>
      <trkpt lat="48.14776" lon="7.16271">
        <ele>483</ele>
        <time>2019-04-12T11:22:27Z</time>
      </trkpt>
      <trkpt lat="48.14771" lon="7.16264">
        <ele>483</ele>
        <time>2019-04-12T11:23:27Z</time>
      </trkpt>
      <trkpt lat="48.14761" lon="7.16248">
        <ele>485</ele>
        <time>2019-04-12T11:24:27Z</time>
      </trkpt>
      <trkpt lat="48.1475" lon="7.16226">
        <ele>487</ele>
        <time>2019-04-12T11:25:27Z</time>
      </trkpt>
      <trkpt lat="48.14743" lon="7.16207">
        <ele>490</ele>
        <time>2019-04-12T11:26:27Z</time>
      </trkpt>
      <trkpt lat="48.14738" lon="7.1619">
        <ele>492</ele>
        <time>2019-04-12T11:27:27Z</time>
      </trkpt>
      <trkpt lat="48.14734" lon="7.1617">
        <ele>493</ele>
        <time>2019-04-12T11:28:27Z</time>
      </trkpt>
      <trkpt lat="48.14733" lon="7.16143">
        <ele>493</ele>
        <time>2019-04-12T11:29:27Z</time>
      </trkpt>
      <trkpt lat="48.14732" lon="7.16121">
        <ele>493</ele>
        <time>2019-04-12T11:30:27Z</time>
      </trkpt>
      <trkpt lat="48.1473" lon="7.16103">
        <ele>494</ele>
        <time>2019-04-12T11:31:27Z</time>
      </trkpt>
      <trkpt lat="48.14725" lon="7.16085">
        <ele>495</ele>
        <time>2019-04-12T11:32:27Z</time>
      </trkpt>
      <trkpt lat="48.14715" lon="7.16065">
        <ele>497</ele>
        <time>2019-04-12T11:33:27Z</time>
      </trkpt>
      <trkpt lat="48.14704" lon="7.16048">
        <ele>500</ele>
        <time>2019-04-12T11:34:27Z</time>
      </trkpt>
      <trkpt lat="48.14692" lon="7.16022">
        <ele>502</ele>
        <time>2019-04-12T11:35:27Z</time>
      </trkpt>
      <trkpt lat="48.14677" lon="7.15994">
        <ele>505</ele>
        <time>2019-04-12T11:36:27Z</time>
      </trkpt>
      <trkpt lat="48.14661" lon="7.1597">
        <ele>507</ele>
        <time>2019-04-12T11:37:27Z</time>
      </trkpt>
      <trkpt lat="48.14647" lon="7.15949">
        <ele>509</ele>
        <time>2019-04-12T11:38:27Z</time>
      </trkpt>
      <trkpt lat="48.14638" lon="7.15939">
        <ele>511</ele>
        <time>2019-04-12T11:39:27Z</time>
      </trkpt>
      <trkpt lat="48.1462" lon="7.15914">
        <ele>514</ele>
        <time>2019-04-12T11:40:27Z</time>
      </trkpt>
      <trkpt lat="48.14598" lon="7.15877">
        <ele>516</ele>
        <time>2019-04-12T11:41:27Z</time>
      </trkpt>
      <trkpt lat="48.14582" lon="7.15852">
        <ele>517</ele>
        <time>2019-04-12T11:42:27Z</time>
      </trkpt>
      <trkpt lat="48.1457" lon="7.15831">
        <ele>518</ele>
        <time>2019-04-12T11:43:27Z</time>
      </trkpt>
      <trkpt lat="48.14561" lon="7.15821">
        <ele>520</ele>
        <time>2019-04-12T11:44:27Z</time>
      </trkpt>
      <trkpt lat="48.14552" lon="7.1581">
        <ele>521</ele>
        <time>2019-04-12T11:45:27Z</time>
      </trkpt>
      <trkpt lat="48.14544" lon="7.15793">
        <ele>523</ele>
        <time>2019-04-12T11:46:27Z</time>
      </trkpt>
      <trkpt lat="48.14533" lon="7.15767">
        <ele>524</ele>
        <time>2019-04-12T11:47:27Z</time>
      </trkpt>
      <trkpt lat="48.14518" lon="7.15739">
        <ele>526</ele>
        <time>2019-04-12T11:48:27Z</time>
      </trkpt>
      <trkpt lat="48.14505" lon="7.15717">
        <ele>527</ele>
        <time>2019-04-12T11:49:27Z</time>
      </trkpt>
      <trkpt lat="48.14493" lon="7.15694">
        <ele>528</ele>
        <time>2019-04-12T11:50:27Z</time>
      </trkpt>
      <trkpt lat="48.14479" lon="7.1567">
        <ele>531</ele>
        <time>2019-04-12T11:51:27Z</time>
      </trkpt>
      <trkpt lat="48.14459" lon="7.15639">
        <ele>534</ele>
        <time>2019-04-12T11:52:27Z</time>
      </trkpt>
      <trkpt lat="48.14442" lon="7.15616">
        <ele>536</ele>
        <time>2019-04-12T11:53:27Z</time>
      </trkpt>
      <trkpt lat="48.1443" lon="7.15602">
        <ele>537</ele>
        <time>2019-04-12T11:54:27Z</time>
      </trkpt>
      <trkpt lat="48.14418" lon="7.15593">
        <ele>539</ele>
        <time>2019-04-12T11:55:27Z</time>
      </trkpt>
      <trkpt lat="48.14396" lon="7.15576">
        <ele>541</ele>
        <time>2019-04-12T11:56:27Z</time>
      </trkpt>
      <trkpt lat="48.14376" lon="7.15564">
        <ele>544</ele>
        <time>2019-04-12T11:57:27Z</time>
      </trkpt>
      <trkpt lat="48.14359" lon="7.15553">
        <ele>547</ele>
        <time>2019-04-12T11:58:27Z</time>
      </trkpt>
      <trkpt lat="48.14348" lon="7.15548">
        <ele>549</ele>
        <time>2019-04-12T11:59:27Z</time>
      </trkpt>
      <trkpt lat="48.14339" lon="7.15548">
        <ele>550</ele>
        <time>2019-04-12T12:00:27Z</time>
      </trkpt>
      <trkpt lat="48.14333" lon="7.1555">
        <ele>551</ele>
        <time>2019-04-12T12:01:27Z</time>
      </trkpt>
      <trkpt lat="48.14321" lon="7.1555">
        <ele>552</ele>
        <time>2019-04-12T12:02:27Z</time>
      </trkpt>
      <trkpt lat="48.14314" lon="7.15548">
        <ele>553</ele>
        <time>2019-04-12T12:03:27Z</time>
      </trkpt>
      <trkpt lat="48.143" lon="7.15541">
        <ele>555</ele>
        <time>2019-04-12T12:04:27Z</time>
      </trkpt>
      <trkpt lat="48.14285" lon="7.15536">
        <ele>556</ele>
        <time>2019-04-12T12:05:27Z</time>
      </trkpt>
      <trkpt lat="48.14275" lon="7.15533">
        <ele>557</ele>
        <time>2019-04-12T12:06:27Z</time>
      </trkpt>
      <trkpt lat="48.14263" lon="7.15526">
        <ele>558</ele>
        <time>2019-04-12T12:07:27Z</time>
      </trkpt>
      <trkpt lat="48.14247" lon="7.15515">
        <ele>560</ele>
        <time>2019-04-12T12:08:27Z</time>
      </trkpt>
      <trkpt lat="48.14238" lon="7.15506">
        <ele>561</ele>
        <time>2019-04-12T12:09:27Z</time>
      </trkpt>
      <trkpt lat="48.1423" lon="7.15489">
        <ele>563</ele>
        <time>2019-04-12T12:10:27Z</time>
      </trkpt>
      <trkpt lat="48.14224" lon="7.15471">
        <ele>565</ele>
        <time>2019-04-12T12:11:27Z</time>
      </trkpt>
      <trkpt lat="48.1422" lon="7.15457">
        <ele>566</ele>
        <time>2019-04-12T12:12:27Z</time>
      </trkpt>
      <trkpt lat="48.14212" lon="7.15447">
        <ele>568</ele>
        <time>2019-04-12T12:13:27Z</time>
      </trkpt>
      <trkpt lat="48.14197" lon="7.15425">
        <ele>569</ele>
        <time>2019-04-12T12:14:27Z</time>
      </trkpt>
      <trkpt lat="48.14181" lon="7.15405">
        <ele>570</ele>
        <time>2019-04-12T12:15:27Z</time>
      </trkpt>
      <trkpt lat="48.14167" lon="7.15396">
        <ele>570</ele>
        <time>2019-04-12T12:16:27Z</time>
      </trkpt>
      <trkpt lat="48.1416" lon="7.15394">
        <ele>571</ele>
        <time>2019-04-12T12:17:27Z</time>
      </trkpt>
      <trkpt lat="48.14149" lon="7.15393">
        <ele>572</ele>
        <time>2019-04-12T12:18:27Z</time>
      </trkpt>
      <trkpt lat="48.1414" lon="7.15394">
        <ele>572</ele>
        <time>2019-04-12T12:19:27Z</time>
      </trkpt>
      <trkpt lat="48.14135" lon="7.154">
        <ele>572</ele>
        <time>2019-04-12T12:20:27Z</time>
      </trkpt>
      <trkpt lat="48.14135" lon="7.154">
        <ele>572</ele>
        <time>2019-04-12T12:21:27Z</time>
      </trkpt>
      <trkpt lat="48.14135" lon="7.15414">
        <ele>572</ele>
        <time>2019-04-12T12:22:27Z</time>
      </trkpt>
      <trkpt lat="48.14136" lon="7.15437">
        <ele>573</ele>
        <time>2019-04-12T12:23:27Z</time>
      </trkpt>
      <trkpt lat="48.14144" lon="7.1547">
        <ele>574</ele>
        <time>2019-04-12T12:24:27Z</time>
      </trkpt>
      <trkpt lat="48.1415" lon="7.15488">
        <ele>574</ele>
        <time>2019-04-12T12:25:27Z</time>
      </trkpt>
      <trkpt lat="48.14158" lon="7.15511">
        <ele>574</ele>
        <time>2019-04-12T12:26:27Z</time>
      </trkpt>
      <trkpt lat="48.14159" lon="7.15521">
        <ele>575</ele>
        <time>2019-04-12T12:27:27Z</time>
      </trkpt>
      <trkpt lat="48.14159" lon="7.1553">
        <ele>576</ele>
        <time>2019-04-12T12:28:27Z</time>
      </trkpt>
      <trkpt lat="48.14158" lon="7.15533">
        <ele>576</ele>
        <time>2019-04-12T12:29:27Z</time>
      </trkpt>
      <trkpt lat="48.14156" lon="7.15536">
        <ele>577</ele>
        <time>2019-04-12T12:30:27Z</time>
      </trkpt>
      <trkpt lat="48.14155" lon="7.15538">
        <ele>577</ele>
        <time>2019-04-12T12:31:27Z</time>
      </trkpt>
      <trkpt lat="48.14152" lon="7.15539">
        <ele>577</ele>
        <time>2019-04-12T12:32:27Z</time>
      </trkpt>
      <trkpt lat="48.1415" lon="7.15539">
        <ele>578</ele>
        <time>2019-04-12T12:33:27Z</time>
      </trkpt>
      <trkpt lat="48.14147" lon="7.15539">
        <ele>578</ele>
        <time>2019-04-12T12:34:27Z</time>
      </trkpt>
      <trkpt lat="48.14145" lon="7.15539">
        <ele>579</ele>
        <time>2019-04-12T12:35:27Z</time>
      </trkpt>
      <trkpt lat="48.14142" lon="7.15538">
        <ele>579</ele>
        <time>2019-04-12T12:36:27Z</time>
      </trkpt>
      <trkpt lat="48.14139" lon="7.15536">
        <ele>579</ele>
        <time>2019-04-12T12:37:27Z</time>
      </trkpt>
      <trkpt lat="48.14136" lon="7.15535">
        <ele>579</ele>
        <time>2019-04-12T12:38:27Z</time>
      </trkpt>
      <trkpt lat="48.14133" lon="7.15532">
        <ele>580</ele>
        <time>2019-04-12T12:39:27Z</time>
      </trkpt>
      <trkpt lat="48.14131" lon="7.15531">
        <ele>580</ele>
        <time>2019-04-12T12:40:27Z</time>
      </trkpt>
      <trkpt lat="48.1413" lon="7.15531">
        <ele>580</ele>
        <time>2019-04-12T12:41:27Z</time>
      </trkpt>
      <trkpt lat="48.14128" lon="7.15531">
        <ele>580</ele>
        <time>2019-04-12T12:42:27Z</time>
      </trkpt>
      <trkpt lat="48.14125" lon="7.15532">
        <ele>581</ele>
        <time>2019-04-12T12:43:27Z</time>
      </trkpt>
      <trkpt lat="48.14122" lon="7.15534">
        <ele>581</ele>
        <time>2019-04-12T12:44:27Z</time>
      </trkpt>
      <trkpt lat="48.1411" lon="7.15533">
        <ele>583</ele>
        <time>2019-04-12T12:45:27Z</time>
      </trkpt>
      <trkpt lat="48.14094" lon="7.15526">
        <ele>585</ele>
        <time>2019-04-12T12:46:27Z</time>
      </trkpt>
      <trkpt lat="48.14094" lon="7.15526">
        <ele>585</ele>
        <time>2019-04-12T12:47:27Z</time>
      </trkpt>
      <trkpt lat="48.14082" lon="7.15521">
        <ele>586</ele>
        <time>2019-04-12T12:48:27Z</time>
      </trkpt>
      <trkpt lat="48.14075" lon="7.1552">
        <ele>587</ele>
        <time>2019-04-12T12:49:27Z</time>
      </trkpt>
      <trkpt lat="48.1406" lon="7.15517">
        <ele>589</ele>
        <time>2019-04-12T12:50:27Z</time>
      </trkpt>
      <trkpt lat="48.14041" lon="7.1551">
        <ele>591</ele>
        <time>2019-04-12T12:51:27Z</time>
      </trkpt>
      <trkpt lat="48.14029" lon="7.15503">
        <ele>592</ele>
        <time>2019-04-12T12:52:27Z</time>
      </trkpt>
      <trkpt lat="48.14018" lon="7.15495">
        <ele>593</ele>
        <time>2019-04-12T12:53:27Z</time>
      </trkpt>
      <trkpt lat="48.14009" lon="7.15488">
        <ele>593</ele>
        <time>2019-04-12T12:54:27Z</time>
      </trkpt>
      <trkpt lat="48.14003" lon="7.15487">
        <ele>594</ele>
        <time>2019-04-12T12:55:27Z</time>
      </trkpt>
      <trkpt lat="48.13996" lon="7.15481">
        <ele>594</ele>
        <time>2019-04-12T12:56:27Z</time>
      </trkpt>
      <trkpt lat="48.13996" lon="7.15481">
        <ele>594</ele>
        <time>2019-04-12T12:57:27Z</time>
      </trkpt>
      <trkpt lat="48.13991" lon="7.15473">
        <ele>594</ele>
        <time>2019-04-12T12:58:27Z</time>
      </trkpt>
      <trkpt lat="48.13982" lon="7.15458">
        <ele>594</ele>
        <time>2019-04-12T12:59:27Z</time>
      </trkpt>
      <trkpt lat="48.13976" lon="7.15437">
        <ele>592</ele>
        <time>2019-04-12T13:00:27Z</time>
      </trkpt>
      <trkpt lat="48.13968" lon="7.15417">
        <ele>591</ele>
        <time>2019-04-12T13:01:27Z</time>
      </trkpt>
      <trkpt lat="48.1396" lon="7.15399">
        <ele>591</ele>
        <time>2019-04-12T13:02:27Z</time>
      </trkpt>
      <trkpt lat="48.13951" lon="7.15381">
        <ele>592</ele>
        <time>2019-04-12T13:03:27Z</time>
      </trkpt>
      <trkpt lat="48.13947" lon="7.15369">
        <ele>592</ele>
        <time>2019-04-12T13:04:27Z</time>
      </trkpt>
      <trkpt lat="48.13947" lon="7.15369">
        <ele>592</ele>
        <time>2019-04-12T13:05:27Z</time>
      </trkpt>
      <trkpt lat="48.1394" lon="7.15362">
        <ele>593</ele>
        <time>2019-04-12T13:06:27Z</time>
      </trkpt>
      <trkpt lat="48.13927" lon="7.15351">
        <ele>594</ele>
        <time>2019-04-12T13:07:27Z</time>
      </trkpt>
      <trkpt lat="48.1391" lon="7.15338">
        <ele>596</ele>
        <time>2019-04-12T13:08:27Z</time>
      </trkpt>
      <trkpt lat="48.13903" lon="7.15332">
        <ele>597</ele>
        <time>2019-04-12T13:09:27Z</time>
      </trkpt>
      <trkpt lat="48.13888" lon="7.15321">
        <ele>600</ele>
        <time>2019-04-12T13:10:27Z</time>
      </trkpt>
      <trkpt lat="48.13882" lon="7.15314">
        <ele>601</ele>
        <time>2019-04-12T13:11:27Z</time>
      </trkpt>
      <trkpt lat="48.13879" lon="7.15305">
        <ele>602</ele>
        <time>2019-04-12T13:12:27Z</time>
      </trkpt>
      <trkpt lat="48.13875" lon="7.15283">
        <ele>603</ele>
        <time>2019-04-12T13:13:27Z</time>
      </trkpt>
      <trkpt lat="48.13869" lon="7.1526">
        <ele>604</ele>
        <time>2019-04-12T13:14:27Z</time>
      </trkpt>
      <trkpt lat="48.13864" lon="7.15248">
        <ele>606</ele>
        <time>2019-04-12T13:15:27Z</time>
      </trkpt>
      <trkpt lat="48.13856" lon="7.1523">
        <ele>609</ele>
        <time>2019-04-12T13:16:27Z</time>
      </trkpt>
      <trkpt lat="48.13842" lon="7.15203">
        <ele>614</ele>
        <time>2019-04-12T13:17:27Z</time>
      </trkpt>
      <trkpt lat="48.13827" lon="7.15173">
        <ele>619</ele>
        <time>2019-04-12T13:18:27Z</time>
      </trkpt>
      <trkpt lat="48.13818" lon="7.15153">
        <ele>622</ele>
        <time>2019-04-12T13:19:27Z</time>
      </trkpt>
      <trkpt lat="48.13802" lon="7.15125">
        <ele>628</ele>
        <time>2019-04-12T13:20:27Z</time>
      </trkpt>
      <trkpt lat="48.13789" lon="7.15106">
        <ele>631</ele>
        <time>2019-04-12T13:21:27Z</time>
      </trkpt>
      <trkpt lat="48.13779" lon="7.15095">
        <ele>634</ele>
        <time>2019-04-12T13:22:27Z</time>
      </trkpt>
      <trkpt lat="48.13766" lon="7.15082">
        <ele>637</ele>
        <time>2019-04-12T13:23:27Z</time>
      </trkpt>
      <trkpt lat="48.13748" lon="7.15067">
        <ele>640</ele>
        <time>2019-04-12T13:24:27Z</time>
      </trkpt>
      <trkpt lat="48.13748" lon="7.15067">
        <ele>640</ele>
        <time>2019-04-12T13:25:27Z</time>
      </trkpt>
      <trkpt lat="48.13747" lon="7.15062">
        <ele>640</ele>
        <time>2019-04-12T13:26:27Z</time>
      </trkpt>
      <trkpt lat="48.13745" lon="7.15055">
        <ele>641</ele>
        <time>2019-04-12T13:27:27Z</time>
      </trkpt>
      <trkpt lat="48.13735" lon="7.15034">
        <ele>643</ele>
        <time>2019-04-12T13:28:27Z</time>
      </trkpt>
      <trkpt lat="48.13725" lon="7.15008">
        <ele>644</ele>
        <time>2019-04-12T13:29:27Z</time>
      </trkpt>
      <trkpt lat="48.1372" lon="7.1499">
        <ele>644</ele>
        <time>2019-04-12T13:30:27Z</time>
      </trkpt>
      <trkpt lat="48.13717" lon="7.14981">
        <ele>644</ele>
        <time>2019-04-12T13:31:27Z</time>
      </trkpt>
      <trkpt lat="48.1371" lon="7.14971">
        <ele>644</ele>
        <time>2019-04-12T13:32:27Z</time>
      </trkpt>
      <trkpt lat="48.13702" lon="7.14956">
        <ele>643</ele>
        <time>2019-04-12T13:33:27Z</time>
      </trkpt>
      <trkpt lat="48.13688" lon="7.1493">
        <ele>641</ele>
        <time>2019-04-12T13:34:27Z</time>
      </trkpt>
      <trkpt lat="48.13679" lon="7.14917">
        <ele>640</ele>
        <time>2019-04-12T13:35:27Z</time>
      </trkpt>
      <trkpt lat="48.13674" lon="7.14911">
        <ele>639</ele>
        <time>2019-04-12T13:36:27Z</time>
      </trkpt>
      <trkpt lat="48.13659" lon="7.14904">
        <ele>638</ele>
        <time>2019-04-12T13:37:27Z</time>
      </trkpt>
      <trkpt lat="48.13642" lon="7.14895">
        <ele>638</ele>
        <time>2019-04-12T13:38:27Z</time>
      </trkpt>
      <trkpt lat="48.13632" lon="7.14882">
        <ele>636</ele>
        <time>2019-04-12T13:39:27Z</time>
      </trkpt>
      <trkpt lat="48.1363" lon="7.14875">
        <ele>635</ele>
        <time>2019-04-12T13:40:27Z</time>
      </trkpt>
      <trkpt lat="48.13631" lon="7.14869">
        <ele>635</ele>
        <time>2019-04-12T13:41:27Z</time>
      </trkpt>
      <trkpt lat="48.13633" lon="7.14866">
        <ele>634</ele>
        <time>2019-04-12T13:42:27Z</time>
      </trkpt>
      <trkpt lat="48.13642" lon="7.14856">
        <ele>634</ele>
        <time>2019-04-12T13:43:27Z</time>
      </trkpt>
      <trkpt lat="48.13652" lon="7.14844">
        <ele>633</ele>
        <time>2019-04-12T13:44:27Z</time>
      </trkpt>
      <trkpt lat="48.13655" lon="7.14837">
        <ele>633</ele>
        <time>2019-04-12T13:45:27Z</time>
      </trkpt>
      <trkpt lat="48.13657" lon="7.14828">
        <ele>633</ele>
        <time>2019-04-12T13:46:27Z</time>
      </trkpt>
      <trkpt lat="48.13655" lon="7.14812">
        <ele>632</ele>
        <time>2019-04-12T13:47:27Z</time>
      </trkpt>
      <trkpt lat="48.13652" lon="7.14805">
        <ele>632</ele>
        <time>2019-04-12T13:48:27Z</time>
      </trkpt>
      <trkpt lat="48.13648" lon="7.14802">
        <ele>631</ele>
        <time>2019-04-12T13:49:27Z</time>
      </trkpt>
      <trkpt lat="48.13642" lon="7.14803">
        <ele>630</ele>
        <time>2019-04-12T13:50:27Z</time>
      </trkpt>
      <trkpt lat="48.13628" lon="7.14805">
        <ele>628</ele>
        <time>2019-04-12T13:51:27Z</time>
      </trkpt>
      <trkpt lat="48.13614" lon="7.14806">
        <ele>626</ele>
        <time>2019-04-12T13:52:27Z</time>
      </trkpt>
      <trkpt lat="48.13608" lon="7.14803">
        <ele>625</ele>
        <time>2019-04-12T13:53:27Z</time>
      </trkpt>
      <trkpt lat="48.13602" lon="7.14799">
        <ele>623</ele>
        <time>2019-04-12T13:54:27Z</time>
      </trkpt>
      <trkpt lat="48.13581" lon="7.14779">
        <ele>617</ele>
        <time>2019-04-12T13:55:27Z</time>
      </trkpt>
      <trkpt lat="48.13559" lon="7.14763">
        <ele>614</ele>
        <time>2019-04-12T13:56:27Z</time>
      </trkpt>
      <trkpt lat="48.1353" lon="7.14741">
        <ele>610</ele>
        <time>2019-04-12T13:57:27Z</time>
      </trkpt>
      <trkpt lat="48.13507" lon="7.14725">
        <ele>606</ele>
        <time>2019-04-12T13:58:27Z</time>
      </trkpt>
      <trkpt lat="48.1348" lon="7.14707">
        <ele>603</ele>
        <time>2019-04-12T13:59:27Z</time>
      </trkpt>
      <trkpt lat="48.13469" lon="7.14702">
        <ele>601</ele>
        <time>2019-04-12T14:00:27Z</time>
      </trkpt>
      <trkpt lat="48.13461" lon="7.14699">
        <ele>601</ele>
        <time>2019-04-12T14:01:27Z</time>
      </trkpt>
      <trkpt lat="48.13448" lon="7.14696">
        <ele>600</ele>
        <time>2019-04-12T14:02:27Z</time>
      </trkpt>
      <trkpt lat="48.13443" lon="7.1469">
        <ele>598</ele>
        <time>2019-04-12T14:03:27Z</time>
      </trkpt>
      <trkpt lat="48.13441" lon="7.1468">
        <ele>596</ele>
        <time>2019-04-12T14:04:27Z</time>
      </trkpt>
      <trkpt lat="48.13441" lon="7.1468">
        <ele>596</ele>
        <time>2019-04-12T14:05:27Z</time>
      </trkpt>
      <trkpt lat="48.13443" lon="7.14665">
        <ele>592</ele>
        <time>2019-04-12T14:06:27Z</time>
      </trkpt>
      <trkpt lat="48.1345" lon="7.14648">
        <ele>592</ele>
        <time>2019-04-12T14:07:27Z</time>
      </trkpt>
      <trkpt lat="48.13458" lon="7.14627">
        <ele>592</ele>
        <time>2019-04-12T14:08:27Z</time>
      </trkpt>
      <trkpt lat="48.13461" lon="7.14617">
        <ele>592</ele>
        <time>2019-04-12T14:09:27Z</time>
      </trkpt>
      <trkpt lat="48.13462" lon="7.14607">
        <ele>592</ele>
        <time>2019-04-12T14:10:27Z</time>
      </trkpt>
      <trkpt lat="48.1346" lon="7.14599">
        <ele>591</ele>
        <time>2019-04-12T14:11:27Z</time>
      </trkpt>
      <trkpt lat="48.13454" lon="7.14579">
        <ele>590</ele>
        <time>2019-04-12T14:12:27Z</time>
      </trkpt>
      <trkpt lat="48.13446" lon="7.14563">
        <ele>590</ele>
        <time>2019-04-12T14:13:27Z</time>
      </trkpt>
      <trkpt lat="48.13439" lon="7.14553">
        <ele>589</ele>
        <time>2019-04-12T14:14:27Z</time>
      </trkpt>
      <trkpt lat="48.13434" lon="7.14537">
        <ele>589</ele>
        <time>2019-04-12T14:15:27Z</time>
      </trkpt>
      <trkpt lat="48.13432" lon="7.14529">
        <ele>589</ele>
        <time>2019-04-12T14:16:27Z</time>
      </trkpt>
      <trkpt lat="48.13432" lon="7.14516">
        <ele>589</ele>
        <time>2019-04-12T14:17:27Z</time>
      </trkpt>
      <trkpt lat="48.13432" lon="7.14516">
        <ele>589</ele>
        <time>2019-04-12T14:18:27Z</time>
      </trkpt>
      <trkpt lat="48.13422" lon="7.14508">
        <ele>588</ele>
        <time>2019-04-12T14:19:27Z</time>
      </trkpt>
      <trkpt lat="48.13416" lon="7.14504">
        <ele>587</ele>
        <time>2019-04-12T14:20:27Z</time>
      </trkpt>
      <trkpt lat="48.13407" lon="7.14502">
        <ele>586</ele>
        <time>2019-04-12T14:21:27Z</time>
      </trkpt>
      <trkpt lat="48.13393" lon="7.14498">
        <ele>585</ele>
        <time>2019-04-12T14:22:27Z</time>
      </trkpt>
      <trkpt lat="48.13393" lon="7.14498">
        <ele>585</ele>
        <time>2019-04-12T14:23:27Z</time>
      </trkpt>
      <trkpt lat="48.13375" lon="7.14509">
        <ele>583</ele>
        <time>2019-04-12T14:24:27Z</time>
      </trkpt>
      <trkpt lat="48.13356" lon="7.14524">
        <ele>580</ele>
        <time>2019-04-12T14:25:27Z</time>
      </trkpt>
      <trkpt lat="48.13335" lon="7.14539">
        <ele>577</ele>
        <time>2019-04-12T14:26:27Z</time>
      </trkpt>
      <trkpt lat="48.13323" lon="7.1455">
        <ele>576</ele>
        <time>2019-04-12T14:27:27Z</time>
      </trkpt>
      <trkpt lat="48.13296" lon="7.14572">
        <ele>573</ele>
        <time>2019-04-12T14:28:27Z</time>
      </trkpt>
      <trkpt lat="48.13272" lon="7.14589">
        <ele>571</ele>
        <time>2019-04-12T14:29:27Z</time>
      </trkpt>
      <trkpt lat="48.1325" lon="7.14606">
        <ele>570</ele>
        <time>2019-04-12T14:30:27Z</time>
      </trkpt>
      <trkpt lat="48.13232" lon="7.14617">
        <ele>569</ele>
        <time>2019-04-12T14:31:27Z</time>
      </trkpt>
      <trkpt lat="48.13203" lon="7.1463">
        <ele>567</ele>
        <time>2019-04-12T14:32:27Z</time>
      </trkpt>
      <trkpt lat="48.13191" lon="7.14636">
        <ele>566</ele>
        <time>2019-04-12T14:33:27Z</time>
      </trkpt>
      <trkpt lat="48.13158" lon="7.14655">
        <ele>563</ele>
        <time>2019-04-12T14:34:27Z</time>
      </trkpt>
      <trkpt lat="48.13112" lon="7.14683">
        <ele>563</ele>
        <time>2019-04-12T14:35:27Z</time>
      </trkpt>
      <trkpt lat="48.13082" lon="7.14699">
        <ele>562</ele>
        <time>2019-04-12T14:36:27Z</time>
      </trkpt>
      <trkpt lat="48.13059" lon="7.14714">
        <ele>566</ele>
        <time>2019-04-12T14:37:27Z</time>
      </trkpt>
      <trkpt lat="48.13045" lon="7.14724">
        <ele>567</ele>
        <time>2019-04-12T14:38:27Z</time>
      </trkpt>
      <trkpt lat="48.13024" lon="7.14742">
        <ele>568</ele>
        <time>2019-04-12T14:39:27Z</time>
      </trkpt>
      <trkpt lat="48.13" lon="7.14763">
        <ele>568</ele>
        <time>2019-04-12T14:40:27Z</time>
      </trkpt>
      <trkpt lat="48.12983" lon="7.14777">
        <ele>566</ele>
        <time>2019-04-12T14:41:27Z</time>
      </trkpt>
      <trkpt lat="48.12983" lon="7.14777">
        <ele>566</ele>
        <time>2019-04-12T14:42:27Z</time>
      </trkpt>
      <trkpt lat="48.12958" lon="7.14804">
        <ele>561</ele>
        <time>2019-04-12T14:43:27Z</time>
      </trkpt>
      <trkpt lat="48.12934" lon="7.14827">
        <ele>553</ele>
        <time>2019-04-12T14:44:27Z</time>
      </trkpt>
      <trkpt lat="48.12913" lon="7.14847">
        <ele>547</ele>
        <time>2019-04-12T14:45:27Z</time>
      </trkpt>
      <trkpt lat="48.12898" lon="7.14861">
        <ele>545</ele>
        <time>2019-04-12T14:46:27Z</time>
      </trkpt>
      <trkpt lat="48.12886" lon="7.14873">
        <ele>542</ele>
        <time>2019-04-12T14:47:27Z</time>
      </trkpt>
      <trkpt lat="48.12872" lon="7.14892">
        <ele>539</ele>
        <time>2019-04-12T14:48:27Z</time>
      </trkpt>
      <trkpt lat="48.12858" lon="7.14912">
        <ele>535</ele>
        <time>2019-04-12T14:49:27Z</time>
      </trkpt>
      <trkpt lat="48.12845" lon="7.14938">
        <ele>533</ele>
        <time>2019-04-12T14:50:27Z</time>
      </trkpt>
      <trkpt lat="48.12833" lon="7.14961">
        <ele>531</ele>
        <time>2019-04-12T14:51:27Z</time>
      </trkpt>
      <trkpt lat="48.12823" lon="7.14981">
        <ele>531</ele>
        <time>2019-04-12T14:52:27Z</time>
      </trkpt>
      <trkpt lat="48.12814" lon="7.14998">
        <ele>531</ele>
        <time>2019-04-12T14:53:27Z</time>
      </trkpt>
      <trkpt lat="48.12803" lon="7.15009">
        <ele>530</ele>
        <time>2019-04-12T14:54:27Z</time>
      </trkpt>
      <trkpt lat="48.12792" lon="7.15019">
        <ele>529</ele>
        <time>2019-04-12T14:55:27Z</time>
      </trkpt>
      <trkpt lat="48.12784" lon="7.15024">
        <ele>529</ele>
        <time>2019-04-12T14:56:27Z</time>
      </trkpt>
      <trkpt lat="48.12779" lon="7.1503">
        <ele>529</ele>
        <time>2019-04-12T14:57:27Z</time>
      </trkpt>
      <trkpt lat="48.12776" lon="7.15044">
        <ele>528</ele>
        <time>2019-04-12T14:58:27Z</time>
      </trkpt>
      <trkpt lat="48.12772" lon="7.15065">
        <ele>527</ele>
        <time>2019-04-12T14:59:27Z</time>
      </trkpt>
      <trkpt lat="48.1277" lon="7.15077">
        <ele>526</ele>
        <time>2019-04-12T15:00:27Z</time>
      </trkpt>
      <trkpt lat="48.12763" lon="7.15088">
        <ele>526</ele>
        <time>2019-04-12T15:01:27Z</time>
      </trkpt>
      <trkpt lat="48.12751" lon="7.15107">
        <ele>524</ele>
        <time>2019-04-12T15:02:27Z</time>
      </trkpt>
      <trkpt lat="48.12738" lon="7.15124">
        <ele>524</ele>
        <time>2019-04-12T15:03:27Z</time>
      </trkpt>
      <trkpt lat="48.12731" lon="7.15133">
        <ele>523</ele>
        <time>2019-04-12T15:04:27Z</time>
      </trkpt>
      <trkpt lat="48.12719" lon="7.15158">
        <ele>521</ele>
        <time>2019-04-12T15:05:27Z</time>
      </trkpt>
      <trkpt lat="48.12719" lon="7.15158">
        <ele>521</ele>
        <time>2019-04-12T15:06:27Z</time>
      </trkpt>
      <trkpt lat="48.12713" lon="7.15144">
        <ele>522</ele>
        <time>2019-04-12T15:07:27Z</time>
      </trkpt>
      <trkpt lat="48.12708" lon="7.15136">
        <ele>523</ele>
        <time>2019-04-12T15:08:27Z</time>
      </trkpt>
      <trkpt lat="48.12704" lon="7.15134">
        <ele>523</ele>
        <time>2019-04-12T15:09:27Z</time>
      </trkpt>
      <trkpt lat="48.12697" lon="7.15136">
        <ele>523</ele>
        <time>2019-04-12T15:10:27Z</time>
      </trkpt>
      <trkpt lat="48.12682" lon="7.15143">
        <ele>522</ele>
        <time>2019-04-12T15:11:27Z</time>
      </trkpt>
      <trkpt lat="48.12669" lon="7.15151">
        <ele>521</ele>
        <time>2019-04-12T15:12:27Z</time>
      </trkpt>
      <trkpt lat="48.12653" lon="7.15158">
        <ele>521</ele>
        <time>2019-04-12T15:13:27Z</time>
      </trkpt>
      <trkpt lat="48.12639" lon="7.15164">
        <ele>521</ele>
        <time>2019-04-12T15:14:27Z</time>
      </trkpt>
      <trkpt lat="48.12617" lon="7.15175">
        <ele>521</ele>
        <time>2019-04-12T15:15:27Z</time>
      </trkpt>
      <trkpt lat="48.12595" lon="7.1519">
        <ele>520</ele>
        <time>2019-04-12T15:16:27Z</time>
      </trkpt>
      <trkpt lat="48.12579" lon="7.15203">
        <ele>520</ele>
        <time>2019-04-12T15:17:27Z</time>
      </trkpt>
      <trkpt lat="48.12571" lon="7.15208">
        <ele>519</ele>
        <time>2019-04-12T15:18:27Z</time>
      </trkpt>
      <trkpt lat="48.12561" lon="7.15213">
        <ele>519</ele>
        <time>2019-04-12T15:19:27Z</time>
      </trkpt>
      <trkpt lat="48.1255" lon="7.15213">
        <ele>519</ele>
        <time>2019-04-12T15:20:27Z</time>
      </trkpt>
      <trkpt lat="48.1254" lon="7.15212">
        <ele>519</ele>
        <time>2019-04-12T15:21:27Z</time>
      </trkpt>
      <trkpt lat="48.12523" lon="7.15205">
        <ele>520</ele>
        <time>2019-04-12T15:22:27Z</time>
      </trkpt>
      <trkpt lat="48.12515" lon="7.15199">
        <ele>520</ele>
        <time>2019-04-12T15:23:27Z</time>
      </trkpt>
      <trkpt lat="48.125" lon="7.15188">
        <ele>521</ele>
        <time>2019-04-12T15:24:27Z</time>
      </trkpt>
      <trkpt lat="48.12495" lon="7.15182">
        <ele>521</ele>
        <time>2019-04-12T15:25:27Z</time>
      </trkpt>
      <trkpt lat="48.12492" lon="7.15169">
        <ele>522</ele>
        <time>2019-04-12T15:26:27Z</time>
      </trkpt>
      <trkpt lat="48.12486" lon="7.15144">
        <ele>523</ele>
        <time>2019-04-12T15:27:27Z</time>
      </trkpt>
      <trkpt lat="48.12483" lon="7.15134">
        <ele>523</ele>
        <time>2019-04-12T15:28:27Z</time>
      </trkpt>
      <trkpt lat="48.12478" lon="7.15125">
        <ele>523</ele>
        <time>2019-04-12T15:29:27Z</time>
      </trkpt>
      <trkpt lat="48.12465" lon="7.15112">
        <ele>523</ele>
        <time>2019-04-12T15:30:27Z</time>
      </trkpt>
      <trkpt lat="48.12453" lon="7.15099">
        <ele>522</ele>
        <time>2019-04-12T15:31:27Z</time>
      </trkpt>
      <trkpt lat="48.12446" lon="7.15098">
        <ele>522</ele>
        <time>2019-04-12T15:32:27Z</time>
      </trkpt>
      <trkpt lat="48.12435" lon="7.15098">
        <ele>521</ele>
        <time>2019-04-12T15:33:27Z</time>
      </trkpt>
      <trkpt lat="48.12417" lon="7.15101">
        <ele>520</ele>
        <time>2019-04-12T15:34:27Z</time>
      </trkpt>
      <trkpt lat="48.12408" lon="7.15121">
        <ele>519</ele>
        <time>2019-04-12T15:35:27Z</time>
      </trkpt>
      <trkpt lat="48.12397" lon="7.15145">
        <ele>519</ele>
        <time>2019-04-12T15:36:27Z</time>
      </trkpt>
      <trkpt lat="48.12375" lon="7.15191">
        <ele>517</ele>
        <time>2019-04-12T15:37:27Z</time>
      </trkpt>
      <trkpt lat="48.12359" lon="7.15236">
        <ele>515</ele>
        <time>2019-04-12T15:38:27Z</time>
      </trkpt>
      <trkpt lat="48.12347" lon="7.1527">
        <ele>514</ele>
        <time>2019-04-12T15:39:27Z</time>
      </trkpt>
      <trkpt lat="48.12347" lon="7.1527">
        <ele>514</ele>
        <time>2019-04-12T15:40:27Z</time>
      </trkpt>
      <trkpt lat="48.12336" lon="7.15262">
        <ele>514</ele>
        <time>2019-04-12T15:41:27Z</time>
      </trkpt>
      <trkpt lat="48.1233" lon="7.15255">
        <ele>514</ele>
        <time>2019-04-12T15:42:27Z</time>
      </trkpt>
      <trkpt lat="48.12329" lon="7.15255">
        <ele>514</ele>
        <time>2019-04-12T15:43:27Z</time>
      </trkpt>
      <trkpt lat="48.1232" lon="7.15242">
        <ele>515</ele>
        <time>2019-04-12T15:44:27Z</time>
      </trkpt>
      <trkpt lat="48.12306" lon="7.15219">
        <ele>517</ele>
        <time>2019-04-12T15:45:27Z</time>
      </trkpt>
      <trkpt lat="48.123" lon="7.15207">
        <ele>517</ele>
        <time>2019-04-12T15:46:27Z</time>
      </trkpt>
      <trkpt lat="48.12289" lon="7.15187">
        <ele>518</ele>
        <time>2019-04-12T15:47:27Z</time>
      </trkpt>
      <trkpt lat="48.12267" lon="7.15146">
        <ele>519</ele>
        <time>2019-04-12T15:48:27Z</time>
      </trkpt>
      <trkpt lat="48.12239" lon="7.15097">
        <ele>522</ele>
        <time>2019-04-12T15:49:27Z</time>
      </trkpt>
      <trkpt lat="48.12234" lon="7.15087">
        <ele>522</ele>
        <time>2019-04-12T15:50:27Z</time>
      </trkpt>
      <trkpt lat="48.12215" lon="7.15053">
        <ele>524</ele>
        <time>2019-04-12T15:51:27Z</time>
      </trkpt>
      <trkpt lat="48.12192" lon="7.15012">
        <ele>526</ele>
        <time>2019-04-12T15:52:27Z</time>
      </trkpt>
      <trkpt lat="48.12174" lon="7.14981">
        <ele>528</ele>
        <time>2019-04-12T15:53:27Z</time>
      </trkpt>
      <trkpt lat="48.12157" lon="7.1495">
        <ele>530</ele>
        <time>2019-04-12T15:54:27Z</time>
      </trkpt>
      <trkpt lat="48.12137" lon="7.14914">
        <ele>533</ele>
        <time>2019-04-12T15:55:27Z</time>
      </trkpt>
      <trkpt lat="48.12117" lon="7.14879">
        <ele>534</ele>
        <time>2019-04-12T15:56:27Z</time>
      </trkpt>
      <trkpt lat="48.12105" lon="7.14855">
        <ele>535</ele>
        <time>2019-04-12T15:57:27Z</time>
      </trkpt>
      <trkpt lat="48.12074" lon="7.14797">
        <ele>540</ele>
        <time>2019-04-12T15:58:27Z</time>
      </trkpt>
      <trkpt lat="48.12066" lon="7.14781">
        <ele>541</ele>
        <time>2019-04-12T15:59:27Z</time>
      </trkpt>
      <trkpt lat="48.12061" lon="7.14766">
        <ele>542</ele>
        <time>2019-04-12T16:00:27Z</time>
      </trkpt>
      <trkpt lat="48.12054" lon="7.14749">
        <ele>542</ele>
        <time>2019-04-12T16:01:27Z</time>
      </trkpt>
      <trkpt lat="48.12049" lon="7.14734">
        <ele>543</ele>
        <time>2019-04-12T16:02:27Z</time>
      </trkpt>
      <trkpt lat="48.12043" lon="7.14723">
        <ele>543</ele>
        <time>2019-04-12T16:03:27Z</time>
      </trkpt>
      <trkpt lat="48.12033" lon="7.14703">
        <ele>544</ele>
        <time>2019-04-12T16:04:27Z</time>
      </trkpt>
      <trkpt lat="48.12024" lon="7.14686">
        <ele>544</ele>
        <time>2019-04-12T16:05:27Z</time>
      </trkpt>
      <trkpt lat="48.12012" lon="7.14665">
        <ele>544</ele>
        <time>2019-04-12T16:06:27Z</time>
      </trkpt>
      <trkpt lat="48.12002" lon="7.1465">
        <ele>544</ele>
        <time>2019-04-12T16:07:27Z</time>
      </trkpt>
      <trkpt lat="48.11975" lon="7.14596">
        <ele>550</ele>
        <time>2019-04-12T16:08:27Z</time>
      </trkpt>
      <trkpt lat="48.11961" lon="7.1457">
        <ele>551</ele>
        <time>2019-04-12T16:09:27Z</time>
      </trkpt>
      <trkpt lat="48.11955" lon="7.14562">
        <ele>551</ele>
        <time>2019-04-12T16:10:27Z</time>
      </trkpt>
      <trkpt lat="48.1195" lon="7.14556">
        <ele>552</ele>
        <time>2019-04-12T16:11:27Z</time>
      </trkpt>
      <trkpt lat="48.11941" lon="7.14548">
        <ele>552</ele>
        <time>2019-04-12T16:12:27Z</time>
      </trkpt>
      <trkpt lat="48.1191" lon="7.14527">
        <ele>554</ele>
        <time>2019-04-12T16:13:27Z</time>
      </trkpt>
      <trkpt lat="48.11875" lon="7.14499">
        <ele>555</ele>
        <time>2019-04-12T16:14:27Z</time>
      </trkpt>
      <trkpt lat="48.11851" lon="7.14475">
        <ele>557</ele>
        <time>2019-04-12T16:15:27Z</time>
      </trkpt>
      <trkpt lat="48.11837" lon="7.14455">
        <ele>557</ele>
        <time>2019-04-12T16:16:27Z</time>
      </trkpt>
      <trkpt lat="48.11822" lon="7.14425">
        <ele>558</ele>
        <time>2019-04-12T16:17:27Z</time>
      </trkpt>
      <trkpt lat="48.1181" lon="7.14392">
        <ele>560</ele>
        <time>2019-04-12T16:18:27Z</time>
      </trkpt>
      <trkpt lat="48.11806" lon="7.14377">
        <ele>560</ele>
        <time>2019-04-12T16:19:27Z</time>
      </trkpt>
      <trkpt lat="48.11803" lon="7.14363">
        <ele>561</ele>
        <time>2019-04-12T16:20:27Z</time>
      </trkpt>
      <trkpt lat="48.11802" lon="7.14354">
        <ele>561</ele>
        <time>2019-04-12T16:21:27Z</time>
      </trkpt>
      <trkpt lat="48.11802" lon="7.14354">
        <ele>561</ele>
        <time>2019-04-12T16:22:27Z</time>
      </trkpt>
      <trkpt lat="48.118" lon="7.14338">
        <ele>562</ele>
        <time>2019-04-12T16:23:27Z</time>
      </trkpt>
      <trkpt lat="48.118" lon="7.14326">
        <ele>562</ele>
        <time>2019-04-12T16:24:27Z</time>
      </trkpt>
      <trkpt lat="48.11794" lon="7.14329">
        <ele>562</ele>
        <time>2019-04-12T16:25:27Z</time>
      </trkpt>
      <trkpt lat="48.1179" lon="7.14332">
        <ele>562</ele>
        <time>2019-04-12T16:26:27Z</time>
      </trkpt>
      <trkpt lat="48.11784" lon="7.14337">
        <ele>562</ele>
        <time>2019-04-12T16:27:27Z</time>
      </trkpt>
      <trkpt lat="48.11765" lon="7.14351">
        <ele>562</ele>
        <time>2019-04-12T16:28:27Z</time>
      </trkpt>
      <trkpt lat="48.11754" lon="7.14353">
        <ele>562</ele>
        <time>2019-04-12T16:29:27Z</time>
      </trkpt>
      <trkpt lat="48.1175" lon="7.14355">
        <ele>562</ele>
        <time>2019-04-12T16:30:27Z</time>
      </trkpt>
      <trkpt lat="48.11714" lon="7.14371">
        <ele>564</ele>
        <time>2019-04-12T16:31:27Z</time>
      </trkpt>
      <trkpt lat="48.11673" lon="7.14388">
        <ele>564</ele>
        <time>2019-04-12T16:32:27Z</time>
      </trkpt>
      <trkpt lat="48.11645" lon="7.14397">
        <ele>566</ele>
        <time>2019-04-12T16:33:27Z</time>
      </trkpt>
      <trkpt lat="48.1161" lon="7.14411">
        <ele>567</ele>
        <time>2019-04-12T16:34:27Z</time>
      </trkpt>
      <trkpt lat="48.11598" lon="7.14413">
        <ele>568</ele>
        <time>2019-04-12T16:35:27Z</time>
      </trkpt>
      <trkpt lat="48.11583" lon="7.14412">
        <ele>569</ele>
        <time>2019-04-12T16:36:27Z</time>
      </trkpt>
      <trkpt lat="48.11558" lon="7.144">
        <ele>571</ele>
        <time>2019-04-12T16:37:27Z</time>
      </trkpt>
      <trkpt lat="48.11546" lon="7.14392">
        <ele>573</ele>
        <time>2019-04-12T16:38:27Z</time>
      </trkpt>
      <trkpt lat="48.1153" lon="7.14384">
        <ele>574</ele>
        <time>2019-04-12T16:39:27Z</time>
      </trkpt>
      <trkpt lat="48.11509" lon="7.14382">
        <ele>575</ele>
        <time>2019-04-12T16:40:27Z</time>
      </trkpt>
      <trkpt lat="48.11498" lon="7.14382">
        <ele>576</ele>
        <time>2019-04-12T16:41:27Z</time>
      </trkpt>
      <trkpt lat="48.11483" lon="7.14391">
        <ele>576</ele>
        <time>2019-04-12T16:42:27Z</time>
      </trkpt>
      <trkpt lat="48.1147" lon="7.14399">
        <ele>577</ele>
        <time>2019-04-12T16:43:27Z</time>
      </trkpt>
      <trkpt lat="48.11459" lon="7.14408">
        <ele>576</ele>
        <time>2019-04-12T16:44:27Z</time>
      </trkpt>
      <trkpt lat="48.11441" lon="7.14419">
        <ele>577</ele>
        <time>2019-04-12T16:45:27Z</time>
      </trkpt>
      <trkpt lat="48.11421" lon="7.14434">
        <ele>577</ele>
        <time>2019-04-12T16:46:27Z</time>
      </trkpt>
      <trkpt lat="48.11418" lon="7.14434">
        <ele>577</ele>
        <time>2019-04-12T16:47:27Z</time>
      </trkpt>
      <trkpt lat="48.11406" lon="7.14437">
        <ele>577</ele>
        <time>2019-04-12T16:48:27Z</time>
      </trkpt>
      <trkpt lat="48.11396" lon="7.14438">
        <ele>577</ele>
        <time>2019-04-12T16:49:27Z</time>
      </trkpt>
      <trkpt lat="48.11379" lon="7.14436">
        <ele>578</ele>
        <time>2019-04-12T16:50:27Z</time>
      </trkpt>
      <trkpt lat="48.11343" lon="7.14422">
        <ele>579</ele>
        <time>2019-04-12T16:51:27Z</time>
      </trkpt>
      <trkpt lat="48.11293" lon="7.14405">
        <ele>582</ele>
        <time>2019-04-12T16:52:27Z</time>
      </trkpt>
      <trkpt lat="48.11264" lon="7.14396">
        <ele>584</ele>
        <time>2019-04-12T16:53:27Z</time>
      </trkpt>
      <trkpt lat="48.11245" lon="7.14392">
        <ele>585</ele>
        <time>2019-04-12T16:54:27Z</time>
      </trkpt>
      <trkpt lat="48.11226" lon="7.14392">
        <ele>586</ele>
        <time>2019-04-12T16:55:27Z</time>
      </trkpt>
      <trkpt lat="48.11182" lon="7.14396">
        <ele>587</ele>
        <time>2019-04-12T16:56:27Z</time>
      </trkpt>
      <trkpt lat="48.11137" lon="7.14396">
        <ele>587</ele>
        <time>2019-04-12T16:57:27Z</time>
      </trkpt>
      <trkpt lat="48.11109" lon="7.14397">
        <ele>586</ele>
        <time>2019-04-12T16:58:27Z</time>
      </trkpt>
      <trkpt lat="48.1109" lon="7.14405">
        <ele>585</ele>
        <time>2019-04-12T16:59:27Z</time>
      </trkpt>
      <trkpt lat="48.11058" lon="7.1442">
        <ele>585</ele>
        <time>2019-04-12T17:00:27Z</time>
      </trkpt>
      <trkpt lat="48.11058" lon="7.1442">
        <ele>585</ele>
        <time>2019-04-12T17:01:27Z</time>
      </trkpt>
      <trkpt lat="48.11047" lon="7.14412">
        <ele>586</ele>
        <time>2019-04-12T17:02:27Z</time>
      </trkpt>
      <trkpt lat="48.11029" lon="7.14408">
        <ele>588</ele>
        <time>2019-04-12T17:03:27Z</time>
      </trkpt>
      <trkpt lat="48.11002" lon="7.14399">
        <ele>592</ele>
        <time>2019-04-12T17:04:27Z</time>
      </trkpt>
      <trkpt lat="48.11002" lon="7.14399">
        <ele>592</ele>
        <time>2019-04-12T17:05:27Z</time>
      </trkpt>
      <trkpt lat="48.11003" lon="7.14386">
        <ele>594</ele>
        <time>2019-04-12T17:06:27Z</time>
      </trkpt>
      <trkpt lat="48.11007" lon="7.1438">
        <ele>594</ele>
        <time>2019-04-12T17:07:27Z</time>
      </trkpt>
      <trkpt lat="48.11018" lon="7.14371">
        <ele>595</ele>
        <time>2019-04-12T17:08:27Z</time>
      </trkpt>
      <trkpt lat="48.11031" lon="7.14359">
        <ele>596</ele>
        <time>2019-04-12T17:09:27Z</time>
      </trkpt>
      <trkpt lat="48.1104" lon="7.14347">
        <ele>597</ele>
        <time>2019-04-12T17:10:27Z</time>
      </trkpt>
      <trkpt lat="48.11045" lon="7.14333">
        <ele>599</ele>
        <time>2019-04-12T17:11:27Z</time>
      </trkpt>
      <trkpt lat="48.11047" lon="7.14324">
        <ele>600</ele>
        <time>2019-04-12T17:12:27Z</time>
      </trkpt>
      <trkpt lat="48.11044" lon="7.14313">
        <ele>602</ele>
        <time>2019-04-12T17:13:27Z</time>
      </trkpt>
      <trkpt lat="48.11039" lon="7.14311">
        <ele>602</ele>
        <time>2019-04-12T17:14:27Z</time>
      </trkpt>
      <trkpt lat="48.11031" lon="7.14313">
        <ele>602</ele>
        <time>2019-04-12T17:15:27Z</time>
      </trkpt>
      <trkpt lat="48.11029" lon="7.14311">
        <ele>603</ele>
        <time>2019-04-12T17:16:27Z</time>
      </trkpt>
      <trkpt lat="48.11031" lon="7.14289">
        <ele>606</ele>
        <time>2019-04-12T17:17:27Z</time>
      </trkpt>
      <trkpt lat="48.11033" lon="7.1428">
        <ele>607</ele>
        <time>2019-04-12T17:18:27Z</time>
      </trkpt>
      <trkpt lat="48.11035" lon="7.14274">
        <ele>607</ele>
        <time>2019-04-12T17:19:27Z</time>
      </trkpt>
      <trkpt lat="48.11045" lon="7.14262">
        <ele>609</ele>
        <time>2019-04-12T17:20:27Z</time>
      </trkpt>
      <trkpt lat="48.11058" lon="7.14251">
        <ele>610</ele>
        <time>2019-04-12T17:21:27Z</time>
      </trkpt>
      <trkpt lat="48.11067" lon="7.14236">
        <ele>612</ele>
        <time>2019-04-12T17:22:27Z</time>
      </trkpt>
      <trkpt lat="48.1108" lon="7.14214">
        <ele>616</ele>
        <time>2019-04-12T17:23:27Z</time>
      </trkpt>
      <trkpt lat="48.11086" lon="7.14201">
        <ele>618</ele>
        <time>2019-04-12T17:24:27Z</time>
      </trkpt>
      <trkpt lat="48.11087" lon="7.14193">
        <ele>619</ele>
        <time>2019-04-12T17:25:27Z</time>
      </trkpt>
      <trkpt lat="48.11083" lon="7.14187">
        <ele>620</ele>
        <time>2019-04-12T17:26:27Z</time>
      </trkpt>
      <trkpt lat="48.11074" lon="7.14186">
        <ele>620</ele>
        <time>2019-04-12T17:27:27Z</time>
      </trkpt>
      <trkpt lat="48.11065" lon="7.14183">
        <ele>621</ele>
        <time>2019-04-12T17:28:27Z</time>
      </trkpt>
      <trkpt lat="48.11057" lon="7.14181">
        <ele>622</ele>
        <time>2019-04-12T17:29:27Z</time>
      </trkpt>
      <trkpt lat="48.11045" lon="7.1418">
        <ele>622</ele>
        <time>2019-04-12T17:30:27Z</time>
      </trkpt>
      <trkpt lat="48.11036" lon="7.14182">
        <ele>622</ele>
        <time>2019-04-12T17:31:27Z</time>
      </trkpt>
      <trkpt lat="48.11025" lon="7.14189">
        <ele>621</ele>
        <time>2019-04-12T17:32:27Z</time>
      </trkpt>
      <trkpt lat="48.11022" lon="7.1419">
        <ele>621</ele>
        <time>2019-04-12T17:33:27Z</time>
      </trkpt>
      <trkpt lat="48.11013" lon="7.14188">
        <ele>622</ele>
        <time>2019-04-12T17:34:27Z</time>
      </trkpt>
      <trkpt lat="48.10998" lon="7.14188">
        <ele>622</ele>
        <time>2019-04-12T17:35:27Z</time>
      </trkpt>
      <trkpt lat="48.1099" lon="7.1419">
        <ele>623</ele>
        <time>2019-04-12T17:36:27Z</time>
      </trkpt>
      <trkpt lat="48.10985" lon="7.14188">
        <ele>624</ele>
        <time>2019-04-12T17:37:27Z</time>
      </trkpt>
      <trkpt lat="48.10983" lon="7.14186">
        <ele>624</ele>
        <time>2019-04-12T17:38:27Z</time>
      </trkpt>
      <trkpt lat="48.10984" lon="7.14181">
        <ele>625</ele>
        <time>2019-04-12T17:39:27Z</time>
      </trkpt>
      <trkpt lat="48.10992" lon="7.14169">
        <ele>626</ele>
        <time>2019-04-12T17:40:27Z</time>
      </trkpt>
      <trkpt lat="48.10995" lon="7.14162">
        <ele>628</ele>
        <time>2019-04-12T17:41:27Z</time>
      </trkpt>
      <trkpt lat="48.10995" lon="7.14162">
        <ele>628</ele>
        <time>2019-04-12T17:42:27Z</time>
      </trkpt>
      <trkpt lat="48.10986" lon="7.14158">
        <ele>630</ele>
        <time>2019-04-12T17:43:27Z</time>
      </trkpt>
      <trkpt lat="48.10975" lon="7.14158">
        <ele>631</ele>
        <time>2019-04-12T17:44:27Z</time>
      </trkpt>
      <trkpt lat="48.10963" lon="7.14157">
        <ele>632</ele>
        <time>2019-04-12T17:45:27Z</time>
      </trkpt>
      <trkpt lat="48.10957" lon="7.14156">
        <ele>632</ele>
        <time>2019-04-12T17:46:27Z</time>
      </trkpt>
      <trkpt lat="48.1095" lon="7.14158">
        <ele>633</ele>
        <time>2019-04-12T17:47:27Z</time>
      </trkpt>
      <trkpt lat="48.1094" lon="7.14157">
        <ele>634</ele>
        <time>2019-04-12T17:48:27Z</time>
      </trkpt>
      <trkpt lat="48.1094" lon="7.14157">
        <ele>634</ele>
        <time>2019-04-12T17:49:27Z</time>
      </trkpt>
      <trkpt lat="48.1093" lon="7.14152">
        <ele>636</ele>
        <time>2019-04-12T17:50:27Z</time>
      </trkpt>
      <trkpt lat="48.10923" lon="7.14147">
        <ele>637</ele>
        <time>2019-04-12T17:51:27Z</time>
      </trkpt>
      <trkpt lat="48.10918" lon="7.14146">
        <ele>638</ele>
        <time>2019-04-12T17:52:27Z</time>
      </trkpt>
      <trkpt lat="48.10899" lon="7.14142">
        <ele>639</ele>
        <time>2019-04-12T17:53:27Z</time>
      </trkpt>
      <trkpt lat="48.10879" lon="7.14136">
        <ele>640</ele>
        <time>2019-04-12T17:54:27Z</time>
      </trkpt>
      <trkpt lat="48.10862" lon="7.1413">
        <ele>640</ele>
        <time>2019-04-12T17:55:27Z</time>
      </trkpt>
      <trkpt lat="48.10848" lon="7.1412">
        <ele>642</ele>
        <time>2019-04-12T17:56:27Z</time>
      </trkpt>
      <trkpt lat="48.10831" lon="7.14108">
        <ele>644</ele>
        <time>2019-04-12T17:57:27Z</time>
      </trkpt>
      <trkpt lat="48.10809" lon="7.1409">
        <ele>645</ele>
        <time>2019-04-12T17:58:27Z</time>
      </trkpt>
      <trkpt lat="48.10797" lon="7.14079">
        <ele>646</ele>
        <time>2019-04-12T17:59:27Z</time>
      </trkpt>
      <trkpt lat="48.1079" lon="7.14078">
        <ele>645</ele>
        <time>2019-04-12T18:00:27Z</time>
      </trkpt>
      <trkpt lat="48.10772" lon="7.14074">
        <ele>644</ele>
        <time>2019-04-12T18:01:27Z</time>
      </trkpt>
      <trkpt lat="48.1075" lon="7.14067">
        <ele>642</ele>
        <time>2019-04-12T18:02:27Z</time>
      </trkpt>
      <trkpt lat="48.10731" lon="7.14065">
        <ele>638</ele>
        <time>2019-04-12T18:03:27Z</time>
      </trkpt>
      <trkpt lat="48.10726" lon="7.14064">
        <ele>637</ele>
        <time>2019-04-12T18:04:27Z</time>
      </trkpt>
      <trkpt lat="48.10718" lon="7.14055">
        <ele>636</ele>
        <time>2019-04-12T18:05:27Z</time>
      </trkpt>
      <trkpt lat="48.10715" lon="7.14056">
        <ele>635</ele>
        <time>2019-04-12T18:06:27Z</time>
      </trkpt>
      <trkpt lat="48.10712" lon="7.14055">
        <ele>634</ele>
        <time>2019-04-12T18:07:27Z</time>
      </trkpt>
      <trkpt lat="48.10707" lon="7.14051">
        <ele>634</ele>
        <time>2019-04-12T18:08:27Z</time>
      </trkpt>
      <trkpt lat="48.10695" lon="7.14037">
        <ele>632</ele>
        <time>2019-04-12T18:09:27Z</time>
      </trkpt>
      <trkpt lat="48.10687" lon="7.14024">
        <ele>632</ele>
        <time>2019-04-12T18:10:27Z</time>
      </trkpt>
      <trkpt lat="48.10681" lon="7.14014">
        <ele>631</ele>
        <time>2019-04-12T18:11:27Z</time>
      </trkpt>
      <trkpt lat="48.10674" lon="7.13995">
        <ele>631</ele>
        <time>2019-04-12T18:12:27Z</time>
      </trkpt>
      <trkpt lat="48.10668" lon="7.13977">
        <ele>632</ele>
        <time>2019-04-12T18:13:27Z</time>
      </trkpt>
      <trkpt lat="48.10661" lon="7.1396">
        <ele>633</ele>
        <time>2019-04-12T18:14:27Z</time>
      </trkpt>
      <trkpt lat="48.10652" lon="7.13944">
        <ele>634</ele>
        <time>2019-04-12T18:15:27Z</time>
      </trkpt>
      <trkpt lat="48.10645" lon="7.1394">
        <ele>634</ele>
        <time>2019-04-12T18:16:27Z</time>
      </trkpt>
      <trkpt lat="48.10636" lon="7.13939">
        <ele>634</ele>
        <time>2019-04-12T18:17:27Z</time>
      </trkpt>
      <trkpt lat="48.1063" lon="7.13943">
        <ele>633</ele>
        <time>2019-04-12T18:18:27Z</time>
      </trkpt>
      <trkpt lat="48.10626" lon="7.1395">
        <ele>632</ele>
        <time>2019-04-12T18:19:27Z</time>
      </trkpt>
      <trkpt lat="48.10618" lon="7.13955">
        <ele>630</ele>
        <time>2019-04-12T18:20:27Z</time>
      </trkpt>
      <trkpt lat="48.10609" lon="7.13959">
        <ele>629</ele>
        <time>2019-04-12T18:21:27Z</time>
      </trkpt>
      <trkpt lat="48.10596" lon="7.13964">
        <ele>627</ele>
        <time>2019-04-12T18:22:27Z</time>
      </trkpt>
      <trkpt lat="48.10584" lon="7.13966">
        <ele>626</ele>
        <time>2019-04-12T18:23:27Z</time>
      </trkpt>
      <trkpt lat="48.10575" lon="7.13965">
        <ele>625</ele>
        <time>2019-04-12T18:24:27Z</time>
      </trkpt>
      <trkpt lat="48.10568" lon="7.13962">
        <ele>626</ele>
        <time>2019-04-12T18:25:27Z</time>
      </trkpt>
      <trkpt lat="48.10558" lon="7.13952">
        <ele>627</ele>
        <time>2019-04-12T18:26:27Z</time>
      </trkpt>
      <trkpt lat="48.10546" lon="7.13943">
        <ele>627</ele>
        <time>2019-04-12T18:27:27Z</time>
      </trkpt>
      <trkpt lat="48.10531" lon="7.13934">
        <ele>627</ele>
        <time>2019-04-12T18:28:27Z</time>
      </trkpt>
      <trkpt lat="48.10523" lon="7.13934">
        <ele>626</ele>
        <time>2019-04-12T18:29:27Z</time>
      </trkpt>
      <trkpt lat="48.10518" lon="7.13937">
        <ele>625</ele>
        <time>2019-04-12T18:30:27Z</time>
      </trkpt>
      <trkpt lat="48.1051" lon="7.13951">
        <ele>624</ele>
        <time>2019-04-12T18:31:27Z</time>
      </trkpt>
      <trkpt lat="48.1051" lon="7.13951">
        <ele>624</ele>
        <time>2019-04-12T18:32:27Z</time>
      </trkpt>
      <trkpt lat="48.10501" lon="7.13942">
        <ele>624</ele>
        <time>2019-04-12T18:33:27Z</time>
      </trkpt>
      <trkpt lat="48.10484" lon="7.13925">
        <ele>625</ele>
        <time>2019-04-12T18:34:27Z</time>
      </trkpt>
      <trkpt lat="48.10473" lon="7.13916">
        <ele>626</ele>
        <time>2019-04-12T18:35:27Z</time>
      </trkpt>
      <trkpt lat="48.10454" lon="7.13905">
        <ele>629</ele>
        <time>2019-04-12T18:36:27Z</time>
      </trkpt>
      <trkpt lat="48.10431" lon="7.13894">
        <ele>632</ele>
        <time>2019-04-12T18:37:27Z</time>
      </trkpt>
      <trkpt lat="48.10418" lon="7.13885">
        <ele>634</ele>
        <time>2019-04-12T18:38:27Z</time>
      </trkpt>
      <trkpt lat="48.10411" lon="7.13876">
        <ele>636</ele>
        <time>2019-04-12T18:39:27Z</time>
      </trkpt>
      <trkpt lat="48.104" lon="7.13857">
        <ele>641</ele>
        <time>2019-04-12T18:40:27Z</time>
      </trkpt>
      <trkpt lat="48.10384" lon="7.1383">
        <ele>646</ele>
        <time>2019-04-12T18:41:27Z</time>
      </trkpt>
      <trkpt lat="48.10374" lon="7.13813">
        <ele>650</ele>
        <time>2019-04-12T18:42:27Z</time>
      </trkpt>
      <trkpt lat="48.10357" lon="7.13792">
        <ele>654</ele>
        <time>2019-04-12T18:43:27Z</time>
      </trkpt>
      <trkpt lat="48.10335" lon="7.13764">
        <ele>657</ele>
        <time>2019-04-12T18:44:27Z</time>
      </trkpt>
      <trkpt lat="48.10312" lon="7.13738">
        <ele>661</ele>
        <time>2019-04-12T18:45:27Z</time>
      </trkpt>
      <trkpt lat="48.10295" lon="7.13718">
        <ele>662</ele>
        <time>2019-04-12T18:46:27Z</time>
      </trkpt>
      <trkpt lat="48.10281" lon="7.13694">
        <ele>662</ele>
        <time>2019-04-12T18:47:27Z</time>
      </trkpt>
      <trkpt lat="48.10269" lon="7.1367">
        <ele>660</ele>
        <time>2019-04-12T18:48:27Z</time>
      </trkpt>
      <trkpt lat="48.10259" lon="7.13649">
        <ele>658</ele>
        <time>2019-04-12T18:49:27Z</time>
      </trkpt>
      <trkpt lat="48.10252" lon="7.13626">
        <ele>657</ele>
        <time>2019-04-12T18:50:27Z</time>
      </trkpt>
      <trkpt lat="48.10245" lon="7.13611">
        <ele>657</ele>
        <time>2019-04-12T18:51:27Z</time>
      </trkpt>
      <trkpt lat="48.10237" lon="7.13597">
        <ele>657</ele>
        <time>2019-04-12T18:52:27Z</time>
      </trkpt>
      <trkpt lat="48.10228" lon="7.1359">
        <ele>656</ele>
        <time>2019-04-12T18:53:27Z</time>
      </trkpt>
      <trkpt lat="48.10215" lon="7.13582">
        <ele>655</ele>
        <time>2019-04-12T18:54:27Z</time>
      </trkpt>
      <trkpt lat="48.10199" lon="7.13576">
        <ele>655</ele>
        <time>2019-04-12T18:55:27Z</time>
      </trkpt>
      <trkpt lat="48.10184" lon="7.13572">
        <ele>655</ele>
        <time>2019-04-12T18:56:27Z</time>
      </trkpt>
      <trkpt lat="48.10161" lon="7.13568">
        <ele>654</ele>
        <time>2019-04-12T18:57:27Z</time>
      </trkpt>
      <trkpt lat="48.10131" lon="7.13564">
        <ele>656</ele>
        <time>2019-04-12T18:58:27Z</time>
      </trkpt>
      <trkpt lat="48.10097" lon="7.13563">
        <ele>658</ele>
        <time>2019-04-12T18:59:27Z</time>
      </trkpt>
      <trkpt lat="48.10058" lon="7.13565">
        <ele>660</ele>
        <time>2019-04-12T19:00:27Z</time>
      </trkpt>
      <trkpt lat="48.1002" lon="7.13569">
        <ele>663</ele>
        <time>2019-04-12T19:01:27Z</time>
      </trkpt>
      <trkpt lat="48.09972" lon="7.13578">
        <ele>669</ele>
        <time>2019-04-12T19:02:27Z</time>
      </trkpt>
      <trkpt lat="48.09954" lon="7.13584">
        <ele>672</ele>
        <time>2019-04-12T19:03:27Z</time>
      </trkpt>
      <trkpt lat="48.09937" lon="7.13593">
        <ele>675</ele>
        <time>2019-04-12T19:04:27Z</time>
      </trkpt>
      <trkpt lat="48.0992" lon="7.13608">
        <ele>678</ele>
        <time>2019-04-12T19:05:27Z</time>
      </trkpt>
      <trkpt lat="48.09902" lon="7.13631">
        <ele>680</ele>
        <time>2019-04-12T19:06:27Z</time>
      </trkpt>
      <trkpt lat="48.09888" lon="7.13651">
        <ele>680</ele>
        <time>2019-04-12T19:07:27Z</time>
      </trkpt>
      <trkpt lat="48.09866" lon="7.13677">
        <ele>681</ele>
        <time>2019-04-12T19:08:27Z</time>
      </trkpt>
      <trkpt lat="48.0985" lon="7.1369">
        <ele>682</ele>
        <time>2019-04-12T19:09:27Z</time>
      </trkpt>
      <trkpt lat="48.09836" lon="7.13698">
        <ele>683</ele>
        <time>2019-04-12T19:10:27Z</time>
      </trkpt>
      <trkpt lat="48.09832" lon="7.137">
        <ele>683</ele>
        <time>2019-04-12T19:11:27Z</time>
      </trkpt>
      <trkpt lat="48.09817" lon="7.13704">
        <ele>682</ele>
        <time>2019-04-12T19:12:27Z</time>
      </trkpt>
      <trkpt lat="48.09812" lon="7.13704">
        <ele>682</ele>
        <time>2019-04-12T19:13:27Z</time>
      </trkpt>
      <trkpt lat="48.09798" lon="7.13703">
        <ele>682</ele>
        <time>2019-04-12T19:14:27Z</time>
      </trkpt>
      <trkpt lat="48.09787" lon="7.13702">
        <ele>682</ele>
        <time>2019-04-12T19:15:27Z</time>
      </trkpt>
      <trkpt lat="48.09777" lon="7.13703">
        <ele>682</ele>
        <time>2019-04-12T19:16:27Z</time>
      </trkpt>
      <trkpt lat="48.09766" lon="7.13705">
        <ele>682</ele>
        <time>2019-04-12T19:17:27Z</time>
      </trkpt>
      <trkpt lat="48.09751" lon="7.13711">
        <ele>682</ele>
        <time>2019-04-12T19:18:27Z</time>
      </trkpt>
      <trkpt lat="48.09733" lon="7.13717">
        <ele>682</ele>
        <time>2019-04-12T19:19:27Z</time>
      </trkpt>
      <trkpt lat="48.09717" lon="7.13723">
        <ele>683</ele>
        <time>2019-04-12T19:20:27Z</time>
      </trkpt>
      <trkpt lat="48.09705" lon="7.13725">
        <ele>683</ele>
        <time>2019-04-12T19:21:27Z</time>
      </trkpt>
      <trkpt lat="48.09698" lon="7.13722">
        <ele>684</ele>
        <time>2019-04-12T19:22:27Z</time>
      </trkpt>
      <trkpt lat="48.09694" lon="7.13718">
        <ele>684</ele>
        <time>2019-04-12T19:23:27Z</time>
      </trkpt>
      <trkpt lat="48.09691" lon="7.13715">
        <ele>684</ele>
        <time>2019-04-12T19:24:27Z</time>
      </trkpt>
      <trkpt lat="48.0969" lon="7.13712">
        <ele>684</ele>
        <time>2019-04-12T19:25:27Z</time>
      </trkpt>
      <trkpt lat="48.09688" lon="7.13701">
        <ele>685</ele>
        <time>2019-04-12T19:26:27Z</time>
      </trkpt>
      <trkpt lat="48.09685" lon="7.1369">
        <ele>685</ele>
        <time>2019-04-12T19:27:27Z</time>
      </trkpt>
      <trkpt lat="48.09679" lon="7.13657">
        <ele>687</ele>
        <time>2019-04-12T19:28:27Z</time>
      </trkpt>
      <trkpt lat="48.09671" lon="7.13611">
        <ele>691</ele>
        <time>2019-04-12T19:29:27Z</time>
      </trkpt>
      <trkpt lat="48.09663" lon="7.1357">
        <ele>693</ele>
        <time>2019-04-12T19:30:27Z</time>
      </trkpt>
      <trkpt lat="48.09657" lon="7.13533">
        <ele>696</ele>
        <time>2019-04-12T19:31:27Z</time>
      </trkpt>
      <trkpt lat="48.09649" lon="7.13491">
        <ele>699</ele>
        <time>2019-04-12T19:32:27Z</time>
      </trkpt>
      <trkpt lat="48.09641" lon="7.13432">
        <ele>704</ele>
        <time>2019-04-12T19:33:27Z</time>
      </trkpt>
      <trkpt lat="48.09636" lon="7.13397">
        <ele>706</ele>
        <time>2019-04-12T19:34:27Z</time>
      </trkpt>
      <trkpt lat="48.09635" lon="7.13376">
        <ele>708</ele>
        <time>2019-04-12T19:35:27Z</time>
      </trkpt>
      <trkpt lat="48.09635" lon="7.13368">
        <ele>708</ele>
        <time>2019-04-12T19:36:27Z</time>
      </trkpt>
      <trkpt lat="48.09635" lon="7.13361">
        <ele>709</ele>
        <time>2019-04-12T19:37:27Z</time>
      </trkpt>
      <trkpt lat="48.09639" lon="7.13353">
        <ele>709</ele>
        <time>2019-04-12T19:38:27Z</time>
      </trkpt>
      <trkpt lat="48.0964" lon="7.13349">
        <ele>709</ele>
        <time>2019-04-12T19:39:27Z</time>
      </trkpt>
      <trkpt lat="48.09643" lon="7.13345">
        <ele>709</ele>
        <time>2019-04-12T19:40:27Z</time>
      </trkpt>
      <trkpt lat="48.09649" lon="7.13342">
        <ele>709</ele>
        <time>2019-04-12T19:41:27Z</time>
      </trkpt>
      <trkpt lat="48.09654" lon="7.13342">
        <ele>709</ele>
        <time>2019-04-12T19:42:27Z</time>
      </trkpt>
      <trkpt lat="48.09658" lon="7.13343">
        <ele>709</ele>
        <time>2019-04-12T19:43:27Z</time>
      </trkpt>
      <trkpt lat="48.09661" lon="7.13344">
        <ele>709</ele>
        <time>2019-04-12T19:44:27Z</time>
      </trkpt>
      <trkpt lat="48.09667" lon="7.13351">
        <ele>708</ele>
        <time>2019-04-12T19:45:27Z</time>
      </trkpt>
      <trkpt lat="48.09672" lon="7.13358">
        <ele>709</ele>
        <time>2019-04-12T19:46:27Z</time>
      </trkpt>
      <trkpt lat="48.09679" lon="7.13371">
        <ele>709</ele>
        <time>2019-04-12T19:47:27Z</time>
      </trkpt>
      <trkpt lat="48.0968" lon="7.13375">
        <ele>709</ele>
        <time>2019-04-12T19:48:27Z</time>
      </trkpt>
      <trkpt lat="48.09693" lon="7.13409">
        <ele>709</ele>
        <time>2019-04-12T19:49:27Z</time>
      </trkpt>
      <trkpt lat="48.09705" lon="7.13441">
        <ele>709</ele>
        <time>2019-04-12T19:50:27Z</time>
      </trkpt>
      <trkpt lat="48.09718" lon="7.13477">
        <ele>708</ele>
        <time>2019-04-12T19:51:27Z</time>
      </trkpt>
      <trkpt lat="48.0973" lon="7.13509">
        <ele>708</ele>
        <time>2019-04-12T19:52:27Z</time>
      </trkpt>
      <trkpt lat="48.09736" lon="7.13523">
        <ele>707</ele>
        <time>2019-04-12T19:53:27Z</time>
      </trkpt>
      <trkpt lat="48.09738" lon="7.13526">
        <ele>707</ele>
        <time>2019-04-12T19:54:27Z</time>
      </trkpt>
      <trkpt lat="48.09745" lon="7.13539">
        <ele>707</ele>
        <time>2019-04-12T19:55:27Z</time>
      </trkpt>
      <trkpt lat="48.09752" lon="7.13546">
        <ele>707</ele>
        <time>2019-04-12T19:56:27Z</time>
      </trkpt>
      <trkpt lat="48.09763" lon="7.13555">
        <ele>707</ele>
        <time>2019-04-12T19:57:27Z</time>
      </trkpt>
      <trkpt lat="48.09786" lon="7.13565">
        <ele>708</ele>
        <time>2019-04-12T19:58:27Z</time>
      </trkpt>
      <trkpt lat="48.098" lon="7.13574">
        <ele>709</ele>
        <time>2019-04-12T19:59:27Z</time>
      </trkpt>
      <trkpt lat="48.09809" lon="7.13579">
        <ele>709</ele>
        <time>2019-04-12T20:00:27Z</time>
      </trkpt>
      <trkpt lat="48.09817" lon="7.13581">
        <ele>710</ele>
        <time>2019-04-12T20:01:27Z</time>
      </trkpt>
      <trkpt lat="48.09821" lon="7.1358">
        <ele>710</ele>
        <time>2019-04-12T20:02:27Z</time>
      </trkpt>
      <trkpt lat="48.09827" lon="7.13577">
        <ele>711</ele>
        <time>2019-04-12T20:03:27Z</time>
      </trkpt>
      <trkpt lat="48.09831" lon="7.13573">
        <ele>712</ele>
        <time>2019-04-12T20:04:27Z</time>
      </trkpt>
      <trkpt lat="48.09838" lon="7.13561">
        <ele>712</ele>
        <time>2019-04-12T20:05:27Z</time>
      </trkpt>
      <trkpt lat="48.09844" lon="7.13546">
        <ele>712</ele>
        <time>2019-04-12T20:06:27Z</time>
      </trkpt>
      <trkpt lat="48.09848" lon="7.13529">
        <ele>713</ele>
        <time>2019-04-12T20:07:27Z</time>
      </trkpt>
      <trkpt lat="48.09853" lon="7.13503">
        <ele>716</ele>
        <time>2019-04-12T20:08:27Z</time>
      </trkpt>
      <trkpt lat="48.09859" lon="7.13477">
        <ele>717</ele>
        <time>2019-04-12T20:09:27Z</time>
      </trkpt>
      <trkpt lat="48.09864" lon="7.13459">
        <ele>718</ele>
        <time>2019-04-12T20:10:27Z</time>
      </trkpt>
      <trkpt lat="48.09874" lon="7.13437">
        <ele>720</ele>
        <time>2019-04-12T20:11:27Z</time>
      </trkpt>
      <trkpt lat="48.09887" lon="7.13424">
        <ele>721</ele>
        <time>2019-04-12T20:12:27Z</time>
      </trkpt>
      <trkpt lat="48.09901" lon="7.13413">
        <ele>722</ele>
        <time>2019-04-12T20:13:27Z</time>
      </trkpt>
      <trkpt lat="48.09918" lon="7.13405">
        <ele>722</ele>
        <time>2019-04-12T20:14:27Z</time>
      </trkpt>
      <trkpt lat="48.09939" lon="7.13398">
        <ele>723</ele>
        <time>2019-04-12T20:15:27Z</time>
      </trkpt>
      <trkpt lat="48.09964" lon="7.13392">
        <ele>723</ele>
        <time>2019-04-12T20:16:27Z</time>
      </trkpt>
      <trkpt lat="48.09982" lon="7.13385">
        <ele>724</ele>
        <time>2019-04-12T20:17:27Z</time>
      </trkpt>
      <trkpt lat="48.09998" lon="7.13376">
        <ele>725</ele>
        <time>2019-04-12T20:18:27Z</time>
      </trkpt>
      <trkpt lat="48.10014" lon="7.13365">
        <ele>725</ele>
        <time>2019-04-12T20:19:27Z</time>
      </trkpt>
      <trkpt lat="48.1003" lon="7.13348">
        <ele>725</ele>
        <time>2019-04-12T20:20:27Z</time>
      </trkpt>
      <trkpt lat="48.10048" lon="7.13326">
        <ele>725</ele>
        <time>2019-04-12T20:21:27Z</time>
      </trkpt>
      <trkpt lat="48.10063" lon="7.13308">
        <ele>726</ele>
        <time>2019-04-12T20:22:27Z</time>
      </trkpt>
      <trkpt lat="48.10087" lon="7.13282">
        <ele>727</ele>
        <time>2019-04-12T20:23:27Z</time>
      </trkpt>
      <trkpt lat="48.10118" lon="7.13255">
        <ele>732</ele>
        <time>2019-04-12T20:24:27Z</time>
      </trkpt>
      <trkpt lat="48.1013" lon="7.13242">
        <ele>733</ele>
        <time>2019-04-12T20:25:27Z</time>
      </trkpt>
      <trkpt lat="48.10133" lon="7.1324">
        <ele>733</ele>
        <time>2019-04-12T20:26:27Z</time>
      </trkpt>
      <trkpt lat="48.10149" lon="7.13228">
        <ele>734</ele>
        <time>2019-04-12T20:27:27Z</time>
      </trkpt>
      <trkpt lat="48.10159" lon="7.13223">
        <ele>734</ele>
        <time>2019-04-12T20:28:27Z</time>
      </trkpt>
      <trkpt lat="48.10169" lon="7.13218">
        <ele>735</ele>
        <time>2019-04-12T20:29:27Z</time>
      </trkpt>
      <trkpt lat="48.10193" lon="7.13216">
        <ele>735</ele>
        <time>2019-04-12T20:30:27Z</time>
      </trkpt>
      <trkpt lat="48.10215" lon="7.1321">
        <ele>736</ele>
        <time>2019-04-12T20:31:27Z</time>
      </trkpt>
      <trkpt lat="48.10228" lon="7.13206">
        <ele>737</ele>
        <time>2019-04-12T20:32:27Z</time>
      </trkpt>
      <trkpt lat="48.10242" lon="7.13199">
        <ele>738</ele>
        <time>2019-04-12T20:33:27Z</time>
      </trkpt>
      <trkpt lat="48.10256" lon="7.13186">
        <ele>741</ele>
        <time>2019-04-12T20:34:27Z</time>
      </trkpt>
      <trkpt lat="48.10271" lon="7.13168">
        <ele>744</ele>
        <time>2019-04-12T20:35:27Z</time>
      </trkpt>
      <trkpt lat="48.10294" lon="7.13144">
        <ele>746</ele>
        <time>2019-04-12T20:36:27Z</time>
      </trkpt>
      <trkpt lat="48.103" lon="7.13138">
        <ele>746</ele>
        <time>2019-04-12T20:37:27Z</time>
      </trkpt>
      <trkpt lat="48.10306" lon="7.13132">
        <ele>746</ele>
        <time>2019-04-12T20:38:27Z</time>
      </trkpt>
      <trkpt lat="48.10318" lon="7.13116">
        <ele>747</ele>
        <time>2019-04-12T20:39:27Z</time>
      </trkpt>
      <trkpt lat="48.10331" lon="7.13102">
        <ele>748</ele>
        <time>2019-04-12T20:40:27Z</time>
      </trkpt>
      <trkpt lat="48.10346" lon="7.13081">
        <ele>748</ele>
        <time>2019-04-12T20:41:27Z</time>
      </trkpt>
      <trkpt lat="48.10357" lon="7.13064">
        <ele>748</ele>
        <time>2019-04-12T20:42:27Z</time>
      </trkpt>
      <trkpt lat="48.10365" lon="7.13049">
        <ele>748</ele>
        <time>2019-04-12T20:43:27Z</time>
      </trkpt>
      <trkpt lat="48.10373" lon="7.13033">
        <ele>749</ele>
        <time>2019-04-12T20:44:27Z</time>
      </trkpt>
      <trkpt lat="48.10381" lon="7.13015">
        <ele>749</ele>
        <time>2019-04-12T20:45:27Z</time>
      </trkpt>
      <trkpt lat="48.10394" lon="7.12983">
        <ele>750</ele>
        <time>2019-04-12T20:46:27Z</time>
      </trkpt>
      <trkpt lat="48.10403" lon="7.12956">
        <ele>752</ele>
        <time>2019-04-12T20:47:27Z</time>
      </trkpt>
      <trkpt lat="48.10412" lon="7.1293">
        <ele>754</ele>
        <time>2019-04-12T20:48:27Z</time>
      </trkpt>
      <trkpt lat="48.10413" lon="7.12927">
        <ele>754</ele>
        <time>2019-04-12T20:49:27Z</time>
      </trkpt>
      <trkpt lat="48.10422" lon="7.12896">
        <ele>755</ele>
        <time>2019-04-12T20:50:27Z</time>
      </trkpt>
      <trkpt lat="48.10422" lon="7.12894">
        <ele>755</ele>
        <time>2019-04-12T20:51:27Z</time>
      </trkpt>
      <trkpt lat="48.10429" lon="7.12873">
        <ele>756</ele>
        <time>2019-04-12T20:52:27Z</time>
      </trkpt>
      <trkpt lat="48.10431" lon="7.12863">
        <ele>757</ele>
        <time>2019-04-12T20:53:27Z</time>
      </trkpt>
      <trkpt lat="48.10436" lon="7.12846">
        <ele>758</ele>
        <time>2019-04-12T20:54:27Z</time>
      </trkpt>
      <trkpt lat="48.1044" lon="7.12833">
        <ele>759</ele>
        <time>2019-04-12T20:55:27Z</time>
      </trkpt>
      <trkpt lat="48.10445" lon="7.12823">
        <ele>760</ele>
        <time>2019-04-12T20:56:27Z</time>
      </trkpt>
      <trkpt lat="48.10453" lon="7.12811">
        <ele>761</ele>
        <time>2019-04-12T20:57:27Z</time>
      </trkpt>
      <trkpt lat="48.10455" lon="7.12809">
        <ele>761</ele>
        <time>2019-04-12T20:58:27Z</time>
      </trkpt>
      <trkpt lat="48.10465" lon="7.12799">
        <ele>762</ele>
        <time>2019-04-12T20:59:27Z</time>
      </trkpt>
      <trkpt lat="48.10496" lon="7.12775">
        <ele>766</ele>
        <time>2019-04-12T21:00:27Z</time>
      </trkpt>
      <trkpt lat="48.10531" lon="7.12749">
        <ele>769</ele>
        <time>2019-04-12T21:01:27Z</time>
      </trkpt>
      <trkpt lat="48.10563" lon="7.12725">
        <ele>770</ele>
        <time>2019-04-12T21:02:27Z</time>
      </trkpt>
      <trkpt lat="48.10588" lon="7.12707">
        <ele>772</ele>
        <time>2019-04-12T21:03:27Z</time>
      </trkpt>
      <trkpt lat="48.10606" lon="7.12693">
        <ele>774</ele>
        <time>2019-04-12T21:04:27Z</time>
      </trkpt>
      <trkpt lat="48.10624" lon="7.12672">
        <ele>775</ele>
        <time>2019-04-12T21:05:27Z</time>
      </trkpt>
      <trkpt lat="48.10634" lon="7.12656">
        <ele>776</ele>
        <time>2019-04-12T21:06:27Z</time>
      </trkpt>
      <trkpt lat="48.10643" lon="7.12633">
        <ele>777</ele>
        <time>2019-04-12T21:07:27Z</time>
      </trkpt>
      <trkpt lat="48.10652" lon="7.12606">
        <ele>779</ele>
        <time>2019-04-12T21:08:27Z</time>
      </trkpt>
      <trkpt lat="48.10653" lon="7.12591">
        <ele>779</ele>
        <time>2019-04-12T21:09:27Z</time>
      </trkpt>
      <trkpt lat="48.10653" lon="7.12567">
        <ele>780</ele>
        <time>2019-04-12T21:10:27Z</time>
      </trkpt>
      <trkpt lat="48.10651" lon="7.12549">
        <ele>781</ele>
        <time>2019-04-12T21:11:27Z</time>
      </trkpt>
      <trkpt lat="48.10648" lon="7.12531">
        <ele>782</ele>
        <time>2019-04-12T21:12:27Z</time>
      </trkpt>
      <trkpt lat="48.10643" lon="7.12509">
        <ele>782</ele>
        <time>2019-04-12T21:13:27Z</time>
      </trkpt>
      <trkpt lat="48.10637" lon="7.12485">
        <ele>782</ele>
        <time>2019-04-12T21:14:27Z</time>
      </trkpt>
      <trkpt lat="48.1063" lon="7.1246">
        <ele>780</ele>
        <time>2019-04-12T21:15:27Z</time>
      </trkpt>
      <trkpt lat="48.10623" lon="7.1243">
        <ele>780</ele>
        <time>2019-04-12T21:16:27Z</time>
      </trkpt>
      <trkpt lat="48.10615" lon="7.12395">
        <ele>779</ele>
        <time>2019-04-12T21:17:27Z</time>
      </trkpt>
      <trkpt lat="48.1061" lon="7.12369">
        <ele>780</ele>
        <time>2019-04-12T21:18:27Z</time>
      </trkpt>
      <trkpt lat="48.10598" lon="7.12321">
        <ele>780</ele>
        <time>2019-04-12T21:19:27Z</time>
      </trkpt>
      <trkpt lat="48.1059" lon="7.12292">
        <ele>781</ele>
        <time>2019-04-12T21:20:27Z</time>
      </trkpt>
      <trkpt lat="48.10584" lon="7.12275">
        <ele>781</ele>
        <time>2019-04-12T21:21:27Z</time>
      </trkpt>
      <trkpt lat="48.10582" lon="7.12272">
        <ele>781</ele>
        <time>2019-04-12T21:22:27Z</time>
      </trkpt>
      <trkpt lat="48.10579" lon="7.12268">
        <ele>782</ele>
        <time>2019-04-12T21:23:27Z</time>
      </trkpt>
      <trkpt lat="48.10575" lon="7.12269">
        <ele>782</ele>
        <time>2019-04-12T21:24:27Z</time>
      </trkpt>
      <trkpt lat="48.10572" lon="7.1227">
        <ele>782</ele>
        <time>2019-04-12T21:25:27Z</time>
      </trkpt>
      <trkpt lat="48.1057" lon="7.12271">
        <ele>782</ele>
        <time>2019-04-12T21:26:27Z</time>
      </trkpt>
      <trkpt lat="48.10554" lon="7.12283">
        <ele>782</ele>
        <time>2019-04-12T21:27:27Z</time>
      </trkpt>
      <trkpt lat="48.10524" lon="7.1231">
        <ele>781</ele>
        <time>2019-04-12T21:28:27Z</time>
      </trkpt>
      <trkpt lat="48.10483" lon="7.12347">
        <ele>782</ele>
        <time>2019-04-12T21:29:27Z</time>
      </trkpt>
      <trkpt lat="48.10462" lon="7.12365">
        <ele>784</ele>
        <time>2019-04-12T21:30:27Z</time>
      </trkpt>
      <trkpt lat="48.1045" lon="7.12373">
        <ele>785</ele>
        <time>2019-04-12T21:31:27Z</time>
      </trkpt>
      <trkpt lat="48.10437" lon="7.12378">
        <ele>786</ele>
        <time>2019-04-12T21:32:27Z</time>
      </trkpt>
      <trkpt lat="48.10419" lon="7.12384">
        <ele>789</ele>
        <time>2019-04-12T21:33:27Z</time>
      </trkpt>
      <trkpt lat="48.10396" lon="7.12388">
        <ele>790</ele>
        <time>2019-04-12T21:34:27Z</time>
      </trkpt>
      <trkpt lat="48.10375" lon="7.12391">
        <ele>790</ele>
        <time>2019-04-12T21:35:27Z</time>
      </trkpt>
      <trkpt lat="48.10356" lon="7.12398">
        <ele>791</ele>
        <time>2019-04-12T21:36:27Z</time>
      </trkpt>
      <trkpt lat="48.10338" lon="7.12413">
        <ele>790</ele>
        <time>2019-04-12T21:37:27Z</time>
      </trkpt>
      <trkpt lat="48.10316" lon="7.12435">
        <ele>790</ele>
        <time>2019-04-12T21:38:27Z</time>
      </trkpt>
      <trkpt lat="48.10296" lon="7.12458">
        <ele>791</ele>
        <time>2019-04-12T21:39:27Z</time>
      </trkpt>
      <trkpt lat="48.10271" lon="7.12487">
        <ele>793</ele>
        <time>2019-04-12T21:40:27Z</time>
      </trkpt>
      <trkpt lat="48.10254" lon="7.12512">
        <ele>796</ele>
        <time>2019-04-12T21:41:27Z</time>
      </trkpt>
      <trkpt lat="48.10245" lon="7.12529">
        <ele>798</ele>
        <time>2019-04-12T21:42:27Z</time>
      </trkpt>
      <trkpt lat="48.10234" lon="7.12554">
        <ele>801</ele>
        <time>2019-04-12T21:43:27Z</time>
      </trkpt>
      <trkpt lat="48.10221" lon="7.12585">
        <ele>805</ele>
        <time>2019-04-12T21:44:27Z</time>
      </trkpt>
      <trkpt lat="48.10212" lon="7.12606">
        <ele>807</ele>
        <time>2019-04-12T21:45:27Z</time>
      </trkpt>
      <trkpt lat="48.10211" lon="7.12608">
        <ele>807</ele>
        <time>2019-04-12T21:46:27Z</time>
      </trkpt>
      <trkpt lat="48.10204" lon="7.12648">
        <ele>808</ele>
        <time>2019-04-12T21:47:27Z</time>
      </trkpt>
      <trkpt lat="48.10194" lon="7.12694">
        <ele>809</ele>
        <time>2019-04-12T21:48:27Z</time>
      </trkpt>
      <trkpt lat="48.10181" lon="7.12745">
        <ele>810</ele>
        <time>2019-04-12T21:49:27Z</time>
      </trkpt>
      <trkpt lat="48.10165" lon="7.12803">
        <ele>813</ele>
        <time>2019-04-12T21:50:27Z</time>
      </trkpt>
      <trkpt lat="48.1015" lon="7.12851">
        <ele>815</ele>
        <time>2019-04-12T21:51:27Z</time>
      </trkpt>
      <trkpt lat="48.10137" lon="7.12886">
        <ele>814</ele>
        <time>2019-04-12T21:52:27Z</time>
      </trkpt>
      <trkpt lat="48.10127" lon="7.12907">
        <ele>814</ele>
        <time>2019-04-12T21:53:27Z</time>
      </trkpt>
      <trkpt lat="48.10119" lon="7.12919">
        <ele>814</ele>
        <time>2019-04-12T21:54:27Z</time>
      </trkpt>
      <trkpt lat="48.10109" lon="7.12928">
        <ele>814</ele>
        <time>2019-04-12T21:55:27Z</time>
      </trkpt>
      <trkpt lat="48.10102" lon="7.12933">
        <ele>814</ele>
        <time>2019-04-12T21:56:27Z</time>
      </trkpt>
      <trkpt lat="48.10096" lon="7.12936">
        <ele>815</ele>
        <time>2019-04-12T21:57:27Z</time>
      </trkpt>
      <trkpt lat="48.10088" lon="7.12938">
        <ele>816</ele>
        <time>2019-04-12T21:58:27Z</time>
      </trkpt>
      <trkpt lat="48.10077" lon="7.12942">
        <ele>816</ele>
        <time>2019-04-12T21:59:27Z</time>
      </trkpt>
      <trkpt lat="48.10058" lon="7.12946">
        <ele>818</ele>
        <time>2019-04-12T22:00:27Z</time>
      </trkpt>
      <trkpt lat="48.10042" lon="7.12948">
        <ele>819</ele>
        <time>2019-04-12T22:01:27Z</time>
      </trkpt>
      <trkpt lat="48.10031" lon="7.12952">
        <ele>819</ele>
        <time>2019-04-12T22:02:27Z</time>
      </trkpt>
      <trkpt lat="48.10022" lon="7.12959">
        <ele>818</ele>
        <time>2019-04-12T22:03:27Z</time>
      </trkpt>
      <trkpt lat="48.10009" lon="7.1297">
        <ele>817</ele>
        <time>2019-04-12T22:04:27Z</time>
      </trkpt>
      <trkpt lat="48.10003" lon="7.12974">
        <ele>817</ele>
        <time>2019-04-12T22:05:27Z</time>
      </trkpt>
      <trkpt lat="48.09995" lon="7.12976">
        <ele>816</ele>
        <time>2019-04-12T22:06:27Z</time>
      </trkpt>
      <trkpt lat="48.09975" lon="7.12979">
        <ele>815</ele>
        <time>2019-04-12T22:07:27Z</time>
      </trkpt>
      <trkpt lat="48.09955" lon="7.12975">
        <ele>816</ele>
        <time>2019-04-12T22:08:27Z</time>
      </trkpt>
      <trkpt lat="48.09932" lon="7.12966">
        <ele>817</ele>
        <time>2019-04-12T22:09:27Z</time>
      </trkpt>
      <trkpt lat="48.0992" lon="7.12961">
        <ele>818</ele>
        <time>2019-04-12T22:10:27Z</time>
      </trkpt>
      <trkpt lat="48.09911" lon="7.12953">
        <ele>818</ele>
        <time>2019-04-12T22:11:27Z</time>
      </trkpt>
      <trkpt lat="48.09899" lon="7.12944">
        <ele>818</ele>
        <time>2019-04-12T22:12:27Z</time>
      </trkpt>
      <trkpt lat="48.09891" lon="7.12931">
        <ele>819</ele>
        <time>2019-04-12T22:13:27Z</time>
      </trkpt>
      <trkpt lat="48.09873" lon="7.12894">
        <ele>822</ele>
        <time>2019-04-12T22:14:27Z</time>
      </trkpt>
      <trkpt lat="48.09848" lon="7.12837">
        <ele>824</ele>
        <time>2019-04-12T22:15:27Z</time>
      </trkpt>
      <trkpt lat="48.09834" lon="7.12803">
        <ele>824</ele>
        <time>2019-04-12T22:16:27Z</time>
      </trkpt>
      <trkpt lat="48.09822" lon="7.12765">
        <ele>825</ele>
        <time>2019-04-12T22:17:27Z</time>
      </trkpt>
      <trkpt lat="48.09809" lon="7.12722">
        <ele>827</ele>
        <time>2019-04-12T22:18:27Z</time>
      </trkpt>
      <trkpt lat="48.09798" lon="7.12696">
        <ele>828</ele>
        <time>2019-04-12T22:19:27Z</time>
      </trkpt>
      <trkpt lat="48.09788" lon="7.12674">
        <ele>829</ele>
        <time>2019-04-12T22:20:27Z</time>
      </trkpt>
      <trkpt lat="48.0977" lon="7.12635">
        <ele>830</ele>
        <time>2019-04-12T22:21:27Z</time>
      </trkpt>
      <trkpt lat="48.09752" lon="7.12593">
        <ele>833</ele>
        <time>2019-04-12T22:22:27Z</time>
      </trkpt>
      <trkpt lat="48.09727" lon="7.12533">
        <ele>834</ele>
        <time>2019-04-12T22:23:27Z</time>
      </trkpt>
      <trkpt lat="48.09709" lon="7.12489">
        <ele>835</ele>
        <time>2019-04-12T22:24:27Z</time>
      </trkpt>
      <trkpt lat="48.09693" lon="7.12452">
        <ele>836</ele>
        <time>2019-04-12T22:25:27Z</time>
      </trkpt>
      <trkpt lat="48.09675" lon="7.12418">
        <ele>835</ele>
        <time>2019-04-12T22:26:27Z</time>
      </trkpt>
      <trkpt lat="48.09662" lon="7.12394">
        <ele>834</ele>
        <time>2019-04-12T22:27:27Z</time>
      </trkpt>
      <trkpt lat="48.09648" lon="7.12354">
        <ele>833</ele>
        <time>2019-04-12T22:28:27Z</time>
      </trkpt>
      <trkpt lat="48.09638" lon="7.12315">
        <ele>833</ele>
        <time>2019-04-12T22:29:27Z</time>
      </trkpt>
      <trkpt lat="48.09629" lon="7.12275">
        <ele>833</ele>
        <time>2019-04-12T22:30:27Z</time>
      </trkpt>
      <trkpt lat="48.09623" lon="7.12251">
        <ele>832</ele>
        <time>2019-04-12T22:31:27Z</time>
      </trkpt>
      <trkpt lat="48.09621" lon="7.12241">
        <ele>833</ele>
        <time>2019-04-12T22:32:27Z</time>
      </trkpt>
      <trkpt lat="48.09612" lon="7.12201">
        <ele>835</ele>
        <time>2019-04-12T22:33:27Z</time>
      </trkpt>
      <trkpt lat="48.09604" lon="7.12165">
        <ele>838</ele>
        <time>2019-04-12T22:34:27Z</time>
      </trkpt>
      <trkpt lat="48.09595" lon="7.12129">
        <ele>839</ele>
        <time>2019-04-12T22:35:27Z</time>
      </trkpt>
      <trkpt lat="48.09587" lon="7.12096">
        <ele>841</ele>
        <time>2019-04-12T22:36:27Z</time>
      </trkpt>
      <trkpt lat="48.09578" lon="7.12051">
        <ele>841</ele>
        <time>2019-04-12T22:37:27Z</time>
      </trkpt>
      <trkpt lat="48.0957" lon="7.12015">
        <ele>841</ele>
        <time>2019-04-12T22:38:27Z</time>
      </trkpt>
      <trkpt lat="48.09562" lon="7.11965">
        <ele>841</ele>
        <time>2019-04-12T22:39:27Z</time>
      </trkpt>
      <trkpt lat="48.09557" lon="7.1194">
        <ele>841</ele>
        <time>2019-04-12T22:40:27Z</time>
      </trkpt>
      <trkpt lat="48.09554" lon="7.11922">
        <ele>841</ele>
        <time>2019-04-12T22:41:27Z</time>
      </trkpt>
      <trkpt lat="48.09546" lon="7.11884">
        <ele>844</ele>
        <time>2019-04-12T22:42:27Z</time>
      </trkpt>
      <trkpt lat="48.0954" lon="7.11855">
        <ele>847</ele>
        <time>2019-04-12T22:43:27Z</time>
      </trkpt>
      <trkpt lat="48.09536" lon="7.1184">
        <ele>849</ele>
        <time>2019-04-12T22:44:27Z</time>
      </trkpt>
      <trkpt lat="48.0953" lon="7.11827">
        <ele>851</ele>
        <time>2019-04-12T22:45:27Z</time>
      </trkpt>
      <trkpt lat="48.09521" lon="7.11818">
        <ele>852</ele>
        <time>2019-04-12T22:46:27Z</time>
      </trkpt>
      <trkpt lat="48.09512" lon="7.11814">
        <ele>853</ele>
        <time>2019-04-12T22:47:27Z</time>
      </trkpt>
      <trkpt lat="48.09506" lon="7.11813">
        <ele>854</ele>
        <time>2019-04-12T22:48:27Z</time>
      </trkpt>
      <trkpt lat="48.09498" lon="7.11815">
        <ele>854</ele>
        <time>2019-04-12T22:49:27Z</time>
      </trkpt>
      <trkpt lat="48.09489" lon="7.11819">
        <ele>856</ele>
        <time>2019-04-12T22:50:27Z</time>
      </trkpt>
      <trkpt lat="48.09473" lon="7.11834">
        <ele>860</ele>
        <time>2019-04-12T22:51:27Z</time>
      </trkpt>
      <trkpt lat="48.09454" lon="7.11853">
        <ele>863</ele>
        <time>2019-04-12T22:52:27Z</time>
      </trkpt>
      <trkpt lat="48.09443" lon="7.11868">
        <ele>864</ele>
        <time>2019-04-12T22:53:27Z</time>
      </trkpt>
      <trkpt lat="48.09434" lon="7.11883">
        <ele>865</ele>
        <time>2019-04-12T22:54:27Z</time>
      </trkpt>
      <trkpt lat="48.09427" lon="7.11898">
        <ele>866</ele>
        <time>2019-04-12T22:55:27Z</time>
      </trkpt>
      <trkpt lat="48.09419" lon="7.11921">
        <ele>866</ele>
        <time>2019-04-12T22:56:27Z</time>
      </trkpt>
      <trkpt lat="48.09408" lon="7.1195">
        <ele>865</ele>
        <time>2019-04-12T22:57:27Z</time>
      </trkpt>
      <trkpt lat="48.09402" lon="7.11968">
        <ele>865</ele>
        <time>2019-04-12T22:58:27Z</time>
      </trkpt>
      <trkpt lat="48.09396" lon="7.11994">
        <ele>863</ele>
        <time>2019-04-12T22:59:27Z</time>
      </trkpt>
      <trkpt lat="48.09392" lon="7.12019">
        <ele>863</ele>
        <time>2019-04-12T23:00:27Z</time>
      </trkpt>
      <trkpt lat="48.09389" lon="7.12045">
        <ele>862</ele>
        <time>2019-04-12T23:01:27Z</time>
      </trkpt>
      <trkpt lat="48.09387" lon="7.12069">
        <ele>860</ele>
        <time>2019-04-12T23:02:27Z</time>
      </trkpt>
      <trkpt lat="48.09383" lon="7.12093">
        <ele>860</ele>
        <time>2019-04-12T23:03:27Z</time>
      </trkpt>
      <trkpt lat="48.09378" lon="7.12113">
        <ele>861</ele>
        <time>2019-04-12T23:04:27Z</time>
      </trkpt>
      <trkpt lat="48.09369" lon="7.12138">
        <ele>862</ele>
        <time>2019-04-12T23:05:27Z</time>
      </trkpt>
      <trkpt lat="48.09359" lon="7.12168">
        <ele>864</ele>
        <time>2019-04-12T23:06:27Z</time>
      </trkpt>
      <trkpt lat="48.09351" lon="7.12191">
        <ele>864</ele>
        <time>2019-04-12T23:07:27Z</time>
      </trkpt>
      <trkpt lat="48.09343" lon="7.12209">
        <ele>864</ele>
        <time>2019-04-12T23:08:27Z</time>
      </trkpt>
      <trkpt lat="48.09339" lon="7.12219">
        <ele>864</ele>
        <time>2019-04-12T23:09:27Z</time>
      </trkpt>
      <trkpt lat="48.09337" lon="7.12224">
        <ele>864</ele>
        <time>2019-04-12T23:10:27Z</time>
      </trkpt>
      <trkpt lat="48.09335" lon="7.12228">
        <ele>864</ele>
        <time>2019-04-12T23:11:27Z</time>
      </trkpt>
      <trkpt lat="48.09317" lon="7.12255">
        <ele>863</ele>
        <time>2019-04-12T23:12:27Z</time>
      </trkpt>
      <trkpt lat="48.09308" lon="7.12266">
        <ele>863</ele>
        <time>2019-04-12T23:13:27Z</time>
      </trkpt>
      <trkpt lat="48.09301" lon="7.12274">
        <ele>863</ele>
        <time>2019-04-12T23:14:27Z</time>
      </trkpt>
      <trkpt lat="48.09292" lon="7.12281">
        <ele>863</ele>
        <time>2019-04-12T23:15:27Z</time>
      </trkpt>
      <trkpt lat="48.09282" lon="7.12289">
        <ele>863</ele>
        <time>2019-04-12T23:16:27Z</time>
      </trkpt>
      <trkpt lat="48.09275" lon="7.12293">
        <ele>863</ele>
        <time>2019-04-12T23:17:27Z</time>
      </trkpt>
      <trkpt lat="48.09258" lon="7.12302">
        <ele>864</ele>
        <time>2019-04-12T23:18:27Z</time>
      </trkpt>
      <trkpt lat="48.09247" lon="7.12308">
        <ele>864</ele>
        <time>2019-04-12T23:19:27Z</time>
      </trkpt>
      <trkpt lat="48.09235" lon="7.12312">
        <ele>862</ele>
        <time>2019-04-12T23:20:27Z</time>
      </trkpt>
      <trkpt lat="48.09227" lon="7.12312">
        <ele>861</ele>
        <time>2019-04-12T23:21:27Z</time>
      </trkpt>
      <trkpt lat="48.09216" lon="7.1231">
        <ele>860</ele>
        <time>2019-04-12T23:22:27Z</time>
      </trkpt>
      <trkpt lat="48.09201" lon="7.12295">
        <ele>860</ele>
        <time>2019-04-12T23:23:27Z</time>
      </trkpt>
      <trkpt lat="48.09193" lon="7.12283">
        <ele>861</ele>
        <time>2019-04-12T23:24:27Z</time>
      </trkpt>
      <trkpt lat="48.09185" lon="7.12269">
        <ele>862</ele>
        <time>2019-04-12T23:25:27Z</time>
      </trkpt>
      <trkpt lat="48.09178" lon="7.12254">
        <ele>863</ele>
        <time>2019-04-12T23:26:27Z</time>
      </trkpt>
      <trkpt lat="48.09171" lon="7.12226">
        <ele>864</ele>
        <time>2019-04-12T23:27:27Z</time>
      </trkpt>
      <trkpt lat="48.09166" lon="7.12195">
        <ele>866</ele>
        <time>2019-04-12T23:28:27Z</time>
      </trkpt>
      <trkpt lat="48.0916" lon="7.12165">
        <ele>867</ele>
        <time>2019-04-12T23:29:27Z</time>
      </trkpt>
      <trkpt lat="48.09155" lon="7.12128">
        <ele>868</ele>
        <time>2019-04-12T23:30:27Z</time>
      </trkpt>
      <trkpt lat="48.0915" lon="7.12086">
        <ele>870</ele>
        <time>2019-04-12T23:31:27Z</time>
      </trkpt>
      <trkpt lat="48.09145" lon="7.12041">
        <ele>871</ele>
        <time>2019-04-12T23:32:27Z</time>
      </trkpt>
      <trkpt lat="48.0914" lon="7.12003">
        <ele>872</ele>
        <time>2019-04-12T23:33:27Z</time>
      </trkpt>
      <trkpt lat="48.09134" lon="7.11944">
        <ele>877</ele>
        <time>2019-04-12T23:34:27Z</time>
      </trkpt>
      <trkpt lat="48.09131" lon="7.11901">
        <ele>882</ele>
        <time>2019-04-12T23:35:27Z</time>
      </trkpt>
      <trkpt lat="48.09128" lon="7.11874">
        <ele>886</ele>
        <time>2019-04-12T23:36:27Z</time>
      </trkpt>
      <trkpt lat="48.09126" lon="7.11866">
        <ele>887</ele>
        <time>2019-04-12T23:37:27Z</time>
      </trkpt>
      <trkpt lat="48.09125" lon="7.11859">
        <ele>888</ele>
        <time>2019-04-12T23:38:27Z</time>
      </trkpt>
      <trkpt lat="48.09121" lon="7.11854">
        <ele>889</ele>
        <time>2019-04-12T23:39:27Z</time>
      </trkpt>
      <trkpt lat="48.09114" lon="7.11846">
        <ele>889</ele>
        <time>2019-04-12T23:40:27Z</time>
      </trkpt>
      <trkpt lat="48.09109" lon="7.11842">
        <ele>890</ele>
        <time>2019-04-12T23:41:27Z</time>
      </trkpt>
      <trkpt lat="48.09099" lon="7.11841">
        <ele>889</ele>
        <time>2019-04-12T23:42:27Z</time>
      </trkpt>
      <trkpt lat="48.09075" lon="7.1184">
        <ele>887</ele>
        <time>2019-04-12T23:43:27Z</time>
      </trkpt>
      <trkpt lat="48.0905" lon="7.11838">
        <ele>886</ele>
        <time>2019-04-12T23:44:27Z</time>
      </trkpt>
      <trkpt lat="48.09026" lon="7.11834">
        <ele>885</ele>
        <time>2019-04-12T23:45:27Z</time>
      </trkpt>
      <trkpt lat="48.09008" lon="7.11828">
        <ele>885</ele>
        <time>2019-04-12T23:46:27Z</time>
      </trkpt>
      <trkpt lat="48.09001" lon="7.11824">
        <ele>885</ele>
        <time>2019-04-12T23:47:27Z</time>
      </trkpt>
      <trkpt lat="48.08984" lon="7.11813">
        <ele>887</ele>
        <time>2019-04-12T23:48:27Z</time>
      </trkpt>
      <trkpt lat="48.08958" lon="7.11796">
        <ele>888</ele>
        <time>2019-04-12T23:49:27Z</time>
      </trkpt>
      <trkpt lat="48.08939" lon="7.11782">
        <ele>889</ele>
        <time>2019-04-12T23:50:27Z</time>
      </trkpt>
      <trkpt lat="48.0893" lon="7.11776">
        <ele>889</ele>
        <time>2019-04-12T23:51:27Z</time>
      </trkpt>
      <trkpt lat="48.08905" lon="7.1176">
        <ele>889</ele>
        <time>2019-04-12T23:52:27Z</time>
      </trkpt>
      <trkpt lat="48.08872" lon="7.11739">
        <ele>889</ele>
        <time>2019-04-12T23:53:27Z</time>
      </trkpt>
      <trkpt lat="48.08855" lon="7.11727">
        <ele>888</ele>
        <time>2019-04-12T23:54:27Z</time>
      </trkpt>
      <trkpt lat="48.08851" lon="7.11725">
        <ele>888</ele>
        <time>2019-04-12T23:55:27Z</time>
      </trkpt>
      <trkpt lat="48.08843" lon="7.1172">
        <ele>888</ele>
        <time>2019-04-12T23:56:27Z</time>
      </trkpt>
      <trkpt lat="48.08835" lon="7.11713">
        <ele>887</ele>
        <time>2019-04-12T23:57:27Z</time>
      </trkpt>
      <trkpt lat="48.08829" lon="7.11709">
        <ele>888</ele>
        <time>2019-04-12T23:58:27Z</time>
      </trkpt>
      <trkpt lat="48.08825" lon="7.11704">
        <ele>888</ele>
        <time>2019-04-12T23:59:27Z</time>
      </trkpt>
      <trkpt lat="48.08821" lon="7.117">
        <ele>888</ele>
        <time>2019-04-13T00:00:27Z</time>
      </trkpt>
      <trkpt lat="48.08817" lon="7.11693">
        <ele>889</ele>
        <time>2019-04-13T00:01:27Z</time>
      </trkpt>
      <trkpt lat="48.08813" lon="7.11685">
        <ele>889</ele>
        <time>2019-04-13T00:02:27Z</time>
      </trkpt>
      <trkpt lat="48.08807" lon="7.11668">
        <ele>890</ele>
        <time>2019-04-13T00:03:27Z</time>
      </trkpt>
      <trkpt lat="48.08798" lon="7.11636">
        <ele>890</ele>
        <time>2019-04-13T00:04:27Z</time>
      </trkpt>
      <trkpt lat="48.08795" lon="7.11622">
        <ele>889</ele>
        <time>2019-04-13T00:05:27Z</time>
      </trkpt>
      <trkpt lat="48.08795" lon="7.11622">
        <ele>889</ele>
        <time>2019-04-13T00:06:27Z</time>
      </trkpt>
      <trkpt lat="48.08786" lon="7.11628">
        <ele>889</ele>
        <time>2019-04-13T00:07:27Z</time>
      </trkpt>
      <trkpt lat="48.08775" lon="7.11636">
        <ele>888</ele>
        <time>2019-04-13T00:08:27Z</time>
      </trkpt>
      <trkpt lat="48.08758" lon="7.11651">
        <ele>888</ele>
        <time>2019-04-13T00:09:27Z</time>
      </trkpt>
      <trkpt lat="48.08736" lon="7.11671">
        <ele>891</ele>
        <time>2019-04-13T00:10:27Z</time>
      </trkpt>
      <trkpt lat="48.08719" lon="7.11694">
        <ele>894</ele>
        <time>2019-04-13T00:11:27Z</time>
      </trkpt>
      <trkpt lat="48.08705" lon="7.11718">
        <ele>896</ele>
        <time>2019-04-13T00:12:27Z</time>
      </trkpt>
      <trkpt lat="48.08687" lon="7.11751">
        <ele>898</ele>
        <time>2019-04-13T00:13:27Z</time>
      </trkpt>
      <trkpt lat="48.0867" lon="7.11786">
        <ele>900</ele>
        <time>2019-04-13T00:14:27Z</time>
      </trkpt>
      <trkpt lat="48.08651" lon="7.11825">
        <ele>903</ele>
        <time>2019-04-13T00:15:27Z</time>
      </trkpt>
      <trkpt lat="48.08636" lon="7.11858">
        <ele>905</ele>
        <time>2019-04-13T00:16:27Z</time>
      </trkpt>
      <trkpt lat="48.08631" lon="7.11872">
        <ele>906</ele>
        <time>2019-04-13T00:17:27Z</time>
      </trkpt>
      <trkpt lat="48.08628" lon="7.11885">
        <ele>907</ele>
        <time>2019-04-13T00:18:27Z</time>
      </trkpt>
      <trkpt lat="48.08626" lon="7.119">
        <ele>907</ele>
        <time>2019-04-13T00:19:27Z</time>
      </trkpt>
      <trkpt lat="48.08625" lon="7.11913">
        <ele>907</ele>
        <time>2019-04-13T00:20:27Z</time>
      </trkpt>
      <trkpt lat="48.08626" lon="7.11927">
        <ele>907</ele>
        <time>2019-04-13T00:21:27Z</time>
      </trkpt>
      <trkpt lat="48.08627" lon="7.11946">
        <ele>908</ele>
        <time>2019-04-13T00:22:27Z</time>
      </trkpt>
      <trkpt lat="48.0863" lon="7.11965">
        <ele>908</ele>
        <time>2019-04-13T00:23:27Z</time>
      </trkpt>
      <trkpt lat="48.08632" lon="7.11979">
        <ele>908</ele>
        <time>2019-04-13T00:24:27Z</time>
      </trkpt>
      <trkpt lat="48.08634" lon="7.11998">
        <ele>908</ele>
        <time>2019-04-13T00:25:27Z</time>
      </trkpt>
      <trkpt lat="48.08637" lon="7.12026">
        <ele>908</ele>
        <time>2019-04-13T00:26:27Z</time>
      </trkpt>
      <trkpt lat="48.08638" lon="7.12043">
        <ele>909</ele>
        <time>2019-04-13T00:27:27Z</time>
      </trkpt>
      <trkpt lat="48.08638" lon="7.12054">
        <ele>909</ele>
        <time>2019-04-13T00:28:27Z</time>
      </trkpt>
      <trkpt lat="48.08638" lon="7.12068">
        <ele>909</ele>
        <time>2019-04-13T00:29:27Z</time>
      </trkpt>
      <trkpt lat="48.08635" lon="7.12089">
        <ele>910</ele>
        <time>2019-04-13T00:30:27Z</time>
      </trkpt>
      <trkpt lat="48.08633" lon="7.12114">
        <ele>911</ele>
        <time>2019-04-13T00:31:27Z</time>
      </trkpt>
      <trkpt lat="48.08633" lon="7.12134">
        <ele>912</ele>
        <time>2019-04-13T00:32:27Z</time>
      </trkpt>
      <trkpt lat="48.08634" lon="7.12155">
        <ele>913</ele>
        <time>2019-04-13T00:33:27Z</time>
      </trkpt>
      <trkpt lat="48.08635" lon="7.12194">
        <ele>913</ele>
        <time>2019-04-13T00:34:27Z</time>
      </trkpt>
      <trkpt lat="48.08633" lon="7.12235">
        <ele>914</ele>
        <time>2019-04-13T00:35:27Z</time>
      </trkpt>
      <trkpt lat="48.08631" lon="7.12266">
        <ele>915</ele>
        <time>2019-04-13T00:36:27Z</time>
      </trkpt>
      <trkpt lat="48.08628" lon="7.1229">
        <ele>916</ele>
        <time>2019-04-13T00:37:27Z</time>
      </trkpt>
      <trkpt lat="48.08624" lon="7.12313">
        <ele>917</ele>
        <time>2019-04-13T00:38:27Z</time>
      </trkpt>
      <trkpt lat="48.0862" lon="7.12329">
        <ele>919</ele>
        <time>2019-04-13T00:39:27Z</time>
      </trkpt>
      <trkpt lat="48.08617" lon="7.12343">
        <ele>919</ele>
        <time>2019-04-13T00:40:27Z</time>
      </trkpt>
      <trkpt lat="48.08616" lon="7.1236">
        <ele>920</ele>
        <time>2019-04-13T00:41:27Z</time>
      </trkpt>
      <trkpt lat="48.08615" lon="7.1238">
        <ele>920</ele>
        <time>2019-04-13T00:42:27Z</time>
      </trkpt>
      <trkpt lat="48.0861" lon="7.12413">
        <ele>922</ele>
        <time>2019-04-13T00:43:27Z</time>
      </trkpt>
      <trkpt lat="48.08604" lon="7.12436">
        <ele>923</ele>
        <time>2019-04-13T00:44:27Z</time>
      </trkpt>
      <trkpt lat="48.08596" lon="7.12458">
        <ele>924</ele>
        <time>2019-04-13T00:45:27Z</time>
      </trkpt>
      <trkpt lat="48.08587" lon="7.12478">
        <ele>926</ele>
        <time>2019-04-13T00:46:27Z</time>
      </trkpt>
      <trkpt lat="48.08578" lon="7.12498">
        <ele>927</ele>
        <time>2019-04-13T00:47:27Z</time>
      </trkpt>
      <trkpt lat="48.08566" lon="7.12514">
        <ele>927</ele>
        <time>2019-04-13T00:48:27Z</time>
      </trkpt>
      <trkpt lat="48.08554" lon="7.12528">
        <ele>928</ele>
        <time>2019-04-13T00:49:27Z</time>
      </trkpt>
      <trkpt lat="48.08547" lon="7.12535">
        <ele>928</ele>
        <time>2019-04-13T00:50:27Z</time>
      </trkpt>
      <trkpt lat="48.08539" lon="7.12541">
        <ele>928</ele>
        <time>2019-04-13T00:51:27Z</time>
      </trkpt>
      <trkpt lat="48.08527" lon="7.12548">
        <ele>929</ele>
        <time>2019-04-13T00:52:27Z</time>
      </trkpt>
      <trkpt lat="48.08516" lon="7.12554">
        <ele>930</ele>
        <time>2019-04-13T00:53:27Z</time>
      </trkpt>
      <trkpt lat="48.08492" lon="7.12563">
        <ele>932</ele>
        <time>2019-04-13T00:54:27Z</time>
      </trkpt>
      <trkpt lat="48.08464" lon="7.12576">
        <ele>932</ele>
        <time>2019-04-13T00:55:27Z</time>
      </trkpt>
      <trkpt lat="48.08435" lon="7.12589">
        <ele>933</ele>
        <time>2019-04-13T00:56:27Z</time>
      </trkpt>
      <trkpt lat="48.08409" lon="7.12598">
        <ele>934</ele>
        <time>2019-04-13T00:57:27Z</time>
      </trkpt>
      <trkpt lat="48.08381" lon="7.12605">
        <ele>934</ele>
        <time>2019-04-13T00:58:27Z</time>
      </trkpt>
      <trkpt lat="48.08364" lon="7.12608">
        <ele>934</ele>
        <time>2019-04-13T00:59:27Z</time>
      </trkpt>
      <trkpt lat="48.0835" lon="7.12607">
        <ele>934</ele>
        <time>2019-04-13T01:00:27Z</time>
      </trkpt>
      <trkpt lat="48.08339" lon="7.12604">
        <ele>935</ele>
        <time>2019-04-13T01:01:27Z</time>
      </trkpt>
      <trkpt lat="48.08331" lon="7.126">
        <ele>935</ele>
        <time>2019-04-13T01:02:27Z</time>
      </trkpt>
      <trkpt lat="48.08325" lon="7.12597">
        <ele>935</ele>
        <time>2019-04-13T01:03:27Z</time>
      </trkpt>
      <trkpt lat="48.08317" lon="7.1259">
        <ele>935</ele>
        <time>2019-04-13T01:04:27Z</time>
      </trkpt>
      <trkpt lat="48.083" lon="7.12576">
        <ele>936</ele>
        <time>2019-04-13T01:05:27Z</time>
      </trkpt>
      <trkpt lat="48.08286" lon="7.12566">
        <ele>937</ele>
        <time>2019-04-13T01:06:27Z</time>
      </trkpt>
      <trkpt lat="48.08281" lon="7.12564">
        <ele>938</ele>
        <time>2019-04-13T01:07:27Z</time>
      </trkpt>
      <trkpt lat="48.08274" lon="7.12562">
        <ele>938</ele>
        <time>2019-04-13T01:08:27Z</time>
      </trkpt>
      <trkpt lat="48.08267" lon="7.12562">
        <ele>937</ele>
        <time>2019-04-13T01:09:27Z</time>
      </trkpt>
      <trkpt lat="48.08259" lon="7.12563">
        <ele>937</ele>
        <time>2019-04-13T01:10:27Z</time>
      </trkpt>
      <trkpt lat="48.08251" lon="7.12566">
        <ele>936</ele>
        <time>2019-04-13T01:11:27Z</time>
      </trkpt>
      <trkpt lat="48.08246" lon="7.12568">
        <ele>935</ele>
        <time>2019-04-13T01:12:27Z</time>
      </trkpt>
      <trkpt lat="48.08239" lon="7.12573">
        <ele>934</ele>
        <time>2019-04-13T01:13:27Z</time>
      </trkpt>
      <trkpt lat="48.08224" lon="7.12585">
        <ele>931</ele>
        <time>2019-04-13T01:14:27Z</time>
      </trkpt>
      <trkpt lat="48.08213" lon="7.12594">
        <ele>930</ele>
        <time>2019-04-13T01:15:27Z</time>
      </trkpt>
      <trkpt lat="48.08205" lon="7.12598">
        <ele>930</ele>
        <time>2019-04-13T01:16:27Z</time>
      </trkpt>
      <trkpt lat="48.08199" lon="7.12601">
        <ele>929</ele>
        <time>2019-04-13T01:17:27Z</time>
      </trkpt>
      <trkpt lat="48.08191" lon="7.12602">
        <ele>929</ele>
        <time>2019-04-13T01:18:27Z</time>
      </trkpt>
      <trkpt lat="48.08176" lon="7.12602">
        <ele>929</ele>
        <time>2019-04-13T01:19:27Z</time>
      </trkpt>
      <trkpt lat="48.08128" lon="7.12594">
        <ele>931</ele>
        <time>2019-04-13T01:20:27Z</time>
      </trkpt>
      <trkpt lat="48.08097" lon="7.12591">
        <ele>932</ele>
        <time>2019-04-13T01:21:27Z</time>
      </trkpt>
      <trkpt lat="48.08084" lon="7.12591">
        <ele>933</ele>
        <time>2019-04-13T01:22:27Z</time>
      </trkpt>
      <trkpt lat="48.08075" lon="7.12593">
        <ele>933</ele>
        <time>2019-04-13T01:23:27Z</time>
      </trkpt>
      <trkpt lat="48.08068" lon="7.12597">
        <ele>934</ele>
        <time>2019-04-13T01:24:27Z</time>
      </trkpt>
      <trkpt lat="48.08065" lon="7.12601">
        <ele>934</ele>
        <time>2019-04-13T01:25:27Z</time>
      </trkpt>
      <trkpt lat="48.08064" lon="7.12602">
        <ele>934</ele>
        <time>2019-04-13T01:26:27Z</time>
      </trkpt>
      <trkpt lat="48.08062" lon="7.12605">
        <ele>934</ele>
        <time>2019-04-13T01:27:27Z</time>
      </trkpt>
      <trkpt lat="48.08056" lon="7.1262">
        <ele>935</ele>
        <time>2019-04-13T01:28:27Z</time>
      </trkpt>
      <trkpt lat="48.08054" lon="7.1263">
        <ele>935</ele>
        <time>2019-04-13T01:29:27Z</time>
      </trkpt>
      <trkpt lat="48.08054" lon="7.12642">
        <ele>935</ele>
        <time>2019-04-13T01:30:27Z</time>
      </trkpt>
      <trkpt lat="48.08056" lon="7.12665">
        <ele>936</ele>
        <time>2019-04-13T01:31:27Z</time>
      </trkpt>
      <trkpt lat="48.08059" lon="7.12694">
        <ele>936</ele>
        <time>2019-04-13T01:32:27Z</time>
      </trkpt>
      <trkpt lat="48.08062" lon="7.12719">
        <ele>937</ele>
        <time>2019-04-13T01:33:27Z</time>
      </trkpt>
      <trkpt lat="48.08062" lon="7.12738">
        <ele>938</ele>
        <time>2019-04-13T01:34:27Z</time>
      </trkpt>
      <trkpt lat="48.08061" lon="7.12757">
        <ele>938</ele>
        <time>2019-04-13T01:35:27Z</time>
      </trkpt>
      <trkpt lat="48.08058" lon="7.1279">
        <ele>939</ele>
        <time>2019-04-13T01:36:27Z</time>
      </trkpt>
      <trkpt lat="48.08055" lon="7.12814">
        <ele>940</ele>
        <time>2019-04-13T01:37:27Z</time>
      </trkpt>
      <trkpt lat="48.08054" lon="7.12822">
        <ele>940</ele>
        <time>2019-04-13T01:38:27Z</time>
      </trkpt>
      <trkpt lat="48.08051" lon="7.12838">
        <ele>940</ele>
        <time>2019-04-13T01:39:27Z</time>
      </trkpt>
      <trkpt lat="48.08048" lon="7.12847">
        <ele>940</ele>
        <time>2019-04-13T01:40:27Z</time>
      </trkpt>
      <trkpt lat="48.08043" lon="7.12862">
        <ele>940</ele>
        <time>2019-04-13T01:41:27Z</time>
      </trkpt>
      <trkpt lat="48.08035" lon="7.12878">
        <ele>940</ele>
        <time>2019-04-13T01:42:27Z</time>
      </trkpt>
      <trkpt lat="48.08027" lon="7.12892">
        <ele>940</ele>
        <time>2019-04-13T01:43:27Z</time>
      </trkpt>
      <trkpt lat="48.08013" lon="7.12912">
        <ele>942</ele>
        <time>2019-04-13T01:44:27Z</time>
      </trkpt>
      <trkpt lat="48.07998" lon="7.12933">
        <ele>943</ele>
        <time>2019-04-13T01:45:27Z</time>
      </trkpt>
      <trkpt lat="48.07993" lon="7.12942">
        <ele>944</ele>
        <time>2019-04-13T01:46:27Z</time>
      </trkpt>
      <trkpt lat="48.0799" lon="7.12949">
        <ele>944</ele>
        <time>2019-04-13T01:47:27Z</time>
      </trkpt>
      <trkpt lat="48.07987" lon="7.12956">
        <ele>944</ele>
        <time>2019-04-13T01:48:27Z</time>
      </trkpt>
      <trkpt lat="48.07985" lon="7.12964">
        <ele>944</ele>
        <time>2019-04-13T01:49:27Z</time>
      </trkpt>
      <trkpt lat="48.07982" lon="7.12976">
        <ele>944</ele>
        <time>2019-04-13T01:50:27Z</time>
      </trkpt>
      <trkpt lat="48.07981" lon="7.12991">
        <ele>943</ele>
        <time>2019-04-13T01:51:27Z</time>
      </trkpt>
      <trkpt lat="48.07979" lon="7.13014">
        <ele>943</ele>
        <time>2019-04-13T01:52:27Z</time>
      </trkpt>
      <trkpt lat="48.07977" lon="7.13035">
        <ele>944</ele>
        <time>2019-04-13T01:53:27Z</time>
      </trkpt>
      <trkpt lat="48.07974" lon="7.13053">
        <ele>944</ele>
        <time>2019-04-13T01:54:27Z</time>
      </trkpt>
      <trkpt lat="48.07972" lon="7.13066">
        <ele>945</ele>
        <time>2019-04-13T01:55:27Z</time>
      </trkpt>
      <trkpt lat="48.07971" lon="7.13073">
        <ele>945</ele>
        <time>2019-04-13T01:56:27Z</time>
      </trkpt>
      <trkpt lat="48.07969" lon="7.1308">
        <ele>945</ele>
        <time>2019-04-13T01:57:27Z</time>
      </trkpt>
      <trkpt lat="48.07966" lon="7.13094">
        <ele>946</ele>
        <time>2019-04-13T01:58:27Z</time>
      </trkpt>
      <trkpt lat="48.07961" lon="7.13106">
        <ele>947</ele>
        <time>2019-04-13T01:59:27Z</time>
      </trkpt>
      <trkpt lat="48.07955" lon="7.13123">
        <ele>948</ele>
        <time>2019-04-13T02:00:27Z</time>
      </trkpt>
      <trkpt lat="48.07946" lon="7.13145">
        <ele>950</ele>
        <time>2019-04-13T02:01:27Z</time>
      </trkpt>
      <trkpt lat="48.07942" lon="7.1316">
        <ele>950</ele>
        <time>2019-04-13T02:02:27Z</time>
      </trkpt>
      <trkpt lat="48.0794" lon="7.13177">
        <ele>952</ele>
        <time>2019-04-13T02:03:27Z</time>
      </trkpt>
      <trkpt lat="48.07939" lon="7.13192">
        <ele>953</ele>
        <time>2019-04-13T02:04:27Z</time>
      </trkpt>
      <trkpt lat="48.07941" lon="7.13207">
        <ele>954</ele>
        <time>2019-04-13T02:05:27Z</time>
      </trkpt>
      <trkpt lat="48.07947" lon="7.13225">
        <ele>955</ele>
        <time>2019-04-13T02:06:27Z</time>
      </trkpt>
      <trkpt lat="48.07953" lon="7.1324">
        <ele>956</ele>
        <time>2019-04-13T02:07:27Z</time>
      </trkpt>
      <trkpt lat="48.07964" lon="7.1326">
        <ele>958</ele>
        <time>2019-04-13T02:08:27Z</time>
      </trkpt>
      <trkpt lat="48.07978" lon="7.13285">
        <ele>960</ele>
        <time>2019-04-13T02:09:27Z</time>
      </trkpt>
      <trkpt lat="48.0799" lon="7.13307">
        <ele>962</ele>
        <time>2019-04-13T02:10:27Z</time>
      </trkpt>
      <trkpt lat="48.08002" lon="7.13329">
        <ele>964</ele>
        <time>2019-04-13T02:11:27Z</time>
      </trkpt>
      <trkpt lat="48.08012" lon="7.13348">
        <ele>966</ele>
        <time>2019-04-13T02:12:27Z</time>
      </trkpt>
      <trkpt lat="48.08014" lon="7.13353">
        <ele>966</ele>
        <time>2019-04-13T02:13:27Z</time>
      </trkpt>
      <trkpt lat="48.08024" lon="7.13368">
        <ele>967</ele>
        <time>2019-04-13T02:14:27Z</time>
      </trkpt>
      <trkpt lat="48.08033" lon="7.13385">
        <ele>968</ele>
        <time>2019-04-13T02:15:27Z</time>
      </trkpt>
      <trkpt lat="48.08044" lon="7.13401">
        <ele>969</ele>
        <time>2019-04-13T02:16:27Z</time>
      </trkpt>
      <trkpt lat="48.08059" lon="7.13421">
        <ele>969</ele>
        <time>2019-04-13T02:17:27Z</time>
      </trkpt>
      <trkpt lat="48.08071" lon="7.13435">
        <ele>969</ele>
        <time>2019-04-13T02:18:27Z</time>
      </trkpt>
      <trkpt lat="48.08083" lon="7.13452">
        <ele>970</ele>
        <time>2019-04-13T02:19:27Z</time>
      </trkpt>
      <trkpt lat="48.08092" lon="7.13467">
        <ele>970</ele>
        <time>2019-04-13T02:20:27Z</time>
      </trkpt>
      <trkpt lat="48.08101" lon="7.13485">
        <ele>971</ele>
        <time>2019-04-13T02:21:27Z</time>
      </trkpt>
      <trkpt lat="48.08116" lon="7.13513">
        <ele>972</ele>
        <time>2019-04-13T02:22:27Z</time>
      </trkpt>
      <trkpt lat="48.08135" lon="7.13552">
        <ele>974</ele>
        <time>2019-04-13T02:23:27Z</time>
      </trkpt>
      <trkpt lat="48.08156" lon="7.13595">
        <ele>976</ele>
        <time>2019-04-13T02:24:27Z</time>
      </trkpt>
      <trkpt lat="48.08177" lon="7.1364">
        <ele>978</ele>
        <time>2019-04-13T02:25:27Z</time>
      </trkpt>
      <trkpt lat="48.08187" lon="7.13663">
        <ele>980</ele>
        <time>2019-04-13T02:26:27Z</time>
      </trkpt>
      <trkpt lat="48.082" lon="7.13701">
        <ele>984</ele>
        <time>2019-04-13T02:27:27Z</time>
      </trkpt>
      <trkpt lat="48.08206" lon="7.13719">
        <ele>985</ele>
        <time>2019-04-13T02:28:27Z</time>
      </trkpt>
      <trkpt lat="48.08212" lon="7.13733">
        <ele>986</ele>
        <time>2019-04-13T02:29:27Z</time>
      </trkpt>
      <trkpt lat="48.08225" lon="7.13757">
        <ele>987</ele>
        <time>2019-04-13T02:30:27Z</time>
      </trkpt>
      <trkpt lat="48.08241" lon="7.13783">
        <ele>986</ele>
        <time>2019-04-13T02:31:27Z</time>
      </trkpt>
      <trkpt lat="48.08243" lon="7.13785">
        <ele>986</ele>
        <time>2019-04-13T02:32:27Z</time>
      </trkpt>
      <trkpt lat="48.08254" lon="7.13804">
        <ele>986</ele>
        <time>2019-04-13T02:33:27Z</time>
      </trkpt>
      <trkpt lat="48.08269" lon="7.13828">
        <ele>986</ele>
        <time>2019-04-13T02:34:27Z</time>
      </trkpt>
      <trkpt lat="48.0827" lon="7.1383">
        <ele>986</ele>
        <time>2019-04-13T02:35:27Z</time>
      </trkpt>
      <trkpt lat="48.0829" lon="7.13861">
        <ele>985</ele>
        <time>2019-04-13T02:36:27Z</time>
      </trkpt>
      <trkpt lat="48.08314" lon="7.13897">
        <ele>984</ele>
        <time>2019-04-13T02:37:27Z</time>
      </trkpt>
      <trkpt lat="48.08328" lon="7.13926">
        <ele>984</ele>
        <time>2019-04-13T02:38:27Z</time>
      </trkpt>
      <trkpt lat="48.08332" lon="7.13931">
        <ele>983</ele>
        <time>2019-04-13T02:39:27Z</time>
      </trkpt>
      <trkpt lat="48.0834" lon="7.13944">
        <ele>982</ele>
        <time>2019-04-13T02:40:27Z</time>
      </trkpt>
      <trkpt lat="48.08343" lon="7.13951">
        <ele>982</ele>
        <time>2019-04-13T02:41:27Z</time>
      </trkpt>
      <trkpt lat="48.08344" lon="7.13953">
        <ele>982</ele>
        <time>2019-04-13T02:42:27Z</time>
      </trkpt>
      <trkpt lat="48.08352" lon="7.13972">
        <ele>982</ele>
        <time>2019-04-13T02:43:27Z</time>
      </trkpt>
      <trkpt lat="48.08355" lon="7.13981">
        <ele>982</ele>
        <time>2019-04-13T02:44:27Z</time>
      </trkpt>
      <trkpt lat="48.08358" lon="7.13993">
        <ele>983</ele>
        <time>2019-04-13T02:45:27Z</time>
      </trkpt>
      <trkpt lat="48.0836" lon="7.14002">
        <ele>983</ele>
        <time>2019-04-13T02:46:27Z</time>
      </trkpt>
      <trkpt lat="48.08357" lon="7.14007">
        <ele>984</ele>
        <time>2019-04-13T02:47:27Z</time>
      </trkpt>
      <trkpt lat="48.08354" lon="7.14009">
        <ele>984</ele>
        <time>2019-04-13T02:48:27Z</time>
      </trkpt>
      <trkpt lat="48.08351" lon="7.14011">
        <ele>984</ele>
        <time>2019-04-13T02:49:27Z</time>
      </trkpt>
      <trkpt lat="48.08348" lon="7.14011">
        <ele>984</ele>
        <time>2019-04-13T02:50:27Z</time>
      </trkpt>
      <trkpt lat="48.08346" lon="7.14011">
        <ele>984</ele>
        <time>2019-04-13T02:51:27Z</time>
      </trkpt>
      <trkpt lat="48.08343" lon="7.14011">
        <ele>985</ele>
        <time>2019-04-13T02:52:27Z</time>
      </trkpt>
      <trkpt lat="48.08335" lon="7.14008">
        <ele>985</ele>
        <time>2019-04-13T02:53:27Z</time>
      </trkpt>
      <trkpt lat="48.08332" lon="7.14007">
        <ele>986</ele>
        <time>2019-04-13T02:54:27Z</time>
      </trkpt>
      <trkpt lat="48.08324" lon="7.14004">
        <ele>987</ele>
        <time>2019-04-13T02:55:27Z</time>
      </trkpt>
      <trkpt lat="48.08302" lon="7.14">
        <ele>989</ele>
        <time>2019-04-13T02:56:27Z</time>
      </trkpt>
      <trkpt lat="48.08294" lon="7.13997">
        <ele>990</ele>
        <time>2019-04-13T02:57:27Z</time>
      </trkpt>
      <trkpt lat="48.08274" lon="7.13993">
        <ele>993</ele>
        <time>2019-04-13T02:58:27Z</time>
      </trkpt>
      <trkpt lat="48.08253" lon="7.13988">
        <ele>995</ele>
        <time>2019-04-13T02:59:27Z</time>
      </trkpt>
      <trkpt lat="48.08232" lon="7.13985">
        <ele>997</ele>
        <time>2019-04-13T03:00:27Z</time>
      </trkpt>
      <trkpt lat="48.08215" lon="7.13987">
        <ele>998</ele>
        <time>2019-04-13T03:01:27Z</time>
      </trkpt>
      <trkpt lat="48.08205" lon="7.13989">
        <ele>999</ele>
        <time>2019-04-13T03:02:27Z</time>
      </trkpt>
      <trkpt lat="48.08181" lon="7.13995">
        <ele>999</ele>
        <time>2019-04-13T03:03:27Z</time>
      </trkpt>
      <trkpt lat="48.08166" lon="7.14003">
        <ele>998</ele>
        <time>2019-04-13T03:04:27Z</time>
      </trkpt>
      <trkpt lat="48.08151" lon="7.14011">
        <ele>999</ele>
        <time>2019-04-13T03:05:27Z</time>
      </trkpt>
      <trkpt lat="48.0814" lon="7.1402">
        <ele>999</ele>
        <time>2019-04-13T03:06:27Z</time>
      </trkpt>
      <trkpt lat="48.0812" lon="7.14038">
        <ele>999</ele>
        <time>2019-04-13T03:07:27Z</time>
      </trkpt>
      <trkpt lat="48.08112" lon="7.1405">
        <ele>998</ele>
        <time>2019-04-13T03:08:27Z</time>
      </trkpt>
      <trkpt lat="48.081" lon="7.14066">
        <ele>997</ele>
        <time>2019-04-13T03:09:27Z</time>
      </trkpt>
      <trkpt lat="48.08093" lon="7.14079">
        <ele>996</ele>
        <time>2019-04-13T03:10:27Z</time>
      </trkpt>
      <trkpt lat="48.08083" lon="7.14103">
        <ele>995</ele>
        <time>2019-04-13T03:11:27Z</time>
      </trkpt>
      <trkpt lat="48.08081" lon="7.1411">
        <ele>995</ele>
        <time>2019-04-13T03:12:27Z</time>
      </trkpt>
      <trkpt lat="48.08075" lon="7.14132">
        <ele>994</ele>
        <time>2019-04-13T03:13:27Z</time>
      </trkpt>
      <trkpt lat="48.0807" lon="7.14161">
        <ele>992</ele>
        <time>2019-04-13T03:14:27Z</time>
      </trkpt>
      <trkpt lat="48.08066" lon="7.1418">
        <ele>991</ele>
        <time>2019-04-13T03:15:27Z</time>
      </trkpt>
      <trkpt lat="48.0806" lon="7.14207">
        <ele>989</ele>
        <time>2019-04-13T03:16:27Z</time>
      </trkpt>
      <trkpt lat="48.08053" lon="7.14234">
        <ele>987</ele>
        <time>2019-04-13T03:17:27Z</time>
      </trkpt>
      <trkpt lat="48.08044" lon="7.14249">
        <ele>986</ele>
        <time>2019-04-13T03:18:27Z</time>
      </trkpt>
      <trkpt lat="48.08034" lon="7.14263">
        <ele>986</ele>
        <time>2019-04-13T03:19:27Z</time>
      </trkpt>
      <trkpt lat="48.08026" lon="7.14272">
        <ele>986</ele>
        <time>2019-04-13T03:20:27Z</time>
      </trkpt>
      <trkpt lat="48.08009" lon="7.1428">
        <ele>988</ele>
        <time>2019-04-13T03:21:27Z</time>
      </trkpt>
      <trkpt lat="48.07989" lon="7.14289">
        <ele>988</ele>
        <time>2019-04-13T03:22:27Z</time>
      </trkpt>
      <trkpt lat="48.07972" lon="7.14297">
        <ele>987</ele>
        <time>2019-04-13T03:23:27Z</time>
      </trkpt>
      <trkpt lat="48.07959" lon="7.14303">
        <ele>986</ele>
        <time>2019-04-13T03:24:27Z</time>
      </trkpt>
      <trkpt lat="48.07954" lon="7.14306">
        <ele>985</ele>
        <time>2019-04-13T03:25:27Z</time>
      </trkpt>
      <trkpt lat="48.07951" lon="7.14309">
        <ele>985</ele>
        <time>2019-04-13T03:26:27Z</time>
      </trkpt>
      <trkpt lat="48.07948" lon="7.14313">
        <ele>985</ele>
        <time>2019-04-13T03:27:27Z</time>
      </trkpt>
      <trkpt lat="48.07945" lon="7.14318">
        <ele>984</ele>
        <time>2019-04-13T03:28:27Z</time>
      </trkpt>
      <trkpt lat="48.07937" lon="7.14329">
        <ele>983</ele>
        <time>2019-04-13T03:29:27Z</time>
      </trkpt>
      <trkpt lat="48.07929" lon="7.14344">
        <ele>982</ele>
        <time>2019-04-13T03:30:27Z</time>
      </trkpt>
      <trkpt lat="48.07927" lon="7.14357">
        <ele>981</ele>
        <time>2019-04-13T03:31:27Z</time>
      </trkpt>
      <trkpt lat="48.07927" lon="7.14357">
        <ele>981</ele>
        <time>2019-04-13T03:32:27Z</time>
      </trkpt>
      <trkpt lat="48.07921" lon="7.14357">
        <ele>981</ele>
        <time>2019-04-13T03:33:27Z</time>
      </trkpt>
      <trkpt lat="48.07918" lon="7.14357">
        <ele>981</ele>
        <time>2019-04-13T03:34:27Z</time>
      </trkpt>
      <trkpt lat="48.07915" lon="7.14357">
        <ele>981</ele>
        <time>2019-04-13T03:35:27Z</time>
      </trkpt>
      <trkpt lat="48.07913" lon="7.14356">
        <ele>981</ele>
        <time>2019-04-13T03:36:27Z</time>
      </trkpt>
      <trkpt lat="48.07912" lon="7.14354">
        <ele>981</ele>
        <time>2019-04-13T03:37:27Z</time>
      </trkpt>
      <trkpt lat="48.07904" lon="7.14346">
        <ele>980</ele>
        <time>2019-04-13T03:38:27Z</time>
      </trkpt>
      <trkpt lat="48.07901" lon="7.14333">
        <ele>980</ele>
        <time>2019-04-13T03:39:27Z</time>
      </trkpt>
      <trkpt lat="48.07898" lon="7.14326">
        <ele>980</ele>
        <time>2019-04-13T03:40:27Z</time>
      </trkpt>
      <trkpt lat="48.07888" lon="7.14303">
        <ele>980</ele>
        <time>2019-04-13T03:41:27Z</time>
      </trkpt>
      <trkpt lat="48.07881" lon="7.14285">
        <ele>980</ele>
        <time>2019-04-13T03:42:27Z</time>
      </trkpt>
      <trkpt lat="48.07876" lon="7.14269">
        <ele>980</ele>
        <time>2019-04-13T03:43:27Z</time>
      </trkpt>
      <trkpt lat="48.0786" lon="7.14209">
        <ele>980</ele>
        <time>2019-04-13T03:44:27Z</time>
      </trkpt>
      <trkpt lat="48.07846" lon="7.14153">
        <ele>980</ele>
        <time>2019-04-13T03:45:27Z</time>
      </trkpt>
      <trkpt lat="48.07841" lon="7.1414">
        <ele>981</ele>
        <time>2019-04-13T03:46:27Z</time>
      </trkpt>
      <trkpt lat="48.07836" lon="7.14127">
        <ele>981</ele>
        <time>2019-04-13T03:47:27Z</time>
      </trkpt>
      <trkpt lat="48.07832" lon="7.1412">
        <ele>981</ele>
        <time>2019-04-13T03:48:27Z</time>
      </trkpt>
      <trkpt lat="48.07824" lon="7.14104">
        <ele>981</ele>
        <time>2019-04-13T03:49:27Z</time>
      </trkpt>
      <trkpt lat="48.07818" lon="7.14095">
        <ele>980</ele>
        <time>2019-04-13T03:50:27Z</time>
      </trkpt>
      <trkpt lat="48.07813" lon="7.14089">
        <ele>980</ele>
        <time>2019-04-13T03:51:27Z</time>
      </trkpt>
      <trkpt lat="48.07807" lon="7.14081">
        <ele>979</ele>
        <time>2019-04-13T03:52:27Z</time>
      </trkpt>
      <trkpt lat="48.07801" lon="7.14074">
        <ele>978</ele>
        <time>2019-04-13T03:53:27Z</time>
      </trkpt>
      <trkpt lat="48.07788" lon="7.14061">
        <ele>976</ele>
        <time>2019-04-13T03:54:27Z</time>
      </trkpt>
      <trkpt lat="48.07767" lon="7.14039">
        <ele>972</ele>
        <time>2019-04-13T03:55:27Z</time>
      </trkpt>
      <trkpt lat="48.07756" lon="7.14027">
        <ele>970</ele>
        <time>2019-04-13T03:56:27Z</time>
      </trkpt>
      <trkpt lat="48.07744" lon="7.14014">
        <ele>968</ele>
        <time>2019-04-13T03:57:27Z</time>
      </trkpt>
      <trkpt lat="48.07734" lon="7.13999">
        <ele>967</ele>
        <time>2019-04-13T03:58:27Z</time>
      </trkpt>
      <trkpt lat="48.07725" lon="7.13984">
        <ele>965</ele>
        <time>2019-04-13T03:59:27Z</time>
      </trkpt>
      <trkpt lat="48.07719" lon="7.13966">
        <ele>964</ele>
        <time>2019-04-13T04:00:27Z</time>
      </trkpt>
      <trkpt lat="48.07716" lon="7.13958">
        <ele>963</ele>
        <time>2019-04-13T04:01:27Z</time>
      </trkpt>
      <trkpt lat="48.07714" lon="7.13948">
        <ele>963</ele>
        <time>2019-04-13T04:02:27Z</time>
      </trkpt>
      <trkpt lat="48.07712" lon="7.13939">
        <ele>962</ele>
        <time>2019-04-13T04:03:27Z</time>
      </trkpt>
      <trkpt lat="48.07711" lon="7.13929">
        <ele>962</ele>
        <time>2019-04-13T04:04:27Z</time>
      </trkpt>
      <trkpt lat="48.07711" lon="7.1392">
        <ele>962</ele>
        <time>2019-04-13T04:05:27Z</time>
      </trkpt>
      <trkpt lat="48.0771" lon="7.13911">
        <ele>962</ele>
        <time>2019-04-13T04:06:27Z</time>
      </trkpt>
      <trkpt lat="48.0771" lon="7.13901">
        <ele>961</ele>
        <time>2019-04-13T04:07:27Z</time>
      </trkpt>
      <trkpt lat="48.07715" lon="7.13873">
        <ele>961</ele>
        <time>2019-04-13T04:08:27Z</time>
      </trkpt>
      <trkpt lat="48.0772" lon="7.13834">
        <ele>960</ele>
        <time>2019-04-13T04:09:27Z</time>
      </trkpt>
      <trkpt lat="48.07724" lon="7.13803">
        <ele>961</ele>
        <time>2019-04-13T04:10:27Z</time>
      </trkpt>
      <trkpt lat="48.07724" lon="7.13777">
        <ele>960</ele>
        <time>2019-04-13T04:11:27Z</time>
      </trkpt>
      <trkpt lat="48.07723" lon="7.13759">
        <ele>959</ele>
        <time>2019-04-13T04:12:27Z</time>
      </trkpt>
      <trkpt lat="48.07718" lon="7.13729">
        <ele>957</ele>
        <time>2019-04-13T04:13:27Z</time>
      </trkpt>
      <trkpt lat="48.07713" lon="7.13709">
        <ele>956</ele>
        <time>2019-04-13T04:14:27Z</time>
      </trkpt>
      <trkpt lat="48.07706" lon="7.13683">
        <ele>955</ele>
        <time>2019-04-13T04:15:27Z</time>
      </trkpt>
      <trkpt lat="48.07699" lon="7.13666">
        <ele>952</ele>
        <time>2019-04-13T04:16:27Z</time>
      </trkpt>
      <trkpt lat="48.0769" lon="7.13642">
        <ele>952</ele>
        <time>2019-04-13T04:17:27Z</time>
      </trkpt>
      <trkpt lat="48.07681" lon="7.13618">
        <ele>952</ele>
        <time>2019-04-13T04:18:27Z</time>
      </trkpt>
      <trkpt lat="48.07668" lon="7.13594">
        <ele>951</ele>
        <time>2019-04-13T04:19:27Z</time>
      </trkpt>
      <trkpt lat="48.07648" lon="7.13566">
        <ele>950</ele>
        <time>2019-04-13T04:20:27Z</time>
      </trkpt>
      <trkpt lat="48.07613" lon="7.13522">
        <ele>948</ele>
        <time>2019-04-13T04:21:27Z</time>
      </trkpt>
      <trkpt lat="48.07586" lon="7.13491">
        <ele>949</ele>
        <time>2019-04-13T04:22:27Z</time>
      </trkpt>
      <trkpt lat="48.07571" lon="7.13479">
        <ele>950</ele>
        <time>2019-04-13T04:23:27Z</time>
      </trkpt>
      <trkpt lat="48.07556" lon="7.13472">
        <ele>950</ele>
        <time>2019-04-13T04:24:27Z</time>
      </trkpt>
      <trkpt lat="48.07543" lon="7.13472">
        <ele>948</ele>
        <time>2019-04-13T04:25:27Z</time>
      </trkpt>
      <trkpt lat="48.07527" lon="7.13476">
        <ele>945</ele>
        <time>2019-04-13T04:26:27Z</time>
      </trkpt>
      <trkpt lat="48.07509" lon="7.13485">
        <ele>940</ele>
        <time>2019-04-13T04:27:27Z</time>
      </trkpt>
      <trkpt lat="48.07491" lon="7.135">
        <ele>932</ele>
        <time>2019-04-13T04:28:27Z</time>
      </trkpt>
      <trkpt lat="48.07475" lon="7.13511">
        <ele>925</ele>
        <time>2019-04-13T04:29:27Z</time>
      </trkpt>
      <trkpt lat="48.07468" lon="7.13513">
        <ele>923</ele>
        <time>2019-04-13T04:30:27Z</time>
      </trkpt>
      <trkpt lat="48.07462" lon="7.13513">
        <ele>922</ele>
        <time>2019-04-13T04:31:27Z</time>
      </trkpt>
      <trkpt lat="48.07453" lon="7.13509">
        <ele>921</ele>
        <time>2019-04-13T04:32:27Z</time>
      </trkpt>
      <trkpt lat="48.07448" lon="7.13504">
        <ele>921</ele>
        <time>2019-04-13T04:33:27Z</time>
      </trkpt>
      <trkpt lat="48.07438" lon="7.13488">
        <ele>923</ele>
        <time>2019-04-13T04:34:27Z</time>
      </trkpt>
      <trkpt lat="48.07431" lon="7.13468">
        <ele>925</ele>
        <time>2019-04-13T04:35:27Z</time>
      </trkpt>
      <trkpt lat="48.07419" lon="7.13423">
        <ele>931</ele>
        <time>2019-04-13T04:36:27Z</time>
      </trkpt>
      <trkpt lat="48.07404" lon="7.13385">
        <ele>933</ele>
        <time>2019-04-13T04:37:27Z</time>
      </trkpt>
      <trkpt lat="48.07383" lon="7.13346">
        <ele>933</ele>
        <time>2019-04-13T04:38:27Z</time>
      </trkpt>
      <trkpt lat="48.07375" lon="7.13329">
        <ele>934</ele>
        <time>2019-04-13T04:39:27Z</time>
      </trkpt>
      <trkpt lat="48.07366" lon="7.13317">
        <ele>934</ele>
        <time>2019-04-13T04:40:27Z</time>
      </trkpt>
      <trkpt lat="48.07363" lon="7.13312">
        <ele>934</ele>
        <time>2019-04-13T04:41:27Z</time>
      </trkpt>
      <trkpt lat="48.07341" lon="7.1329">
        <ele>931</ele>
        <time>2019-04-13T04:42:27Z</time>
      </trkpt>
      <trkpt lat="48.07324" lon="7.13276">
        <ele>929</ele>
        <time>2019-04-13T04:43:27Z</time>
      </trkpt>
      <trkpt lat="48.07289" lon="7.13253">
        <ele>926</ele>
        <time>2019-04-13T04:44:27Z</time>
      </trkpt>
      <trkpt lat="48.07264" lon="7.13243">
        <ele>923</ele>
        <time>2019-04-13T04:45:27Z</time>
      </trkpt>
      <trkpt lat="48.07249" lon="7.13238">
        <ele>922</ele>
        <time>2019-04-13T04:46:27Z</time>
      </trkpt>
      <trkpt lat="48.07205" lon="7.13235">
        <ele>918</ele>
        <time>2019-04-13T04:47:27Z</time>
      </trkpt>
      <trkpt lat="48.07189" lon="7.13235">
        <ele>916</ele>
        <time>2019-04-13T04:48:27Z</time>
      </trkpt>
      <trkpt lat="48.07162" lon="7.13238">
        <ele>913</ele>
        <time>2019-04-13T04:49:27Z</time>
      </trkpt>
      <trkpt lat="48.07117" lon="7.13242">
        <ele>909</ele>
        <time>2019-04-13T04:50:27Z</time>
      </trkpt>
      <trkpt lat="48.07055" lon="7.13254">
        <ele>901</ele>
        <time>2019-04-13T04:51:27Z</time>
      </trkpt>
      <trkpt lat="48.07013" lon="7.13263">
        <ele>896</ele>
        <time>2019-04-13T04:52:27Z</time>
      </trkpt>
      <trkpt lat="48.06979" lon="7.1327">
        <ele>891</ele>
        <time>2019-04-13T04:53:27Z</time>
      </trkpt>
      <trkpt lat="48.06947" lon="7.13273">
        <ele>887</ele>
        <time>2019-04-13T04:54:27Z</time>
      </trkpt>
      <trkpt lat="48.06921" lon="7.13276">
        <ele>884</ele>
        <time>2019-04-13T04:55:27Z</time>
      </trkpt>
      <trkpt lat="48.0689" lon="7.13277">
        <ele>881</ele>
        <time>2019-04-13T04:56:27Z</time>
      </trkpt>
      <trkpt lat="48.06871" lon="7.13282">
        <ele>877</ele>
        <time>2019-04-13T04:57:27Z</time>
      </trkpt>
      <trkpt lat="48.06855" lon="7.13291">
        <ele>874</ele>
        <time>2019-04-13T04:58:27Z</time>
      </trkpt>
      <trkpt lat="48.06843" lon="7.13301">
        <ele>871</ele>
        <time>2019-04-13T04:59:27Z</time>
      </trkpt>
      <trkpt lat="48.0683" lon="7.13312">
        <ele>868</ele>
        <time>2019-04-13T05:00:27Z</time>
      </trkpt>
      <trkpt lat="48.06814" lon="7.13325">
        <ele>864</ele>
        <time>2019-04-13T05:01:27Z</time>
      </trkpt>
      <trkpt lat="48.06795" lon="7.13337">
        <ele>861</ele>
        <time>2019-04-13T05:02:27Z</time>
      </trkpt>
      <trkpt lat="48.06781" lon="7.13342">
        <ele>859</ele>
        <time>2019-04-13T05:03:27Z</time>
      </trkpt>
      <trkpt lat="48.06771" lon="7.13342">
        <ele>858</ele>
        <time>2019-04-13T05:04:27Z</time>
      </trkpt>
      <trkpt lat="48.06768" lon="7.13342">
        <ele>858</ele>
        <time>2019-04-13T05:05:27Z</time>
      </trkpt>
      <trkpt lat="48.0676" lon="7.1334">
        <ele>857</ele>
        <time>2019-04-13T05:06:27Z</time>
      </trkpt>
      <trkpt lat="48.06749" lon="7.13336">
        <ele>856</ele>
        <time>2019-04-13T05:07:27Z</time>
      </trkpt>
      <trkpt lat="48.06741" lon="7.13329">
        <ele>855</ele>
        <time>2019-04-13T05:08:27Z</time>
      </trkpt>
      <trkpt lat="48.06734" lon="7.13321">
        <ele>854</ele>
        <time>2019-04-13T05:09:27Z</time>
      </trkpt>
      <trkpt lat="48.0673" lon="7.13313">
        <ele>853</ele>
        <time>2019-04-13T05:10:27Z</time>
      </trkpt>
      <trkpt lat="48.06722" lon="7.13292">
        <ele>852</ele>
        <time>2019-04-13T05:11:27Z</time>
      </trkpt>
      <trkpt lat="48.06715" lon="7.13268">
        <ele>851</ele>
        <time>2019-04-13T05:12:27Z</time>
      </trkpt>
      <trkpt lat="48.06712" lon="7.13247">
        <ele>851</ele>
        <time>2019-04-13T05:13:27Z</time>
      </trkpt>
      <trkpt lat="48.06712" lon="7.13218">
        <ele>851</ele>
        <time>2019-04-13T05:14:27Z</time>
      </trkpt>
      <trkpt lat="48.06711" lon="7.13179">
        <ele>850</ele>
        <time>2019-04-13T05:15:27Z</time>
      </trkpt>
      <trkpt lat="48.0671" lon="7.1314">
        <ele>849</ele>
        <time>2019-04-13T05:16:27Z</time>
      </trkpt>
      <trkpt lat="48.06706" lon="7.13089">
        <ele>846</ele>
        <time>2019-04-13T05:17:27Z</time>
      </trkpt>
      <trkpt lat="48.06704" lon="7.13041">
        <ele>843</ele>
        <time>2019-04-13T05:18:27Z</time>
      </trkpt>
      <trkpt lat="48.06703" lon="7.13005">
        <ele>841</ele>
        <time>2019-04-13T05:19:27Z</time>
      </trkpt>
      <trkpt lat="48.06703" lon="7.12982">
        <ele>839</ele>
        <time>2019-04-13T05:20:27Z</time>
      </trkpt>
      <trkpt lat="48.06705" lon="7.12955">
        <ele>836</ele>
        <time>2019-04-13T05:21:27Z</time>
      </trkpt>
      <trkpt lat="48.06709" lon="7.1293">
        <ele>834</ele>
        <time>2019-04-13T05:22:27Z</time>
      </trkpt>
      <trkpt lat="48.06716" lon="7.12897">
        <ele>832</ele>
        <time>2019-04-13T05:23:27Z</time>
      </trkpt>
      <trkpt lat="48.06725" lon="7.12858">
        <ele>829</ele>
        <time>2019-04-13T05:24:27Z</time>
      </trkpt>
      <trkpt lat="48.06736" lon="7.12817">
        <ele>828</ele>
        <time>2019-04-13T05:25:27Z</time>
      </trkpt>
      <trkpt lat="48.06744" lon="7.12781">
        <ele>827</ele>
        <time>2019-04-13T05:26:27Z</time>
      </trkpt>
      <trkpt lat="48.06747" lon="7.12754">
        <ele>826</ele>
        <time>2019-04-13T05:27:27Z</time>
      </trkpt>
      <trkpt lat="48.06748" lon="7.1273">
        <ele>825</ele>
        <time>2019-04-13T05:28:27Z</time>
      </trkpt>
      <trkpt lat="48.06746" lon="7.12707">
        <ele>823</ele>
        <time>2019-04-13T05:29:27Z</time>
      </trkpt>
      <trkpt lat="48.06742" lon="7.12679">
        <ele>821</ele>
        <time>2019-04-13T05:30:27Z</time>
      </trkpt>
      <trkpt lat="48.06736" lon="7.1265">
        <ele>819</ele>
        <time>2019-04-13T05:31:27Z</time>
      </trkpt>
      <trkpt lat="48.06724" lon="7.12613">
        <ele>818</ele>
        <time>2019-04-13T05:32:27Z</time>
      </trkpt>
      <trkpt lat="48.0672" lon="7.126">
        <ele>817</ele>
        <time>2019-04-13T05:33:27Z</time>
      </trkpt>
      <trkpt lat="48.06717" lon="7.12587">
        <ele>817</ele>
        <time>2019-04-13T05:34:27Z</time>
      </trkpt>
      <trkpt lat="48.06706" lon="7.12556">
        <ele>816</ele>
        <time>2019-04-13T05:35:27Z</time>
      </trkpt>
      <trkpt lat="48.06695" lon="7.12512">
        <ele>815</ele>
        <time>2019-04-13T05:36:27Z</time>
      </trkpt>
      <trkpt lat="48.06686" lon="7.12484">
        <ele>812</ele>
        <time>2019-04-13T05:37:27Z</time>
      </trkpt>
      <trkpt lat="48.06682" lon="7.12475">
        <ele>811</ele>
        <time>2019-04-13T05:38:27Z</time>
      </trkpt>
      <trkpt lat="48.06676" lon="7.1246">
        <ele>809</ele>
        <time>2019-04-13T05:39:27Z</time>
      </trkpt>
      <trkpt lat="48.06665" lon="7.12445">
        <ele>806</ele>
        <time>2019-04-13T05:40:27Z</time>
      </trkpt>
      <trkpt lat="48.06656" lon="7.12435">
        <ele>804</ele>
        <time>2019-04-13T05:41:27Z</time>
      </trkpt>
      <trkpt lat="48.06644" lon="7.12429">
        <ele>803</ele>
        <time>2019-04-13T05:42:27Z</time>
      </trkpt>
      <trkpt lat="48.06637" lon="7.12428">
        <ele>802</ele>
        <time>2019-04-13T05:43:27Z</time>
      </trkpt>
      <trkpt lat="48.06634" lon="7.12427">
        <ele>802</ele>
        <time>2019-04-13T05:44:27Z</time>
      </trkpt>
      <trkpt lat="48.06623" lon="7.12426">
        <ele>801</ele>
        <time>2019-04-13T05:45:27Z</time>
      </trkpt>
      <trkpt lat="48.06614" lon="7.12429">
        <ele>801</ele>
        <time>2019-04-13T05:46:27Z</time>
      </trkpt>
      <trkpt lat="48.06601" lon="7.12435">
        <ele>800</ele>
        <time>2019-04-13T05:47:27Z</time>
      </trkpt>
      <trkpt lat="48.06597" lon="7.12438">
        <ele>800</ele>
        <time>2019-04-13T05:48:27Z</time>
      </trkpt>
      <trkpt lat="48.0659" lon="7.12447">
        <ele>800</ele>
        <time>2019-04-13T05:49:27Z</time>
      </trkpt>
      <trkpt lat="48.06582" lon="7.12458">
        <ele>799</ele>
        <time>2019-04-13T05:50:27Z</time>
      </trkpt>
      <trkpt lat="48.06577" lon="7.12466">
        <ele>798</ele>
        <time>2019-04-13T05:51:27Z</time>
      </trkpt>
      <trkpt lat="48.06571" lon="7.12481">
        <ele>798</ele>
        <time>2019-04-13T05:52:27Z</time>
      </trkpt>
      <trkpt lat="48.06568" lon="7.12497">
        <ele>797</ele>
        <time>2019-04-13T05:53:27Z</time>
      </trkpt>
      <trkpt lat="48.06567" lon="7.12512">
        <ele>796</ele>
        <time>2019-04-13T05:54:27Z</time>
      </trkpt>
      <trkpt lat="48.06568" lon="7.12529">
        <ele>796</ele>
        <time>2019-04-13T05:55:27Z</time>
      </trkpt>
      <trkpt lat="48.06571" lon="7.12549">
        <ele>795</ele>
        <time>2019-04-13T05:56:27Z</time>
      </trkpt>
      <trkpt lat="48.06576" lon="7.12568">
        <ele>795</ele>
        <time>2019-04-13T05:57:27Z</time>
      </trkpt>
      <trkpt lat="48.06578" lon="7.12575">
        <ele>795</ele>
        <time>2019-04-13T05:58:27Z</time>
      </trkpt>
      <trkpt lat="48.06587" lon="7.12602">
        <ele>794</ele>
        <time>2019-04-13T05:59:27Z</time>
      </trkpt>
      <trkpt lat="48.06596" lon="7.12628">
        <ele>794</ele>
        <time>2019-04-13T06:00:27Z</time>
      </trkpt>
      <trkpt lat="48.06606" lon="7.12648">
        <ele>794</ele>
        <time>2019-04-13T06:01:27Z</time>
      </trkpt>
      <trkpt lat="48.06609" lon="7.12656">
        <ele>794</ele>
        <time>2019-04-13T06:02:27Z</time>
      </trkpt>
      <trkpt lat="48.06616" lon="7.1267">
        <ele>795</ele>
        <time>2019-04-13T06:03:27Z</time>
      </trkpt>
      <trkpt lat="48.06627" lon="7.1269">
        <ele>795</ele>
        <time>2019-04-13T06:04:27Z</time>
      </trkpt>
      <trkpt lat="48.06638" lon="7.12711">
        <ele>796</ele>
        <time>2019-04-13T06:05:27Z</time>
      </trkpt>
      <trkpt lat="48.06649" lon="7.12729">
        <ele>798</ele>
        <time>2019-04-13T06:06:27Z</time>
      </trkpt>
      <trkpt lat="48.06657" lon="7.12745">
        <ele>799</ele>
        <time>2019-04-13T06:07:27Z</time>
      </trkpt>
      <trkpt lat="48.06659" lon="7.12751">
        <ele>800</ele>
        <time>2019-04-13T06:08:27Z</time>
      </trkpt>
      <trkpt lat="48.06659" lon="7.12757">
        <ele>800</ele>
        <time>2019-04-13T06:09:27Z</time>
      </trkpt>
      <trkpt lat="48.06659" lon="7.12761">
        <ele>800</ele>
        <time>2019-04-13T06:10:27Z</time>
      </trkpt>
      <trkpt lat="48.06658" lon="7.12768">
        <ele>800</ele>
        <time>2019-04-13T06:11:27Z</time>
      </trkpt>
      <trkpt lat="48.06654" lon="7.12785">
        <ele>799</ele>
        <time>2019-04-13T06:12:27Z</time>
      </trkpt>
      <trkpt lat="48.06649" lon="7.12801">
        <ele>798</ele>
        <time>2019-04-13T06:13:27Z</time>
      </trkpt>
      <trkpt lat="48.06644" lon="7.12822">
        <ele>797</ele>
        <time>2019-04-13T06:14:27Z</time>
      </trkpt>
      <trkpt lat="48.0664" lon="7.12831">
        <ele>796</ele>
        <time>2019-04-13T06:15:27Z</time>
      </trkpt>
      <trkpt lat="48.06636" lon="7.12837">
        <ele>796</ele>
        <time>2019-04-13T06:16:27Z</time>
      </trkpt>
      <trkpt lat="48.06632" lon="7.12842">
        <ele>795</ele>
        <time>2019-04-13T06:17:27Z</time>
      </trkpt>
      <trkpt lat="48.06624" lon="7.12851">
        <ele>794</ele>
        <time>2019-04-13T06:18:27Z</time>
      </trkpt>
      <trkpt lat="48.06608" lon="7.12867">
        <ele>790</ele>
        <time>2019-04-13T06:19:27Z</time>
      </trkpt>
      <trkpt lat="48.0659" lon="7.12887">
        <ele>787</ele>
        <time>2019-04-13T06:20:27Z</time>
      </trkpt>
      <trkpt lat="48.0657" lon="7.1291">
        <ele>784</ele>
        <time>2019-04-13T06:21:27Z</time>
      </trkpt>
      <trkpt lat="48.06559" lon="7.12927">
        <ele>783</ele>
        <time>2019-04-13T06:22:27Z</time>
      </trkpt>
      <trkpt lat="48.06549" lon="7.12939">
        <ele>782</ele>
        <time>2019-04-13T06:23:27Z</time>
      </trkpt>
      <trkpt lat="48.0654" lon="7.12955">
        <ele>781</ele>
        <time>2019-04-13T06:24:27Z</time>
      </trkpt>
      <trkpt lat="48.06531" lon="7.12976">
        <ele>781</ele>
        <time>2019-04-13T06:25:27Z</time>
      </trkpt>
      <trkpt lat="48.06525" lon="7.12998">
        <ele>782</ele>
        <time>2019-04-13T06:26:27Z</time>
      </trkpt>
      <trkpt lat="48.06521" lon="7.13013">
        <ele>782</ele>
        <time>2019-04-13T06:27:27Z</time>
      </trkpt>
      <trkpt lat="48.06517" lon="7.13039">
        <ele>782</ele>
        <time>2019-04-13T06:28:27Z</time>
      </trkpt>
      <trkpt lat="48.06509" lon="7.13082">
        <ele>780</ele>
        <time>2019-04-13T06:29:27Z</time>
      </trkpt>
      <trkpt lat="48.065" lon="7.13129">
        <ele>776</ele>
        <time>2019-04-13T06:30:27Z</time>
      </trkpt>
      <trkpt lat="48.06493" lon="7.13167">
        <ele>773</ele>
        <time>2019-04-13T06:31:27Z</time>
      </trkpt>
      <trkpt lat="48.06492" lon="7.13172">
        <ele>772</ele>
        <time>2019-04-13T06:32:27Z</time>
      </trkpt>
      <trkpt lat="48.06491" lon="7.13187">
        <ele>771</ele>
        <time>2019-04-13T06:33:27Z</time>
      </trkpt>
      <trkpt lat="48.06492" lon="7.13209">
        <ele>770</ele>
        <time>2019-04-13T06:34:27Z</time>
      </trkpt>
      <trkpt lat="48.06495" lon="7.13228">
        <ele>769</ele>
        <time>2019-04-13T06:35:27Z</time>
      </trkpt>
      <trkpt lat="48.06499" lon="7.13246">
        <ele>770</ele>
        <time>2019-04-13T06:36:27Z</time>
      </trkpt>
      <trkpt lat="48.06505" lon="7.13267">
        <ele>769</ele>
        <time>2019-04-13T06:37:27Z</time>
      </trkpt>
      <trkpt lat="48.06515" lon="7.1329">
        <ele>770</ele>
        <time>2019-04-13T06:38:27Z</time>
      </trkpt>
      <trkpt lat="48.06523" lon="7.1331">
        <ele>771</ele>
        <time>2019-04-13T06:39:27Z</time>
      </trkpt>
      <trkpt lat="48.06526" lon="7.13323">
        <ele>771</ele>
        <time>2019-04-13T06:40:27Z</time>
      </trkpt>
      <trkpt lat="48.0653" lon="7.13349">
        <ele>770</ele>
        <time>2019-04-13T06:41:27Z</time>
      </trkpt>
      <trkpt lat="48.06532" lon="7.13387">
        <ele>766</ele>
        <time>2019-04-13T06:42:27Z</time>
      </trkpt>
      <trkpt lat="48.06533" lon="7.13418">
        <ele>762</ele>
        <time>2019-04-13T06:43:27Z</time>
      </trkpt>
      <trkpt lat="48.06532" lon="7.1344">
        <ele>762</ele>
        <time>2019-04-13T06:44:27Z</time>
      </trkpt>
      <trkpt lat="48.06529" lon="7.13458">
        <ele>761</ele>
        <time>2019-04-13T06:45:27Z</time>
      </trkpt>
      <trkpt lat="48.06525" lon="7.1347">
        <ele>759</ele>
        <time>2019-04-13T06:46:27Z</time>
      </trkpt>
      <trkpt lat="48.06517" lon="7.13489">
        <ele>756</ele>
        <time>2019-04-13T06:47:27Z</time>
      </trkpt>
      <trkpt lat="48.0651" lon="7.1351">
        <ele>754</ele>
        <time>2019-04-13T06:48:27Z</time>
      </trkpt>
      <trkpt lat="48.06503" lon="7.13524">
        <ele>752</ele>
        <time>2019-04-13T06:49:27Z</time>
      </trkpt>
      <trkpt lat="48.06492" lon="7.13551">
        <ele>750</ele>
        <time>2019-04-13T06:50:27Z</time>
      </trkpt>
      <trkpt lat="48.06488" lon="7.13565">
        <ele>749</ele>
        <time>2019-04-13T06:51:27Z</time>
      </trkpt>
      <trkpt lat="48.06487" lon="7.13582">
        <ele>750</ele>
        <time>2019-04-13T06:52:27Z</time>
      </trkpt>
      <trkpt lat="48.06484" lon="7.13602">
        <ele>751</ele>
        <time>2019-04-13T06:53:27Z</time>
      </trkpt>
      <trkpt lat="48.06482" lon="7.13616">
        <ele>751</ele>
        <time>2019-04-13T06:54:27Z</time>
      </trkpt>
      <trkpt lat="48.06478" lon="7.13632">
        <ele>751</ele>
        <time>2019-04-13T06:55:27Z</time>
      </trkpt>
      <trkpt lat="48.06473" lon="7.13647">
        <ele>751</ele>
        <time>2019-04-13T06:56:27Z</time>
      </trkpt>
      <trkpt lat="48.06462" lon="7.13668">
        <ele>749</ele>
        <time>2019-04-13T06:57:27Z</time>
      </trkpt>
      <trkpt lat="48.06447" lon="7.13686">
        <ele>747</ele>
        <time>2019-04-13T06:58:27Z</time>
      </trkpt>
      <trkpt lat="48.06427" lon="7.13704">
        <ele>744</ele>
        <time>2019-04-13T06:59:27Z</time>
      </trkpt>
      <trkpt lat="48.06397" lon="7.13722">
        <ele>742</ele>
        <time>2019-04-13T07:00:27Z</time>
      </trkpt>
      <trkpt lat="48.0638" lon="7.1373">
        <ele>742</ele>
        <time>2019-04-13T07:01:27Z</time>
      </trkpt>
      <trkpt lat="48.06366" lon="7.13735">
        <ele>741</ele>
        <time>2019-04-13T07:02:27Z</time>
      </trkpt>
      <trkpt lat="48.06356" lon="7.13736">
        <ele>739</ele>
        <time>2019-04-13T07:03:27Z</time>
      </trkpt>
      <trkpt lat="48.06248" lon="7.13765">
        <ele>731</ele>
        <time>2019-04-13T07:04:27Z</time>
      </trkpt>
      <trkpt lat="48.06232" lon="7.13766">
        <ele>729</ele>
        <time>2019-04-13T07:05:27Z</time>
      </trkpt>
      <trkpt lat="48.06219" lon="7.13773">
        <ele>728</ele>
        <time>2019-04-13T07:06:27Z</time>
      </trkpt>
      <trkpt lat="48.06207" lon="7.1378">
        <ele>728</ele>
        <time>2019-04-13T07:07:27Z</time>
      </trkpt>
      <trkpt lat="48.06192" lon="7.13792">
        <ele>726</ele>
        <time>2019-04-13T07:08:27Z</time>
      </trkpt>
      <trkpt lat="48.06171" lon="7.13812">
        <ele>724</ele>
        <time>2019-04-13T07:09:27Z</time>
      </trkpt>
      <trkpt lat="48.0616" lon="7.13826">
        <ele>723</ele>
        <time>2019-04-13T07:10:27Z</time>
      </trkpt>
      <trkpt lat="48.06151" lon="7.13841">
        <ele>720</ele>
        <time>2019-04-13T07:11:27Z</time>
      </trkpt>
      <trkpt lat="48.06148" lon="7.1385">
        <ele>720</ele>
        <time>2019-04-13T07:12:27Z</time>
      </trkpt>
      <trkpt lat="48.06146" lon="7.13864">
        <ele>720</ele>
        <time>2019-04-13T07:13:27Z</time>
      </trkpt>
      <trkpt lat="48.06146" lon="7.13873">
        <ele>720</ele>
        <time>2019-04-13T07:14:27Z</time>
      </trkpt>
      <trkpt lat="48.06146" lon="7.13881">
        <ele>720</ele>
        <time>2019-04-13T07:15:27Z</time>
      </trkpt>
      <trkpt lat="48.06148" lon="7.13897">
        <ele>722</ele>
        <time>2019-04-13T07:16:27Z</time>
      </trkpt>
      <trkpt lat="48.06155" lon="7.1393">
        <ele>725</ele>
        <time>2019-04-13T07:17:27Z</time>
      </trkpt>
      <trkpt lat="48.06155" lon="7.13934">
        <ele>725</ele>
        <time>2019-04-13T07:18:27Z</time>
      </trkpt>
      <trkpt lat="48.06154" lon="7.13938">
        <ele>725</ele>
        <time>2019-04-13T07:19:27Z</time>
      </trkpt>
      <trkpt lat="48.06153" lon="7.13942">
        <ele>724</ele>
        <time>2019-04-13T07:20:27Z</time>
      </trkpt>
      <trkpt lat="48.06151" lon="7.13944">
        <ele>723</ele>
        <time>2019-04-13T07:21:27Z</time>
      </trkpt>
      <trkpt lat="48.06145" lon="7.13945">
        <ele>720</ele>
        <time>2019-04-13T07:22:27Z</time>
      </trkpt>
      <trkpt lat="48.06141" lon="7.13941">
        <ele>718</ele>
        <time>2019-04-13T07:23:27Z</time>
      </trkpt>
      <trkpt lat="48.06139" lon="7.13937">
        <ele>718</ele>
        <time>2019-04-13T07:24:27Z</time>
      </trkpt>
      <trkpt lat="48.06138" lon="7.13931">
        <ele>717</ele>
        <time>2019-04-13T07:25:27Z</time>
      </trkpt>
      <trkpt lat="48.06138" lon="7.13912">
        <ele>717</ele>
        <time>2019-04-13T07:26:27Z</time>
      </trkpt>
      <trkpt lat="48.06137" lon="7.13903">
        <ele>717</ele>
        <time>2019-04-13T07:27:27Z</time>
      </trkpt>
      <trkpt lat="48.06136" lon="7.13895">
        <ele>716</ele>
        <time>2019-04-13T07:28:27Z</time>
      </trkpt>
      <trkpt lat="48.06133" lon="7.13883">
        <ele>715</ele>
        <time>2019-04-13T07:29:27Z</time>
      </trkpt>
      <trkpt lat="48.06128" lon="7.1386">
        <ele>713</ele>
        <time>2019-04-13T07:30:27Z</time>
      </trkpt>
      <trkpt lat="48.0612" lon="7.13831">
        <ele>710</ele>
        <time>2019-04-13T07:31:27Z</time>
      </trkpt>
      <trkpt lat="48.06114" lon="7.13811">
        <ele>709</ele>
        <time>2019-04-13T07:32:27Z</time>
      </trkpt>
      <trkpt lat="48.06104" lon="7.1378">
        <ele>708</ele>
        <time>2019-04-13T07:33:27Z</time>
      </trkpt>
      <trkpt lat="48.06094" lon="7.13753">
        <ele>707</ele>
        <time>2019-04-13T07:34:27Z</time>
      </trkpt>
      <trkpt lat="48.06091" lon="7.13745">
        <ele>706</ele>
        <time>2019-04-13T07:35:27Z</time>
      </trkpt>
      <trkpt lat="48.0608" lon="7.13721">
        <ele>704</ele>
        <time>2019-04-13T07:36:27Z</time>
      </trkpt>
      <trkpt lat="48.06073" lon="7.13706">
        <ele>702</ele>
        <time>2019-04-13T07:37:27Z</time>
      </trkpt>
      <trkpt lat="48.06069" lon="7.13695">
        <ele>701</ele>
        <time>2019-04-13T07:38:27Z</time>
      </trkpt>
      <trkpt lat="48.0606" lon="7.13683">
        <ele>699</ele>
        <time>2019-04-13T07:39:27Z</time>
      </trkpt>
      <trkpt lat="48.06055" lon="7.13675">
        <ele>698</ele>
        <time>2019-04-13T07:40:27Z</time>
      </trkpt>
      <trkpt lat="48.0605" lon="7.13669">
        <ele>697</ele>
        <time>2019-04-13T07:41:27Z</time>
      </trkpt>
      <trkpt lat="48.06044" lon="7.13665">
        <ele>696</ele>
        <time>2019-04-13T07:42:27Z</time>
      </trkpt>
      <trkpt lat="48.06036" lon="7.13658">
        <ele>694</ele>
        <time>2019-04-13T07:43:27Z</time>
      </trkpt>
      <trkpt lat="48.06028" lon="7.13659">
        <ele>692</ele>
        <time>2019-04-13T07:44:27Z</time>
      </trkpt>
      <trkpt lat="48.0602" lon="7.13657">
        <ele>690</ele>
        <time>2019-04-13T07:45:27Z</time>
      </trkpt>
      <trkpt lat="48.06013" lon="7.13652">
        <ele>689</ele>
        <time>2019-04-13T07:46:27Z</time>
      </trkpt>
      <trkpt lat="48.06007" lon="7.13643">
        <ele>688</ele>
        <time>2019-04-13T07:47:27Z</time>
      </trkpt>
      <trkpt lat="48.06002" lon="7.13634">
        <ele>688</ele>
        <time>2019-04-13T07:48:27Z</time>
      </trkpt>
      <trkpt lat="48.06" lon="7.13625">
        <ele>689</ele>
        <time>2019-04-13T07:49:27Z</time>
      </trkpt>
      <trkpt lat="48.05998" lon="7.13615">
        <ele>689</ele>
        <time>2019-04-13T07:50:27Z</time>
      </trkpt>
      <trkpt lat="48.05997" lon="7.13606">
        <ele>689</ele>
        <time>2019-04-13T07:51:27Z</time>
      </trkpt>
      <trkpt lat="48.05998" lon="7.13598">
        <ele>690</ele>
        <time>2019-04-13T07:52:27Z</time>
      </trkpt>
      <trkpt lat="48.05999" lon="7.13591">
        <ele>691</ele>
        <time>2019-04-13T07:53:27Z</time>
      </trkpt>
      <trkpt lat="48.06002" lon="7.13584">
        <ele>692</ele>
        <time>2019-04-13T07:54:27Z</time>
      </trkpt>
      <trkpt lat="48.06006" lon="7.13577">
        <ele>691</ele>
        <time>2019-04-13T07:55:27Z</time>
      </trkpt>
      <trkpt lat="48.06012" lon="7.13571">
        <ele>691</ele>
        <time>2019-04-13T07:56:27Z</time>
      </trkpt>
      <trkpt lat="48.0602" lon="7.13566">
        <ele>690</ele>
        <time>2019-04-13T07:57:27Z</time>
      </trkpt>
      <trkpt lat="48.06024" lon="7.13565">
        <ele>690</ele>
        <time>2019-04-13T07:58:27Z</time>
      </trkpt>
      <trkpt lat="48.06031" lon="7.1356">
        <ele>689</ele>
        <time>2019-04-13T07:59:27Z</time>
      </trkpt>
      <trkpt lat="48.06036" lon="7.13552">
        <ele>688</ele>
        <time>2019-04-13T08:00:27Z</time>
      </trkpt>
      <trkpt lat="48.06037" lon="7.13544">
        <ele>687</ele>
        <time>2019-04-13T08:01:27Z</time>
      </trkpt>
      <trkpt lat="48.06037" lon="7.1354">
        <ele>686</ele>
        <time>2019-04-13T08:02:27Z</time>
      </trkpt>
      <trkpt lat="48.06036" lon="7.13534">
        <ele>685</ele>
        <time>2019-04-13T08:03:27Z</time>
      </trkpt>
      <trkpt lat="48.06033" lon="7.1353">
        <ele>685</ele>
        <time>2019-04-13T08:04:27Z</time>
      </trkpt>
      <trkpt lat="48.06031" lon="7.13526">
        <ele>684</ele>
        <time>2019-04-13T08:05:27Z</time>
      </trkpt>
      <trkpt lat="48.06028" lon="7.13523">
        <ele>684</ele>
        <time>2019-04-13T08:06:27Z</time>
      </trkpt>
      <trkpt lat="48.06014" lon="7.13515">
        <ele>683</ele>
        <time>2019-04-13T08:07:27Z</time>
      </trkpt>
      <trkpt lat="48.06001" lon="7.13512">
        <ele>683</ele>
        <time>2019-04-13T08:08:27Z</time>
      </trkpt>
      <trkpt lat="48.05997" lon="7.13511">
        <ele>683</ele>
        <time>2019-04-13T08:09:27Z</time>
      </trkpt>
      <trkpt lat="48.05992" lon="7.1351">
        <ele>682</ele>
        <time>2019-04-13T08:10:27Z</time>
      </trkpt>
      <trkpt lat="48.05988" lon="7.1351">
        <ele>681</ele>
        <time>2019-04-13T08:11:27Z</time>
      </trkpt>
      <trkpt lat="48.05985" lon="7.1351">
        <ele>681</ele>
        <time>2019-04-13T08:12:27Z</time>
      </trkpt>
      <trkpt lat="48.05981" lon="7.13511">
        <ele>680</ele>
        <time>2019-04-13T08:13:27Z</time>
      </trkpt>
      <trkpt lat="48.05979" lon="7.13512">
        <ele>680</ele>
        <time>2019-04-13T08:14:27Z</time>
      </trkpt>
      <trkpt lat="48.05975" lon="7.13514">
        <ele>679</ele>
        <time>2019-04-13T08:15:27Z</time>
      </trkpt>
      <trkpt lat="48.05966" lon="7.13522">
        <ele>678</ele>
        <time>2019-04-13T08:16:27Z</time>
      </trkpt>
      <trkpt lat="48.05962" lon="7.13529">
        <ele>677</ele>
        <time>2019-04-13T08:17:27Z</time>
      </trkpt>
      <trkpt lat="48.0596" lon="7.13536">
        <ele>677</ele>
        <time>2019-04-13T08:18:27Z</time>
      </trkpt>
      <trkpt lat="48.05959" lon="7.13552">
        <ele>677</ele>
        <time>2019-04-13T08:19:27Z</time>
      </trkpt>
      <trkpt lat="48.05962" lon="7.13568">
        <ele>678</ele>
        <time>2019-04-13T08:20:27Z</time>
      </trkpt>
      <trkpt lat="48.05968" lon="7.13597">
        <ele>679</ele>
        <time>2019-04-13T08:21:27Z</time>
      </trkpt>
      <trkpt lat="48.05973" lon="7.13618">
        <ele>678</ele>
        <time>2019-04-13T08:22:27Z</time>
      </trkpt>
      <trkpt lat="48.05979" lon="7.13632">
        <ele>679</ele>
        <time>2019-04-13T08:23:27Z</time>
      </trkpt>
      <trkpt lat="48.05986" lon="7.13651">
        <ele>680</ele>
        <time>2019-04-13T08:24:27Z</time>
      </trkpt>
      <trkpt lat="48.05997" lon="7.13677">
        <ele>682</ele>
        <time>2019-04-13T08:25:27Z</time>
      </trkpt>
      <trkpt lat="48.06" lon="7.13685">
        <ele>683</ele>
        <time>2019-04-13T08:26:27Z</time>
      </trkpt>
      <trkpt lat="48.06004" lon="7.13693">
        <ele>683</ele>
        <time>2019-04-13T08:27:27Z</time>
      </trkpt>
      <trkpt lat="48.06007" lon="7.13698">
        <ele>683</ele>
        <time>2019-04-13T08:28:27Z</time>
      </trkpt>
      <trkpt lat="48.06009" lon="7.13706">
        <ele>683</ele>
        <time>2019-04-13T08:29:27Z</time>
      </trkpt>
      <trkpt lat="48.06011" lon="7.13712">
        <ele>683</ele>
        <time>2019-04-13T08:30:27Z</time>
      </trkpt>
      <trkpt lat="48.06013" lon="7.1372">
        <ele>683</ele>
        <time>2019-04-13T08:31:27Z</time>
      </trkpt>
      <trkpt lat="48.06014" lon="7.13728">
        <ele>682</ele>
        <time>2019-04-13T08:32:27Z</time>
      </trkpt>
      <trkpt lat="48.06014" lon="7.13735">
        <ele>682</ele>
        <time>2019-04-13T08:33:27Z</time>
      </trkpt>
      <trkpt lat="48.06015" lon="7.13743">
        <ele>681</ele>
        <time>2019-04-13T08:34:27Z</time>
      </trkpt>
      <trkpt lat="48.06016" lon="7.13753">
        <ele>680</ele>
        <time>2019-04-13T08:35:27Z</time>
      </trkpt>
      <trkpt lat="48.06017" lon="7.13769">
        <ele>679</ele>
        <time>2019-04-13T08:36:27Z</time>
      </trkpt>
      <trkpt lat="48.06017" lon="7.13774">
        <ele>679</ele>
        <time>2019-04-13T08:37:27Z</time>
      </trkpt>
      <trkpt lat="48.06016" lon="7.13779">
        <ele>678</ele>
        <time>2019-04-13T08:38:27Z</time>
      </trkpt>
      <trkpt lat="48.06015" lon="7.13783">
        <ele>677</ele>
        <time>2019-04-13T08:39:27Z</time>
      </trkpt>
      <trkpt lat="48.06014" lon="7.13786">
        <ele>677</ele>
        <time>2019-04-13T08:40:27Z</time>
      </trkpt>
      <trkpt lat="48.06011" lon="7.1379">
        <ele>675</ele>
        <time>2019-04-13T08:41:27Z</time>
      </trkpt>
      <trkpt lat="48.06006" lon="7.1379">
        <ele>673</ele>
        <time>2019-04-13T08:42:27Z</time>
      </trkpt>
      <trkpt lat="48.06003" lon="7.1379">
        <ele>672</ele>
        <time>2019-04-13T08:43:27Z</time>
      </trkpt>
      <trkpt lat="48.06002" lon="7.1379">
        <ele>672</ele>
        <time>2019-04-13T08:44:27Z</time>
      </trkpt>
      <trkpt lat="48.06001" lon="7.13789">
        <ele>672</ele>
        <time>2019-04-13T08:45:27Z</time>
      </trkpt>
      <trkpt lat="48.06" lon="7.13787">
        <ele>671</ele>
        <time>2019-04-13T08:46:27Z</time>
      </trkpt>
      <trkpt lat="48.05999" lon="7.13786">
        <ele>671</ele>
        <time>2019-04-13T08:47:27Z</time>
      </trkpt>
      <trkpt lat="48.05998" lon="7.13785">
        <ele>671</ele>
        <time>2019-04-13T08:48:27Z</time>
      </trkpt>
      <trkpt lat="48.05997" lon="7.13784">
        <ele>670</ele>
        <time>2019-04-13T08:49:27Z</time>
      </trkpt>
      <trkpt lat="48.05997" lon="7.13783">
        <ele>671</ele>
        <time>2019-04-13T08:50:27Z</time>
      </trkpt>
      <trkpt lat="48.05996" lon="7.13781">
        <ele>670</ele>
        <time>2019-04-13T08:51:27Z</time>
      </trkpt>
      <trkpt lat="48.05996" lon="7.13779">
        <ele>671</ele>
        <time>2019-04-13T08:52:27Z</time>
      </trkpt>
      <trkpt lat="48.05995" lon="7.13777">
        <ele>670</ele>
        <time>2019-04-13T08:53:27Z</time>
      </trkpt>
      <trkpt lat="48.05994" lon="7.13774">
        <ele>670</ele>
        <time>2019-04-13T08:54:27Z</time>
      </trkpt>
      <trkpt lat="48.05994" lon="7.1377">
        <ele>671</ele>
        <time>2019-04-13T08:55:27Z</time>
      </trkpt>
      <trkpt lat="48.05993" lon="7.13766">
        <ele>670</ele>
        <time>2019-04-13T08:56:27Z</time>
      </trkpt>
      <trkpt lat="48.05993" lon="7.13761">
        <ele>671</ele>
        <time>2019-04-13T08:57:27Z</time>
      </trkpt>
      <trkpt lat="48.05993" lon="7.1375">
        <ele>672</ele>
        <time>2019-04-13T08:58:27Z</time>
      </trkpt>
      <trkpt lat="48.05994" lon="7.13743">
        <ele>673</ele>
        <time>2019-04-13T08:59:27Z</time>
      </trkpt>
      <trkpt lat="48.05994" lon="7.13738">
        <ele>674</ele>
        <time>2019-04-13T09:00:27Z</time>
      </trkpt>
      <trkpt lat="48.05993" lon="7.13733">
        <ele>674</ele>
        <time>2019-04-13T09:01:27Z</time>
      </trkpt>
      <trkpt lat="48.05993" lon="7.13727">
        <ele>675</ele>
        <time>2019-04-13T09:02:27Z</time>
      </trkpt>
      <trkpt lat="48.05991" lon="7.13718">
        <ele>675</ele>
        <time>2019-04-13T09:03:27Z</time>
      </trkpt>
      <trkpt lat="48.05989" lon="7.13713">
        <ele>675</ele>
        <time>2019-04-13T09:04:27Z</time>
      </trkpt>
      <trkpt lat="48.05987" lon="7.13706">
        <ele>675</ele>
        <time>2019-04-13T09:05:27Z</time>
      </trkpt>
      <trkpt lat="48.05979" lon="7.13686">
        <ele>674</ele>
        <time>2019-04-13T09:06:27Z</time>
      </trkpt>
      <trkpt lat="48.05963" lon="7.13654">
        <ele>670</ele>
        <time>2019-04-13T09:07:27Z</time>
      </trkpt>
      <trkpt lat="48.05946" lon="7.13619">
        <ele>668</ele>
        <time>2019-04-13T09:08:27Z</time>
      </trkpt>
      <trkpt lat="48.05933" lon="7.13589">
        <ele>666</ele>
        <time>2019-04-13T09:09:27Z</time>
      </trkpt>
      <trkpt lat="48.05922" lon="7.13574">
        <ele>664</ele>
        <time>2019-04-13T09:10:27Z</time>
      </trkpt>
      <trkpt lat="48.05908" lon="7.13558">
        <ele>660</ele>
        <time>2019-04-13T09:11:27Z</time>
      </trkpt>
      <trkpt lat="48.0589" lon="7.13532">
        <ele>657</ele>
        <time>2019-04-13T09:12:27Z</time>
      </trkpt>
      <trkpt lat="48.05877" lon="7.13512">
        <ele>654</ele>
        <time>2019-04-13T09:13:27Z</time>
      </trkpt>
      <trkpt lat="48.05872" lon="7.13499">
        <ele>654</ele>
        <time>2019-04-13T09:14:27Z</time>
      </trkpt>
      <trkpt lat="48.05869" lon="7.13483">
        <ele>653</ele>
        <time>2019-04-13T09:15:27Z</time>
      </trkpt>
      <trkpt lat="48.05869" lon="7.13454">
        <ele>652</ele>
        <time>2019-04-13T09:16:27Z</time>
      </trkpt>
      <trkpt lat="48.05869" lon="7.13424">
        <ele>652</ele>
        <time>2019-04-13T09:17:27Z</time>
      </trkpt>
      <trkpt lat="48.05869" lon="7.13401">
        <ele>649</ele>
        <time>2019-04-13T09:18:27Z</time>
      </trkpt>
      <trkpt lat="48.0587" lon="7.13385">
        <ele>646</ele>
        <time>2019-04-13T09:19:27Z</time>
      </trkpt>
      <trkpt lat="48.05874" lon="7.13369">
        <ele>644</ele>
        <time>2019-04-13T09:20:27Z</time>
      </trkpt>
      <trkpt lat="48.05881" lon="7.13356">
        <ele>642</ele>
        <time>2019-04-13T09:21:27Z</time>
      </trkpt>
      <trkpt lat="48.05891" lon="7.13345">
        <ele>641</ele>
        <time>2019-04-13T09:22:27Z</time>
      </trkpt>
      <trkpt lat="48.05904" lon="7.13339">
        <ele>641</ele>
        <time>2019-04-13T09:23:27Z</time>
      </trkpt>
      <trkpt lat="48.05913" lon="7.13336">
        <ele>640</ele>
        <time>2019-04-13T09:24:27Z</time>
      </trkpt>
      <trkpt lat="48.05924" lon="7.13335">
        <ele>640</ele>
        <time>2019-04-13T09:25:27Z</time>
      </trkpt>
      <trkpt lat="48.05936" lon="7.13334">
        <ele>638</ele>
        <time>2019-04-13T09:26:27Z</time>
      </trkpt>
      <trkpt lat="48.05942" lon="7.13334">
        <ele>638</ele>
        <time>2019-04-13T09:27:27Z</time>
      </trkpt>
      <trkpt lat="48.05954" lon="7.13335">
        <ele>637</ele>
        <time>2019-04-13T09:28:27Z</time>
      </trkpt>
      <trkpt lat="48.05968" lon="7.13336">
        <ele>636</ele>
        <time>2019-04-13T09:29:27Z</time>
      </trkpt>
      <trkpt lat="48.05994" lon="7.13342">
        <ele>635</ele>
        <time>2019-04-13T09:30:27Z</time>
      </trkpt>
      <trkpt lat="48.05996" lon="7.13343">
        <ele>636</ele>
        <time>2019-04-13T09:31:27Z</time>
      </trkpt>
      <trkpt lat="48.05997" lon="7.13343">
        <ele>636</ele>
        <time>2019-04-13T09:32:27Z</time>
      </trkpt>
      <trkpt lat="48.06033" lon="7.13356">
        <ele>638</ele>
        <time>2019-04-13T09:33:27Z</time>
      </trkpt>
      <trkpt lat="48.06061" lon="7.13366">
        <ele>639</ele>
        <time>2019-04-13T09:34:27Z</time>
      </trkpt>
      <trkpt lat="48.0608" lon="7.13372">
        <ele>639</ele>
        <time>2019-04-13T09:35:27Z</time>
      </trkpt>
      <trkpt lat="48.06095" lon="7.13381">
        <ele>642</ele>
        <time>2019-04-13T09:36:27Z</time>
      </trkpt>
      <trkpt lat="48.06103" lon="7.13381">
        <ele>643</ele>
        <time>2019-04-13T09:37:27Z</time>
      </trkpt>
      <trkpt lat="48.06106" lon="7.1338">
        <ele>643</ele>
        <time>2019-04-13T09:38:27Z</time>
      </trkpt>
      <trkpt lat="48.06108" lon="7.13377">
        <ele>642</ele>
        <time>2019-04-13T09:39:27Z</time>
      </trkpt>
      <trkpt lat="48.06109" lon="7.13373">
        <ele>642</ele>
        <time>2019-04-13T09:40:27Z</time>
      </trkpt>
      <trkpt lat="48.06109" lon="7.1337">
        <ele>641</ele>
        <time>2019-04-13T09:41:27Z</time>
      </trkpt>
      <trkpt lat="48.06108" lon="7.13365">
        <ele>640</ele>
        <time>2019-04-13T09:42:27Z</time>
      </trkpt>
      <trkpt lat="48.06101" lon="7.13363">
        <ele>639</ele>
        <time>2019-04-13T09:43:27Z</time>
      </trkpt>
      <trkpt lat="48.06074" lon="7.13353">
        <ele>635</ele>
        <time>2019-04-13T09:44:27Z</time>
      </trkpt>
      <trkpt lat="48.06054" lon="7.13341">
        <ele>632</ele>
        <time>2019-04-13T09:45:27Z</time>
      </trkpt>
      <trkpt lat="48.06035" lon="7.13329">
        <ele>630</ele>
        <time>2019-04-13T09:46:27Z</time>
      </trkpt>
      <trkpt lat="48.06014" lon="7.13312">
        <ele>626</ele>
        <time>2019-04-13T09:47:27Z</time>
      </trkpt>
      <trkpt lat="48.05997" lon="7.13302">
        <ele>623</ele>
        <time>2019-04-13T09:48:27Z</time>
      </trkpt>
      <trkpt lat="48.05994" lon="7.133">
        <ele>623</ele>
        <time>2019-04-13T09:49:27Z</time>
      </trkpt>
      <trkpt lat="48.05983" lon="7.13294">
        <ele>622</ele>
        <time>2019-04-13T09:50:27Z</time>
      </trkpt>
      <trkpt lat="48.05955" lon="7.13277">
        <ele>618</ele>
        <time>2019-04-13T09:51:27Z</time>
      </trkpt>
      <trkpt lat="48.05926" lon="7.1326">
        <ele>613</ele>
        <time>2019-04-13T09:52:27Z</time>
      </trkpt>
      <trkpt lat="48.05889" lon="7.13246">
        <ele>610</ele>
        <time>2019-04-13T09:53:27Z</time>
      </trkpt>
      <trkpt lat="48.05854" lon="7.13232">
        <ele>606</ele>
        <time>2019-04-13T09:54:27Z</time>
      </trkpt>
      <trkpt lat="48.05821" lon="7.13218">
        <ele>603</ele>
        <time>2019-04-13T09:55:27Z</time>
      </trkpt>
      <trkpt lat="48.05797" lon="7.13208">
        <ele>601</ele>
        <time>2019-04-13T09:56:27Z</time>
      </trkpt>
      <trkpt lat="48.05779" lon="7.13197">
        <ele>599</ele>
        <time>2019-04-13T09:57:27Z</time>
      </trkpt>
      <trkpt lat="48.05761" lon="7.13185">
        <ele>596</ele>
        <time>2019-04-13T09:58:27Z</time>
      </trkpt>
      <trkpt lat="48.05746" lon="7.13176">
        <ele>595</ele>
        <time>2019-04-13T09:59:27Z</time>
      </trkpt>
      <trkpt lat="48.05723" lon="7.13162">
        <ele>592</ele>
        <time>2019-04-13T10:00:27Z</time>
      </trkpt>
      <trkpt lat="48.05706" lon="7.13151">
        <ele>589</ele>
        <time>2019-04-13T10:01:27Z</time>
      </trkpt>
      <trkpt lat="48.0569" lon="7.13142">
        <ele>588</ele>
        <time>2019-04-13T10:02:27Z</time>
      </trkpt>
      <trkpt lat="48.05681" lon="7.13139">
        <ele>587</ele>
        <time>2019-04-13T10:03:27Z</time>
      </trkpt>
      <trkpt lat="48.05671" lon="7.13137">
        <ele>587</ele>
        <time>2019-04-13T10:04:27Z</time>
      </trkpt>
      <trkpt lat="48.05664" lon="7.13137">
        <ele>587</ele>
        <time>2019-04-13T10:05:27Z</time>
      </trkpt>
      <trkpt lat="48.05644" lon="7.1314">
        <ele>587</ele>
        <time>2019-04-13T10:06:27Z</time>
      </trkpt>
      <trkpt lat="48.05637" lon="7.13141">
        <ele>587</ele>
        <time>2019-04-13T10:07:27Z</time>
      </trkpt>
      <trkpt lat="48.05619" lon="7.13143">
        <ele>586</ele>
        <time>2019-04-13T10:08:27Z</time>
      </trkpt>
      <trkpt lat="48.05598" lon="7.13145">
        <ele>585</ele>
        <time>2019-04-13T10:09:27Z</time>
      </trkpt>
      <trkpt lat="48.05575" lon="7.13148">
        <ele>584</ele>
        <time>2019-04-13T10:10:27Z</time>
      </trkpt>
      <trkpt lat="48.0557" lon="7.13148">
        <ele>583</ele>
        <time>2019-04-13T10:11:27Z</time>
      </trkpt>
      <trkpt lat="48.0556" lon="7.1315">
        <ele>582</ele>
        <time>2019-04-13T10:12:27Z</time>
      </trkpt>
      <trkpt lat="48.05555" lon="7.13153">
        <ele>582</ele>
        <time>2019-04-13T10:13:27Z</time>
      </trkpt>
      <trkpt lat="48.05551" lon="7.13155">
        <ele>581</ele>
        <time>2019-04-13T10:14:27Z</time>
      </trkpt>
      <trkpt lat="48.05547" lon="7.13159">
        <ele>581</ele>
        <time>2019-04-13T10:15:27Z</time>
      </trkpt>
      <trkpt lat="48.05544" lon="7.13163">
        <ele>581</ele>
        <time>2019-04-13T10:16:27Z</time>
      </trkpt>
      <trkpt lat="48.05541" lon="7.13167">
        <ele>581</ele>
        <time>2019-04-13T10:17:27Z</time>
      </trkpt>
      <trkpt lat="48.05538" lon="7.13173">
        <ele>581</ele>
        <time>2019-04-13T10:18:27Z</time>
      </trkpt>
      <trkpt lat="48.05536" lon="7.13177">
        <ele>581</ele>
        <time>2019-04-13T10:19:27Z</time>
      </trkpt>
      <trkpt lat="48.05535" lon="7.13183">
        <ele>580</ele>
        <time>2019-04-13T10:20:27Z</time>
      </trkpt>
      <trkpt lat="48.05534" lon="7.13188">
        <ele>580</ele>
        <time>2019-04-13T10:21:27Z</time>
      </trkpt>
      <trkpt lat="48.05534" lon="7.13193">
        <ele>580</ele>
        <time>2019-04-13T10:22:27Z</time>
      </trkpt>
      <trkpt lat="48.05534" lon="7.13195">
        <ele>580</ele>
        <time>2019-04-13T10:23:27Z</time>
      </trkpt>
      <trkpt lat="48.05534" lon="7.132">
        <ele>580</ele>
        <time>2019-04-13T10:24:27Z</time>
      </trkpt>
      <trkpt lat="48.05534" lon="7.13204">
        <ele>580</ele>
        <time>2019-04-13T10:25:27Z</time>
      </trkpt>
      <trkpt lat="48.05535" lon="7.13206">
        <ele>580</ele>
        <time>2019-04-13T10:26:27Z</time>
      </trkpt>
      <trkpt lat="48.05536" lon="7.13211">
        <ele>580</ele>
        <time>2019-04-13T10:27:27Z</time>
      </trkpt>
      <trkpt lat="48.05537" lon="7.13215">
        <ele>580</ele>
        <time>2019-04-13T10:28:27Z</time>
      </trkpt>
      <trkpt lat="48.0554" lon="7.13225">
        <ele>581</ele>
        <time>2019-04-13T10:29:27Z</time>
      </trkpt>
      <trkpt lat="48.05542" lon="7.1323">
        <ele>581</ele>
        <time>2019-04-13T10:30:27Z</time>
      </trkpt>
      <trkpt lat="48.05543" lon="7.13235">
        <ele>581</ele>
        <time>2019-04-13T10:31:27Z</time>
      </trkpt>
      <trkpt lat="48.05543" lon="7.13239">
        <ele>581</ele>
        <time>2019-04-13T10:32:27Z</time>
      </trkpt>
      <trkpt lat="48.05543" lon="7.13242">
        <ele>581</ele>
        <time>2019-04-13T10:33:27Z</time>
      </trkpt>
      <trkpt lat="48.05543" lon="7.13246">
        <ele>581</ele>
        <time>2019-04-13T10:34:27Z</time>
      </trkpt>
      <trkpt lat="48.05541" lon="7.13249">
        <ele>581</ele>
        <time>2019-04-13T10:35:27Z</time>
      </trkpt>
      <trkpt lat="48.05541" lon="7.1325">
        <ele>581</ele>
        <time>2019-04-13T10:36:27Z</time>
      </trkpt>
      <trkpt lat="48.05538" lon="7.13252">
        <ele>580</ele>
        <time>2019-04-13T10:37:27Z</time>
      </trkpt>
      <trkpt lat="48.05538" lon="7.13253">
        <ele>580</ele>
        <time>2019-04-13T10:38:27Z</time>
      </trkpt>
      <trkpt lat="48.05535" lon="7.13254">
        <ele>579</ele>
        <time>2019-04-13T10:39:27Z</time>
      </trkpt>
      <trkpt lat="48.05532" lon="7.13254">
        <ele>578</ele>
        <time>2019-04-13T10:40:27Z</time>
      </trkpt>
      <trkpt lat="48.05529" lon="7.13252">
        <ele>578</ele>
        <time>2019-04-13T10:41:27Z</time>
      </trkpt>
      <trkpt lat="48.05528" lon="7.13252">
        <ele>578</ele>
        <time>2019-04-13T10:42:27Z</time>
      </trkpt>
      <trkpt lat="48.05526" lon="7.13249">
        <ele>578</ele>
        <time>2019-04-13T10:43:27Z</time>
      </trkpt>
      <trkpt lat="48.05525" lon="7.13247">
        <ele>577</ele>
        <time>2019-04-13T10:44:27Z</time>
      </trkpt>
      <trkpt lat="48.05521" lon="7.1324">
        <ele>577</ele>
        <time>2019-04-13T10:45:27Z</time>
      </trkpt>
      <trkpt lat="48.05508" lon="7.13211">
        <ele>575</ele>
        <time>2019-04-13T10:46:27Z</time>
      </trkpt>
      <trkpt lat="48.055" lon="7.1319">
        <ele>574</ele>
        <time>2019-04-13T10:47:27Z</time>
      </trkpt>
      <trkpt lat="48.05496" lon="7.13178">
        <ele>574</ele>
        <time>2019-04-13T10:48:27Z</time>
      </trkpt>
      <trkpt lat="48.05494" lon="7.13171">
        <ele>574</ele>
        <time>2019-04-13T10:49:27Z</time>
      </trkpt>
      <trkpt lat="48.05492" lon="7.13158">
        <ele>573</ele>
        <time>2019-04-13T10:50:27Z</time>
      </trkpt>
      <trkpt lat="48.05491" lon="7.13145">
        <ele>572</ele>
        <time>2019-04-13T10:51:27Z</time>
      </trkpt>
      <trkpt lat="48.05491" lon="7.13131">
        <ele>571</ele>
        <time>2019-04-13T10:52:27Z</time>
      </trkpt>
      <trkpt lat="48.05492" lon="7.13121">
        <ele>571</ele>
        <time>2019-04-13T10:53:27Z</time>
      </trkpt>
      <trkpt lat="48.05493" lon="7.13112">
        <ele>571</ele>
        <time>2019-04-13T10:54:27Z</time>
      </trkpt>
      <trkpt lat="48.05494" lon="7.13106">
        <ele>570</ele>
        <time>2019-04-13T10:55:27Z</time>
      </trkpt>
      <trkpt lat="48.05497" lon="7.13094">
        <ele>570</ele>
        <time>2019-04-13T10:56:27Z</time>
      </trkpt>
      <trkpt lat="48.055" lon="7.13087">
        <ele>570</ele>
        <time>2019-04-13T10:57:27Z</time>
      </trkpt>
      <trkpt lat="48.05505" lon="7.13076">
        <ele>569</ele>
        <time>2019-04-13T10:58:27Z</time>
      </trkpt>
      <trkpt lat="48.05512" lon="7.13066">
        <ele>568</ele>
        <time>2019-04-13T10:59:27Z</time>
      </trkpt>
      <trkpt lat="48.05518" lon="7.13058">
        <ele>566</ele>
        <time>2019-04-13T11:00:27Z</time>
      </trkpt>
      <trkpt lat="48.05526" lon="7.1305">
        <ele>565</ele>
        <time>2019-04-13T11:01:27Z</time>
      </trkpt>
      <trkpt lat="48.05531" lon="7.13046">
        <ele>564</ele>
        <time>2019-04-13T11:02:27Z</time>
      </trkpt>
      <trkpt lat="48.05534" lon="7.13044">
        <ele>563</ele>
        <time>2019-04-13T11:03:27Z</time>
      </trkpt>
      <trkpt lat="48.05539" lon="7.13042">
        <ele>563</ele>
        <time>2019-04-13T11:04:27Z</time>
      </trkpt>
      <trkpt lat="48.05546" lon="7.13039">
        <ele>562</ele>
        <time>2019-04-13T11:05:27Z</time>
      </trkpt>
      <trkpt lat="48.05614" lon="7.13033">
        <ele>558</ele>
        <time>2019-04-13T11:06:27Z</time>
      </trkpt>
      <trkpt lat="48.05669" lon="7.13027">
        <ele>555</ele>
        <time>2019-04-13T11:07:27Z</time>
      </trkpt>
      <trkpt lat="48.05682" lon="7.13026">
        <ele>555</ele>
        <time>2019-04-13T11:08:27Z</time>
      </trkpt>
      <trkpt lat="48.05709" lon="7.13024">
        <ele>554</ele>
        <time>2019-04-13T11:09:27Z</time>
      </trkpt>
      <trkpt lat="48.05733" lon="7.13023">
        <ele>554</ele>
        <time>2019-04-13T11:10:27Z</time>
      </trkpt>
      <trkpt lat="48.05752" lon="7.13022">
        <ele>554</ele>
        <time>2019-04-13T11:11:27Z</time>
      </trkpt>
      <trkpt lat="48.05759" lon="7.13024">
        <ele>555</ele>
        <time>2019-04-13T11:12:27Z</time>
      </trkpt>
      <trkpt lat="48.05767" lon="7.13026">
        <ele>556</ele>
        <time>2019-04-13T11:13:27Z</time>
      </trkpt>
      <trkpt lat="48.05782" lon="7.13032">
        <ele>559</ele>
        <time>2019-04-13T11:14:27Z</time>
      </trkpt>
      <trkpt lat="48.05791" lon="7.13036">
        <ele>560</ele>
        <time>2019-04-13T11:15:27Z</time>
      </trkpt>
      <trkpt lat="48.05795" lon="7.13035">
        <ele>560</ele>
        <time>2019-04-13T11:16:27Z</time>
      </trkpt>
      <trkpt lat="48.05798" lon="7.13034">
        <ele>561</ele>
        <time>2019-04-13T11:17:27Z</time>
      </trkpt>
      <trkpt lat="48.05802" lon="7.1303">
        <ele>561</ele>
        <time>2019-04-13T11:18:27Z</time>
      </trkpt>
      <trkpt lat="48.05804" lon="7.13024">
        <ele>560</ele>
        <time>2019-04-13T11:19:27Z</time>
      </trkpt>
      <trkpt lat="48.05804" lon="7.13019">
        <ele>560</ele>
        <time>2019-04-13T11:20:27Z</time>
      </trkpt>
      <trkpt lat="48.05801" lon="7.13013">
        <ele>559</ele>
        <time>2019-04-13T11:21:27Z</time>
      </trkpt>
      <trkpt lat="48.05799" lon="7.1301">
        <ele>558</ele>
        <time>2019-04-13T11:22:27Z</time>
      </trkpt>
      <trkpt lat="48.05791" lon="7.13007">
        <ele>557</ele>
        <time>2019-04-13T11:23:27Z</time>
      </trkpt>
      <trkpt lat="48.05772" lon="7.13003">
        <ele>553</ele>
        <time>2019-04-13T11:24:27Z</time>
      </trkpt>
      <trkpt lat="48.0575" lon="7.13">
        <ele>549</ele>
        <time>2019-04-13T11:25:27Z</time>
      </trkpt>
      <trkpt lat="48.05724" lon="7.12996">
        <ele>548</ele>
        <time>2019-04-13T11:26:27Z</time>
      </trkpt>
      <trkpt lat="48.05709" lon="7.12992">
        <ele>547</ele>
        <time>2019-04-13T11:27:27Z</time>
      </trkpt>
      <trkpt lat="48.05698" lon="7.12989">
        <ele>547</ele>
        <time>2019-04-13T11:28:27Z</time>
      </trkpt>
      <trkpt lat="48.05677" lon="7.12981">
        <ele>544</ele>
        <time>2019-04-13T11:29:27Z</time>
      </trkpt>
      <trkpt lat="48.05652" lon="7.1297">
        <ele>542</ele>
        <time>2019-04-13T11:30:27Z</time>
      </trkpt>
      <trkpt lat="48.05631" lon="7.1296">
        <ele>540</ele>
        <time>2019-04-13T11:31:27Z</time>
      </trkpt>
      <trkpt lat="48.0561" lon="7.12949">
        <ele>537</ele>
        <time>2019-04-13T11:32:27Z</time>
      </trkpt>
      <trkpt lat="48.05597" lon="7.1294">
        <ele>534</ele>
        <time>2019-04-13T11:33:27Z</time>
      </trkpt>
      <trkpt lat="48.05583" lon="7.12927">
        <ele>530</ele>
        <time>2019-04-13T11:34:27Z</time>
      </trkpt>
      <trkpt lat="48.05564" lon="7.12906">
        <ele>529</ele>
        <time>2019-04-13T11:35:27Z</time>
      </trkpt>
      <trkpt lat="48.05536" lon="7.12873">
        <ele>527</ele>
        <time>2019-04-13T11:36:27Z</time>
      </trkpt>
      <trkpt lat="48.05516" lon="7.1285">
        <ele>523</ele>
        <time>2019-04-13T11:37:27Z</time>
      </trkpt>
      <trkpt lat="48.05502" lon="7.12836">
        <ele>519</ele>
        <time>2019-04-13T11:38:27Z</time>
      </trkpt>
      <trkpt lat="48.05493" lon="7.12828">
        <ele>517</ele>
        <time>2019-04-13T11:39:27Z</time>
      </trkpt>
      <trkpt lat="48.0548" lon="7.12817">
        <ele>516</ele>
        <time>2019-04-13T11:40:27Z</time>
      </trkpt>
      <trkpt lat="48.0547" lon="7.12811">
        <ele>515</ele>
        <time>2019-04-13T11:41:27Z</time>
      </trkpt>
      <trkpt lat="48.05455" lon="7.12803">
        <ele>514</ele>
        <time>2019-04-13T11:42:27Z</time>
      </trkpt>
      <trkpt lat="48.0544" lon="7.12799">
        <ele>513</ele>
        <time>2019-04-13T11:43:27Z</time>
      </trkpt>
      <trkpt lat="48.05424" lon="7.12795">
        <ele>512</ele>
        <time>2019-04-13T11:44:27Z</time>
      </trkpt>
      <trkpt lat="48.0541" lon="7.12792">
        <ele>512</ele>
        <time>2019-04-13T11:45:27Z</time>
      </trkpt>
      <trkpt lat="48.05392" lon="7.12783">
        <ele>512</ele>
        <time>2019-04-13T11:46:27Z</time>
      </trkpt>
      <trkpt lat="48.0537" lon="7.12768">
        <ele>510</ele>
        <time>2019-04-13T11:47:27Z</time>
      </trkpt>
      <trkpt lat="48.05351" lon="7.12753">
        <ele>509</ele>
        <time>2019-04-13T11:48:27Z</time>
      </trkpt>
      <trkpt lat="48.05345" lon="7.12749">
        <ele>509</ele>
        <time>2019-04-13T11:49:27Z</time>
      </trkpt>
      <trkpt lat="48.05343" lon="7.12746">
        <ele>509</ele>
        <time>2019-04-13T11:50:27Z</time>
      </trkpt>
      <trkpt lat="48.05341" lon="7.12744">
        <ele>509</ele>
        <time>2019-04-13T11:51:27Z</time>
      </trkpt>
      <trkpt lat="48.0534" lon="7.12742">
        <ele>509</ele>
        <time>2019-04-13T11:52:27Z</time>
      </trkpt>
      <trkpt lat="48.05338" lon="7.12739">
        <ele>508</ele>
        <time>2019-04-13T11:53:27Z</time>
      </trkpt>
      <trkpt lat="48.05337" lon="7.12735">
        <ele>507</ele>
        <time>2019-04-13T11:54:27Z</time>
      </trkpt>
      <trkpt lat="48.05337" lon="7.12732">
        <ele>507</ele>
        <time>2019-04-13T11:55:27Z</time>
      </trkpt>
      <trkpt lat="48.05337" lon="7.12729">
        <ele>506</ele>
        <time>2019-04-13T11:56:27Z</time>
      </trkpt>
      <trkpt lat="48.05337" lon="7.12726">
        <ele>506</ele>
        <time>2019-04-13T11:57:27Z</time>
      </trkpt>
      <trkpt lat="48.05339" lon="7.12721">
        <ele>504</ele>
        <time>2019-04-13T11:58:27Z</time>
      </trkpt>
      <trkpt lat="48.05342" lon="7.12719">
        <ele>504</ele>
        <time>2019-04-13T11:59:27Z</time>
      </trkpt>
      <trkpt lat="48.05345" lon="7.12718">
        <ele>503</ele>
        <time>2019-04-13T12:00:27Z</time>
      </trkpt>
      <trkpt lat="48.05347" lon="7.12718">
        <ele>503</ele>
        <time>2019-04-13T12:01:27Z</time>
      </trkpt>
      <trkpt lat="48.05349" lon="7.12718">
        <ele>503</ele>
        <time>2019-04-13T12:02:27Z</time>
      </trkpt>
      <trkpt lat="48.05351" lon="7.12719">
        <ele>503</ele>
        <time>2019-04-13T12:03:27Z</time>
      </trkpt>
      <trkpt lat="48.05353" lon="7.1272">
        <ele>503</ele>
        <time>2019-04-13T12:04:27Z</time>
      </trkpt>
      <trkpt lat="48.05355" lon="7.12722">
        <ele>503</ele>
        <time>2019-04-13T12:05:27Z</time>
      </trkpt>
      <trkpt lat="48.05358" lon="7.12725">
        <ele>503</ele>
        <time>2019-04-13T12:06:27Z</time>
      </trkpt>
      <trkpt lat="48.05364" lon="7.12732">
        <ele>504</ele>
        <time>2019-04-13T12:07:27Z</time>
      </trkpt>
      <trkpt lat="48.05372" lon="7.12741">
        <ele>504</ele>
        <time>2019-04-13T12:08:27Z</time>
      </trkpt>
      <trkpt lat="48.05376" lon="7.12745">
        <ele>504</ele>
        <time>2019-04-13T12:09:27Z</time>
      </trkpt>
      <trkpt lat="48.0538" lon="7.12748">
        <ele>504</ele>
        <time>2019-04-13T12:10:27Z</time>
      </trkpt>
      <trkpt lat="48.05387" lon="7.1275">
        <ele>504</ele>
        <time>2019-04-13T12:11:27Z</time>
      </trkpt>
      <trkpt lat="48.0539" lon="7.12751">
        <ele>504</ele>
        <time>2019-04-13T12:12:27Z</time>
      </trkpt>
      <trkpt lat="48.05394" lon="7.12751">
        <ele>503</ele>
        <time>2019-04-13T12:13:27Z</time>
      </trkpt>
      <trkpt lat="48.05404" lon="7.12749">
        <ele>502</ele>
        <time>2019-04-13T12:14:27Z</time>
      </trkpt>
      <trkpt lat="48.05418" lon="7.12745">
        <ele>499</ele>
        <time>2019-04-13T12:15:27Z</time>
      </trkpt>
      <trkpt lat="48.05432" lon="7.12739">
        <ele>499</ele>
        <time>2019-04-13T12:16:27Z</time>
      </trkpt>
      <trkpt lat="48.05443" lon="7.12735">
        <ele>499</ele>
        <time>2019-04-13T12:17:27Z</time>
      </trkpt>
      <trkpt lat="48.05452" lon="7.12732">
        <ele>499</ele>
        <time>2019-04-13T12:18:27Z</time>
      </trkpt>
      <trkpt lat="48.0546" lon="7.12731">
        <ele>499</ele>
        <time>2019-04-13T12:19:27Z</time>
      </trkpt>
      <trkpt lat="48.05468" lon="7.1273">
        <ele>500</ele>
        <time>2019-04-13T12:20:27Z</time>
      </trkpt>
      <trkpt lat="48.05476" lon="7.1273">
        <ele>500</ele>
        <time>2019-04-13T12:21:27Z</time>
      </trkpt>
      <trkpt lat="48.05482" lon="7.12731">
        <ele>500</ele>
        <time>2019-04-13T12:22:27Z</time>
      </trkpt>
      <trkpt lat="48.05486" lon="7.12732">
        <ele>501</ele>
        <time>2019-04-13T12:23:27Z</time>
      </trkpt>
      <trkpt lat="48.05489" lon="7.12731">
        <ele>501</ele>
        <time>2019-04-13T12:24:27Z</time>
      </trkpt>
      <trkpt lat="48.05492" lon="7.12729">
        <ele>501</ele>
        <time>2019-04-13T12:25:27Z</time>
      </trkpt>
      <trkpt lat="48.05494" lon="7.12725">
        <ele>501</ele>
        <time>2019-04-13T12:26:27Z</time>
      </trkpt>
      <trkpt lat="48.05494" lon="7.1272">
        <ele>501</ele>
        <time>2019-04-13T12:27:27Z</time>
      </trkpt>
      <trkpt lat="48.05494" lon="7.12716">
        <ele>500</ele>
        <time>2019-04-13T12:28:27Z</time>
      </trkpt>
      <trkpt lat="48.05492" lon="7.12709">
        <ele>500</ele>
        <time>2019-04-13T12:29:27Z</time>
      </trkpt>
      <trkpt lat="48.05482" lon="7.1269">
        <ele>498</ele>
        <time>2019-04-13T12:30:27Z</time>
      </trkpt>
      <trkpt lat="48.05473" lon="7.12677">
        <ele>496</ele>
        <time>2019-04-13T12:31:27Z</time>
      </trkpt>
      <trkpt lat="48.05465" lon="7.12665">
        <ele>494</ele>
        <time>2019-04-13T12:32:27Z</time>
      </trkpt>
      <trkpt lat="48.0546" lon="7.12657">
        <ele>493</ele>
        <time>2019-04-13T12:33:27Z</time>
      </trkpt>
      <trkpt lat="48.05457" lon="7.12652">
        <ele>493</ele>
        <time>2019-04-13T12:34:27Z</time>
      </trkpt>
      <trkpt lat="48.05455" lon="7.12648">
        <ele>493</ele>
        <time>2019-04-13T12:35:27Z</time>
      </trkpt>
      <trkpt lat="48.05449" lon="7.12635">
        <ele>492</ele>
        <time>2019-04-13T12:36:27Z</time>
      </trkpt>
      <trkpt lat="48.05447" lon="7.12628">
        <ele>491</ele>
        <time>2019-04-13T12:37:27Z</time>
      </trkpt>
      <trkpt lat="48.05446" lon="7.12624">
        <ele>491</ele>
        <time>2019-04-13T12:38:27Z</time>
      </trkpt>
      <trkpt lat="48.05445" lon="7.12608">
        <ele>491</ele>
        <time>2019-04-13T12:39:27Z</time>
      </trkpt>
      <trkpt lat="48.05445" lon="7.1259">
        <ele>491</ele>
        <time>2019-04-13T12:40:27Z</time>
      </trkpt>
      <trkpt lat="48.05444" lon="7.12576">
        <ele>491</ele>
        <time>2019-04-13T12:41:27Z</time>
      </trkpt>
      <trkpt lat="48.05444" lon="7.12554">
        <ele>492</ele>
        <time>2019-04-13T12:42:27Z</time>
      </trkpt>
      <trkpt lat="48.05443" lon="7.12546">
        <ele>492</ele>
        <time>2019-04-13T12:43:27Z</time>
      </trkpt>
      <trkpt lat="48.05442" lon="7.12529">
        <ele>492</ele>
        <time>2019-04-13T12:44:27Z</time>
      </trkpt>
      <trkpt lat="48.05441" lon="7.12522">
        <ele>492</ele>
        <time>2019-04-13T12:45:27Z</time>
      </trkpt>
      <trkpt lat="48.05439" lon="7.12515">
        <ele>491</ele>
        <time>2019-04-13T12:46:27Z</time>
      </trkpt>
      <trkpt lat="48.05434" lon="7.12507">
        <ele>490</ele>
        <time>2019-04-13T12:47:27Z</time>
      </trkpt>
      <trkpt lat="48.05429" lon="7.12498">
        <ele>489</ele>
        <time>2019-04-13T12:48:27Z</time>
      </trkpt>
      <trkpt lat="48.05425" lon="7.12491">
        <ele>488</ele>
        <time>2019-04-13T12:49:27Z</time>
      </trkpt>
      <trkpt lat="48.05418" lon="7.12482">
        <ele>487</ele>
        <time>2019-04-13T12:50:27Z</time>
      </trkpt>
      <trkpt lat="48.05409" lon="7.12471">
        <ele>485</ele>
        <time>2019-04-13T12:51:27Z</time>
      </trkpt>
      <trkpt lat="48.05402" lon="7.12463">
        <ele>483</ele>
        <time>2019-04-13T12:52:27Z</time>
      </trkpt>
      <trkpt lat="48.05389" lon="7.12447">
        <ele>481</ele>
        <time>2019-04-13T12:53:27Z</time>
      </trkpt>
      <trkpt lat="48.05383" lon="7.1244">
        <ele>479</ele>
        <time>2019-04-13T12:54:27Z</time>
      </trkpt>
      <trkpt lat="48.05381" lon="7.12437">
        <ele>479</ele>
        <time>2019-04-13T12:55:27Z</time>
      </trkpt>
      <trkpt lat="48.05379" lon="7.12433">
        <ele>479</ele>
        <time>2019-04-13T12:56:27Z</time>
      </trkpt>
      <trkpt lat="48.05378" lon="7.1243">
        <ele>478</ele>
        <time>2019-04-13T12:57:27Z</time>
      </trkpt>
      <trkpt lat="48.05377" lon="7.12427">
        <ele>478</ele>
        <time>2019-04-13T12:58:27Z</time>
      </trkpt>
      <trkpt lat="48.05377" lon="7.12425">
        <ele>478</ele>
        <time>2019-04-13T12:59:27Z</time>
      </trkpt>
      <trkpt lat="48.05376" lon="7.12423">
        <ele>478</ele>
        <time>2019-04-13T13:00:27Z</time>
      </trkpt>
      <trkpt lat="48.05376" lon="7.12418">
        <ele>478</ele>
        <time>2019-04-13T13:01:27Z</time>
      </trkpt>
      <trkpt lat="48.05377" lon="7.12406">
        <ele>477</ele>
        <time>2019-04-13T13:02:27Z</time>
      </trkpt>
      <trkpt lat="48.05378" lon="7.124">
        <ele>477</ele>
        <time>2019-04-13T13:03:27Z</time>
      </trkpt>
      <trkpt lat="48.0538" lon="7.12386">
        <ele>476</ele>
        <time>2019-04-13T13:04:27Z</time>
      </trkpt>
      <trkpt lat="48.05388" lon="7.12345">
        <ele>475</ele>
        <time>2019-04-13T13:05:27Z</time>
      </trkpt>
      <trkpt lat="48.0539" lon="7.12338">
        <ele>475</ele>
        <time>2019-04-13T13:06:27Z</time>
      </trkpt>
      <trkpt lat="48.0539" lon="7.12334">
        <ele>474</ele>
        <time>2019-04-13T13:07:27Z</time>
      </trkpt>
      <trkpt lat="48.05392" lon="7.1233">
        <ele>474</ele>
        <time>2019-04-13T13:08:27Z</time>
      </trkpt>
      <trkpt lat="48.05394" lon="7.12326">
        <ele>474</ele>
        <time>2019-04-13T13:09:27Z</time>
      </trkpt>
      <trkpt lat="48.05396" lon="7.12322">
        <ele>474</ele>
        <time>2019-04-13T13:10:27Z</time>
      </trkpt>
      <trkpt lat="48.05398" lon="7.12319">
        <ele>474</ele>
        <time>2019-04-13T13:11:27Z</time>
      </trkpt>
      <trkpt lat="48.05405" lon="7.1231">
        <ele>474</ele>
        <time>2019-04-13T13:12:27Z</time>
      </trkpt>
      <trkpt lat="48.05408" lon="7.12307">
        <ele>474</ele>
        <time>2019-04-13T13:13:27Z</time>
      </trkpt>
      <trkpt lat="48.0541" lon="7.12303">
        <ele>474</ele>
        <time>2019-04-13T13:14:27Z</time>
      </trkpt>
      <trkpt lat="48.05412" lon="7.12299">
        <ele>474</ele>
        <time>2019-04-13T13:15:27Z</time>
      </trkpt>
      <trkpt lat="48.05413" lon="7.12296">
        <ele>474</ele>
        <time>2019-04-13T13:16:27Z</time>
      </trkpt>
      <trkpt lat="48.05413" lon="7.12292">
        <ele>473</ele>
        <time>2019-04-13T13:17:27Z</time>
      </trkpt>
      <trkpt lat="48.05412" lon="7.12286">
        <ele>472</ele>
        <time>2019-04-13T13:18:27Z</time>
      </trkpt>
      <trkpt lat="48.0541" lon="7.12283">
        <ele>471</ele>
        <time>2019-04-13T13:19:27Z</time>
      </trkpt>
      <trkpt lat="48.05407" lon="7.1228">
        <ele>471</ele>
        <time>2019-04-13T13:20:27Z</time>
      </trkpt>
      <trkpt lat="48.05404" lon="7.12278">
        <ele>470</ele>
        <time>2019-04-13T13:21:27Z</time>
      </trkpt>
      <trkpt lat="48.05401" lon="7.12277">
        <ele>469</ele>
        <time>2019-04-13T13:22:27Z</time>
      </trkpt>
      <trkpt lat="48.05398" lon="7.12278">
        <ele>469</ele>
        <time>2019-04-13T13:23:27Z</time>
      </trkpt>
      <trkpt lat="48.05395" lon="7.12279">
        <ele>469</ele>
        <time>2019-04-13T13:24:27Z</time>
      </trkpt>
      <trkpt lat="48.05392" lon="7.1228">
        <ele>468</ele>
        <time>2019-04-13T13:25:27Z</time>
      </trkpt>
      <trkpt lat="48.05371" lon="7.12301">
        <ele>468</ele>
        <time>2019-04-13T13:26:27Z</time>
      </trkpt>
      <trkpt lat="48.05325" lon="7.12354">
        <ele>464</ele>
        <time>2019-04-13T13:27:27Z</time>
      </trkpt>
      <trkpt lat="48.05307" lon="7.12379">
        <ele>464</ele>
        <time>2019-04-13T13:28:27Z</time>
      </trkpt>
      <trkpt lat="48.053" lon="7.12391">
        <ele>464</ele>
        <time>2019-04-13T13:29:27Z</time>
      </trkpt>
      <trkpt lat="48.05294" lon="7.12404">
        <ele>465</ele>
        <time>2019-04-13T13:30:27Z</time>
      </trkpt>
      <trkpt lat="48.05287" lon="7.12415">
        <ele>465</ele>
        <time>2019-04-13T13:31:27Z</time>
      </trkpt>
      <trkpt lat="48.05281" lon="7.12422">
        <ele>465</ele>
        <time>2019-04-13T13:32:27Z</time>
      </trkpt>
      <trkpt lat="48.05275" lon="7.12425">
        <ele>465</ele>
        <time>2019-04-13T13:33:27Z</time>
      </trkpt>
      <trkpt lat="48.05268" lon="7.12426">
        <ele>465</ele>
        <time>2019-04-13T13:34:27Z</time>
      </trkpt>
      <trkpt lat="48.05264" lon="7.12425">
        <ele>465</ele>
        <time>2019-04-13T13:35:27Z</time>
      </trkpt>
      <trkpt lat="48.05259" lon="7.12422">
        <ele>464</ele>
        <time>2019-04-13T13:36:27Z</time>
      </trkpt>
      <trkpt lat="48.05253" lon="7.12415">
        <ele>463</ele>
        <time>2019-04-13T13:37:27Z</time>
      </trkpt>
      <trkpt lat="48.0525" lon="7.1241">
        <ele>462</ele>
        <time>2019-04-13T13:38:27Z</time>
      </trkpt>
      <trkpt lat="48.05243" lon="7.12392">
        <ele>460</ele>
        <time>2019-04-13T13:39:27Z</time>
      </trkpt>
      <trkpt lat="48.05234" lon="7.1237">
        <ele>458</ele>
        <time>2019-04-13T13:40:27Z</time>
      </trkpt>
      <trkpt lat="48.05229" lon="7.12361">
        <ele>456</ele>
        <time>2019-04-13T13:41:27Z</time>
      </trkpt>
      <trkpt lat="48.05222" lon="7.12351">
        <ele>455</ele>
        <time>2019-04-13T13:42:27Z</time>
      </trkpt>
      <trkpt lat="48.05217" lon="7.12344">
        <ele>454</ele>
        <time>2019-04-13T13:43:27Z</time>
      </trkpt>
      <trkpt lat="48.05211" lon="7.12338">
        <ele>452</ele>
        <time>2019-04-13T13:44:27Z</time>
      </trkpt>
      <trkpt lat="48.052" lon="7.12325">
        <ele>450</ele>
        <time>2019-04-13T13:45:27Z</time>
      </trkpt>
      <trkpt lat="48.05191" lon="7.12317">
        <ele>449</ele>
        <time>2019-04-13T13:46:27Z</time>
      </trkpt>
      <trkpt lat="48.05184" lon="7.12312">
        <ele>448</ele>
        <time>2019-04-13T13:47:27Z</time>
      </trkpt>
      <trkpt lat="48.05175" lon="7.12304">
        <ele>447</ele>
        <time>2019-04-13T13:48:27Z</time>
      </trkpt>
      <trkpt lat="48.05171" lon="7.12299">
        <ele>446</ele>
        <time>2019-04-13T13:49:27Z</time>
      </trkpt>
      <trkpt lat="48.05166" lon="7.12294">
        <ele>446</ele>
        <time>2019-04-13T13:50:27Z</time>
      </trkpt>
      <trkpt lat="48.05141" lon="7.12257">
        <ele>445</ele>
        <time>2019-04-13T13:51:27Z</time>
      </trkpt>
      <trkpt lat="48.05109" lon="7.12208">
        <ele>443</ele>
        <time>2019-04-13T13:52:27Z</time>
      </trkpt>
      <trkpt lat="48.05087" lon="7.12169">
        <ele>438</ele>
        <time>2019-04-13T13:53:27Z</time>
      </trkpt>
      <trkpt lat="48.0507" lon="7.12135">
        <ele>436</ele>
        <time>2019-04-13T13:54:27Z</time>
      </trkpt>
      <trkpt lat="48.05063" lon="7.12124">
        <ele>435</ele>
        <time>2019-04-13T13:55:27Z</time>
      </trkpt>
      <trkpt lat="48.05052" lon="7.12103">
        <ele>434</ele>
        <time>2019-04-13T13:56:27Z</time>
      </trkpt>
      <trkpt lat="48.0504" lon="7.12084">
        <ele>432</ele>
        <time>2019-04-13T13:57:27Z</time>
      </trkpt>
      <trkpt lat="48.05031" lon="7.12071">
        <ele>432</ele>
        <time>2019-04-13T13:58:27Z</time>
      </trkpt>
      <trkpt lat="48.05023" lon="7.12061">
        <ele>431</ele>
        <time>2019-04-13T13:59:27Z</time>
      </trkpt>
      <trkpt lat="48.0501" lon="7.12046">
        <ele>430</ele>
        <time>2019-04-13T14:00:27Z</time>
      </trkpt>
      <trkpt lat="48.05005" lon="7.12041">
        <ele>429</ele>
        <time>2019-04-13T14:01:27Z</time>
      </trkpt>
      <trkpt lat="48.04998" lon="7.12034">
        <ele>428</ele>
        <time>2019-04-13T14:02:27Z</time>
      </trkpt>
      <trkpt lat="48.04986" lon="7.12022">
        <ele>426</ele>
        <time>2019-04-13T14:03:27Z</time>
      </trkpt>
      <trkpt lat="48.04972" lon="7.12013">
        <ele>425</ele>
        <time>2019-04-13T14:04:27Z</time>
      </trkpt>
      <trkpt lat="48.04953" lon="7.12002">
        <ele>423</ele>
        <time>2019-04-13T14:05:27Z</time>
      </trkpt>
      <trkpt lat="48.04928" lon="7.11989">
        <ele>422</ele>
        <time>2019-04-13T14:06:27Z</time>
      </trkpt>
      <trkpt lat="48.04913" lon="7.11982">
        <ele>420</ele>
        <time>2019-04-13T14:07:27Z</time>
      </trkpt>
      <trkpt lat="48.04877" lon="7.11964">
        <ele>415</ele>
        <time>2019-04-13T14:08:27Z</time>
      </trkpt>
      <trkpt lat="48.04848" lon="7.11949">
        <ele>412</ele>
        <time>2019-04-13T14:09:27Z</time>
      </trkpt>
      <trkpt lat="48.04818" lon="7.11932">
        <ele>411</ele>
        <time>2019-04-13T14:10:27Z</time>
      </trkpt>
      <trkpt lat="48.04814" lon="7.11926">
        <ele>411</ele>
        <time>2019-04-13T14:11:27Z</time>
      </trkpt>
      <trkpt lat="48.04807" lon="7.11917">
        <ele>412</ele>
        <time>2019-04-13T14:12:27Z</time>
      </trkpt>
      <trkpt lat="48.04802" lon="7.1191">
        <ele>412</ele>
        <time>2019-04-13T14:13:27Z</time>
      </trkpt>
      <trkpt lat="48.04798" lon="7.11904">
        <ele>412</ele>
        <time>2019-04-13T14:14:27Z</time>
      </trkpt>
      <trkpt lat="48.04796" lon="7.119">
        <ele>412</ele>
        <time>2019-04-13T14:15:27Z</time>
      </trkpt>
      <trkpt lat="48.04791" lon="7.11888">
        <ele>413</ele>
        <time>2019-04-13T14:16:27Z</time>
      </trkpt>
      <trkpt lat="48.04791" lon="7.11888">
        <ele>413</ele>
        <time>2019-04-13T14:17:27Z</time>
      </trkpt>
      <trkpt lat="48.04778" lon="7.1193">
        <ele>412</ele>
        <time>2019-04-13T14:18:27Z</time>
      </trkpt>
      <trkpt lat="48.04757" lon="7.11997">
        <ele>411</ele>
        <time>2019-04-13T14:19:27Z</time>
      </trkpt>
      <trkpt lat="48.0475" lon="7.1202">
        <ele>411</ele>
        <time>2019-04-13T14:20:27Z</time>
      </trkpt>
      <trkpt lat="48.04741" lon="7.12047">
        <ele>411</ele>
        <time>2019-04-13T14:21:27Z</time>
      </trkpt>
      <trkpt lat="48.0473" lon="7.12077">
        <ele>410</ele>
        <time>2019-04-13T14:22:27Z</time>
      </trkpt>
      <trkpt lat="48.04724" lon="7.12092">
        <ele>410</ele>
        <time>2019-04-13T14:23:27Z</time>
      </trkpt>
      <trkpt lat="48.04719" lon="7.12103">
        <ele>410</ele>
        <time>2019-04-13T14:24:27Z</time>
      </trkpt>
      <trkpt lat="48.04714" lon="7.12111">
        <ele>410</ele>
        <time>2019-04-13T14:25:27Z</time>
      </trkpt>
      <trkpt lat="48.04703" lon="7.12132">
        <ele>409</ele>
        <time>2019-04-13T14:26:27Z</time>
      </trkpt>
      <trkpt lat="48.04696" lon="7.12143">
        <ele>409</ele>
        <time>2019-04-13T14:27:27Z</time>
      </trkpt>
      <trkpt lat="48.04674" lon="7.12178">
        <ele>408</ele>
        <time>2019-04-13T14:28:27Z</time>
      </trkpt>
      <trkpt lat="48.04658" lon="7.12205">
        <ele>408</ele>
        <time>2019-04-13T14:29:27Z</time>
      </trkpt>
      <trkpt lat="48.04642" lon="7.12231">
        <ele>407</ele>
        <time>2019-04-13T14:30:27Z</time>
      </trkpt>
      <trkpt lat="48.04623" lon="7.12261">
        <ele>407</ele>
        <time>2019-04-13T14:31:27Z</time>
      </trkpt>
      <trkpt lat="48.04607" lon="7.12286">
        <ele>407</ele>
        <time>2019-04-13T14:32:27Z</time>
      </trkpt>
      <trkpt lat="48.04576" lon="7.12337">
        <ele>407</ele>
        <time>2019-04-13T14:33:27Z</time>
      </trkpt>
      <trkpt lat="48.0455" lon="7.1238">
        <ele>406</ele>
        <time>2019-04-13T14:34:27Z</time>
      </trkpt>
      <trkpt lat="48.04534" lon="7.12407">
        <ele>406</ele>
        <time>2019-04-13T14:35:27Z</time>
      </trkpt>
      <trkpt lat="48.04529" lon="7.12419">
        <ele>405</ele>
        <time>2019-04-13T14:36:27Z</time>
      </trkpt>
      <trkpt lat="48.04523" lon="7.12433">
        <ele>405</ele>
        <time>2019-04-13T14:37:27Z</time>
      </trkpt>
      <trkpt lat="48.04509" lon="7.12467">
        <ele>404</ele>
        <time>2019-04-13T14:38:27Z</time>
      </trkpt>
      <trkpt lat="48.04491" lon="7.12518">
        <ele>403</ele>
        <time>2019-04-13T14:39:27Z</time>
      </trkpt>
      <trkpt lat="48.04468" lon="7.12577">
        <ele>401</ele>
        <time>2019-04-13T14:40:27Z</time>
      </trkpt>
      <trkpt lat="48.04465" lon="7.12584">
        <ele>401</ele>
        <time>2019-04-13T14:41:27Z</time>
      </trkpt>
      <trkpt lat="48.04442" lon="7.12638">
        <ele>400</ele>
        <time>2019-04-13T14:42:27Z</time>
      </trkpt>
      <trkpt lat="48.04433" lon="7.12654">
        <ele>399</ele>
        <time>2019-04-13T14:43:27Z</time>
      </trkpt>
      <trkpt lat="48.04421" lon="7.12675">
        <ele>399</ele>
        <time>2019-04-13T14:44:27Z</time>
      </trkpt>
      <trkpt lat="48.04406" lon="7.12699">
        <ele>399</ele>
        <time>2019-04-13T14:45:27Z</time>
      </trkpt>
      <trkpt lat="48.04398" lon="7.12711">
        <ele>398</ele>
        <time>2019-04-13T14:46:27Z</time>
      </trkpt>
      <trkpt lat="48.04382" lon="7.12735">
        <ele>398</ele>
        <time>2019-04-13T14:47:27Z</time>
      </trkpt>
      <trkpt lat="48.04367" lon="7.12756">
        <ele>397</ele>
        <time>2019-04-13T14:48:27Z</time>
      </trkpt>
      <trkpt lat="48.0435" lon="7.12779">
        <ele>396</ele>
        <time>2019-04-13T14:49:27Z</time>
      </trkpt>
      <trkpt lat="48.04334" lon="7.12802">
        <ele>395</ele>
        <time>2019-04-13T14:50:27Z</time>
      </trkpt>
      <trkpt lat="48.04323" lon="7.12819">
        <ele>395</ele>
        <time>2019-04-13T14:51:27Z</time>
      </trkpt>
      <trkpt lat="48.0432" lon="7.12823">
        <ele>395</ele>
        <time>2019-04-13T14:52:27Z</time>
      </trkpt>
      <trkpt lat="48.04307" lon="7.12841">
        <ele>395</ele>
        <time>2019-04-13T14:53:27Z</time>
      </trkpt>
      <trkpt lat="48.04296" lon="7.12858">
        <ele>395</ele>
        <time>2019-04-13T14:54:27Z</time>
      </trkpt>
      <trkpt lat="48.04292" lon="7.12867">
        <ele>395</ele>
        <time>2019-04-13T14:55:27Z</time>
      </trkpt>
      <trkpt lat="48.04285" lon="7.12883">
        <ele>395</ele>
        <time>2019-04-13T14:56:27Z</time>
      </trkpt>
      <trkpt lat="48.04276" lon="7.1291">
        <ele>395</ele>
        <time>2019-04-13T14:57:27Z</time>
      </trkpt>
      <trkpt lat="48.04264" lon="7.12946">
        <ele>394</ele>
        <time>2019-04-13T14:58:27Z</time>
      </trkpt>
      <trkpt lat="48.04258" lon="7.12965">
        <ele>393</ele>
        <time>2019-04-13T14:59:27Z</time>
      </trkpt>
      <trkpt lat="48.04247" lon="7.12997">
        <ele>392</ele>
        <time>2019-04-13T15:00:27Z</time>
      </trkpt>
      <trkpt lat="48.0424" lon="7.13018">
        <ele>392</ele>
        <time>2019-04-13T15:01:27Z</time>
      </trkpt>
      <trkpt lat="48.04231" lon="7.13044">
        <ele>392</ele>
        <time>2019-04-13T15:02:27Z</time>
      </trkpt>
      <trkpt lat="48.04226" lon="7.13059">
        <ele>391</ele>
        <time>2019-04-13T15:03:27Z</time>
      </trkpt>
      <trkpt lat="48.04222" lon="7.13069">
        <ele>391</ele>
        <time>2019-04-13T15:04:27Z</time>
      </trkpt>
      <trkpt lat="48.04221" lon="7.13074">
        <ele>391</ele>
        <time>2019-04-13T15:05:27Z</time>
      </trkpt>
      <trkpt lat="48.04219" lon="7.13079">
        <ele>391</ele>
        <time>2019-04-13T15:06:27Z</time>
      </trkpt>
      <trkpt lat="48.042" lon="7.13134">
        <ele>391</ele>
        <time>2019-04-13T15:07:27Z</time>
      </trkpt>
      <trkpt lat="48.04199" lon="7.13134">
        <ele>391</ele>
        <time>2019-04-13T15:08:27Z</time>
      </trkpt>
      <trkpt lat="48.04199" lon="7.13133">
        <ele>391</ele>
        <time>2019-04-13T15:09:27Z</time>
      </trkpt>
      <trkpt lat="48.04198" lon="7.13133">
        <ele>391</ele>
        <time>2019-04-13T15:10:27Z</time>
      </trkpt>
      <trkpt lat="48.04197" lon="7.13133">
        <ele>391</ele>
        <time>2019-04-13T15:11:27Z</time>
      </trkpt>
      <trkpt lat="48.04197" lon="7.13134">
        <ele>391</ele>
        <time>2019-04-13T15:12:27Z</time>
      </trkpt>
      <trkpt lat="48.04196" lon="7.13134">
        <ele>391</ele>
        <time>2019-04-13T15:13:27Z</time>
      </trkpt>
      <trkpt lat="48.04195" lon="7.13134">
        <ele>391</ele>
        <time>2019-04-13T15:14:27Z</time>
      </trkpt>
      <trkpt lat="48.04195" lon="7.13135">
        <ele>391</ele>
        <time>2019-04-13T15:15:27Z</time>
      </trkpt>
      <trkpt lat="48.04194" lon="7.13135">
        <ele>391</ele>
        <time>2019-04-13T15:16:27Z</time>
      </trkpt>
      <trkpt lat="48.04194" lon="7.13136">
        <ele>391</ele>
        <time>2019-04-13T15:17:27Z</time>
      </trkpt>
      <trkpt lat="48.04194" lon="7.13137">
        <ele>391</ele>
        <time>2019-04-13T15:18:27Z</time>
      </trkpt>
      <trkpt lat="48.04193" lon="7.13137">
        <ele>391</ele>
        <time>2019-04-13T15:19:27Z</time>
      </trkpt>
      <trkpt lat="48.04193" lon="7.13138">
        <ele>391</ele>
        <time>2019-04-13T15:20:27Z</time>
      </trkpt>
      <trkpt lat="48.04193" lon="7.13139">
        <ele>391</ele>
        <time>2019-04-13T15:21:27Z</time>
      </trkpt>
      <trkpt lat="48.04193" lon="7.1314">
        <ele>391</ele>
        <time>2019-04-13T15:22:27Z</time>
      </trkpt>
      <trkpt lat="48.04193" lon="7.13141">
        <ele>391</ele>
        <time>2019-04-13T15:23:27Z</time>
      </trkpt>
      <trkpt lat="48.04193" lon="7.13142">
        <ele>391</ele>
        <time>2019-04-13T15:24:27Z</time>
      </trkpt>
      <trkpt lat="48.04193" lon="7.13143">
        <ele>391</ele>
        <time>2019-04-13T15:25:27Z</time>
      </trkpt>
      <trkpt lat="48.04193" lon="7.13144">
        <ele>391</ele>
        <time>2019-04-13T15:26:27Z</time>
      </trkpt>
      <trkpt lat="48.04193" lon="7.13145">
        <ele>391</ele>
        <time>2019-04-13T15:27:27Z</time>
      </trkpt>
      <trkpt lat="48.04194" lon="7.13145">
        <ele>391</ele>
        <time>2019-04-13T15:28:27Z</time>
      </trkpt>
      <trkpt lat="48.04194" lon="7.13146">
        <ele>391</ele>
        <time>2019-04-13T15:29:27Z</time>
      </trkpt>
      <trkpt lat="48.04194" lon="7.13147">
        <ele>391</ele>
        <time>2019-04-13T15:30:27Z</time>
      </trkpt>
      <trkpt lat="48.04195" lon="7.13147">
        <ele>391</ele>
        <time>2019-04-13T15:31:27Z</time>
      </trkpt>
      <trkpt lat="48.04179" lon="7.13189">
        <ele>390</ele>
        <time>2019-04-13T15:32:27Z</time>
      </trkpt>
      <trkpt lat="48.04168" lon="7.13213">
        <ele>390</ele>
        <time>2019-04-13T15:33:27Z</time>
      </trkpt>
      <trkpt lat="48.0416" lon="7.13227">
        <ele>389</ele>
        <time>2019-04-13T15:34:27Z</time>
      </trkpt>
      <trkpt lat="48.0416" lon="7.13227">
        <ele>389</ele>
        <time>2019-04-13T15:35:27Z</time>
      </trkpt>
      <trkpt lat="48.04145" lon="7.13216">
        <ele>389</ele>
        <time>2019-04-13T15:36:27Z</time>
      </trkpt>
      <trkpt lat="48.04124" lon="7.13201">
        <ele>389</ele>
        <time>2019-04-13T15:37:27Z</time>
      </trkpt>
      <trkpt lat="48.04117" lon="7.13194">
        <ele>389</ele>
        <time>2019-04-13T15:38:27Z</time>
      </trkpt>
      <trkpt lat="48.04104" lon="7.13179">
        <ele>389</ele>
        <time>2019-04-13T15:39:27Z</time>
      </trkpt>
      <trkpt lat="48.04086" lon="7.13142">
        <ele>390</ele>
        <time>2019-04-13T15:40:27Z</time>
      </trkpt>
      <trkpt lat="48.04066" lon="7.131">
        <ele>390</ele>
        <time>2019-04-13T15:41:27Z</time>
      </trkpt>
      <trkpt lat="48.04042" lon="7.13038">
        <ele>393</ele>
        <time>2019-04-13T15:42:27Z</time>
      </trkpt>
      <trkpt lat="48.0403" lon="7.13002">
        <ele>394</ele>
        <time>2019-04-13T15:43:27Z</time>
      </trkpt>
      <trkpt lat="48.04011" lon="7.12951">
        <ele>396</ele>
        <time>2019-04-13T15:44:27Z</time>
      </trkpt>
      <trkpt lat="48.04007" lon="7.1294">
        <ele>396</ele>
        <time>2019-04-13T15:45:27Z</time>
      </trkpt>
      <trkpt lat="48.04001" lon="7.12927">
        <ele>396</ele>
        <time>2019-04-13T15:46:27Z</time>
      </trkpt>
      <trkpt lat="48.0399" lon="7.12901">
        <ele>397</ele>
        <time>2019-04-13T15:47:27Z</time>
      </trkpt>
      <trkpt lat="48.03983" lon="7.12883">
        <ele>396</ele>
        <time>2019-04-13T15:48:27Z</time>
      </trkpt>
      <trkpt lat="48.03983" lon="7.12883">
        <ele>396</ele>
        <time>2019-04-13T15:49:27Z</time>
      </trkpt>
      <trkpt lat="48.03983" lon="7.12882">
        <ele>396</ele>
        <time>2019-04-13T15:50:27Z</time>
      </trkpt>
      <trkpt lat="48.03984" lon="7.12881">
        <ele>397</ele>
        <time>2019-04-13T15:51:27Z</time>
      </trkpt>
      <trkpt lat="48.03984" lon="7.1288">
        <ele>397</ele>
        <time>2019-04-13T15:52:27Z</time>
      </trkpt>
      <trkpt lat="48.03985" lon="7.12879">
        <ele>397</ele>
        <time>2019-04-13T15:53:27Z</time>
      </trkpt>
      <trkpt lat="48.03985" lon="7.12878">
        <ele>397</ele>
        <time>2019-04-13T15:54:27Z</time>
      </trkpt>
      <trkpt lat="48.03985" lon="7.12877">
        <ele>397</ele>
        <time>2019-04-13T15:55:27Z</time>
      </trkpt>
      <trkpt lat="48.03985" lon="7.12876">
        <ele>397</ele>
        <time>2019-04-13T15:56:27Z</time>
      </trkpt>
      <trkpt lat="48.03986" lon="7.12875">
        <ele>397</ele>
        <time>2019-04-13T15:57:27Z</time>
      </trkpt>
      <trkpt lat="48.03986" lon="7.12874">
        <ele>397</ele>
        <time>2019-04-13T15:58:27Z</time>
      </trkpt>
      <trkpt lat="48.03986" lon="7.12873">
        <ele>397</ele>
        <time>2019-04-13T15:59:27Z</time>
      </trkpt>
      <trkpt lat="48.03986" lon="7.12872">
        <ele>397</ele>
        <time>2019-04-13T16:00:27Z</time>
      </trkpt>
      <trkpt lat="48.03986" lon="7.12871">
        <ele>397</ele>
        <time>2019-04-13T16:01:27Z</time>
      </trkpt>
      <trkpt lat="48.03985" lon="7.12871">
        <ele>397</ele>
        <time>2019-04-13T16:02:27Z</time>
      </trkpt>
      <trkpt lat="48.03985" lon="7.1287">
        <ele>397</ele>
        <time>2019-04-13T16:03:27Z</time>
      </trkpt>
      <trkpt lat="48.03985" lon="7.12869">
        <ele>397</ele>
        <time>2019-04-13T16:04:27Z</time>
      </trkpt>
      <trkpt lat="48.03985" lon="7.12868">
        <ele>397</ele>
        <time>2019-04-13T16:05:27Z</time>
      </trkpt>
      <trkpt lat="48.03984" lon="7.12867">
        <ele>397</ele>
        <time>2019-04-13T16:06:27Z</time>
      </trkpt>
      <trkpt lat="48.03984" lon="7.12866">
        <ele>397</ele>
        <time>2019-04-13T16:07:27Z</time>
      </trkpt>
      <trkpt lat="48.03984" lon="7.12865">
        <ele>397</ele>
        <time>2019-04-13T16:08:27Z</time>
      </trkpt>
      <trkpt lat="48.03983" lon="7.12865">
        <ele>397</ele>
        <time>2019-04-13T16:09:27Z</time>
      </trkpt>
      <trkpt lat="48.03983" lon="7.12864">
        <ele>397</ele>
        <time>2019-04-13T16:10:27Z</time>
      </trkpt>
      <trkpt lat="48.03982" lon="7.12864">
        <ele>397</ele>
        <time>2019-04-13T16:11:27Z</time>
      </trkpt>
      <trkpt lat="48.03982" lon="7.12863">
        <ele>397</ele>
        <time>2019-04-13T16:12:27Z</time>
      </trkpt>
      <trkpt lat="48.03981" lon="7.12863">
        <ele>397</ele>
        <time>2019-04-13T16:13:27Z</time>
      </trkpt>
      <trkpt lat="48.03981" lon="7.12862">
        <ele>397</ele>
        <time>2019-04-13T16:14:27Z</time>
      </trkpt>
      <trkpt lat="48.0398" lon="7.12862">
        <ele>397</ele>
        <time>2019-04-13T16:15:27Z</time>
      </trkpt>
      <trkpt lat="48.03979" lon="7.12861">
        <ele>397</ele>
        <time>2019-04-13T16:16:27Z</time>
      </trkpt>
      <trkpt lat="48.03978" lon="7.12861">
        <ele>397</ele>
        <time>2019-04-13T16:17:27Z</time>
      </trkpt>
      <trkpt lat="48.03977" lon="7.12861">
        <ele>396</ele>
        <time>2019-04-13T16:18:27Z</time>
      </trkpt>
      <trkpt lat="48.03976" lon="7.12861">
        <ele>396</ele>
        <time>2019-04-13T16:19:27Z</time>
      </trkpt>
      <trkpt lat="48.03975" lon="7.12862">
        <ele>396</ele>
        <time>2019-04-13T16:20:27Z</time>
      </trkpt>
      <trkpt lat="48.03974" lon="7.12862">
        <ele>396</ele>
        <time>2019-04-13T16:21:27Z</time>
      </trkpt>
      <trkpt lat="48.03973" lon="7.12863">
        <ele>396</ele>
        <time>2019-04-13T16:22:27Z</time>
      </trkpt>
      <trkpt lat="48.03973" lon="7.12854">
        <ele>396</ele>
        <time>2019-04-13T16:23:27Z</time>
      </trkpt>
      <trkpt lat="48.03971" lon="7.12846">
        <ele>396</ele>
        <time>2019-04-13T16:24:27Z</time>
      </trkpt>
      <trkpt lat="48.03968" lon="7.12836">
        <ele>396</ele>
        <time>2019-04-13T16:25:27Z</time>
      </trkpt>
      <trkpt lat="48.03966" lon="7.12828">
        <ele>396</ele>
        <time>2019-04-13T16:26:27Z</time>
      </trkpt>
      <trkpt lat="48.03963" lon="7.1282">
        <ele>396</ele>
        <time>2019-04-13T16:27:27Z</time>
      </trkpt>
      <trkpt lat="48.03956" lon="7.12799">
        <ele>396</ele>
        <time>2019-04-13T16:28:27Z</time>
      </trkpt>
      <trkpt lat="48.03945" lon="7.12771">
        <ele>396</ele>
        <time>2019-04-13T16:29:27Z</time>
      </trkpt>
      <trkpt lat="48.03936" lon="7.12751">
        <ele>396</ele>
        <time>2019-04-13T16:30:27Z</time>
      </trkpt>
      <trkpt lat="48.03924" lon="7.12726">
        <ele>396</ele>
        <time>2019-04-13T16:31:27Z</time>
      </trkpt>
      <trkpt lat="48.03914" lon="7.12708">
        <ele>397</ele>
        <time>2019-04-13T16:32:27Z</time>
      </trkpt>
      <trkpt lat="48.03903" lon="7.12687">
        <ele>398</ele>
        <time>2019-04-13T16:33:27Z</time>
      </trkpt>
      <trkpt lat="48.03881" lon="7.12653">
        <ele>399</ele>
        <time>2019-04-13T16:34:27Z</time>
      </trkpt>
      <trkpt lat="48.03851" lon="7.12583">
        <ele>399</ele>
        <time>2019-04-13T16:35:27Z</time>
      </trkpt>
      <trkpt lat="48.03843" lon="7.12566">
        <ele>399</ele>
        <time>2019-04-13T16:36:27Z</time>
      </trkpt>
      <trkpt lat="48.0383" lon="7.12544">
        <ele>398</ele>
        <time>2019-04-13T16:37:27Z</time>
      </trkpt>
      <trkpt lat="48.03817" lon="7.12522">
        <ele>398</ele>
        <time>2019-04-13T16:38:27Z</time>
      </trkpt>
      <trkpt lat="48.03801" lon="7.12499">
        <ele>398</ele>
        <time>2019-04-13T16:39:27Z</time>
      </trkpt>
      <trkpt lat="48.03793" lon="7.12485">
        <ele>399</ele>
        <time>2019-04-13T16:40:27Z</time>
      </trkpt>
      <trkpt lat="48.03786" lon="7.12472">
        <ele>399</ele>
        <time>2019-04-13T16:41:27Z</time>
      </trkpt>
      <trkpt lat="48.03781" lon="7.1246">
        <ele>400</ele>
        <time>2019-04-13T16:42:27Z</time>
      </trkpt>
      <trkpt lat="48.03777" lon="7.12447">
        <ele>400</ele>
        <time>2019-04-13T16:43:27Z</time>
      </trkpt>
      <trkpt lat="48.03771" lon="7.12428">
        <ele>400</ele>
        <time>2019-04-13T16:44:27Z</time>
      </trkpt>
      <trkpt lat="48.03758" lon="7.12372">
        <ele>401</ele>
        <time>2019-04-13T16:45:27Z</time>
      </trkpt>
      <trkpt lat="48.03749" lon="7.1233">
        <ele>401</ele>
        <time>2019-04-13T16:46:27Z</time>
      </trkpt>
      <trkpt lat="48.03733" lon="7.12263">
        <ele>403</ele>
        <time>2019-04-13T16:47:27Z</time>
      </trkpt>
      <trkpt lat="48.03719" lon="7.12197">
        <ele>404</ele>
        <time>2019-04-13T16:48:27Z</time>
      </trkpt>
      <trkpt lat="48.03711" lon="7.12161">
        <ele>404</ele>
        <time>2019-04-13T16:49:27Z</time>
      </trkpt>
      <trkpt lat="48.03699" lon="7.12107">
        <ele>405</ele>
        <time>2019-04-13T16:50:27Z</time>
      </trkpt>
      <trkpt lat="48.03692" lon="7.12079">
        <ele>405</ele>
        <time>2019-04-13T16:51:27Z</time>
      </trkpt>
      <trkpt lat="48.03684" lon="7.12052">
        <ele>406</ele>
        <time>2019-04-13T16:52:27Z</time>
      </trkpt>
      <trkpt lat="48.03675" lon="7.12025">
        <ele>407</ele>
        <time>2019-04-13T16:53:27Z</time>
      </trkpt>
      <trkpt lat="48.03665" lon="7.12001">
        <ele>406</ele>
        <time>2019-04-13T16:54:27Z</time>
      </trkpt>
      <trkpt lat="48.03655" lon="7.11981">
        <ele>408</ele>
        <time>2019-04-13T16:55:27Z</time>
      </trkpt>
      <trkpt lat="48.03645" lon="7.11963">
        <ele>409</ele>
        <time>2019-04-13T16:56:27Z</time>
      </trkpt>
      <trkpt lat="48.0364" lon="7.11954">
        <ele>409</ele>
        <time>2019-04-13T16:57:27Z</time>
      </trkpt>
      <trkpt lat="48.03624" lon="7.1193">
        <ele>409</ele>
        <time>2019-04-13T16:58:27Z</time>
      </trkpt>
      <trkpt lat="48.03608" lon="7.1191">
        <ele>408</ele>
        <time>2019-04-13T16:59:27Z</time>
      </trkpt>
      <trkpt lat="48.03596" lon="7.11893">
        <ele>408</ele>
        <time>2019-04-13T17:00:27Z</time>
      </trkpt>
      <trkpt lat="48.03586" lon="7.1188">
        <ele>407</ele>
        <time>2019-04-13T17:01:27Z</time>
      </trkpt>
      <trkpt lat="48.0357" lon="7.11858">
        <ele>408</ele>
        <time>2019-04-13T17:02:27Z</time>
      </trkpt>
      <trkpt lat="48.0356" lon="7.11843">
        <ele>408</ele>
        <time>2019-04-13T17:03:27Z</time>
      </trkpt>
      <trkpt lat="48.03551" lon="7.11828">
        <ele>408</ele>
        <time>2019-04-13T17:04:27Z</time>
      </trkpt>
      <trkpt lat="48.0354" lon="7.11804">
        <ele>410</ele>
        <time>2019-04-13T17:05:27Z</time>
      </trkpt>
      <trkpt lat="48.03525" lon="7.11769">
        <ele>411</ele>
        <time>2019-04-13T17:06:27Z</time>
      </trkpt>
      <trkpt lat="48.03493" lon="7.11684">
        <ele>413</ele>
        <time>2019-04-13T17:07:27Z</time>
      </trkpt>
      <trkpt lat="48.03464" lon="7.11604">
        <ele>413</ele>
        <time>2019-04-13T17:08:27Z</time>
      </trkpt>
      <trkpt lat="48.0345" lon="7.11564">
        <ele>411</ele>
        <time>2019-04-13T17:09:27Z</time>
      </trkpt>
      <trkpt lat="48.03442" lon="7.11538">
        <ele>410</ele>
        <time>2019-04-13T17:10:27Z</time>
      </trkpt>
      <trkpt lat="48.03437" lon="7.11522">
        <ele>409</ele>
        <time>2019-04-13T17:11:27Z</time>
      </trkpt>
      <trkpt lat="48.03432" lon="7.11502">
        <ele>409</ele>
        <time>2019-04-13T17:12:27Z</time>
      </trkpt>
      <trkpt lat="48.03431" lon="7.11495">
        <ele>409</ele>
        <time>2019-04-13T17:13:27Z</time>
      </trkpt>
      <trkpt lat="48.03425" lon="7.11465">
        <ele>409</ele>
        <time>2019-04-13T17:14:27Z</time>
      </trkpt>
      <trkpt lat="48.03418" lon="7.11431">
        <ele>410</ele>
        <time>2019-04-13T17:15:27Z</time>
      </trkpt>
      <trkpt lat="48.03415" lon="7.11418">
        <ele>410</ele>
        <time>2019-04-13T17:16:27Z</time>
      </trkpt>
      <trkpt lat="48.0341" lon="7.11405">
        <ele>410</ele>
        <time>2019-04-13T17:17:27Z</time>
      </trkpt>
      <trkpt lat="48.03392" lon="7.11341">
        <ele>413</ele>
        <time>2019-04-13T17:18:27Z</time>
      </trkpt>
      <trkpt lat="48.03375" lon="7.1128">
        <ele>418</ele>
        <time>2019-04-13T17:19:27Z</time>
      </trkpt>
      <trkpt lat="48.03374" lon="7.11277">
        <ele>418</ele>
        <time>2019-04-13T17:20:27Z</time>
      </trkpt>
      <trkpt lat="48.03365" lon="7.11248">
        <ele>418</ele>
        <time>2019-04-13T17:21:27Z</time>
      </trkpt>
      <trkpt lat="48.0336" lon="7.11233">
        <ele>419</ele>
        <time>2019-04-13T17:22:27Z</time>
      </trkpt>
      <trkpt lat="48.03354" lon="7.11217">
        <ele>419</ele>
        <time>2019-04-13T17:23:27Z</time>
      </trkpt>
      <trkpt lat="48.03348" lon="7.11204">
        <ele>418</ele>
        <time>2019-04-13T17:24:27Z</time>
      </trkpt>
      <trkpt lat="48.03335" lon="7.11181">
        <ele>416</ele>
        <time>2019-04-13T17:25:27Z</time>
      </trkpt>
      <trkpt lat="48.03323" lon="7.1116">
        <ele>417</ele>
        <time>2019-04-13T17:26:27Z</time>
      </trkpt>
      <trkpt lat="48.03312" lon="7.11139">
        <ele>418</ele>
        <time>2019-04-13T17:27:27Z</time>
      </trkpt>
      <trkpt lat="48.03295" lon="7.11105">
        <ele>419</ele>
        <time>2019-04-13T17:28:27Z</time>
      </trkpt>
      <trkpt lat="48.03279" lon="7.11068">
        <ele>420</ele>
        <time>2019-04-13T17:29:27Z</time>
      </trkpt>
      <trkpt lat="48.03267" lon="7.11038">
        <ele>420</ele>
        <time>2019-04-13T17:30:27Z</time>
      </trkpt>
      <trkpt lat="48.03262" lon="7.11027">
        <ele>420</ele>
        <time>2019-04-13T17:31:27Z</time>
      </trkpt>
      <trkpt lat="48.03257" lon="7.11017">
        <ele>420</ele>
        <time>2019-04-13T17:32:27Z</time>
      </trkpt>
      <trkpt lat="48.03244" lon="7.11002">
        <ele>420</ele>
        <time>2019-04-13T17:33:27Z</time>
      </trkpt>
      <trkpt lat="48.03244" lon="7.11001">
        <ele>420</ele>
        <time>2019-04-13T17:34:27Z</time>
      </trkpt>
      <trkpt lat="48.03226" lon="7.10984">
        <ele>420</ele>
        <time>2019-04-13T17:35:27Z</time>
      </trkpt>
      <trkpt lat="48.03207" lon="7.10968">
        <ele>419</ele>
        <time>2019-04-13T17:36:27Z</time>
      </trkpt>
      <trkpt lat="48.03189" lon="7.1095">
        <ele>419</ele>
        <time>2019-04-13T17:37:27Z</time>
      </trkpt>
      <trkpt lat="48.03185" lon="7.10947">
        <ele>419</ele>
        <time>2019-04-13T17:38:27Z</time>
      </trkpt>
      <trkpt lat="48.03168" lon="7.10929">
        <ele>419</ele>
        <time>2019-04-13T17:39:27Z</time>
      </trkpt>
      <trkpt lat="48.03152" lon="7.10911">
        <ele>419</ele>
        <time>2019-04-13T17:40:27Z</time>
      </trkpt>
      <trkpt lat="48.03142" lon="7.10898">
        <ele>419</ele>
        <time>2019-04-13T17:41:27Z</time>
      </trkpt>
      <trkpt lat="48.03132" lon="7.10884">
        <ele>420</ele>
        <time>2019-04-13T17:42:27Z</time>
      </trkpt>
      <trkpt lat="48.03099" lon="7.10813">
        <ele>420</ele>
        <time>2019-04-13T17:43:27Z</time>
      </trkpt>
      <trkpt lat="48.03068" lon="7.10736">
        <ele>423</ele>
        <time>2019-04-13T17:44:27Z</time>
      </trkpt>
      <trkpt lat="48.03064" lon="7.10729">
        <ele>423</ele>
        <time>2019-04-13T17:45:27Z</time>
      </trkpt>
      <trkpt lat="48.03058" lon="7.10718">
        <ele>423</ele>
        <time>2019-04-13T17:46:27Z</time>
      </trkpt>
      <trkpt lat="48.03004" lon="7.1064">
        <ele>426</ele>
        <time>2019-04-13T17:47:27Z</time>
      </trkpt>
      <trkpt lat="48.02993" lon="7.10622">
        <ele>427</ele>
        <time>2019-04-13T17:48:27Z</time>
      </trkpt>
      <trkpt lat="48.02984" lon="7.10607">
        <ele>428</ele>
        <time>2019-04-13T17:49:27Z</time>
      </trkpt>
      <trkpt lat="48.02963" lon="7.10574">
        <ele>430</ele>
        <time>2019-04-13T17:50:27Z</time>
      </trkpt>
      <trkpt lat="48.02938" lon="7.10527">
        <ele>436</ele>
        <time>2019-04-13T17:51:27Z</time>
      </trkpt>
      <trkpt lat="48.02903" lon="7.10461">
        <ele>443</ele>
        <time>2019-04-13T17:52:27Z</time>
      </trkpt>
      <trkpt lat="48.02861" lon="7.10381">
        <ele>446</ele>
        <time>2019-04-13T17:53:27Z</time>
      </trkpt>
      <trkpt lat="48.0284" lon="7.10342">
        <ele>444</ele>
        <time>2019-04-13T17:54:27Z</time>
      </trkpt>
      <trkpt lat="48.02822" lon="7.10308">
        <ele>443</ele>
        <time>2019-04-13T17:55:27Z</time>
      </trkpt>
      <trkpt lat="48.02809" lon="7.10284">
        <ele>442</ele>
        <time>2019-04-13T17:56:27Z</time>
      </trkpt>
      <trkpt lat="48.02802" lon="7.1027">
        <ele>442</ele>
        <time>2019-04-13T17:57:27Z</time>
      </trkpt>
      <trkpt lat="48.02799" lon="7.1026">
        <ele>442</ele>
        <time>2019-04-13T17:58:27Z</time>
      </trkpt>
      <trkpt lat="48.02795" lon="7.10247">
        <ele>442</ele>
        <time>2019-04-13T17:59:27Z</time>
      </trkpt>
      <trkpt lat="48.02787" lon="7.1022">
        <ele>442</ele>
        <time>2019-04-13T18:00:27Z</time>
      </trkpt>
      <trkpt lat="48.02783" lon="7.10199">
        <ele>443</ele>
        <time>2019-04-13T18:01:27Z</time>
      </trkpt>
      <trkpt lat="48.02778" lon="7.10179">
        <ele>444</ele>
        <time>2019-04-13T18:02:27Z</time>
      </trkpt>
      <trkpt lat="48.02774" lon="7.10165">
        <ele>444</ele>
        <time>2019-04-13T18:03:27Z</time>
      </trkpt>
      <trkpt lat="48.02769" lon="7.10151">
        <ele>444</ele>
        <time>2019-04-13T18:04:27Z</time>
      </trkpt>
      <trkpt lat="48.02763" lon="7.10135">
        <ele>443</ele>
        <time>2019-04-13T18:05:27Z</time>
      </trkpt>
      <trkpt lat="48.02758" lon="7.10122">
        <ele>443</ele>
        <time>2019-04-13T18:06:27Z</time>
      </trkpt>
      <trkpt lat="48.0275" lon="7.10104">
        <ele>442</ele>
        <time>2019-04-13T18:07:27Z</time>
      </trkpt>
      <trkpt lat="48.02741" lon="7.10085">
        <ele>443</ele>
        <time>2019-04-13T18:08:27Z</time>
      </trkpt>
      <trkpt lat="48.02729" lon="7.10058">
        <ele>442</ele>
        <time>2019-04-13T18:09:27Z</time>
      </trkpt>
      <trkpt lat="48.02718" lon="7.10036">
        <ele>441</ele>
        <time>2019-04-13T18:10:27Z</time>
      </trkpt>
      <trkpt lat="48.02711" lon="7.10024">
        <ele>440</ele>
        <time>2019-04-13T18:11:27Z</time>
      </trkpt>
      <trkpt lat="48.02707" lon="7.10016">
        <ele>440</ele>
        <time>2019-04-13T18:12:27Z</time>
      </trkpt>
      <trkpt lat="48.02705" lon="7.1001">
        <ele>440</ele>
        <time>2019-04-13T18:13:27Z</time>
      </trkpt>
      <trkpt lat="48.02703" lon="7.10003">
        <ele>440</ele>
        <time>2019-04-13T18:14:27Z</time>
      </trkpt>
      <trkpt lat="48.02701" lon="7.1">
        <ele>440</ele>
        <time>2019-04-13T18:15:27Z</time>
      </trkpt>
      <trkpt lat="48.02694" lon="7.09966">
        <ele>441</ele>
        <time>2019-04-13T18:16:27Z</time>
      </trkpt>
      <trkpt lat="48.0269" lon="7.09942">
        <ele>441</ele>
        <time>2019-04-13T18:17:27Z</time>
      </trkpt>
      <trkpt lat="48.02687" lon="7.09926">
        <ele>441</ele>
        <time>2019-04-13T18:18:27Z</time>
      </trkpt>
      <trkpt lat="48.0268" lon="7.09874">
        <ele>444</ele>
        <time>2019-04-13T18:19:27Z</time>
      </trkpt>
      <trkpt lat="48.02671" lon="7.09816">
        <ele>445</ele>
        <time>2019-04-13T18:20:27Z</time>
      </trkpt>
      <trkpt lat="48.02661" lon="7.0975">
        <ele>446</ele>
        <time>2019-04-13T18:21:27Z</time>
      </trkpt>
      <trkpt lat="48.02655" lon="7.09715">
        <ele>448</ele>
        <time>2019-04-13T18:22:27Z</time>
      </trkpt>
      <trkpt lat="48.02651" lon="7.09696">
        <ele>449</ele>
        <time>2019-04-13T18:23:27Z</time>
      </trkpt>
      <trkpt lat="48.02646" lon="7.09679">
        <ele>449</ele>
        <time>2019-04-13T18:24:27Z</time>
      </trkpt>
      <trkpt lat="48.0264" lon="7.09657">
        <ele>451</ele>
        <time>2019-04-13T18:25:27Z</time>
      </trkpt>
      <trkpt lat="48.02627" lon="7.09622">
        <ele>452</ele>
        <time>2019-04-13T18:26:27Z</time>
      </trkpt>
      <trkpt lat="48.02612" lon="7.09584">
        <ele>452</ele>
        <time>2019-04-13T18:27:27Z</time>
      </trkpt>
      <trkpt lat="48.026" lon="7.09553">
        <ele>449</ele>
        <time>2019-04-13T18:28:27Z</time>
      </trkpt>
      <trkpt lat="48.02595" lon="7.09536">
        <ele>448</ele>
        <time>2019-04-13T18:29:27Z</time>
      </trkpt>
      <trkpt lat="48.02591" lon="7.09519">
        <ele>447</ele>
        <time>2019-04-13T18:30:27Z</time>
      </trkpt>
      <trkpt lat="48.02589" lon="7.09504">
        <ele>446</ele>
        <time>2019-04-13T18:31:27Z</time>
      </trkpt>
      <trkpt lat="48.02587" lon="7.09478">
        <ele>447</ele>
        <time>2019-04-13T18:32:27Z</time>
      </trkpt>
      <trkpt lat="48.02587" lon="7.0945">
        <ele>449</ele>
        <time>2019-04-13T18:33:27Z</time>
      </trkpt>
      <trkpt lat="48.02587" lon="7.09435">
        <ele>450</ele>
        <time>2019-04-13T18:34:27Z</time>
      </trkpt>
      <trkpt lat="48.02591" lon="7.0935">
        <ele>457</ele>
        <time>2019-04-13T18:35:27Z</time>
      </trkpt>
      <trkpt lat="48.02595" lon="7.09285">
        <ele>458</ele>
        <time>2019-04-13T18:36:27Z</time>
      </trkpt>
      <trkpt lat="48.02599" lon="7.09226">
        <ele>458</ele>
        <time>2019-04-13T18:37:27Z</time>
      </trkpt>
      <trkpt lat="48.02604" lon="7.09141">
        <ele>458</ele>
        <time>2019-04-13T18:38:27Z</time>
      </trkpt>
      <trkpt lat="48.02605" lon="7.09111">
        <ele>458</ele>
        <time>2019-04-13T18:39:27Z</time>
      </trkpt>
      <trkpt lat="48.02605" lon="7.09079">
        <ele>457</ele>
        <time>2019-04-13T18:40:27Z</time>
      </trkpt>
      <trkpt lat="48.02603" lon="7.09065">
        <ele>458</ele>
        <time>2019-04-13T18:41:27Z</time>
      </trkpt>
      <trkpt lat="48.026" lon="7.09047">
        <ele>458</ele>
        <time>2019-04-13T18:42:27Z</time>
      </trkpt>
      <trkpt lat="48.02593" lon="7.09012">
        <ele>458</ele>
        <time>2019-04-13T18:43:27Z</time>
      </trkpt>
      <trkpt lat="48.02583" lon="7.08974">
        <ele>457</ele>
        <time>2019-04-13T18:44:27Z</time>
      </trkpt>
      <trkpt lat="48.02577" lon="7.08949">
        <ele>458</ele>
        <time>2019-04-13T18:45:27Z</time>
      </trkpt>
      <trkpt lat="48.02575" lon="7.08927">
        <ele>458</ele>
        <time>2019-04-13T18:46:27Z</time>
      </trkpt>
      <trkpt lat="48.02572" lon="7.08903">
        <ele>459</ele>
        <time>2019-04-13T18:47:27Z</time>
      </trkpt>
      <trkpt lat="48.02571" lon="7.08876">
        <ele>460</ele>
        <time>2019-04-13T18:48:27Z</time>
      </trkpt>
      <trkpt lat="48.0257" lon="7.08849">
        <ele>461</ele>
        <time>2019-04-13T18:49:27Z</time>
      </trkpt>
      <trkpt lat="48.02571" lon="7.08828">
        <ele>462</ele>
        <time>2019-04-13T18:50:27Z</time>
      </trkpt>
      <trkpt lat="48.02573" lon="7.08807">
        <ele>462</ele>
        <time>2019-04-13T18:51:27Z</time>
      </trkpt>
      <trkpt lat="48.02577" lon="7.08781">
        <ele>464</ele>
        <time>2019-04-13T18:52:27Z</time>
      </trkpt>
      <trkpt lat="48.02578" lon="7.08774">
        <ele>464</ele>
        <time>2019-04-13T18:53:27Z</time>
      </trkpt>
      <trkpt lat="48.02582" lon="7.08738">
        <ele>465</ele>
        <time>2019-04-13T18:54:27Z</time>
      </trkpt>
      <trkpt lat="48.02584" lon="7.08723">
        <ele>465</ele>
        <time>2019-04-13T18:55:27Z</time>
      </trkpt>
      <trkpt lat="48.02584" lon="7.08707">
        <ele>466</ele>
        <time>2019-04-13T18:56:27Z</time>
      </trkpt>
      <trkpt lat="48.02584" lon="7.08699">
        <ele>466</ele>
        <time>2019-04-13T18:57:27Z</time>
      </trkpt>
      <trkpt lat="48.02584" lon="7.08678">
        <ele>466</ele>
        <time>2019-04-13T18:58:27Z</time>
      </trkpt>
      <trkpt lat="48.02583" lon="7.08665">
        <ele>466</ele>
        <time>2019-04-13T18:59:27Z</time>
      </trkpt>
      <trkpt lat="48.02582" lon="7.08654">
        <ele>467</ele>
        <time>2019-04-13T19:00:27Z</time>
      </trkpt>
      <trkpt lat="48.02578" lon="7.08628">
        <ele>468</ele>
        <time>2019-04-13T19:01:27Z</time>
      </trkpt>
      <trkpt lat="48.02568" lon="7.08581">
        <ele>470</ele>
        <time>2019-04-13T19:02:27Z</time>
      </trkpt>
      <trkpt lat="48.02564" lon="7.08558">
        <ele>471</ele>
        <time>2019-04-13T19:03:27Z</time>
      </trkpt>
      <trkpt lat="48.02556" lon="7.08522">
        <ele>472</ele>
        <time>2019-04-13T19:04:27Z</time>
      </trkpt>
      <trkpt lat="48.02552" lon="7.08503">
        <ele>473</ele>
        <time>2019-04-13T19:05:27Z</time>
      </trkpt>
      <trkpt lat="48.02551" lon="7.08493">
        <ele>473</ele>
        <time>2019-04-13T19:06:27Z</time>
      </trkpt>
      <trkpt lat="48.0255" lon="7.08468">
        <ele>473</ele>
        <time>2019-04-13T19:07:27Z</time>
      </trkpt>
      <trkpt lat="48.02552" lon="7.08407">
        <ele>475</ele>
        <time>2019-04-13T19:08:27Z</time>
      </trkpt>
      <trkpt lat="48.02554" lon="7.08357">
        <ele>478</ele>
        <time>2019-04-13T19:09:27Z</time>
      </trkpt>
      <trkpt lat="48.02555" lon="7.08328">
        <ele>479</ele>
        <time>2019-04-13T19:10:27Z</time>
      </trkpt>
      <trkpt lat="48.02555" lon="7.08305">
        <ele>480</ele>
        <time>2019-04-13T19:11:27Z</time>
      </trkpt>
      <trkpt lat="48.02553" lon="7.08291">
        <ele>480</ele>
        <time>2019-04-13T19:12:27Z</time>
      </trkpt>
      <trkpt lat="48.02551" lon="7.08275">
        <ele>480</ele>
        <time>2019-04-13T19:13:27Z</time>
      </trkpt>
      <trkpt lat="48.02544" lon="7.08251">
        <ele>480</ele>
        <time>2019-04-13T19:14:27Z</time>
      </trkpt>
      <trkpt lat="48.02543" lon="7.08248">
        <ele>480</ele>
        <time>2019-04-13T19:15:27Z</time>
      </trkpt>
      <trkpt lat="48.02535" lon="7.0823">
        <ele>479</ele>
        <time>2019-04-13T19:16:27Z</time>
      </trkpt>
      <trkpt lat="48.02521" lon="7.08204">
        <ele>478</ele>
        <time>2019-04-13T19:17:27Z</time>
      </trkpt>
      <trkpt lat="48.02518" lon="7.08199">
        <ele>478</ele>
        <time>2019-04-13T19:18:27Z</time>
      </trkpt>
      <trkpt lat="48.02504" lon="7.08176">
        <ele>476</ele>
        <time>2019-04-13T19:19:27Z</time>
      </trkpt>
      <trkpt lat="48.02497" lon="7.08163">
        <ele>476</ele>
        <time>2019-04-13T19:20:27Z</time>
      </trkpt>
      <trkpt lat="48.02494" lon="7.0816">
        <ele>476</ele>
        <time>2019-04-13T19:21:27Z</time>
      </trkpt>
      <trkpt lat="48.0248" lon="7.08135">
        <ele>475</ele>
        <time>2019-04-13T19:22:27Z</time>
      </trkpt>
      <trkpt lat="48.02473" lon="7.08124">
        <ele>474</ele>
        <time>2019-04-13T19:23:27Z</time>
      </trkpt>
      <trkpt lat="48.0247" lon="7.08118">
        <ele>474</ele>
        <time>2019-04-13T19:24:27Z</time>
      </trkpt>
      <trkpt lat="48.02466" lon="7.08109">
        <ele>474</ele>
        <time>2019-04-13T19:25:27Z</time>
      </trkpt>
      <trkpt lat="48.02459" lon="7.08095">
        <ele>473</ele>
        <time>2019-04-13T19:26:27Z</time>
      </trkpt>
      <trkpt lat="48.02455" lon="7.08086">
        <ele>473</ele>
        <time>2019-04-13T19:27:27Z</time>
      </trkpt>
      <trkpt lat="48.02442" lon="7.08057">
        <ele>472</ele>
        <time>2019-04-13T19:28:27Z</time>
      </trkpt>
      <trkpt lat="48.02431" lon="7.08034">
        <ele>471</ele>
        <time>2019-04-13T19:29:27Z</time>
      </trkpt>
      <trkpt lat="48.02423" lon="7.08019">
        <ele>471</ele>
        <time>2019-04-13T19:30:27Z</time>
      </trkpt>
      <trkpt lat="48.02404" lon="7.07988">
        <ele>470</ele>
        <time>2019-04-13T19:31:27Z</time>
      </trkpt>
      <trkpt lat="48.02371" lon="7.07937">
        <ele>470</ele>
        <time>2019-04-13T19:32:27Z</time>
      </trkpt>
      <trkpt lat="48.02343" lon="7.07894">
        <ele>469</ele>
        <time>2019-04-13T19:33:27Z</time>
      </trkpt>
      <trkpt lat="48.02328" lon="7.07869">
        <ele>469</ele>
        <time>2019-04-13T19:34:27Z</time>
      </trkpt>
      <trkpt lat="48.02318" lon="7.07853">
        <ele>469</ele>
        <time>2019-04-13T19:35:27Z</time>
      </trkpt>
      <trkpt lat="48.02317" lon="7.0785">
        <ele>469</ele>
        <time>2019-04-13T19:36:27Z</time>
      </trkpt>
      <trkpt lat="48.02312" lon="7.07835">
        <ele>469</ele>
        <time>2019-04-13T19:37:27Z</time>
      </trkpt>
      <trkpt lat="48.02287" lon="7.07787">
        <ele>472</ele>
        <time>2019-04-13T19:38:27Z</time>
      </trkpt>
      <trkpt lat="48.02283" lon="7.07781">
        <ele>472</ele>
        <time>2019-04-13T19:39:27Z</time>
      </trkpt>
      <trkpt lat="48.02259" lon="7.07737">
        <ele>472</ele>
        <time>2019-04-13T19:40:27Z</time>
      </trkpt>
      <trkpt lat="48.02241" lon="7.07709">
        <ele>474</ele>
        <time>2019-04-13T19:41:27Z</time>
      </trkpt>
      <trkpt lat="48.02226" lon="7.07688">
        <ele>476</ele>
        <time>2019-04-13T19:42:27Z</time>
      </trkpt>
      <trkpt lat="48.02216" lon="7.07675">
        <ele>477</ele>
        <time>2019-04-13T19:43:27Z</time>
      </trkpt>
      <trkpt lat="48.02202" lon="7.07659">
        <ele>477</ele>
        <time>2019-04-13T19:44:27Z</time>
      </trkpt>
      <trkpt lat="48.02187" lon="7.07647">
        <ele>477</ele>
        <time>2019-04-13T19:45:27Z</time>
      </trkpt>
      <trkpt lat="48.02148" lon="7.07618">
        <ele>475</ele>
        <time>2019-04-13T19:46:27Z</time>
      </trkpt>
      <trkpt lat="48.02142" lon="7.07615">
        <ele>475</ele>
        <time>2019-04-13T19:47:27Z</time>
      </trkpt>
      <trkpt lat="48.02116" lon="7.07597">
        <ele>475</ele>
        <time>2019-04-13T19:48:27Z</time>
      </trkpt>
      <trkpt lat="48.02075" lon="7.0757">
        <ele>475</ele>
        <time>2019-04-13T19:49:27Z</time>
      </trkpt>
      <trkpt lat="48.02075" lon="7.07569">
        <ele>475</ele>
        <time>2019-04-13T19:50:27Z</time>
      </trkpt>
      <trkpt lat="48.02039" lon="7.07545">
        <ele>474</ele>
        <time>2019-04-13T19:51:27Z</time>
      </trkpt>
      <trkpt lat="48.02006" lon="7.07524">
        <ele>473</ele>
        <time>2019-04-13T19:52:27Z</time>
      </trkpt>
      <trkpt lat="48.01987" lon="7.07514">
        <ele>473</ele>
        <time>2019-04-13T19:53:27Z</time>
      </trkpt>
      <trkpt lat="48.01965" lon="7.07506">
        <ele>473</ele>
        <time>2019-04-13T19:54:27Z</time>
      </trkpt>
      <trkpt lat="48.01949" lon="7.07502">
        <ele>473</ele>
        <time>2019-04-13T19:55:27Z</time>
      </trkpt>
      <trkpt lat="48.01943" lon="7.075">
        <ele>473</ele>
        <time>2019-04-13T19:56:27Z</time>
      </trkpt>
      <trkpt lat="48.01943" lon="7.075">
        <ele>473</ele>
        <time>2019-04-13T19:57:27Z</time>
      </trkpt>
      <trkpt lat="48.01932" lon="7.07498">
        <ele>473</ele>
        <time>2019-04-13T19:58:27Z</time>
      </trkpt>
      <trkpt lat="48.01919" lon="7.07496">
        <ele>473</ele>
        <time>2019-04-13T19:59:27Z</time>
      </trkpt>
      <trkpt lat="48.01897" lon="7.07493">
        <ele>474</ele>
        <time>2019-04-13T20:00:27Z</time>
      </trkpt>
      <trkpt lat="48.01879" lon="7.07489">
        <ele>475</ele>
        <time>2019-04-13T20:01:27Z</time>
      </trkpt>
      <trkpt lat="48.01864" lon="7.07483">
        <ele>475</ele>
        <time>2019-04-13T20:02:27Z</time>
      </trkpt>
      <trkpt lat="48.01842" lon="7.07474">
        <ele>476</ele>
        <time>2019-04-13T20:03:27Z</time>
      </trkpt>
      <trkpt lat="48.01825" lon="7.07464">
        <ele>477</ele>
        <time>2019-04-13T20:04:27Z</time>
      </trkpt>
      <trkpt lat="48.01798" lon="7.07446">
        <ele>477</ele>
        <time>2019-04-13T20:05:27Z</time>
      </trkpt>
      <trkpt lat="48.01779" lon="7.07429">
        <ele>478</ele>
        <time>2019-04-13T20:06:27Z</time>
      </trkpt>
      <trkpt lat="48.0175" lon="7.07408">
        <ele>478</ele>
        <time>2019-04-13T20:07:27Z</time>
      </trkpt>
      <trkpt lat="48.01729" lon="7.07394">
        <ele>479</ele>
        <time>2019-04-13T20:08:27Z</time>
      </trkpt>
      <trkpt lat="48.01708" lon="7.07382">
        <ele>479</ele>
        <time>2019-04-13T20:09:27Z</time>
      </trkpt>
      <trkpt lat="48.01681" lon="7.07369">
        <ele>479</ele>
        <time>2019-04-13T20:10:27Z</time>
      </trkpt>
      <trkpt lat="48.01653" lon="7.07357">
        <ele>479</ele>
        <time>2019-04-13T20:11:27Z</time>
      </trkpt>
      <trkpt lat="48.01624" lon="7.07345">
        <ele>479</ele>
        <time>2019-04-13T20:12:27Z</time>
      </trkpt>
      <trkpt lat="48.01596" lon="7.07331">
        <ele>479</ele>
        <time>2019-04-13T20:13:27Z</time>
      </trkpt>
      <trkpt lat="48.01579" lon="7.07318">
        <ele>480</ele>
        <time>2019-04-13T20:14:27Z</time>
      </trkpt>
      <trkpt lat="48.01577" lon="7.07316">
        <ele>480</ele>
        <time>2019-04-13T20:15:27Z</time>
      </trkpt>
      <trkpt lat="48.01553" lon="7.07296">
        <ele>480</ele>
        <time>2019-04-13T20:16:27Z</time>
      </trkpt>
      <trkpt lat="48.01537" lon="7.07282">
        <ele>480</ele>
        <time>2019-04-13T20:17:27Z</time>
      </trkpt>
      <trkpt lat="48.0153" lon="7.07274">
        <ele>480</ele>
        <time>2019-04-13T20:18:27Z</time>
      </trkpt>
      <trkpt lat="48.0151" lon="7.07251">
        <ele>480</ele>
        <time>2019-04-13T20:19:27Z</time>
      </trkpt>
      <trkpt lat="48.01491" lon="7.07232">
        <ele>480</ele>
        <time>2019-04-13T20:20:27Z</time>
      </trkpt>
      <trkpt lat="48.01474" lon="7.07218">
        <ele>479</ele>
        <time>2019-04-13T20:21:27Z</time>
      </trkpt>
      <trkpt lat="48.01466" lon="7.07207">
        <ele>479</ele>
        <time>2019-04-13T20:22:27Z</time>
      </trkpt>
      <trkpt lat="48.01459" lon="7.07199">
        <ele>479</ele>
        <time>2019-04-13T20:23:27Z</time>
      </trkpt>
      <trkpt lat="48.01448" lon="7.07183">
        <ele>480</ele>
        <time>2019-04-13T20:24:27Z</time>
      </trkpt>
      <trkpt lat="48.01443" lon="7.07174">
        <ele>480</ele>
        <time>2019-04-13T20:25:27Z</time>
      </trkpt>
      <trkpt lat="48.01433" lon="7.07169">
        <ele>480</ele>
        <time>2019-04-13T20:26:27Z</time>
      </trkpt>
      <trkpt lat="48.01416" lon="7.0716">
        <ele>480</ele>
        <time>2019-04-13T20:27:27Z</time>
      </trkpt>
      <trkpt lat="48.01402" lon="7.07152">
        <ele>480</ele>
        <time>2019-04-13T20:28:27Z</time>
      </trkpt>
      <trkpt lat="48.01393" lon="7.07148">
        <ele>480</ele>
        <time>2019-04-13T20:29:27Z</time>
      </trkpt>
      <trkpt lat="48.01364" lon="7.0715">
        <ele>480</ele>
        <time>2019-04-13T20:30:27Z</time>
      </trkpt>
      <trkpt lat="48.01357" lon="7.07151">
        <ele>480</ele>
        <time>2019-04-13T20:31:27Z</time>
      </trkpt>
      <trkpt lat="48.0135" lon="7.07153">
        <ele>479</ele>
        <time>2019-04-13T20:32:27Z</time>
      </trkpt>
      <trkpt lat="48.01342" lon="7.07154">
        <ele>479</ele>
        <time>2019-04-13T20:33:27Z</time>
      </trkpt>
      <trkpt lat="48.0131" lon="7.0715">
        <ele>479</ele>
        <time>2019-04-13T20:34:27Z</time>
      </trkpt>
      <trkpt lat="48.01299" lon="7.07151">
        <ele>480</ele>
        <time>2019-04-13T20:35:27Z</time>
      </trkpt>
      <trkpt lat="48.01289" lon="7.07151">
        <ele>480</ele>
        <time>2019-04-13T20:36:27Z</time>
      </trkpt>
      <trkpt lat="48.01278" lon="7.0715">
        <ele>480</ele>
        <time>2019-04-13T20:37:27Z</time>
      </trkpt>
      <trkpt lat="48.01268" lon="7.07147">
        <ele>480</ele>
        <time>2019-04-13T20:38:27Z</time>
      </trkpt>
      <trkpt lat="48.01254" lon="7.07143">
        <ele>480</ele>
        <time>2019-04-13T20:39:27Z</time>
      </trkpt>
      <trkpt lat="48.01238" lon="7.07137">
        <ele>481</ele>
        <time>2019-04-13T20:40:27Z</time>
      </trkpt>
      <trkpt lat="48.01234" lon="7.07135">
        <ele>481</ele>
        <time>2019-04-13T20:41:27Z</time>
      </trkpt>
      <trkpt lat="48.01224" lon="7.0713">
        <ele>481</ele>
        <time>2019-04-13T20:42:27Z</time>
      </trkpt>
      <trkpt lat="48.01215" lon="7.07125">
        <ele>481</ele>
        <time>2019-04-13T20:43:27Z</time>
      </trkpt>
      <trkpt lat="48.01203" lon="7.07119">
        <ele>482</ele>
        <time>2019-04-13T20:44:27Z</time>
      </trkpt>
      <trkpt lat="48.0119" lon="7.0711">
        <ele>482</ele>
        <time>2019-04-13T20:45:27Z</time>
      </trkpt>
      <trkpt lat="48.0117" lon="7.07096">
        <ele>483</ele>
        <time>2019-04-13T20:46:27Z</time>
      </trkpt>
      <trkpt lat="48.01157" lon="7.07085">
        <ele>483</ele>
        <time>2019-04-13T20:47:27Z</time>
      </trkpt>
      <trkpt lat="48.01138" lon="7.07074">
        <ele>484</ele>
        <time>2019-04-13T20:48:27Z</time>
      </trkpt>
      <trkpt lat="48.01124" lon="7.07068">
        <ele>485</ele>
        <time>2019-04-13T20:49:27Z</time>
      </trkpt>
      <trkpt lat="48.01112" lon="7.07065">
        <ele>485</ele>
        <time>2019-04-13T20:50:27Z</time>
      </trkpt>
      <trkpt lat="48.01103" lon="7.07062">
        <ele>485</ele>
        <time>2019-04-13T20:51:27Z</time>
      </trkpt>
      <trkpt lat="48.01092" lon="7.07063">
        <ele>486</ele>
        <time>2019-04-13T20:52:27Z</time>
      </trkpt>
      <trkpt lat="48.01084" lon="7.07063">
        <ele>486</ele>
        <time>2019-04-13T20:53:27Z</time>
      </trkpt>
      <trkpt lat="48.01079" lon="7.07064">
        <ele>486</ele>
        <time>2019-04-13T20:54:27Z</time>
      </trkpt>
      <trkpt lat="48.01073" lon="7.07066">
        <ele>486</ele>
        <time>2019-04-13T20:55:27Z</time>
      </trkpt>
      <trkpt lat="48.01069" lon="7.0707">
        <ele>487</ele>
        <time>2019-04-13T20:56:27Z</time>
      </trkpt>
      <trkpt lat="48.01049" lon="7.07081">
        <ele>487</ele>
        <time>2019-04-13T20:57:27Z</time>
      </trkpt>
      <trkpt lat="48.01036" lon="7.07088">
        <ele>488</ele>
        <time>2019-04-13T20:58:27Z</time>
      </trkpt>
      <trkpt lat="48.01025" lon="7.07093">
        <ele>488</ele>
        <time>2019-04-13T20:59:27Z</time>
      </trkpt>
      <trkpt lat="48.01012" lon="7.07096">
        <ele>488</ele>
        <time>2019-04-13T21:00:27Z</time>
      </trkpt>
      <trkpt lat="48.01" lon="7.07098">
        <ele>489</ele>
        <time>2019-04-13T21:01:27Z</time>
      </trkpt>
      <trkpt lat="48.00982" lon="7.07099">
        <ele>489</ele>
        <time>2019-04-13T21:02:27Z</time>
      </trkpt>
      <trkpt lat="48.00963" lon="7.07101">
        <ele>490</ele>
        <time>2019-04-13T21:03:27Z</time>
      </trkpt>
      <trkpt lat="48.00947" lon="7.07104">
        <ele>491</ele>
        <time>2019-04-13T21:04:27Z</time>
      </trkpt>
      <trkpt lat="48.00922" lon="7.07109">
        <ele>492</ele>
        <time>2019-04-13T21:05:27Z</time>
      </trkpt>
      <trkpt lat="48.00904" lon="7.07116">
        <ele>492</ele>
        <time>2019-04-13T21:06:27Z</time>
      </trkpt>
      <trkpt lat="48.00896" lon="7.07119">
        <ele>492</ele>
        <time>2019-04-13T21:07:27Z</time>
      </trkpt>
      <trkpt lat="48.00881" lon="7.07124">
        <ele>492</ele>
        <time>2019-04-13T21:08:27Z</time>
      </trkpt>
      <trkpt lat="48.00877" lon="7.07126">
        <ele>492</ele>
        <time>2019-04-13T21:09:27Z</time>
      </trkpt>
      <trkpt lat="48.00868" lon="7.07128">
        <ele>493</ele>
        <time>2019-04-13T21:10:27Z</time>
      </trkpt>
      <trkpt lat="48.00857" lon="7.07129">
        <ele>493</ele>
        <time>2019-04-13T21:11:27Z</time>
      </trkpt>
      <trkpt lat="48.00843" lon="7.07127">
        <ele>493</ele>
        <time>2019-04-13T21:12:27Z</time>
      </trkpt>
      <trkpt lat="48.00822" lon="7.07122">
        <ele>494</ele>
        <time>2019-04-13T21:13:27Z</time>
      </trkpt>
      <trkpt lat="48.00801" lon="7.07117">
        <ele>496</ele>
        <time>2019-04-13T21:14:27Z</time>
      </trkpt>
      <trkpt lat="48.00789" lon="7.07115">
        <ele>497</ele>
        <time>2019-04-13T21:15:27Z</time>
      </trkpt>
      <trkpt lat="48.00778" lon="7.07115">
        <ele>498</ele>
        <time>2019-04-13T21:16:27Z</time>
      </trkpt>
      <trkpt lat="48.00774" lon="7.07116">
        <ele>498</ele>
        <time>2019-04-13T21:17:27Z</time>
      </trkpt>
      <trkpt lat="48.00768" lon="7.07116">
        <ele>498</ele>
        <time>2019-04-13T21:18:27Z</time>
      </trkpt>
      <trkpt lat="48.00753" lon="7.07121">
        <ele>499</ele>
        <time>2019-04-13T21:19:27Z</time>
      </trkpt>
      <trkpt lat="48.00744" lon="7.07127">
        <ele>500</ele>
        <time>2019-04-13T21:20:27Z</time>
      </trkpt>
      <trkpt lat="48.00733" lon="7.07137">
        <ele>501</ele>
        <time>2019-04-13T21:21:27Z</time>
      </trkpt>
      <trkpt lat="48.0072" lon="7.07152">
        <ele>503</ele>
        <time>2019-04-13T21:22:27Z</time>
      </trkpt>
      <trkpt lat="48.00709" lon="7.07172">
        <ele>504</ele>
        <time>2019-04-13T21:23:27Z</time>
      </trkpt>
      <trkpt lat="48.00695" lon="7.07204">
        <ele>505</ele>
        <time>2019-04-13T21:24:27Z</time>
      </trkpt>
      <trkpt lat="48.0068" lon="7.07234">
        <ele>507</ele>
        <time>2019-04-13T21:25:27Z</time>
      </trkpt>
      <trkpt lat="48.00667" lon="7.0726">
        <ele>508</ele>
        <time>2019-04-13T21:26:27Z</time>
      </trkpt>
      <trkpt lat="48.00652" lon="7.07283">
        <ele>509</ele>
        <time>2019-04-13T21:27:27Z</time>
      </trkpt>
      <trkpt lat="48.0065" lon="7.07285">
        <ele>510</ele>
        <time>2019-04-13T21:28:27Z</time>
      </trkpt>
      <trkpt lat="48.00639" lon="7.073">
        <ele>510</ele>
        <time>2019-04-13T21:29:27Z</time>
      </trkpt>
      <trkpt lat="48.00629" lon="7.07313">
        <ele>510</ele>
        <time>2019-04-13T21:30:27Z</time>
      </trkpt>
      <trkpt lat="48.00616" lon="7.07325">
        <ele>510</ele>
        <time>2019-04-13T21:31:27Z</time>
      </trkpt>
      <trkpt lat="48.00603" lon="7.07337">
        <ele>510</ele>
        <time>2019-04-13T21:32:27Z</time>
      </trkpt>
      <trkpt lat="48.00596" lon="7.07343">
        <ele>510</ele>
        <time>2019-04-13T21:33:27Z</time>
      </trkpt>
      <trkpt lat="48.00586" lon="7.07349">
        <ele>511</ele>
        <time>2019-04-13T21:34:27Z</time>
      </trkpt>
      <trkpt lat="48.00571" lon="7.07357">
        <ele>512</ele>
        <time>2019-04-13T21:35:27Z</time>
      </trkpt>
      <trkpt lat="48.00551" lon="7.07365">
        <ele>515</ele>
        <time>2019-04-13T21:36:27Z</time>
      </trkpt>
      <trkpt lat="48.00515" lon="7.07382">
        <ele>517</ele>
        <time>2019-04-13T21:37:27Z</time>
      </trkpt>
      <trkpt lat="48.00453" lon="7.07409">
        <ele>518</ele>
        <time>2019-04-13T21:38:27Z</time>
      </trkpt>
      <trkpt lat="48.00414" lon="7.07426">
        <ele>520</ele>
        <time>2019-04-13T21:39:27Z</time>
      </trkpt>
      <trkpt lat="48.00407" lon="7.07429">
        <ele>520</ele>
        <time>2019-04-13T21:40:27Z</time>
      </trkpt>
      <trkpt lat="48.00401" lon="7.07431">
        <ele>520</ele>
        <time>2019-04-13T21:41:27Z</time>
      </trkpt>
      <trkpt lat="48.00389" lon="7.07436">
        <ele>521</ele>
        <time>2019-04-13T21:42:27Z</time>
      </trkpt>
      <trkpt lat="48.00342" lon="7.07456">
        <ele>523</ele>
        <time>2019-04-13T21:43:27Z</time>
      </trkpt>
      <trkpt lat="48.00326" lon="7.07462">
        <ele>524</ele>
        <time>2019-04-13T21:44:27Z</time>
      </trkpt>
      <trkpt lat="48.0031" lon="7.07468">
        <ele>524</ele>
        <time>2019-04-13T21:45:27Z</time>
      </trkpt>
      <trkpt lat="48.00293" lon="7.07472">
        <ele>524</ele>
        <time>2019-04-13T21:46:27Z</time>
      </trkpt>
      <trkpt lat="48.00282" lon="7.07475">
        <ele>524</ele>
        <time>2019-04-13T21:47:27Z</time>
      </trkpt>
      <trkpt lat="48.00264" lon="7.0748">
        <ele>524</ele>
        <time>2019-04-13T21:48:27Z</time>
      </trkpt>
      <trkpt lat="48.00251" lon="7.07483">
        <ele>524</ele>
        <time>2019-04-13T21:49:27Z</time>
      </trkpt>
      <trkpt lat="48.00233" lon="7.07486">
        <ele>525</ele>
        <time>2019-04-13T21:50:27Z</time>
      </trkpt>
      <trkpt lat="48.00209" lon="7.0749">
        <ele>527</ele>
        <time>2019-04-13T21:51:27Z</time>
      </trkpt>
      <trkpt lat="48.00193" lon="7.07491">
        <ele>527</ele>
        <time>2019-04-13T21:52:27Z</time>
      </trkpt>
      <trkpt lat="48.00165" lon="7.07492">
        <ele>529</ele>
        <time>2019-04-13T21:53:27Z</time>
      </trkpt>
      <trkpt lat="48.00136" lon="7.07493">
        <ele>530</ele>
        <time>2019-04-13T21:54:27Z</time>
      </trkpt>
      <trkpt lat="48.00111" lon="7.07491">
        <ele>531</ele>
        <time>2019-04-13T21:55:27Z</time>
      </trkpt>
      <trkpt lat="48.00088" lon="7.07489">
        <ele>532</ele>
        <time>2019-04-13T21:56:27Z</time>
      </trkpt>
      <trkpt lat="48.0007" lon="7.07486">
        <ele>533</ele>
        <time>2019-04-13T21:57:27Z</time>
      </trkpt>
      <trkpt lat="48.00052" lon="7.07482">
        <ele>534</ele>
        <time>2019-04-13T21:58:27Z</time>
      </trkpt>
      <trkpt lat="48.00014" lon="7.07471">
        <ele>536</ele>
        <time>2019-04-13T21:59:27Z</time>
      </trkpt>
      <trkpt lat="47.99998" lon="7.07467">
        <ele>536</ele>
        <time>2019-04-13T22:00:27Z</time>
      </trkpt>
      <trkpt lat="47.99982" lon="7.07463">
        <ele>537</ele>
        <time>2019-04-13T22:01:27Z</time>
      </trkpt>
      <trkpt lat="47.99972" lon="7.07462">
        <ele>538</ele>
        <time>2019-04-13T22:02:27Z</time>
      </trkpt>
      <trkpt lat="47.99955" lon="7.0746">
        <ele>539</ele>
        <time>2019-04-13T22:03:27Z</time>
      </trkpt>
      <trkpt lat="47.99938" lon="7.07463">
        <ele>540</ele>
        <time>2019-04-13T22:04:27Z</time>
      </trkpt>
      <trkpt lat="47.99913" lon="7.07465">
        <ele>542</ele>
        <time>2019-04-13T22:05:27Z</time>
      </trkpt>
      <trkpt lat="47.9989" lon="7.07467">
        <ele>542</ele>
        <time>2019-04-13T22:06:27Z</time>
      </trkpt>
      <trkpt lat="47.99869" lon="7.07468">
        <ele>542</ele>
        <time>2019-04-13T22:07:27Z</time>
      </trkpt>
      <trkpt lat="47.99851" lon="7.07467">
        <ele>542</ele>
        <time>2019-04-13T22:08:27Z</time>
      </trkpt>
      <trkpt lat="47.99841" lon="7.07465">
        <ele>542</ele>
        <time>2019-04-13T22:09:27Z</time>
      </trkpt>
      <trkpt lat="47.99839" lon="7.07464">
        <ele>542</ele>
        <time>2019-04-13T22:10:27Z</time>
      </trkpt>
      <trkpt lat="47.99832" lon="7.0746">
        <ele>542</ele>
        <time>2019-04-13T22:11:27Z</time>
      </trkpt>
      <trkpt lat="47.9983" lon="7.07458">
        <ele>542</ele>
        <time>2019-04-13T22:12:27Z</time>
      </trkpt>
      <trkpt lat="47.9981" lon="7.07442">
        <ele>541</ele>
        <time>2019-04-13T22:13:27Z</time>
      </trkpt>
      <trkpt lat="47.9981" lon="7.07442">
        <ele>541</ele>
        <time>2019-04-13T22:14:27Z</time>
      </trkpt>
      <trkpt lat="47.99798" lon="7.07452">
        <ele>542</ele>
        <time>2019-04-13T22:15:27Z</time>
      </trkpt>
      <trkpt lat="47.99796" lon="7.07455">
        <ele>542</ele>
        <time>2019-04-13T22:16:27Z</time>
      </trkpt>
      <trkpt lat="47.99794" lon="7.07459">
        <ele>542</ele>
        <time>2019-04-13T22:17:27Z</time>
      </trkpt>
      <trkpt lat="47.99732" lon="7.07546">
        <ele>548</ele>
        <time>2019-04-13T22:18:27Z</time>
      </trkpt>
      <trkpt lat="47.99715" lon="7.07577">
        <ele>551</ele>
        <time>2019-04-13T22:19:27Z</time>
      </trkpt>
      <trkpt lat="47.99697" lon="7.07609">
        <ele>554</ele>
        <time>2019-04-13T22:20:27Z</time>
      </trkpt>
      <trkpt lat="47.9969" lon="7.07619">
        <ele>554</ele>
        <time>2019-04-13T22:21:27Z</time>
      </trkpt>
      <trkpt lat="47.99672" lon="7.07642">
        <ele>554</ele>
        <time>2019-04-13T22:22:27Z</time>
      </trkpt>
      <trkpt lat="47.99645" lon="7.07671">
        <ele>560</ele>
        <time>2019-04-13T22:23:27Z</time>
      </trkpt>
      <trkpt lat="47.99621" lon="7.07696">
        <ele>565</ele>
        <time>2019-04-13T22:24:27Z</time>
      </trkpt>
      <trkpt lat="47.99605" lon="7.07717">
        <ele>567</ele>
        <time>2019-04-13T22:25:27Z</time>
      </trkpt>
      <trkpt lat="47.99593" lon="7.07735">
        <ele>566</ele>
        <time>2019-04-13T22:26:27Z</time>
      </trkpt>
      <trkpt lat="47.99581" lon="7.07758">
        <ele>566</ele>
        <time>2019-04-13T22:27:27Z</time>
      </trkpt>
      <trkpt lat="47.99571" lon="7.07786">
        <ele>569</ele>
        <time>2019-04-13T22:28:27Z</time>
      </trkpt>
      <trkpt lat="47.9956" lon="7.07831">
        <ele>570</ele>
        <time>2019-04-13T22:29:27Z</time>
      </trkpt>
      <trkpt lat="47.99549" lon="7.07859">
        <ele>573</ele>
        <time>2019-04-13T22:30:27Z</time>
      </trkpt>
      <trkpt lat="47.99541" lon="7.07873">
        <ele>574</ele>
        <time>2019-04-13T22:31:27Z</time>
      </trkpt>
      <trkpt lat="47.9953" lon="7.07886">
        <ele>575</ele>
        <time>2019-04-13T22:32:27Z</time>
      </trkpt>
      <trkpt lat="47.99506" lon="7.07913">
        <ele>574</ele>
        <time>2019-04-13T22:33:27Z</time>
      </trkpt>
      <trkpt lat="47.99487" lon="7.07937">
        <ele>578</ele>
        <time>2019-04-13T22:34:27Z</time>
      </trkpt>
      <trkpt lat="47.99468" lon="7.07961">
        <ele>582</ele>
        <time>2019-04-13T22:35:27Z</time>
      </trkpt>
      <trkpt lat="47.99447" lon="7.07988">
        <ele>585</ele>
        <time>2019-04-13T22:36:27Z</time>
      </trkpt>
      <trkpt lat="47.99423" lon="7.08013">
        <ele>586</ele>
        <time>2019-04-13T22:37:27Z</time>
      </trkpt>
      <trkpt lat="47.99399" lon="7.08043">
        <ele>590</ele>
        <time>2019-04-13T22:38:27Z</time>
      </trkpt>
      <trkpt lat="47.99381" lon="7.08058">
        <ele>591</ele>
        <time>2019-04-13T22:39:27Z</time>
      </trkpt>
      <trkpt lat="47.99367" lon="7.08074">
        <ele>591</ele>
        <time>2019-04-13T22:40:27Z</time>
      </trkpt>
      <trkpt lat="47.99354" lon="7.08088">
        <ele>591</ele>
        <time>2019-04-13T22:41:27Z</time>
      </trkpt>
      <trkpt lat="47.9934" lon="7.081">
        <ele>591</ele>
        <time>2019-04-13T22:42:27Z</time>
      </trkpt>
      <trkpt lat="47.99321" lon="7.0811">
        <ele>592</ele>
        <time>2019-04-13T22:43:27Z</time>
      </trkpt>
      <trkpt lat="47.993" lon="7.0812">
        <ele>593</ele>
        <time>2019-04-13T22:44:27Z</time>
      </trkpt>
      <trkpt lat="47.99266" lon="7.08141">
        <ele>595</ele>
        <time>2019-04-13T22:45:27Z</time>
      </trkpt>
      <trkpt lat="47.99249" lon="7.08151">
        <ele>596</ele>
        <time>2019-04-13T22:46:27Z</time>
      </trkpt>
      <trkpt lat="47.99231" lon="7.08161">
        <ele>597</ele>
        <time>2019-04-13T22:47:27Z</time>
      </trkpt>
      <trkpt lat="47.99221" lon="7.08165">
        <ele>598</ele>
        <time>2019-04-13T22:48:27Z</time>
      </trkpt>
      <trkpt lat="47.99214" lon="7.08169">
        <ele>598</ele>
        <time>2019-04-13T22:49:27Z</time>
      </trkpt>
      <trkpt lat="47.99197" lon="7.08174">
        <ele>600</ele>
        <time>2019-04-13T22:50:27Z</time>
      </trkpt>
      <trkpt lat="47.99182" lon="7.08177">
        <ele>601</ele>
        <time>2019-04-13T22:51:27Z</time>
      </trkpt>
      <trkpt lat="47.99169" lon="7.0818">
        <ele>602</ele>
        <time>2019-04-13T22:52:27Z</time>
      </trkpt>
      <trkpt lat="47.99156" lon="7.08184">
        <ele>603</ele>
        <time>2019-04-13T22:53:27Z</time>
      </trkpt>
      <trkpt lat="47.99142" lon="7.08192">
        <ele>605</ele>
        <time>2019-04-13T22:54:27Z</time>
      </trkpt>
      <trkpt lat="47.99132" lon="7.082">
        <ele>606</ele>
        <time>2019-04-13T22:55:27Z</time>
      </trkpt>
      <trkpt lat="47.99121" lon="7.08211">
        <ele>608</ele>
        <time>2019-04-13T22:56:27Z</time>
      </trkpt>
      <trkpt lat="47.99107" lon="7.0822">
        <ele>608</ele>
        <time>2019-04-13T22:57:27Z</time>
      </trkpt>
      <trkpt lat="47.99089" lon="7.0823">
        <ele>608</ele>
        <time>2019-04-13T22:58:27Z</time>
      </trkpt>
      <trkpt lat="47.99062" lon="7.08243">
        <ele>609</ele>
        <time>2019-04-13T22:59:27Z</time>
      </trkpt>
      <trkpt lat="47.99042" lon="7.08256">
        <ele>611</ele>
        <time>2019-04-13T23:00:27Z</time>
      </trkpt>
      <trkpt lat="47.99006" lon="7.08276">
        <ele>617</ele>
        <time>2019-04-13T23:01:27Z</time>
      </trkpt>
      <trkpt lat="47.98992" lon="7.08284">
        <ele>619</ele>
        <time>2019-04-13T23:02:27Z</time>
      </trkpt>
      <trkpt lat="47.98977" lon="7.0829">
        <ele>621</ele>
        <time>2019-04-13T23:03:27Z</time>
      </trkpt>
      <trkpt lat="47.98951" lon="7.08299">
        <ele>625</ele>
        <time>2019-04-13T23:04:27Z</time>
      </trkpt>
      <trkpt lat="47.98913" lon="7.08309">
        <ele>630</ele>
        <time>2019-04-13T23:05:27Z</time>
      </trkpt>
      <trkpt lat="47.98897" lon="7.08314">
        <ele>633</ele>
        <time>2019-04-13T23:06:27Z</time>
      </trkpt>
      <trkpt lat="47.98889" lon="7.08317">
        <ele>635</ele>
        <time>2019-04-13T23:07:27Z</time>
      </trkpt>
      <trkpt lat="47.98879" lon="7.08319">
        <ele>637</ele>
        <time>2019-04-13T23:08:27Z</time>
      </trkpt>
      <trkpt lat="47.98863" lon="7.0832">
        <ele>640</ele>
        <time>2019-04-13T23:09:27Z</time>
      </trkpt>
      <trkpt lat="47.98842" lon="7.08318">
        <ele>643</ele>
        <time>2019-04-13T23:10:27Z</time>
      </trkpt>
      <trkpt lat="47.98827" lon="7.08319">
        <ele>645</ele>
        <time>2019-04-13T23:11:27Z</time>
      </trkpt>
      <trkpt lat="47.98806" lon="7.08318">
        <ele>646</ele>
        <time>2019-04-13T23:12:27Z</time>
      </trkpt>
      <trkpt lat="47.98783" lon="7.0832">
        <ele>647</ele>
        <time>2019-04-13T23:13:27Z</time>
      </trkpt>
      <trkpt lat="47.98753" lon="7.08332">
        <ele>648</ele>
        <time>2019-04-13T23:14:27Z</time>
      </trkpt>
      <trkpt lat="47.98726" lon="7.08349">
        <ele>654</ele>
        <time>2019-04-13T23:15:27Z</time>
      </trkpt>
      <trkpt lat="47.9872" lon="7.08354">
        <ele>656</ele>
        <time>2019-04-13T23:16:27Z</time>
      </trkpt>
      <trkpt lat="47.98697" lon="7.08374">
        <ele>660</ele>
        <time>2019-04-13T23:17:27Z</time>
      </trkpt>
      <trkpt lat="47.98679" lon="7.08391">
        <ele>660</ele>
        <time>2019-04-13T23:18:27Z</time>
      </trkpt>
      <trkpt lat="47.98666" lon="7.08408">
        <ele>660</ele>
        <time>2019-04-13T23:19:27Z</time>
      </trkpt>
      <trkpt lat="47.9864" lon="7.08456">
        <ele>670</ele>
        <time>2019-04-13T23:20:27Z</time>
      </trkpt>
      <trkpt lat="47.98624" lon="7.08499">
        <ele>673</ele>
        <time>2019-04-13T23:21:27Z</time>
      </trkpt>
      <trkpt lat="47.98615" lon="7.08528">
        <ele>675</ele>
        <time>2019-04-13T23:22:27Z</time>
      </trkpt>
      <trkpt lat="47.9861" lon="7.08546">
        <ele>675</ele>
        <time>2019-04-13T23:23:27Z</time>
      </trkpt>
      <trkpt lat="47.98603" lon="7.08566">
        <ele>675</ele>
        <time>2019-04-13T23:24:27Z</time>
      </trkpt>
      <trkpt lat="47.98598" lon="7.0859">
        <ele>674</ele>
        <time>2019-04-13T23:25:27Z</time>
      </trkpt>
      <trkpt lat="47.9859" lon="7.08629">
        <ele>675</ele>
        <time>2019-04-13T23:26:27Z</time>
      </trkpt>
      <trkpt lat="47.98581" lon="7.08662">
        <ele>675</ele>
        <time>2019-04-13T23:27:27Z</time>
      </trkpt>
      <trkpt lat="47.98567" lon="7.08725">
        <ele>680</ele>
        <time>2019-04-13T23:28:27Z</time>
      </trkpt>
      <trkpt lat="47.98558" lon="7.08758">
        <ele>682</ele>
        <time>2019-04-13T23:29:27Z</time>
      </trkpt>
      <trkpt lat="47.98545" lon="7.08803">
        <ele>685</ele>
        <time>2019-04-13T23:30:27Z</time>
      </trkpt>
      <trkpt lat="47.98535" lon="7.0883">
        <ele>686</ele>
        <time>2019-04-13T23:31:27Z</time>
      </trkpt>
      <trkpt lat="47.98525" lon="7.08857">
        <ele>687</ele>
        <time>2019-04-13T23:32:27Z</time>
      </trkpt>
      <trkpt lat="47.98515" lon="7.08888">
        <ele>688</ele>
        <time>2019-04-13T23:33:27Z</time>
      </trkpt>
      <trkpt lat="47.98509" lon="7.08913">
        <ele>689</ele>
        <time>2019-04-13T23:34:27Z</time>
      </trkpt>
      <trkpt lat="47.98503" lon="7.08946">
        <ele>691</ele>
        <time>2019-04-13T23:35:27Z</time>
      </trkpt>
      <trkpt lat="47.9849" lon="7.08981">
        <ele>695</ele>
        <time>2019-04-13T23:36:27Z</time>
      </trkpt>
      <trkpt lat="47.98483" lon="7.08999">
        <ele>697</ele>
        <time>2019-04-13T23:37:27Z</time>
      </trkpt>
      <trkpt lat="47.98476" lon="7.09012">
        <ele>698</ele>
        <time>2019-04-13T23:38:27Z</time>
      </trkpt>
      <trkpt lat="47.98471" lon="7.09015">
        <ele>698</ele>
        <time>2019-04-13T23:39:27Z</time>
      </trkpt>
      <trkpt lat="47.98467" lon="7.09019">
        <ele>698</ele>
        <time>2019-04-13T23:40:27Z</time>
      </trkpt>
      <trkpt lat="47.98458" lon="7.09021">
        <ele>698</ele>
        <time>2019-04-13T23:41:27Z</time>
      </trkpt>
      <trkpt lat="47.98443" lon="7.09023">
        <ele>697</ele>
        <time>2019-04-13T23:42:27Z</time>
      </trkpt>
      <trkpt lat="47.98432" lon="7.09028">
        <ele>697</ele>
        <time>2019-04-13T23:43:27Z</time>
      </trkpt>
      <trkpt lat="47.98425" lon="7.09033">
        <ele>697</ele>
        <time>2019-04-13T23:44:27Z</time>
      </trkpt>
      <trkpt lat="47.98412" lon="7.09056">
        <ele>698</ele>
        <time>2019-04-13T23:45:27Z</time>
      </trkpt>
      <trkpt lat="47.984" lon="7.0908">
        <ele>700</ele>
        <time>2019-04-13T23:46:27Z</time>
      </trkpt>
      <trkpt lat="47.984" lon="7.0908">
        <ele>700</ele>
        <time>2019-04-13T23:47:27Z</time>
      </trkpt>
      <trkpt lat="47.984" lon="7.09087">
        <ele>701</ele>
        <time>2019-04-13T23:48:27Z</time>
      </trkpt>
      <trkpt lat="47.98405" lon="7.09094">
        <ele>702</ele>
        <time>2019-04-13T23:49:27Z</time>
      </trkpt>
      <trkpt lat="47.98412" lon="7.09103">
        <ele>704</ele>
        <time>2019-04-13T23:50:27Z</time>
      </trkpt>
      <trkpt lat="47.98426" lon="7.09111">
        <ele>706</ele>
        <time>2019-04-13T23:51:27Z</time>
      </trkpt>
      <trkpt lat="47.98447" lon="7.0912">
        <ele>709</ele>
        <time>2019-04-13T23:52:27Z</time>
      </trkpt>
      <trkpt lat="47.98465" lon="7.09125">
        <ele>711</ele>
        <time>2019-04-13T23:53:27Z</time>
      </trkpt>
      <trkpt lat="47.98472" lon="7.0913">
        <ele>712</ele>
        <time>2019-04-13T23:54:27Z</time>
      </trkpt>
      <trkpt lat="47.98477" lon="7.09136">
        <ele>713</ele>
        <time>2019-04-13T23:55:27Z</time>
      </trkpt>
      <trkpt lat="47.98485" lon="7.09151">
        <ele>715</ele>
        <time>2019-04-13T23:56:27Z</time>
      </trkpt>
      <trkpt lat="47.98502" lon="7.09172">
        <ele>718</ele>
        <time>2019-04-13T23:57:27Z</time>
      </trkpt>
      <trkpt lat="47.98531" lon="7.09207">
        <ele>730</ele>
        <time>2019-04-13T23:58:27Z</time>
      </trkpt>
      <trkpt lat="47.98564" lon="7.0924">
        <ele>733</ele>
        <time>2019-04-13T23:59:27Z</time>
      </trkpt>
      <trkpt lat="47.98587" lon="7.0927">
        <ele>734</ele>
        <time>2019-04-14T00:00:27Z</time>
      </trkpt>
      <trkpt lat="47.98598" lon="7.09287">
        <ele>740</ele>
        <time>2019-04-14T00:01:27Z</time>
      </trkpt>
      <trkpt lat="47.98604" lon="7.09312">
        <ele>743</ele>
        <time>2019-04-14T00:02:27Z</time>
      </trkpt>
      <trkpt lat="47.98606" lon="7.09328">
        <ele>744</ele>
        <time>2019-04-14T00:03:27Z</time>
      </trkpt>
      <trkpt lat="47.98615" lon="7.09379">
        <ele>756</ele>
        <time>2019-04-14T00:04:27Z</time>
      </trkpt>
      <trkpt lat="47.98623" lon="7.09418">
        <ele>765</ele>
        <time>2019-04-14T00:05:27Z</time>
      </trkpt>
      <trkpt lat="47.98628" lon="7.0946">
        <ele>769</ele>
        <time>2019-04-14T00:06:27Z</time>
      </trkpt>
      <trkpt lat="47.9863" lon="7.0949">
        <ele>772</ele>
        <time>2019-04-14T00:07:27Z</time>
      </trkpt>
      <trkpt lat="47.98631" lon="7.09522">
        <ele>775</ele>
        <time>2019-04-14T00:08:27Z</time>
      </trkpt>
      <trkpt lat="47.98628" lon="7.09533">
        <ele>776</ele>
        <time>2019-04-14T00:09:27Z</time>
      </trkpt>
      <trkpt lat="47.9862" lon="7.09546">
        <ele>777</ele>
        <time>2019-04-14T00:10:27Z</time>
      </trkpt>
      <trkpt lat="47.98607" lon="7.09568">
        <ele>778</ele>
        <time>2019-04-14T00:11:27Z</time>
      </trkpt>
      <trkpt lat="47.98596" lon="7.0959">
        <ele>780</ele>
        <time>2019-04-14T00:12:27Z</time>
      </trkpt>
      <trkpt lat="47.98584" lon="7.09609">
        <ele>781</ele>
        <time>2019-04-14T00:13:27Z</time>
      </trkpt>
      <trkpt lat="47.98569" lon="7.09627">
        <ele>787</ele>
        <time>2019-04-14T00:14:27Z</time>
      </trkpt>
      <trkpt lat="47.98559" lon="7.09638">
        <ele>791</ele>
        <time>2019-04-14T00:15:27Z</time>
      </trkpt>
      <trkpt lat="47.98539" lon="7.09667">
        <ele>796</ele>
        <time>2019-04-14T00:16:27Z</time>
      </trkpt>
      <trkpt lat="47.98522" lon="7.09694">
        <ele>801</ele>
        <time>2019-04-14T00:17:27Z</time>
      </trkpt>
      <trkpt lat="47.98512" lon="7.09712">
        <ele>803</ele>
        <time>2019-04-14T00:18:27Z</time>
      </trkpt>
      <trkpt lat="47.98506" lon="7.0973">
        <ele>803</ele>
        <time>2019-04-14T00:19:27Z</time>
      </trkpt>
      <trkpt lat="47.98499" lon="7.09758">
        <ele>804</ele>
        <time>2019-04-14T00:20:27Z</time>
      </trkpt>
      <trkpt lat="47.98491" lon="7.09791">
        <ele>811</ele>
        <time>2019-04-14T00:21:27Z</time>
      </trkpt>
      <trkpt lat="47.98484" lon="7.09814">
        <ele>816</ele>
        <time>2019-04-14T00:22:27Z</time>
      </trkpt>
      <trkpt lat="47.98477" lon="7.09831">
        <ele>819</ele>
        <time>2019-04-14T00:23:27Z</time>
      </trkpt>
      <trkpt lat="47.98471" lon="7.09849">
        <ele>822</ele>
        <time>2019-04-14T00:24:27Z</time>
      </trkpt>
      <trkpt lat="47.98464" lon="7.09867">
        <ele>826</ele>
        <time>2019-04-14T00:25:27Z</time>
      </trkpt>
      <trkpt lat="47.98448" lon="7.09915">
        <ele>830</ele>
        <time>2019-04-14T00:26:27Z</time>
      </trkpt>
      <trkpt lat="47.98442" lon="7.10009">
        <ele>839</ele>
        <time>2019-04-14T00:27:27Z</time>
      </trkpt>
      <trkpt lat="47.9844" lon="7.10023">
        <ele>839</ele>
        <time>2019-04-14T00:28:27Z</time>
      </trkpt>
      <trkpt lat="47.98432" lon="7.10027">
        <ele>837</ele>
        <time>2019-04-14T00:29:27Z</time>
      </trkpt>
      <trkpt lat="47.9842" lon="7.10019">
        <ele>834</ele>
        <time>2019-04-14T00:30:27Z</time>
      </trkpt>
      <trkpt lat="47.98404" lon="7.09994">
        <ele>835</ele>
        <time>2019-04-14T00:31:27Z</time>
      </trkpt>
      <trkpt lat="47.98389" lon="7.09945">
        <ele>839</ele>
        <time>2019-04-14T00:32:27Z</time>
      </trkpt>
      <trkpt lat="47.98385" lon="7.0994">
        <ele>841</ele>
        <time>2019-04-14T00:33:27Z</time>
      </trkpt>
      <trkpt lat="47.98381" lon="7.0994">
        <ele>842</ele>
        <time>2019-04-14T00:34:27Z</time>
      </trkpt>
      <trkpt lat="47.98377" lon="7.09942">
        <ele>844</ele>
        <time>2019-04-14T00:35:27Z</time>
      </trkpt>
      <trkpt lat="47.98376" lon="7.0995">
        <ele>844</ele>
        <time>2019-04-14T00:36:27Z</time>
      </trkpt>
      <trkpt lat="47.98375" lon="7.09963">
        <ele>844</ele>
        <time>2019-04-14T00:37:27Z</time>
      </trkpt>
      <trkpt lat="47.98377" lon="7.10004">
        <ele>844</ele>
        <time>2019-04-14T00:38:27Z</time>
      </trkpt>
      <trkpt lat="47.9839" lon="7.10057">
        <ele>845</ele>
        <time>2019-04-14T00:39:27Z</time>
      </trkpt>
      <trkpt lat="47.98405" lon="7.10124">
        <ele>844</ele>
        <time>2019-04-14T00:40:27Z</time>
      </trkpt>
      <trkpt lat="47.98409" lon="7.10148">
        <ele>844</ele>
        <time>2019-04-14T00:41:27Z</time>
      </trkpt>
      <trkpt lat="47.98413" lon="7.10161">
        <ele>843</ele>
        <time>2019-04-14T00:42:27Z</time>
      </trkpt>
      <trkpt lat="47.98417" lon="7.10172">
        <ele>843</ele>
        <time>2019-04-14T00:43:27Z</time>
      </trkpt>
      <trkpt lat="47.98422" lon="7.10185">
        <ele>846</ele>
        <time>2019-04-14T00:44:27Z</time>
      </trkpt>
      <trkpt lat="47.98426" lon="7.10198">
        <ele>848</ele>
        <time>2019-04-14T00:45:27Z</time>
      </trkpt>
      <trkpt lat="47.98427" lon="7.1023">
        <ele>854</ele>
        <time>2019-04-14T00:46:27Z</time>
      </trkpt>
      <trkpt lat="47.98443" lon="7.10326">
        <ele>864</ele>
        <time>2019-04-14T00:47:27Z</time>
      </trkpt>
      <trkpt lat="47.98447" lon="7.10403">
        <ele>873</ele>
        <time>2019-04-14T00:48:27Z</time>
      </trkpt>
      <trkpt lat="47.98442" lon="7.10461">
        <ele>881</ele>
        <time>2019-04-14T00:49:27Z</time>
      </trkpt>
      <trkpt lat="47.98429" lon="7.10502">
        <ele>888</ele>
        <time>2019-04-14T00:50:27Z</time>
      </trkpt>
      <trkpt lat="47.98415" lon="7.10533">
        <ele>893</ele>
        <time>2019-04-14T00:51:27Z</time>
      </trkpt>
      <trkpt lat="47.98402" lon="7.1061">
        <ele>905</ele>
        <time>2019-04-14T00:52:27Z</time>
      </trkpt>
      <trkpt lat="47.98393" lon="7.10638">
        <ele>914</ele>
        <time>2019-04-14T00:53:27Z</time>
      </trkpt>
      <trkpt lat="47.98388" lon="7.10638">
        <ele>916</ele>
        <time>2019-04-14T00:54:27Z</time>
      </trkpt>
      <trkpt lat="47.98384" lon="7.10629">
        <ele>915</ele>
        <time>2019-04-14T00:55:27Z</time>
      </trkpt>
      <trkpt lat="47.98383" lon="7.10604">
        <ele>911</ele>
        <time>2019-04-14T00:56:27Z</time>
      </trkpt>
      <trkpt lat="47.98383" lon="7.10566">
        <ele>906</ele>
        <time>2019-04-14T00:57:27Z</time>
      </trkpt>
      <trkpt lat="47.98384" lon="7.10534">
        <ele>904</ele>
        <time>2019-04-14T00:58:27Z</time>
      </trkpt>
      <trkpt lat="47.98382" lon="7.1049">
        <ele>903</ele>
        <time>2019-04-14T00:59:27Z</time>
      </trkpt>
      <trkpt lat="47.98376" lon="7.10454">
        <ele>901</ele>
        <time>2019-04-14T01:00:27Z</time>
      </trkpt>
      <trkpt lat="47.98367" lon="7.10434">
        <ele>903</ele>
        <time>2019-04-14T01:01:27Z</time>
      </trkpt>
      <trkpt lat="47.98344" lon="7.10415">
        <ele>909</ele>
        <time>2019-04-14T01:02:27Z</time>
      </trkpt>
      <trkpt lat="47.98285" lon="7.1038">
        <ele>924</ele>
        <time>2019-04-14T01:03:27Z</time>
      </trkpt>
      <trkpt lat="47.98258" lon="7.10355">
        <ele>930</ele>
        <time>2019-04-14T01:04:27Z</time>
      </trkpt>
      <trkpt lat="47.98243" lon="7.10335">
        <ele>933</ele>
        <time>2019-04-14T01:05:27Z</time>
      </trkpt>
      <trkpt lat="47.98227" lon="7.10279">
        <ele>937</ele>
        <time>2019-04-14T01:06:27Z</time>
      </trkpt>
      <trkpt lat="47.9821" lon="7.10216">
        <ele>940</ele>
        <time>2019-04-14T01:07:27Z</time>
      </trkpt>
      <trkpt lat="47.98196" lon="7.10177">
        <ele>942</ele>
        <time>2019-04-14T01:08:27Z</time>
      </trkpt>
      <trkpt lat="47.98196" lon="7.10177">
        <ele>942</ele>
        <time>2019-04-14T01:09:27Z</time>
      </trkpt>
      <trkpt lat="47.98181" lon="7.10144">
        <ele>943</ele>
        <time>2019-04-14T01:10:27Z</time>
      </trkpt>
      <trkpt lat="47.9815" lon="7.10089">
        <ele>950</ele>
        <time>2019-04-14T01:11:27Z</time>
      </trkpt>
      <trkpt lat="47.98116" lon="7.10046">
        <ele>962</ele>
        <time>2019-04-14T01:12:27Z</time>
      </trkpt>
      <trkpt lat="47.98091" lon="7.10025">
        <ele>972</ele>
        <time>2019-04-14T01:13:27Z</time>
      </trkpt>
      <trkpt lat="47.98075" lon="7.10003">
        <ele>976</ele>
        <time>2019-04-14T01:14:27Z</time>
      </trkpt>
      <trkpt lat="47.98057" lon="7.09948">
        <ele>983</ele>
        <time>2019-04-14T01:15:27Z</time>
      </trkpt>
      <trkpt lat="47.98057" lon="7.09948">
        <ele>983</ele>
        <time>2019-04-14T01:16:27Z</time>
      </trkpt>
      <trkpt lat="47.98059" lon="7.09928">
        <ele>981</ele>
        <time>2019-04-14T01:17:27Z</time>
      </trkpt>
      <trkpt lat="47.98062" lon="7.09906">
        <ele>979</ele>
        <time>2019-04-14T01:18:27Z</time>
      </trkpt>
      <trkpt lat="47.98067" lon="7.09877">
        <ele>976</ele>
        <time>2019-04-14T01:19:27Z</time>
      </trkpt>
      <trkpt lat="47.9807" lon="7.09859">
        <ele>975</ele>
        <time>2019-04-14T01:20:27Z</time>
      </trkpt>
      <trkpt lat="47.98071" lon="7.09849">
        <ele>974</ele>
        <time>2019-04-14T01:21:27Z</time>
      </trkpt>
      <trkpt lat="47.98071" lon="7.0984">
        <ele>974</ele>
        <time>2019-04-14T01:22:27Z</time>
      </trkpt>
      <trkpt lat="47.9807" lon="7.09832">
        <ele>974</ele>
        <time>2019-04-14T01:23:27Z</time>
      </trkpt>
      <trkpt lat="47.98068" lon="7.09822">
        <ele>973</ele>
        <time>2019-04-14T01:24:27Z</time>
      </trkpt>
      <trkpt lat="47.98066" lon="7.09818">
        <ele>972</ele>
        <time>2019-04-14T01:25:27Z</time>
      </trkpt>
      <trkpt lat="47.98064" lon="7.09813">
        <ele>972</ele>
        <time>2019-04-14T01:26:27Z</time>
      </trkpt>
      <trkpt lat="47.98059" lon="7.09807">
        <ele>972</ele>
        <time>2019-04-14T01:27:27Z</time>
      </trkpt>
      <trkpt lat="47.98051" lon="7.09802">
        <ele>972</ele>
        <time>2019-04-14T01:28:27Z</time>
      </trkpt>
      <trkpt lat="47.98042" lon="7.09797">
        <ele>972</ele>
        <time>2019-04-14T01:29:27Z</time>
      </trkpt>
      <trkpt lat="47.98033" lon="7.09795">
        <ele>972</ele>
        <time>2019-04-14T01:30:27Z</time>
      </trkpt>
      <trkpt lat="47.98016" lon="7.09794">
        <ele>974</ele>
        <time>2019-04-14T01:31:27Z</time>
      </trkpt>
      <trkpt lat="47.98002" lon="7.09794">
        <ele>975</ele>
        <time>2019-04-14T01:32:27Z</time>
      </trkpt>
      <trkpt lat="47.9799" lon="7.09793">
        <ele>975</ele>
        <time>2019-04-14T01:33:27Z</time>
      </trkpt>
      <trkpt lat="47.97968" lon="7.09792">
        <ele>975</ele>
        <time>2019-04-14T01:34:27Z</time>
      </trkpt>
      <trkpt lat="47.97939" lon="7.09792">
        <ele>975</ele>
        <time>2019-04-14T01:35:27Z</time>
      </trkpt>
      <trkpt lat="47.97908" lon="7.09793">
        <ele>976</ele>
        <time>2019-04-14T01:36:27Z</time>
      </trkpt>
      <trkpt lat="47.97878" lon="7.09788">
        <ele>977</ele>
        <time>2019-04-14T01:37:27Z</time>
      </trkpt>
      <trkpt lat="47.97851" lon="7.09774">
        <ele>976</ele>
        <time>2019-04-14T01:38:27Z</time>
      </trkpt>
      <trkpt lat="47.97842" lon="7.09772">
        <ele>976</ele>
        <time>2019-04-14T01:39:27Z</time>
      </trkpt>
      <trkpt lat="47.97838" lon="7.0977">
        <ele>976</ele>
        <time>2019-04-14T01:40:27Z</time>
      </trkpt>
      <trkpt lat="47.97838" lon="7.0977">
        <ele>976</ele>
        <time>2019-04-14T01:41:27Z</time>
      </trkpt>
      <trkpt lat="47.97838" lon="7.09775">
        <ele>977</ele>
        <time>2019-04-14T01:42:27Z</time>
      </trkpt>
      <trkpt lat="47.97835" lon="7.0978">
        <ele>979</ele>
        <time>2019-04-14T01:43:27Z</time>
      </trkpt>
      <trkpt lat="47.97829" lon="7.09784">
        <ele>980</ele>
        <time>2019-04-14T01:44:27Z</time>
      </trkpt>
      <trkpt lat="47.97816" lon="7.0978">
        <ele>981</ele>
        <time>2019-04-14T01:45:27Z</time>
      </trkpt>
      <trkpt lat="47.97798" lon="7.09772">
        <ele>980</ele>
        <time>2019-04-14T01:46:27Z</time>
      </trkpt>
      <trkpt lat="47.97775" lon="7.09765">
        <ele>981</ele>
        <time>2019-04-14T01:47:27Z</time>
      </trkpt>
      <trkpt lat="47.97753" lon="7.09765">
        <ele>983</ele>
        <time>2019-04-14T01:48:27Z</time>
      </trkpt>
      <trkpt lat="47.97718" lon="7.09764">
        <ele>988</ele>
        <time>2019-04-14T01:49:27Z</time>
      </trkpt>
      <trkpt lat="47.97669" lon="7.09756">
        <ele>993</ele>
        <time>2019-04-14T01:50:27Z</time>
      </trkpt>
      <trkpt lat="47.9763" lon="7.09748">
        <ele>996</ele>
        <time>2019-04-14T01:51:27Z</time>
      </trkpt>
      <trkpt lat="47.97595" lon="7.09737">
        <ele>999</ele>
        <time>2019-04-14T01:52:27Z</time>
      </trkpt>
      <trkpt lat="47.97574" lon="7.09725">
        <ele>1000</ele>
        <time>2019-04-14T01:53:27Z</time>
      </trkpt>
      <trkpt lat="47.97562" lon="7.09715">
        <ele>1001</ele>
        <time>2019-04-14T01:54:27Z</time>
      </trkpt>
      <trkpt lat="47.97555" lon="7.0971">
        <ele>1001</ele>
        <time>2019-04-14T01:55:27Z</time>
      </trkpt>
      <trkpt lat="47.9755" lon="7.09712">
        <ele>1002</ele>
        <time>2019-04-14T01:56:27Z</time>
      </trkpt>
      <trkpt lat="47.97547" lon="7.09717">
        <ele>1003</ele>
        <time>2019-04-14T01:57:27Z</time>
      </trkpt>
      <trkpt lat="47.97547" lon="7.09717">
        <ele>1003</ele>
        <time>2019-04-14T01:58:27Z</time>
      </trkpt>
      <trkpt lat="47.97548" lon="7.09726">
        <ele>1004</ele>
        <time>2019-04-14T01:59:27Z</time>
      </trkpt>
      <trkpt lat="47.97552" lon="7.09733">
        <ele>1005</ele>
        <time>2019-04-14T02:00:27Z</time>
      </trkpt>
      <trkpt lat="47.97582" lon="7.09762">
        <ele>1005</ele>
        <time>2019-04-14T02:01:27Z</time>
      </trkpt>
      <trkpt lat="47.97632" lon="7.09819">
        <ele>1008</ele>
        <time>2019-04-14T02:02:27Z</time>
      </trkpt>
      <trkpt lat="47.97664" lon="7.09849">
        <ele>1011</ele>
        <time>2019-04-14T02:03:27Z</time>
      </trkpt>
      <trkpt lat="47.97701" lon="7.09879">
        <ele>1015</ele>
        <time>2019-04-14T02:04:27Z</time>
      </trkpt>
      <trkpt lat="47.97739" lon="7.09905">
        <ele>1019</ele>
        <time>2019-04-14T02:05:27Z</time>
      </trkpt>
      <trkpt lat="47.97775" lon="7.09923">
        <ele>1021</ele>
        <time>2019-04-14T02:06:27Z</time>
      </trkpt>
      <trkpt lat="47.97819" lon="7.09945">
        <ele>1026</ele>
        <time>2019-04-14T02:07:27Z</time>
      </trkpt>
      <trkpt lat="47.97838" lon="7.09952">
        <ele>1027</ele>
        <time>2019-04-14T02:08:27Z</time>
      </trkpt>
      <trkpt lat="47.97855" lon="7.09956">
        <ele>1027</ele>
        <time>2019-04-14T02:09:27Z</time>
      </trkpt>
      <trkpt lat="47.97872" lon="7.0996">
        <ele>1026</ele>
        <time>2019-04-14T02:10:27Z</time>
      </trkpt>
      <trkpt lat="47.97884" lon="7.09963">
        <ele>1026</ele>
        <time>2019-04-14T02:11:27Z</time>
      </trkpt>
      <trkpt lat="47.97899" lon="7.09968">
        <ele>1026</ele>
        <time>2019-04-14T02:12:27Z</time>
      </trkpt>
      <trkpt lat="47.97911" lon="7.09975">
        <ele>1027</ele>
        <time>2019-04-14T02:13:27Z</time>
      </trkpt>
      <trkpt lat="47.97926" lon="7.09987">
        <ele>1028</ele>
        <time>2019-04-14T02:14:27Z</time>
      </trkpt>
      <trkpt lat="47.97937" lon="7.09997">
        <ele>1028</ele>
        <time>2019-04-14T02:15:27Z</time>
      </trkpt>
      <trkpt lat="47.97939" lon="7.1">
        <ele>1029</ele>
        <time>2019-04-14T02:16:27Z</time>
      </trkpt>
      <trkpt lat="47.97944" lon="7.10008">
        <ele>1029</ele>
        <time>2019-04-14T02:17:27Z</time>
      </trkpt>
      <trkpt lat="47.97954" lon="7.1003">
        <ele>1032</ele>
        <time>2019-04-14T02:18:27Z</time>
      </trkpt>
      <trkpt lat="47.97962" lon="7.10054">
        <ele>1035</ele>
        <time>2019-04-14T02:19:27Z</time>
      </trkpt>
      <trkpt lat="47.97967" lon="7.10067">
        <ele>1036</ele>
        <time>2019-04-14T02:20:27Z</time>
      </trkpt>
      <trkpt lat="47.97975" lon="7.10104">
        <ele>1039</ele>
        <time>2019-04-14T02:21:27Z</time>
      </trkpt>
      <trkpt lat="47.97983" lon="7.10149">
        <ele>1042</ele>
        <time>2019-04-14T02:22:27Z</time>
      </trkpt>
      <trkpt lat="47.97985" lon="7.1016">
        <ele>1043</ele>
        <time>2019-04-14T02:23:27Z</time>
      </trkpt>
      <trkpt lat="47.97988" lon="7.10174">
        <ele>1043</ele>
        <time>2019-04-14T02:24:27Z</time>
      </trkpt>
      <trkpt lat="47.97992" lon="7.10204">
        <ele>1043</ele>
        <time>2019-04-14T02:25:27Z</time>
      </trkpt>
      <trkpt lat="47.97993" lon="7.10224">
        <ele>1044</ele>
        <time>2019-04-14T02:26:27Z</time>
      </trkpt>
      <trkpt lat="47.97993" lon="7.10242">
        <ele>1046</ele>
        <time>2019-04-14T02:27:27Z</time>
      </trkpt>
      <trkpt lat="47.97991" lon="7.10263">
        <ele>1048</ele>
        <time>2019-04-14T02:28:27Z</time>
      </trkpt>
      <trkpt lat="47.97989" lon="7.10286">
        <ele>1051</ele>
        <time>2019-04-14T02:29:27Z</time>
      </trkpt>
      <trkpt lat="47.97987" lon="7.10308">
        <ele>1053</ele>
        <time>2019-04-14T02:30:27Z</time>
      </trkpt>
      <trkpt lat="47.97985" lon="7.10324">
        <ele>1055</ele>
        <time>2019-04-14T02:31:27Z</time>
      </trkpt>
      <trkpt lat="47.97985" lon="7.10337">
        <ele>1056</ele>
        <time>2019-04-14T02:32:27Z</time>
      </trkpt>
      <trkpt lat="47.97985" lon="7.10352">
        <ele>1058</ele>
        <time>2019-04-14T02:33:27Z</time>
      </trkpt>
      <trkpt lat="47.97986" lon="7.10372">
        <ele>1060</ele>
        <time>2019-04-14T02:34:27Z</time>
      </trkpt>
      <trkpt lat="47.97995" lon="7.10422">
        <ele>1063</ele>
        <time>2019-04-14T02:35:27Z</time>
      </trkpt>
      <trkpt lat="47.98004" lon="7.10482">
        <ele>1067</ele>
        <time>2019-04-14T02:36:27Z</time>
      </trkpt>
      <trkpt lat="47.9801" lon="7.10516">
        <ele>1069</ele>
        <time>2019-04-14T02:37:27Z</time>
      </trkpt>
      <trkpt lat="47.98014" lon="7.10539">
        <ele>1069</ele>
        <time>2019-04-14T02:38:27Z</time>
      </trkpt>
      <trkpt lat="47.98018" lon="7.10566">
        <ele>1070</ele>
        <time>2019-04-14T02:39:27Z</time>
      </trkpt>
      <trkpt lat="47.98022" lon="7.10584">
        <ele>1071</ele>
        <time>2019-04-14T02:40:27Z</time>
      </trkpt>
      <trkpt lat="47.98025" lon="7.10605">
        <ele>1072</ele>
        <time>2019-04-14T02:41:27Z</time>
      </trkpt>
      <trkpt lat="47.98027" lon="7.10617">
        <ele>1072</ele>
        <time>2019-04-14T02:42:27Z</time>
      </trkpt>
      <trkpt lat="47.98028" lon="7.10642">
        <ele>1074</ele>
        <time>2019-04-14T02:43:27Z</time>
      </trkpt>
      <trkpt lat="47.98029" lon="7.10667">
        <ele>1076</ele>
        <time>2019-04-14T02:44:27Z</time>
      </trkpt>
      <trkpt lat="47.9803" lon="7.10714">
        <ele>1080</ele>
        <time>2019-04-14T02:45:27Z</time>
      </trkpt>
      <trkpt lat="47.98031" lon="7.1075">
        <ele>1084</ele>
        <time>2019-04-14T02:46:27Z</time>
      </trkpt>
      <trkpt lat="47.98032" lon="7.10792">
        <ele>1086</ele>
        <time>2019-04-14T02:47:27Z</time>
      </trkpt>
      <trkpt lat="47.98034" lon="7.10814">
        <ele>1086</ele>
        <time>2019-04-14T02:48:27Z</time>
      </trkpt>
      <trkpt lat="47.98036" lon="7.10835">
        <ele>1087</ele>
        <time>2019-04-14T02:49:27Z</time>
      </trkpt>
      <trkpt lat="47.98037" lon="7.10857">
        <ele>1087</ele>
        <time>2019-04-14T02:50:27Z</time>
      </trkpt>
      <trkpt lat="47.98037" lon="7.10883">
        <ele>1088</ele>
        <time>2019-04-14T02:51:27Z</time>
      </trkpt>
      <trkpt lat="47.98036" lon="7.10924">
        <ele>1089</ele>
        <time>2019-04-14T02:52:27Z</time>
      </trkpt>
      <trkpt lat="47.98035" lon="7.10936">
        <ele>1089</ele>
        <time>2019-04-14T02:53:27Z</time>
      </trkpt>
      <trkpt lat="47.98035" lon="7.10948">
        <ele>1089</ele>
        <time>2019-04-14T02:54:27Z</time>
      </trkpt>
      <trkpt lat="47.98034" lon="7.10959">
        <ele>1089</ele>
        <time>2019-04-14T02:55:27Z</time>
      </trkpt>
      <trkpt lat="47.9803" lon="7.10985">
        <ele>1091</ele>
        <time>2019-04-14T02:56:27Z</time>
      </trkpt>
      <trkpt lat="47.98026" lon="7.11021">
        <ele>1093</ele>
        <time>2019-04-14T02:57:27Z</time>
      </trkpt>
      <trkpt lat="47.98022" lon="7.11059">
        <ele>1096</ele>
        <time>2019-04-14T02:58:27Z</time>
      </trkpt>
      <trkpt lat="47.9802" lon="7.11088">
        <ele>1098</ele>
        <time>2019-04-14T02:59:27Z</time>
      </trkpt>
      <trkpt lat="47.98018" lon="7.11115">
        <ele>1100</ele>
        <time>2019-04-14T03:00:27Z</time>
      </trkpt>
      <trkpt lat="47.98017" lon="7.11133">
        <ele>1102</ele>
        <time>2019-04-14T03:01:27Z</time>
      </trkpt>
      <trkpt lat="47.98017" lon="7.11147">
        <ele>1102</ele>
        <time>2019-04-14T03:02:27Z</time>
      </trkpt>
      <trkpt lat="47.98017" lon="7.11173">
        <ele>1104</ele>
        <time>2019-04-14T03:03:27Z</time>
      </trkpt>
      <trkpt lat="47.98019" lon="7.11199">
        <ele>1106</ele>
        <time>2019-04-14T03:04:27Z</time>
      </trkpt>
      <trkpt lat="47.98022" lon="7.11233">
        <ele>1109</ele>
        <time>2019-04-14T03:05:27Z</time>
      </trkpt>
      <trkpt lat="47.98025" lon="7.11262">
        <ele>1110</ele>
        <time>2019-04-14T03:06:27Z</time>
      </trkpt>
      <trkpt lat="47.98028" lon="7.11288">
        <ele>1111</ele>
        <time>2019-04-14T03:07:27Z</time>
      </trkpt>
      <trkpt lat="47.98031" lon="7.11313">
        <ele>1111</ele>
        <time>2019-04-14T03:08:27Z</time>
      </trkpt>
      <trkpt lat="47.98035" lon="7.1135">
        <ele>1112</ele>
        <time>2019-04-14T03:09:27Z</time>
      </trkpt>
      <trkpt lat="47.98037" lon="7.11378">
        <ele>1114</ele>
        <time>2019-04-14T03:10:27Z</time>
      </trkpt>
      <trkpt lat="47.98039" lon="7.11406">
        <ele>1115</ele>
        <time>2019-04-14T03:11:27Z</time>
      </trkpt>
      <trkpt lat="47.98039" lon="7.11432">
        <ele>1117</ele>
        <time>2019-04-14T03:12:27Z</time>
      </trkpt>
      <trkpt lat="47.9804" lon="7.11457">
        <ele>1119</ele>
        <time>2019-04-14T03:13:27Z</time>
      </trkpt>
      <trkpt lat="47.98039" lon="7.11482">
        <ele>1121</ele>
        <time>2019-04-14T03:14:27Z</time>
      </trkpt>
      <trkpt lat="47.98038" lon="7.11505">
        <ele>1123</ele>
        <time>2019-04-14T03:15:27Z</time>
      </trkpt>
      <trkpt lat="47.98036" lon="7.11539">
        <ele>1124</ele>
        <time>2019-04-14T03:16:27Z</time>
      </trkpt>
      <trkpt lat="47.98033" lon="7.11575">
        <ele>1125</ele>
        <time>2019-04-14T03:17:27Z</time>
      </trkpt>
      <trkpt lat="47.98032" lon="7.11601">
        <ele>1126</ele>
        <time>2019-04-14T03:18:27Z</time>
      </trkpt>
      <trkpt lat="47.98032" lon="7.11625">
        <ele>1127</ele>
        <time>2019-04-14T03:19:27Z</time>
      </trkpt>
      <trkpt lat="47.98033" lon="7.11656">
        <ele>1128</ele>
        <time>2019-04-14T03:20:27Z</time>
      </trkpt>
      <trkpt lat="47.98033" lon="7.11688">
        <ele>1129</ele>
        <time>2019-04-14T03:21:27Z</time>
      </trkpt>
      <trkpt lat="47.98032" lon="7.11712">
        <ele>1130</ele>
        <time>2019-04-14T03:22:27Z</time>
      </trkpt>
      <trkpt lat="47.9803" lon="7.11724">
        <ele>1131</ele>
        <time>2019-04-14T03:23:27Z</time>
      </trkpt>
      <trkpt lat="47.98029" lon="7.11735">
        <ele>1131</ele>
        <time>2019-04-14T03:24:27Z</time>
      </trkpt>
      <trkpt lat="47.98027" lon="7.11745">
        <ele>1133</ele>
        <time>2019-04-14T03:25:27Z</time>
      </trkpt>
      <trkpt lat="47.98023" lon="7.11755">
        <ele>1135</ele>
        <time>2019-04-14T03:26:27Z</time>
      </trkpt>
      <trkpt lat="47.98016" lon="7.11772">
        <ele>1139</ele>
        <time>2019-04-14T03:27:27Z</time>
      </trkpt>
      <trkpt lat="47.98012" lon="7.1178">
        <ele>1142</ele>
        <time>2019-04-14T03:28:27Z</time>
      </trkpt>
      <trkpt lat="47.98011" lon="7.11787">
        <ele>1143</ele>
        <time>2019-04-14T03:29:27Z</time>
      </trkpt>
      <trkpt lat="47.9801" lon="7.11793">
        <ele>1144</ele>
        <time>2019-04-14T03:30:27Z</time>
      </trkpt>
      <trkpt lat="47.9801" lon="7.11799">
        <ele>1145</ele>
        <time>2019-04-14T03:31:27Z</time>
      </trkpt>
      <trkpt lat="47.98012" lon="7.11805">
        <ele>1145</ele>
        <time>2019-04-14T03:32:27Z</time>
      </trkpt>
      <trkpt lat="47.98015" lon="7.11812">
        <ele>1144</ele>
        <time>2019-04-14T03:33:27Z</time>
      </trkpt>
      <trkpt lat="47.98021" lon="7.11818">
        <ele>1143</ele>
        <time>2019-04-14T03:34:27Z</time>
      </trkpt>
      <trkpt lat="47.98027" lon="7.11825">
        <ele>1142</ele>
        <time>2019-04-14T03:35:27Z</time>
      </trkpt>
      <trkpt lat="47.98036" lon="7.11831">
        <ele>1139</ele>
        <time>2019-04-14T03:36:27Z</time>
      </trkpt>
      <trkpt lat="47.98045" lon="7.11843">
        <ele>1139</ele>
        <time>2019-04-14T03:37:27Z</time>
      </trkpt>
      <trkpt lat="47.98056" lon="7.11858">
        <ele>1138</ele>
        <time>2019-04-14T03:38:27Z</time>
      </trkpt>
      <trkpt lat="47.98058" lon="7.11863">
        <ele>1139</ele>
        <time>2019-04-14T03:39:27Z</time>
      </trkpt>
      <trkpt lat="47.98066" lon="7.1188">
        <ele>1140</ele>
        <time>2019-04-14T03:40:27Z</time>
      </trkpt>
      <trkpt lat="47.98077" lon="7.11903">
        <ele>1142</ele>
        <time>2019-04-14T03:41:27Z</time>
      </trkpt>
      <trkpt lat="47.98084" lon="7.11924">
        <ele>1144</ele>
        <time>2019-04-14T03:42:27Z</time>
      </trkpt>
      <trkpt lat="47.98092" lon="7.11941">
        <ele>1145</ele>
        <time>2019-04-14T03:43:27Z</time>
      </trkpt>
      <trkpt lat="47.98096" lon="7.1195">
        <ele>1146</ele>
        <time>2019-04-14T03:44:27Z</time>
      </trkpt>
      <trkpt lat="47.98102" lon="7.11959">
        <ele>1146</ele>
        <time>2019-04-14T03:45:27Z</time>
      </trkpt>
      <trkpt lat="47.9811" lon="7.11968">
        <ele>1146</ele>
        <time>2019-04-14T03:46:27Z</time>
      </trkpt>
      <trkpt lat="47.98117" lon="7.11976">
        <ele>1147</ele>
        <time>2019-04-14T03:47:27Z</time>
      </trkpt>
      <trkpt lat="47.98125" lon="7.11981">
        <ele>1146</ele>
        <time>2019-04-14T03:48:27Z</time>
      </trkpt>
      <trkpt lat="47.98136" lon="7.11987">
        <ele>1146</ele>
        <time>2019-04-14T03:49:27Z</time>
      </trkpt>
      <trkpt lat="47.98138" lon="7.11988">
        <ele>1146</ele>
        <time>2019-04-14T03:50:27Z</time>
      </trkpt>
      <trkpt lat="47.98148" lon="7.11992">
        <ele>1145</ele>
        <time>2019-04-14T03:51:27Z</time>
      </trkpt>
      <trkpt lat="47.98156" lon="7.11993">
        <ele>1145</ele>
        <time>2019-04-14T03:52:27Z</time>
      </trkpt>
      <trkpt lat="47.98166" lon="7.11994">
        <ele>1143</ele>
        <time>2019-04-14T03:53:27Z</time>
      </trkpt>
      <trkpt lat="47.9818" lon="7.11994">
        <ele>1143</ele>
        <time>2019-04-14T03:54:27Z</time>
      </trkpt>
      <trkpt lat="47.982" lon="7.11998">
        <ele>1144</ele>
        <time>2019-04-14T03:55:27Z</time>
      </trkpt>
      <trkpt lat="47.9822" lon="7.12004">
        <ele>1146</ele>
        <time>2019-04-14T03:56:27Z</time>
      </trkpt>
      <trkpt lat="47.98234" lon="7.12009">
        <ele>1147</ele>
        <time>2019-04-14T03:57:27Z</time>
      </trkpt>
      <trkpt lat="47.98243" lon="7.12014">
        <ele>1148</ele>
        <time>2019-04-14T03:58:27Z</time>
      </trkpt>
      <trkpt lat="47.98248" lon="7.12016">
        <ele>1149</ele>
        <time>2019-04-14T03:59:27Z</time>
      </trkpt>
      <trkpt lat="47.98263" lon="7.12025">
        <ele>1151</ele>
        <time>2019-04-14T04:00:27Z</time>
      </trkpt>
      <trkpt lat="47.98276" lon="7.12031">
        <ele>1153</ele>
        <time>2019-04-14T04:01:27Z</time>
      </trkpt>
      <trkpt lat="47.98293" lon="7.12038">
        <ele>1155</ele>
        <time>2019-04-14T04:02:27Z</time>
      </trkpt>
      <trkpt lat="47.9831" lon="7.12043">
        <ele>1156</ele>
        <time>2019-04-14T04:03:27Z</time>
      </trkpt>
      <trkpt lat="47.98321" lon="7.12045">
        <ele>1157</ele>
        <time>2019-04-14T04:04:27Z</time>
      </trkpt>
      <trkpt lat="47.98331" lon="7.12046">
        <ele>1157</ele>
        <time>2019-04-14T04:05:27Z</time>
      </trkpt>
      <trkpt lat="47.98342" lon="7.12045">
        <ele>1157</ele>
        <time>2019-04-14T04:06:27Z</time>
      </trkpt>
      <trkpt lat="47.98361" lon="7.1204">
        <ele>1156</ele>
        <time>2019-04-14T04:07:27Z</time>
      </trkpt>
      <trkpt lat="47.98384" lon="7.12034">
        <ele>1155</ele>
        <time>2019-04-14T04:08:27Z</time>
      </trkpt>
      <trkpt lat="47.98402" lon="7.1203">
        <ele>1154</ele>
        <time>2019-04-14T04:09:27Z</time>
      </trkpt>
      <trkpt lat="47.98413" lon="7.12028">
        <ele>1154</ele>
        <time>2019-04-14T04:10:27Z</time>
      </trkpt>
      <trkpt lat="47.98425" lon="7.12027">
        <ele>1154</ele>
        <time>2019-04-14T04:11:27Z</time>
      </trkpt>
      <trkpt lat="47.98439" lon="7.12026">
        <ele>1155</ele>
        <time>2019-04-14T04:12:27Z</time>
      </trkpt>
      <trkpt lat="47.98449" lon="7.12028">
        <ele>1156</ele>
        <time>2019-04-14T04:13:27Z</time>
      </trkpt>
      <trkpt lat="47.98463" lon="7.1203">
        <ele>1157</ele>
        <time>2019-04-14T04:14:27Z</time>
      </trkpt>
      <trkpt lat="47.98476" lon="7.12034">
        <ele>1158</ele>
        <time>2019-04-14T04:15:27Z</time>
      </trkpt>
      <trkpt lat="47.98484" lon="7.12037">
        <ele>1159</ele>
        <time>2019-04-14T04:16:27Z</time>
      </trkpt>
      <trkpt lat="47.9849" lon="7.1204">
        <ele>1159</ele>
        <time>2019-04-14T04:17:27Z</time>
      </trkpt>
      <trkpt lat="47.98494" lon="7.12044">
        <ele>1159</ele>
        <time>2019-04-14T04:18:27Z</time>
      </trkpt>
      <trkpt lat="47.98498" lon="7.1205">
        <ele>1160</ele>
        <time>2019-04-14T04:19:27Z</time>
      </trkpt>
      <trkpt lat="47.985" lon="7.12054">
        <ele>1160</ele>
        <time>2019-04-14T04:20:27Z</time>
      </trkpt>
      <trkpt lat="47.98503" lon="7.12061">
        <ele>1160</ele>
        <time>2019-04-14T04:21:27Z</time>
      </trkpt>
      <trkpt lat="47.98505" lon="7.12072">
        <ele>1161</ele>
        <time>2019-04-14T04:22:27Z</time>
      </trkpt>
      <trkpt lat="47.98506" lon="7.12085">
        <ele>1161</ele>
        <time>2019-04-14T04:23:27Z</time>
      </trkpt>
      <trkpt lat="47.98507" lon="7.12104">
        <ele>1162</ele>
        <time>2019-04-14T04:24:27Z</time>
      </trkpt>
      <trkpt lat="47.98507" lon="7.12104">
        <ele>1162</ele>
        <time>2019-04-14T04:25:27Z</time>
      </trkpt>
      <trkpt lat="47.9852" lon="7.12101">
        <ele>1160</ele>
        <time>2019-04-14T04:26:27Z</time>
      </trkpt>
      <trkpt lat="47.98558" lon="7.12093">
        <ele>1156</ele>
        <time>2019-04-14T04:27:27Z</time>
      </trkpt>
      <trkpt lat="47.98591" lon="7.12088">
        <ele>1153</ele>
        <time>2019-04-14T04:28:27Z</time>
      </trkpt>
      <trkpt lat="47.98618" lon="7.12085">
        <ele>1150</ele>
        <time>2019-04-14T04:29:27Z</time>
      </trkpt>
      <trkpt lat="47.98644" lon="7.1208">
        <ele>1148</ele>
        <time>2019-04-14T04:30:27Z</time>
      </trkpt>
      <trkpt lat="47.98672" lon="7.12075">
        <ele>1145</ele>
        <time>2019-04-14T04:31:27Z</time>
      </trkpt>
      <trkpt lat="47.98704" lon="7.12068">
        <ele>1143</ele>
        <time>2019-04-14T04:32:27Z</time>
      </trkpt>
      <trkpt lat="47.98733" lon="7.12063">
        <ele>1140</ele>
        <time>2019-04-14T04:33:27Z</time>
      </trkpt>
      <trkpt lat="47.98751" lon="7.12058">
        <ele>1139</ele>
        <time>2019-04-14T04:34:27Z</time>
      </trkpt>
      <trkpt lat="47.98771" lon="7.12052">
        <ele>1138</ele>
        <time>2019-04-14T04:35:27Z</time>
      </trkpt>
      <trkpt lat="47.98791" lon="7.12046">
        <ele>1138</ele>
        <time>2019-04-14T04:36:27Z</time>
      </trkpt>
      <trkpt lat="47.9881" lon="7.12042">
        <ele>1137</ele>
        <time>2019-04-14T04:37:27Z</time>
      </trkpt>
      <trkpt lat="47.98821" lon="7.12042">
        <ele>1136</ele>
        <time>2019-04-14T04:38:27Z</time>
      </trkpt>
      <trkpt lat="47.98834" lon="7.12044">
        <ele>1135</ele>
        <time>2019-04-14T04:39:27Z</time>
      </trkpt>
      <trkpt lat="47.98848" lon="7.12049">
        <ele>1134</ele>
        <time>2019-04-14T04:40:27Z</time>
      </trkpt>
      <trkpt lat="47.98861" lon="7.12054">
        <ele>1133</ele>
        <time>2019-04-14T04:41:27Z</time>
      </trkpt>
      <trkpt lat="47.98879" lon="7.12061">
        <ele>1132</ele>
        <time>2019-04-14T04:42:27Z</time>
      </trkpt>
      <trkpt lat="47.98894" lon="7.12068">
        <ele>1131</ele>
        <time>2019-04-14T04:43:27Z</time>
      </trkpt>
      <trkpt lat="47.98905" lon="7.12074">
        <ele>1130</ele>
        <time>2019-04-14T04:44:27Z</time>
      </trkpt>
      <trkpt lat="47.98916" lon="7.12081">
        <ele>1128</ele>
        <time>2019-04-14T04:45:27Z</time>
      </trkpt>
      <trkpt lat="47.9893" lon="7.12092">
        <ele>1126</ele>
        <time>2019-04-14T04:46:27Z</time>
      </trkpt>
      <trkpt lat="47.9894" lon="7.121">
        <ele>1124</ele>
        <time>2019-04-14T04:47:27Z</time>
      </trkpt>
      <trkpt lat="47.98948" lon="7.12105">
        <ele>1123</ele>
        <time>2019-04-14T04:48:27Z</time>
      </trkpt>
      <trkpt lat="47.98956" lon="7.12108">
        <ele>1122</ele>
        <time>2019-04-14T04:49:27Z</time>
      </trkpt>
      <trkpt lat="47.98966" lon="7.1211">
        <ele>1122</ele>
        <time>2019-04-14T04:50:27Z</time>
      </trkpt>
      <trkpt lat="47.98982" lon="7.12113">
        <ele>1121</ele>
        <time>2019-04-14T04:51:27Z</time>
      </trkpt>
      <trkpt lat="47.98997" lon="7.12115">
        <ele>1120</ele>
        <time>2019-04-14T04:52:27Z</time>
      </trkpt>
      <trkpt lat="47.99007" lon="7.12117">
        <ele>1119</ele>
        <time>2019-04-14T04:53:27Z</time>
      </trkpt>
      <trkpt lat="47.99016" lon="7.1212">
        <ele>1118</ele>
        <time>2019-04-14T04:54:27Z</time>
      </trkpt>
      <trkpt lat="47.99023" lon="7.12123">
        <ele>1117</ele>
        <time>2019-04-14T04:55:27Z</time>
      </trkpt>
      <trkpt lat="47.99034" lon="7.12129">
        <ele>1115</ele>
        <time>2019-04-14T04:56:27Z</time>
      </trkpt>
      <trkpt lat="47.99054" lon="7.12142">
        <ele>1113</ele>
        <time>2019-04-14T04:57:27Z</time>
      </trkpt>
      <trkpt lat="47.99067" lon="7.12152">
        <ele>1113</ele>
        <time>2019-04-14T04:58:27Z</time>
      </trkpt>
      <trkpt lat="47.9907" lon="7.12154">
        <ele>1113</ele>
        <time>2019-04-14T04:59:27Z</time>
      </trkpt>
      <trkpt lat="47.99085" lon="7.12166">
        <ele>1113</ele>
        <time>2019-04-14T05:00:27Z</time>
      </trkpt>
      <trkpt lat="47.99098" lon="7.12175">
        <ele>1111</ele>
        <time>2019-04-14T05:01:27Z</time>
      </trkpt>
      <trkpt lat="47.99113" lon="7.12183">
        <ele>1109</ele>
        <time>2019-04-14T05:02:27Z</time>
      </trkpt>
      <trkpt lat="47.99128" lon="7.12192">
        <ele>1107</ele>
        <time>2019-04-14T05:03:27Z</time>
      </trkpt>
      <trkpt lat="47.99138" lon="7.12196">
        <ele>1106</ele>
        <time>2019-04-14T05:04:27Z</time>
      </trkpt>
      <trkpt lat="47.99151" lon="7.12202">
        <ele>1105</ele>
        <time>2019-04-14T05:05:27Z</time>
      </trkpt>
      <trkpt lat="47.99169" lon="7.12209">
        <ele>1104</ele>
        <time>2019-04-14T05:06:27Z</time>
      </trkpt>
      <trkpt lat="47.99183" lon="7.12216">
        <ele>1102</ele>
        <time>2019-04-14T05:07:27Z</time>
      </trkpt>
      <trkpt lat="47.99189" lon="7.12221">
        <ele>1102</ele>
        <time>2019-04-14T05:08:27Z</time>
      </trkpt>
      <trkpt lat="47.99195" lon="7.12226">
        <ele>1101</ele>
        <time>2019-04-14T05:09:27Z</time>
      </trkpt>
      <trkpt lat="47.992" lon="7.12231">
        <ele>1101</ele>
        <time>2019-04-14T05:10:27Z</time>
      </trkpt>
      <trkpt lat="47.99201" lon="7.12234">
        <ele>1101</ele>
        <time>2019-04-14T05:11:27Z</time>
      </trkpt>
      <trkpt lat="47.99204" lon="7.12238">
        <ele>1101</ele>
        <time>2019-04-14T05:12:27Z</time>
      </trkpt>
      <trkpt lat="47.99205" lon="7.12245">
        <ele>1101</ele>
        <time>2019-04-14T05:13:27Z</time>
      </trkpt>
      <trkpt lat="47.99205" lon="7.12251">
        <ele>1102</ele>
        <time>2019-04-14T05:14:27Z</time>
      </trkpt>
      <trkpt lat="47.99204" lon="7.12258">
        <ele>1101</ele>
        <time>2019-04-14T05:15:27Z</time>
      </trkpt>
      <trkpt lat="47.99202" lon="7.12263">
        <ele>1100</ele>
        <time>2019-04-14T05:16:27Z</time>
      </trkpt>
      <trkpt lat="47.99198" lon="7.12267">
        <ele>1100</ele>
        <time>2019-04-14T05:17:27Z</time>
      </trkpt>
      <trkpt lat="47.99176" lon="7.12287">
        <ele>1099</ele>
        <time>2019-04-14T05:18:27Z</time>
      </trkpt>
      <trkpt lat="47.99149" lon="7.1231">
        <ele>1095</ele>
        <time>2019-04-14T05:19:27Z</time>
      </trkpt>
      <trkpt lat="47.9913" lon="7.12326">
        <ele>1092</ele>
        <time>2019-04-14T05:20:27Z</time>
      </trkpt>
      <trkpt lat="47.9912" lon="7.12332">
        <ele>1091</ele>
        <time>2019-04-14T05:21:27Z</time>
      </trkpt>
      <trkpt lat="47.9911" lon="7.12335">
        <ele>1091</ele>
        <time>2019-04-14T05:22:27Z</time>
      </trkpt>
      <trkpt lat="47.99104" lon="7.12336">
        <ele>1090</ele>
        <time>2019-04-14T05:23:27Z</time>
      </trkpt>
      <trkpt lat="47.99093" lon="7.12336">
        <ele>1090</ele>
        <time>2019-04-14T05:24:27Z</time>
      </trkpt>
      <trkpt lat="47.99073" lon="7.12334">
        <ele>1090</ele>
        <time>2019-04-14T05:25:27Z</time>
      </trkpt>
      <trkpt lat="47.99039" lon="7.12328">
        <ele>1087</ele>
        <time>2019-04-14T05:26:27Z</time>
      </trkpt>
      <trkpt lat="47.99025" lon="7.12326">
        <ele>1086</ele>
        <time>2019-04-14T05:27:27Z</time>
      </trkpt>
      <trkpt lat="47.99015" lon="7.12327">
        <ele>1084</ele>
        <time>2019-04-14T05:28:27Z</time>
      </trkpt>
      <trkpt lat="47.99007" lon="7.12328">
        <ele>1083</ele>
        <time>2019-04-14T05:29:27Z</time>
      </trkpt>
      <trkpt lat="47.99003" lon="7.1233">
        <ele>1082</ele>
        <time>2019-04-14T05:30:27Z</time>
      </trkpt>
      <trkpt lat="47.98996" lon="7.12333">
        <ele>1081</ele>
        <time>2019-04-14T05:31:27Z</time>
      </trkpt>
      <trkpt lat="47.98986" lon="7.12339">
        <ele>1080</ele>
        <time>2019-04-14T05:32:27Z</time>
      </trkpt>
      <trkpt lat="47.98976" lon="7.12347">
        <ele>1079</ele>
        <time>2019-04-14T05:33:27Z</time>
      </trkpt>
      <trkpt lat="47.98965" lon="7.12358">
        <ele>1077</ele>
        <time>2019-04-14T05:34:27Z</time>
      </trkpt>
      <trkpt lat="47.98955" lon="7.12371">
        <ele>1075</ele>
        <time>2019-04-14T05:35:27Z</time>
      </trkpt>
      <trkpt lat="47.98951" lon="7.12376">
        <ele>1075</ele>
        <time>2019-04-14T05:36:27Z</time>
      </trkpt>
      <trkpt lat="47.9895" lon="7.12379">
        <ele>1075</ele>
        <time>2019-04-14T05:37:27Z</time>
      </trkpt>
      <trkpt lat="47.98943" lon="7.12391">
        <ele>1073</ele>
        <time>2019-04-14T05:38:27Z</time>
      </trkpt>
      <trkpt lat="47.98934" lon="7.12413">
        <ele>1071</ele>
        <time>2019-04-14T05:39:27Z</time>
      </trkpt>
      <trkpt lat="47.98926" lon="7.1243">
        <ele>1069</ele>
        <time>2019-04-14T05:40:27Z</time>
      </trkpt>
      <trkpt lat="47.98913" lon="7.12451">
        <ele>1068</ele>
        <time>2019-04-14T05:41:27Z</time>
      </trkpt>
      <trkpt lat="47.98903" lon="7.12469">
        <ele>1068</ele>
        <time>2019-04-14T05:42:27Z</time>
      </trkpt>
      <trkpt lat="47.98896" lon="7.12482">
        <ele>1067</ele>
        <time>2019-04-14T05:43:27Z</time>
      </trkpt>
      <trkpt lat="47.98892" lon="7.12496">
        <ele>1067</ele>
        <time>2019-04-14T05:44:27Z</time>
      </trkpt>
      <trkpt lat="47.98888" lon="7.12514">
        <ele>1065</ele>
        <time>2019-04-14T05:45:27Z</time>
      </trkpt>
      <trkpt lat="47.98885" lon="7.12537">
        <ele>1062</ele>
        <time>2019-04-14T05:46:27Z</time>
      </trkpt>
      <trkpt lat="47.9888" lon="7.12577">
        <ele>1057</ele>
        <time>2019-04-14T05:47:27Z</time>
      </trkpt>
      <trkpt lat="47.98877" lon="7.12592">
        <ele>1056</ele>
        <time>2019-04-14T05:48:27Z</time>
      </trkpt>
      <trkpt lat="47.98872" lon="7.12614">
        <ele>1056</ele>
        <time>2019-04-14T05:49:27Z</time>
      </trkpt>
      <trkpt lat="47.98865" lon="7.12638">
        <ele>1056</ele>
        <time>2019-04-14T05:50:27Z</time>
      </trkpt>
      <trkpt lat="47.98863" lon="7.12651">
        <ele>1055</ele>
        <time>2019-04-14T05:51:27Z</time>
      </trkpt>
      <trkpt lat="47.98862" lon="7.12657">
        <ele>1055</ele>
        <time>2019-04-14T05:52:27Z</time>
      </trkpt>
      <trkpt lat="47.98863" lon="7.12664">
        <ele>1054</ele>
        <time>2019-04-14T05:53:27Z</time>
      </trkpt>
      <trkpt lat="47.98864" lon="7.12669">
        <ele>1054</ele>
        <time>2019-04-14T05:54:27Z</time>
      </trkpt>
      <trkpt lat="47.98867" lon="7.12674">
        <ele>1054</ele>
        <time>2019-04-14T05:55:27Z</time>
      </trkpt>
      <trkpt lat="47.98872" lon="7.1268">
        <ele>1054</ele>
        <time>2019-04-14T05:56:27Z</time>
      </trkpt>
      <trkpt lat="47.98878" lon="7.12684">
        <ele>1053</ele>
        <time>2019-04-14T05:57:27Z</time>
      </trkpt>
      <trkpt lat="47.98886" lon="7.1269">
        <ele>1052</ele>
        <time>2019-04-14T05:58:27Z</time>
      </trkpt>
      <trkpt lat="47.98896" lon="7.12698">
        <ele>1050</ele>
        <time>2019-04-14T05:59:27Z</time>
      </trkpt>
      <trkpt lat="47.98913" lon="7.12715">
        <ele>1047</ele>
        <time>2019-04-14T06:00:27Z</time>
      </trkpt>
      <trkpt lat="47.98939" lon="7.12742">
        <ele>1044</ele>
        <time>2019-04-14T06:01:27Z</time>
      </trkpt>
      <trkpt lat="47.98959" lon="7.12763">
        <ele>1043</ele>
        <time>2019-04-14T06:02:27Z</time>
      </trkpt>
      <trkpt lat="47.98986" lon="7.12789">
        <ele>1041</ele>
        <time>2019-04-14T06:03:27Z</time>
      </trkpt>
      <trkpt lat="47.99003" lon="7.12803">
        <ele>1040</ele>
        <time>2019-04-14T06:04:27Z</time>
      </trkpt>
      <trkpt lat="47.9902" lon="7.12816">
        <ele>1036</ele>
        <time>2019-04-14T06:05:27Z</time>
      </trkpt>
      <trkpt lat="47.99036" lon="7.1283">
        <ele>1033</ele>
        <time>2019-04-14T06:06:27Z</time>
      </trkpt>
      <trkpt lat="47.99054" lon="7.12849">
        <ele>1030</ele>
        <time>2019-04-14T06:07:27Z</time>
      </trkpt>
      <trkpt lat="47.99076" lon="7.12871">
        <ele>1027</ele>
        <time>2019-04-14T06:08:27Z</time>
      </trkpt>
      <trkpt lat="47.99096" lon="7.12893">
        <ele>1024</ele>
        <time>2019-04-14T06:09:27Z</time>
      </trkpt>
      <trkpt lat="47.99111" lon="7.12909">
        <ele>1022</ele>
        <time>2019-04-14T06:10:27Z</time>
      </trkpt>
      <trkpt lat="47.99123" lon="7.12925">
        <ele>1020</ele>
        <time>2019-04-14T06:11:27Z</time>
      </trkpt>
      <trkpt lat="47.99137" lon="7.12942">
        <ele>1018</ele>
        <time>2019-04-14T06:12:27Z</time>
      </trkpt>
      <trkpt lat="47.99157" lon="7.12968">
        <ele>1016</ele>
        <time>2019-04-14T06:13:27Z</time>
      </trkpt>
      <trkpt lat="47.99172" lon="7.12984">
        <ele>1015</ele>
        <time>2019-04-14T06:14:27Z</time>
      </trkpt>
      <trkpt lat="47.99187" lon="7.12999">
        <ele>1016</ele>
        <time>2019-04-14T06:15:27Z</time>
      </trkpt>
      <trkpt lat="47.99198" lon="7.1301">
        <ele>1015</ele>
        <time>2019-04-14T06:16:27Z</time>
      </trkpt>
      <trkpt lat="47.99206" lon="7.13019">
        <ele>1015</ele>
        <time>2019-04-14T06:17:27Z</time>
      </trkpt>
      <trkpt lat="47.99214" lon="7.13029">
        <ele>1015</ele>
        <time>2019-04-14T06:18:27Z</time>
      </trkpt>
      <trkpt lat="47.99221" lon="7.13042">
        <ele>1014</ele>
        <time>2019-04-14T06:19:27Z</time>
      </trkpt>
      <trkpt lat="47.9923" lon="7.13056">
        <ele>1013</ele>
        <time>2019-04-14T06:20:27Z</time>
      </trkpt>
      <trkpt lat="47.99231" lon="7.1307">
        <ele>1013</ele>
        <time>2019-04-14T06:21:27Z</time>
      </trkpt>
      <trkpt lat="47.99232" lon="7.13083">
        <ele>1013</ele>
        <time>2019-04-14T06:22:27Z</time>
      </trkpt>
      <trkpt lat="47.99233" lon="7.13092">
        <ele>1012</ele>
        <time>2019-04-14T06:23:27Z</time>
      </trkpt>
      <trkpt lat="47.99233" lon="7.13092">
        <ele>1012</ele>
        <time>2019-04-14T06:24:27Z</time>
      </trkpt>
      <trkpt lat="47.99235" lon="7.13084">
        <ele>1013</ele>
        <time>2019-04-14T06:25:27Z</time>
      </trkpt>
      <trkpt lat="47.99238" lon="7.13071">
        <ele>1012</ele>
        <time>2019-04-14T06:26:27Z</time>
      </trkpt>
      <trkpt lat="47.9924" lon="7.13065">
        <ele>1012</ele>
        <time>2019-04-14T06:27:27Z</time>
      </trkpt>
      <trkpt lat="47.99243" lon="7.13051">
        <ele>1012</ele>
        <time>2019-04-14T06:28:27Z</time>
      </trkpt>
      <trkpt lat="47.99245" lon="7.13042">
        <ele>1012</ele>
        <time>2019-04-14T06:29:27Z</time>
      </trkpt>
      <trkpt lat="47.99248" lon="7.1302">
        <ele>1012</ele>
        <time>2019-04-14T06:30:27Z</time>
      </trkpt>
      <trkpt lat="47.99251" lon="7.12994">
        <ele>1011</ele>
        <time>2019-04-14T06:31:27Z</time>
      </trkpt>
      <trkpt lat="47.99254" lon="7.12968">
        <ele>1007</ele>
        <time>2019-04-14T06:32:27Z</time>
      </trkpt>
      <trkpt lat="47.99257" lon="7.12956">
        <ele>1006</ele>
        <time>2019-04-14T06:33:27Z</time>
      </trkpt>
      <trkpt lat="47.99264" lon="7.12946">
        <ele>1004</ele>
        <time>2019-04-14T06:34:27Z</time>
      </trkpt>
      <trkpt lat="47.9927" lon="7.1294">
        <ele>1004</ele>
        <time>2019-04-14T06:35:27Z</time>
      </trkpt>
      <trkpt lat="47.99281" lon="7.12932">
        <ele>1002</ele>
        <time>2019-04-14T06:36:27Z</time>
      </trkpt>
      <trkpt lat="47.99305" lon="7.12922">
        <ele>1001</ele>
        <time>2019-04-14T06:37:27Z</time>
      </trkpt>
      <trkpt lat="47.99351" lon="7.12916">
        <ele>998</ele>
        <time>2019-04-14T06:38:27Z</time>
      </trkpt>
      <trkpt lat="47.99383" lon="7.12918">
        <ele>996</ele>
        <time>2019-04-14T06:39:27Z</time>
      </trkpt>
      <trkpt lat="47.99428" lon="7.12937">
        <ele>995</ele>
        <time>2019-04-14T06:40:27Z</time>
      </trkpt>
      <trkpt lat="47.99495" lon="7.12958">
        <ele>990</ele>
        <time>2019-04-14T06:41:27Z</time>
      </trkpt>
      <trkpt lat="47.99577" lon="7.12971">
        <ele>981</ele>
        <time>2019-04-14T06:42:27Z</time>
      </trkpt>
      <trkpt lat="47.99629" lon="7.12979">
        <ele>976</ele>
        <time>2019-04-14T06:43:27Z</time>
      </trkpt>
      <trkpt lat="47.99665" lon="7.12975">
        <ele>971</ele>
        <time>2019-04-14T06:44:27Z</time>
      </trkpt>
      <trkpt lat="47.99698" lon="7.12962">
        <ele>967</ele>
        <time>2019-04-14T06:45:27Z</time>
      </trkpt>
      <trkpt lat="47.99725" lon="7.1294">
        <ele>960</ele>
        <time>2019-04-14T06:46:27Z</time>
      </trkpt>
      <trkpt lat="47.99737" lon="7.12935">
        <ele>958</ele>
        <time>2019-04-14T06:47:27Z</time>
      </trkpt>
      <trkpt lat="47.99753" lon="7.12933">
        <ele>957</ele>
        <time>2019-04-14T06:48:27Z</time>
      </trkpt>
      <trkpt lat="47.9977" lon="7.12936">
        <ele>955</ele>
        <time>2019-04-14T06:49:27Z</time>
      </trkpt>
      <trkpt lat="47.99789" lon="7.12944">
        <ele>955</ele>
        <time>2019-04-14T06:50:27Z</time>
      </trkpt>
      <trkpt lat="47.99814" lon="7.12961">
        <ele>954</ele>
        <time>2019-04-14T06:51:27Z</time>
      </trkpt>
      <trkpt lat="47.9984" lon="7.12978">
        <ele>953</ele>
        <time>2019-04-14T06:52:27Z</time>
      </trkpt>
      <trkpt lat="47.9988" lon="7.13005">
        <ele>949</ele>
        <time>2019-04-14T06:53:27Z</time>
      </trkpt>
      <trkpt lat="47.99926" lon="7.13043">
        <ele>946</ele>
        <time>2019-04-14T06:54:27Z</time>
      </trkpt>
      <trkpt lat="47.99985" lon="7.13081">
        <ele>938</ele>
        <time>2019-04-14T06:55:27Z</time>
      </trkpt>
      <trkpt lat="48.00032" lon="7.13122">
        <ele>934</ele>
        <time>2019-04-14T06:56:27Z</time>
      </trkpt>
      <trkpt lat="48.00058" lon="7.13151">
        <ele>931</ele>
        <time>2019-04-14T06:57:27Z</time>
      </trkpt>
      <trkpt lat="48.00096" lon="7.13192">
        <ele>927</ele>
        <time>2019-04-14T06:58:27Z</time>
      </trkpt>
      <trkpt lat="48.00128" lon="7.13229">
        <ele>925</ele>
        <time>2019-04-14T06:59:27Z</time>
      </trkpt>
      <trkpt lat="48.00147" lon="7.13245">
        <ele>923</ele>
        <time>2019-04-14T07:00:27Z</time>
      </trkpt>
      <trkpt lat="48.00176" lon="7.13269">
        <ele>920</ele>
        <time>2019-04-14T07:01:27Z</time>
      </trkpt>
      <trkpt lat="48.00201" lon="7.13286">
        <ele>917</ele>
        <time>2019-04-14T07:02:27Z</time>
      </trkpt>
      <trkpt lat="48.00226" lon="7.13306">
        <ele>915</ele>
        <time>2019-04-14T07:03:27Z</time>
      </trkpt>
      <trkpt lat="48.0025" lon="7.13321">
        <ele>912</ele>
        <time>2019-04-14T07:04:27Z</time>
      </trkpt>
      <trkpt lat="48.00265" lon="7.13329">
        <ele>909</ele>
        <time>2019-04-14T07:05:27Z</time>
      </trkpt>
      <trkpt lat="48.00281" lon="7.13338">
        <ele>906</ele>
        <time>2019-04-14T07:06:27Z</time>
      </trkpt>
      <trkpt lat="48.00296" lon="7.13353">
        <ele>905</ele>
        <time>2019-04-14T07:07:27Z</time>
      </trkpt>
      <trkpt lat="48.00313" lon="7.13372">
        <ele>902</ele>
        <time>2019-04-14T07:08:27Z</time>
      </trkpt>
      <trkpt lat="48.00336" lon="7.13393">
        <ele>898</ele>
        <time>2019-04-14T07:09:27Z</time>
      </trkpt>
      <trkpt lat="48.00352" lon="7.13406">
        <ele>898</ele>
        <time>2019-04-14T07:10:27Z</time>
      </trkpt>
      <trkpt lat="48.00352" lon="7.13406">
        <ele>898</ele>
        <time>2019-04-14T07:11:27Z</time>
      </trkpt>
      <trkpt lat="48.00374" lon="7.13421">
        <ele>897</ele>
        <time>2019-04-14T07:12:27Z</time>
      </trkpt>
      <trkpt lat="48.00385" lon="7.13429">
        <ele>897</ele>
        <time>2019-04-14T07:13:27Z</time>
      </trkpt>
      <trkpt lat="48.00411" lon="7.13445">
        <ele>895</ele>
        <time>2019-04-14T07:14:27Z</time>
      </trkpt>
      <trkpt lat="48.00411" lon="7.13445">
        <ele>895</ele>
        <time>2019-04-14T07:15:27Z</time>
      </trkpt>
      <trkpt lat="48.00417" lon="7.13432">
        <ele>893</ele>
        <time>2019-04-14T07:16:27Z</time>
      </trkpt>
      <trkpt lat="48.00417" lon="7.13432">
        <ele>893</ele>
        <time>2019-04-14T07:17:27Z</time>
      </trkpt>
      <trkpt lat="48.00438" lon="7.13448">
        <ele>893</ele>
        <time>2019-04-14T07:18:27Z</time>
      </trkpt>
      <trkpt lat="48.00456" lon="7.1346">
        <ele>893</ele>
        <time>2019-04-14T07:19:27Z</time>
      </trkpt>
      <trkpt lat="48.00479" lon="7.13473">
        <ele>891</ele>
        <time>2019-04-14T07:20:27Z</time>
      </trkpt>
      <trkpt lat="48.00494" lon="7.13479">
        <ele>890</ele>
        <time>2019-04-14T07:21:27Z</time>
      </trkpt>
      <trkpt lat="48.00497" lon="7.13481">
        <ele>890</ele>
        <time>2019-04-14T07:22:27Z</time>
      </trkpt>
      <trkpt lat="48.00514" lon="7.13484">
        <ele>890</ele>
        <time>2019-04-14T07:23:27Z</time>
      </trkpt>
      <trkpt lat="48.00529" lon="7.13486">
        <ele>890</ele>
        <time>2019-04-14T07:24:27Z</time>
      </trkpt>
      <trkpt lat="48.00548" lon="7.13486">
        <ele>891</ele>
        <time>2019-04-14T07:25:27Z</time>
      </trkpt>
      <trkpt lat="48.00563" lon="7.13483">
        <ele>891</ele>
        <time>2019-04-14T07:26:27Z</time>
      </trkpt>
      <trkpt lat="48.00577" lon="7.13476">
        <ele>890</ele>
        <time>2019-04-14T07:27:27Z</time>
      </trkpt>
      <trkpt lat="48.00588" lon="7.13466">
        <ele>891</ele>
        <time>2019-04-14T07:28:27Z</time>
      </trkpt>
      <trkpt lat="48.00604" lon="7.13447">
        <ele>892</ele>
        <time>2019-04-14T07:29:27Z</time>
      </trkpt>
      <trkpt lat="48.0062" lon="7.13423">
        <ele>893</ele>
        <time>2019-04-14T07:30:27Z</time>
      </trkpt>
      <trkpt lat="48.00646" lon="7.13392">
        <ele>892</ele>
        <time>2019-04-14T07:31:27Z</time>
      </trkpt>
      <trkpt lat="48.00681" lon="7.13354">
        <ele>889</ele>
        <time>2019-04-14T07:32:27Z</time>
      </trkpt>
      <trkpt lat="48.00711" lon="7.13318">
        <ele>885</ele>
        <time>2019-04-14T07:33:27Z</time>
      </trkpt>
      <trkpt lat="48.00712" lon="7.13318">
        <ele>885</ele>
        <time>2019-04-14T07:34:27Z</time>
      </trkpt>
      <trkpt lat="48.0073" lon="7.133">
        <ele>883</ele>
        <time>2019-04-14T07:35:27Z</time>
      </trkpt>
      <trkpt lat="48.0074" lon="7.13292">
        <ele>883</ele>
        <time>2019-04-14T07:36:27Z</time>
      </trkpt>
      <trkpt lat="48.00747" lon="7.1329">
        <ele>883</ele>
        <time>2019-04-14T07:37:27Z</time>
      </trkpt>
      <trkpt lat="48.00755" lon="7.13288">
        <ele>883</ele>
        <time>2019-04-14T07:38:27Z</time>
      </trkpt>
      <trkpt lat="48.00765" lon="7.13287">
        <ele>882</ele>
        <time>2019-04-14T07:39:27Z</time>
      </trkpt>
      <trkpt lat="48.00774" lon="7.13288">
        <ele>882</ele>
        <time>2019-04-14T07:40:27Z</time>
      </trkpt>
      <trkpt lat="48.0078" lon="7.1329">
        <ele>881</ele>
        <time>2019-04-14T07:41:27Z</time>
      </trkpt>
      <trkpt lat="48.0079" lon="7.13295">
        <ele>881</ele>
        <time>2019-04-14T07:42:27Z</time>
      </trkpt>
      <trkpt lat="48.00811" lon="7.13314">
        <ele>882</ele>
        <time>2019-04-14T07:43:27Z</time>
      </trkpt>
      <trkpt lat="48.00819" lon="7.13318">
        <ele>882</ele>
        <time>2019-04-14T07:44:27Z</time>
      </trkpt>
      <trkpt lat="48.00832" lon="7.13321">
        <ele>881</ele>
        <time>2019-04-14T07:45:27Z</time>
      </trkpt>
      <trkpt lat="48.00854" lon="7.1332">
        <ele>879</ele>
        <time>2019-04-14T07:46:27Z</time>
      </trkpt>
      <trkpt lat="48.00873" lon="7.13324">
        <ele>878</ele>
        <time>2019-04-14T07:47:27Z</time>
      </trkpt>
      <trkpt lat="48.00887" lon="7.13333">
        <ele>877</ele>
        <time>2019-04-14T07:48:27Z</time>
      </trkpt>
      <trkpt lat="48.00908" lon="7.13356">
        <ele>877</ele>
        <time>2019-04-14T07:49:27Z</time>
      </trkpt>
      <trkpt lat="48.00923" lon="7.13382">
        <ele>876</ele>
        <time>2019-04-14T07:50:27Z</time>
      </trkpt>
      <trkpt lat="48.0095" lon="7.13434">
        <ele>872</ele>
        <time>2019-04-14T07:51:27Z</time>
      </trkpt>
      <trkpt lat="48.00974" lon="7.13484">
        <ele>869</ele>
        <time>2019-04-14T07:52:27Z</time>
      </trkpt>
      <trkpt lat="48.00995" lon="7.13531">
        <ele>867</ele>
        <time>2019-04-14T07:53:27Z</time>
      </trkpt>
      <trkpt lat="48.01008" lon="7.13554">
        <ele>866</ele>
        <time>2019-04-14T07:54:27Z</time>
      </trkpt>
      <trkpt lat="48.01019" lon="7.13563">
        <ele>864</ele>
        <time>2019-04-14T07:55:27Z</time>
      </trkpt>
      <trkpt lat="48.01024" lon="7.13565">
        <ele>862</ele>
        <time>2019-04-14T07:56:27Z</time>
      </trkpt>
      <trkpt lat="48.0104" lon="7.13572">
        <ele>859</ele>
        <time>2019-04-14T07:57:27Z</time>
      </trkpt>
      <trkpt lat="48.01068" lon="7.13577">
        <ele>853</ele>
        <time>2019-04-14T07:58:27Z</time>
      </trkpt>
      <trkpt lat="48.0109" lon="7.13583">
        <ele>849</ele>
        <time>2019-04-14T07:59:27Z</time>
      </trkpt>
      <trkpt lat="48.01119" lon="7.13589">
        <ele>844</ele>
        <time>2019-04-14T08:00:27Z</time>
      </trkpt>
      <trkpt lat="48.01157" lon="7.13601">
        <ele>839</ele>
        <time>2019-04-14T08:01:27Z</time>
      </trkpt>
      <trkpt lat="48.01181" lon="7.13602">
        <ele>837</ele>
        <time>2019-04-14T08:02:27Z</time>
      </trkpt>
      <trkpt lat="48.012" lon="7.13598">
        <ele>837</ele>
        <time>2019-04-14T08:03:27Z</time>
      </trkpt>
      <trkpt lat="48.0122" lon="7.13581">
        <ele>834</ele>
        <time>2019-04-14T08:04:27Z</time>
      </trkpt>
      <trkpt lat="48.01249" lon="7.13539">
        <ele>828</ele>
        <time>2019-04-14T08:05:27Z</time>
      </trkpt>
      <trkpt lat="48.01294" lon="7.13495">
        <ele>826</ele>
        <time>2019-04-14T08:06:27Z</time>
      </trkpt>
      <trkpt lat="48.01313" lon="7.13475">
        <ele>825</ele>
        <time>2019-04-14T08:07:27Z</time>
      </trkpt>
      <trkpt lat="48.01328" lon="7.13457">
        <ele>823</ele>
        <time>2019-04-14T08:08:27Z</time>
      </trkpt>
      <trkpt lat="48.01357" lon="7.13411">
        <ele>819</ele>
        <time>2019-04-14T08:09:27Z</time>
      </trkpt>
      <trkpt lat="48.01397" lon="7.13345">
        <ele>815</ele>
        <time>2019-04-14T08:10:27Z</time>
      </trkpt>
      <trkpt lat="48.01426" lon="7.13289">
        <ele>810</ele>
        <time>2019-04-14T08:11:27Z</time>
      </trkpt>
      <trkpt lat="48.01435" lon="7.13271">
        <ele>807</ele>
        <time>2019-04-14T08:12:27Z</time>
      </trkpt>
      <trkpt lat="48.01448" lon="7.13258">
        <ele>806</ele>
        <time>2019-04-14T08:13:27Z</time>
      </trkpt>
      <trkpt lat="48.01478" lon="7.13237">
        <ele>803</ele>
        <time>2019-04-14T08:14:27Z</time>
      </trkpt>
      <trkpt lat="48.0151" lon="7.1322">
        <ele>801</ele>
        <time>2019-04-14T08:15:27Z</time>
      </trkpt>
      <trkpt lat="48.01538" lon="7.13211">
        <ele>798</ele>
        <time>2019-04-14T08:16:27Z</time>
      </trkpt>
      <trkpt lat="48.01575" lon="7.13205">
        <ele>797</ele>
        <time>2019-04-14T08:17:27Z</time>
      </trkpt>
      <trkpt lat="48.01578" lon="7.13203">
        <ele>797</ele>
        <time>2019-04-14T08:18:27Z</time>
      </trkpt>
      <trkpt lat="48.01578" lon="7.13203">
        <ele>797</ele>
        <time>2019-04-14T08:19:27Z</time>
      </trkpt>
      <trkpt lat="48.01572" lon="7.13192">
        <ele>793</ele>
        <time>2019-04-14T08:20:27Z</time>
      </trkpt>
      <trkpt lat="48.01561" lon="7.13182">
        <ele>790</ele>
        <time>2019-04-14T08:21:27Z</time>
      </trkpt>
      <trkpt lat="48.01547" lon="7.13172">
        <ele>787</ele>
        <time>2019-04-14T08:22:27Z</time>
      </trkpt>
      <trkpt lat="48.01522" lon="7.1317">
        <ele>786</ele>
        <time>2019-04-14T08:23:27Z</time>
      </trkpt>
      <trkpt lat="48.01496" lon="7.1317">
        <ele>786</ele>
        <time>2019-04-14T08:24:27Z</time>
      </trkpt>
      <trkpt lat="48.01472" lon="7.13169">
        <ele>785</ele>
        <time>2019-04-14T08:25:27Z</time>
      </trkpt>
      <trkpt lat="48.01443" lon="7.13167">
        <ele>784</ele>
        <time>2019-04-14T08:26:27Z</time>
      </trkpt>
      <trkpt lat="48.01429" lon="7.13165">
        <ele>783</ele>
        <time>2019-04-14T08:27:27Z</time>
      </trkpt>
      <trkpt lat="48.01416" lon="7.13169">
        <ele>784</ele>
        <time>2019-04-14T08:28:27Z</time>
      </trkpt>
      <trkpt lat="48.01399" lon="7.13173">
        <ele>785</ele>
        <time>2019-04-14T08:29:27Z</time>
      </trkpt>
      <trkpt lat="48.01389" lon="7.13174">
        <ele>785</ele>
        <time>2019-04-14T08:30:27Z</time>
      </trkpt>
      <trkpt lat="48.01382" lon="7.13171">
        <ele>784</ele>
        <time>2019-04-14T08:31:27Z</time>
      </trkpt>
      <trkpt lat="48.01376" lon="7.13164">
        <ele>784</ele>
        <time>2019-04-14T08:32:27Z</time>
      </trkpt>
      <trkpt lat="48.01372" lon="7.13156">
        <ele>783</ele>
        <time>2019-04-14T08:33:27Z</time>
      </trkpt>
      <trkpt lat="48.01365" lon="7.13142">
        <ele>782</ele>
        <time>2019-04-14T08:34:27Z</time>
      </trkpt>
      <trkpt lat="48.01361" lon="7.13127">
        <ele>780</ele>
        <time>2019-04-14T08:35:27Z</time>
      </trkpt>
      <trkpt lat="48.01359" lon="7.13106">
        <ele>779</ele>
        <time>2019-04-14T08:36:27Z</time>
      </trkpt>
      <trkpt lat="48.01359" lon="7.13106">
        <ele>779</ele>
        <time>2019-04-14T08:37:27Z</time>
      </trkpt>
      <trkpt lat="48.01369" lon="7.13091">
        <ele>775</ele>
        <time>2019-04-14T08:38:27Z</time>
      </trkpt>
      <trkpt lat="48.01382" lon="7.13064">
        <ele>770</ele>
        <time>2019-04-14T08:39:27Z</time>
      </trkpt>
      <trkpt lat="48.01396" lon="7.13041">
        <ele>765</ele>
        <time>2019-04-14T08:40:27Z</time>
      </trkpt>
      <trkpt lat="48.01412" lon="7.13025">
        <ele>760</ele>
        <time>2019-04-14T08:41:27Z</time>
      </trkpt>
      <trkpt lat="48.01435" lon="7.13009">
        <ele>755</ele>
        <time>2019-04-14T08:42:27Z</time>
      </trkpt>
      <trkpt lat="48.01457" lon="7.13007">
        <ele>753</ele>
        <time>2019-04-14T08:43:27Z</time>
      </trkpt>
      <trkpt lat="48.01499" lon="7.13013">
        <ele>749</ele>
        <time>2019-04-14T08:44:27Z</time>
      </trkpt>
      <trkpt lat="48.01547" lon="7.13019">
        <ele>750</ele>
        <time>2019-04-14T08:45:27Z</time>
      </trkpt>
      <trkpt lat="48.01621" lon="7.1302">
        <ele>748</ele>
        <time>2019-04-14T08:46:27Z</time>
      </trkpt>
      <trkpt lat="48.01688" lon="7.13016">
        <ele>741</ele>
        <time>2019-04-14T08:47:27Z</time>
      </trkpt>
      <trkpt lat="48.01742" lon="7.13016">
        <ele>734</ele>
        <time>2019-04-14T08:48:27Z</time>
      </trkpt>
      <trkpt lat="48.0181" lon="7.13015">
        <ele>725</ele>
        <time>2019-04-14T08:49:27Z</time>
      </trkpt>
      <trkpt lat="48.01884" lon="7.13014">
        <ele>716</ele>
        <time>2019-04-14T08:50:27Z</time>
      </trkpt>
      <trkpt lat="48.01948" lon="7.13003">
        <ele>706</ele>
        <time>2019-04-14T08:51:27Z</time>
      </trkpt>
      <trkpt lat="48.01998" lon="7.12996">
        <ele>700</ele>
        <time>2019-04-14T08:52:27Z</time>
      </trkpt>
      <trkpt lat="48.02042" lon="7.12997">
        <ele>698</ele>
        <time>2019-04-14T08:53:27Z</time>
      </trkpt>
      <trkpt lat="48.02057" lon="7.13">
        <ele>699</ele>
        <time>2019-04-14T08:54:27Z</time>
      </trkpt>
      <trkpt lat="48.02062" lon="7.13">
        <ele>699</ele>
        <time>2019-04-14T08:55:27Z</time>
      </trkpt>
      <trkpt lat="48.02068" lon="7.12996">
        <ele>697</ele>
        <time>2019-04-14T08:56:27Z</time>
      </trkpt>
      <trkpt lat="48.02083" lon="7.12987">
        <ele>693</ele>
        <time>2019-04-14T08:57:27Z</time>
      </trkpt>
      <trkpt lat="48.0212" lon="7.12978">
        <ele>692</ele>
        <time>2019-04-14T08:58:27Z</time>
      </trkpt>
      <trkpt lat="48.02139" lon="7.12961">
        <ele>687</ele>
        <time>2019-04-14T08:59:27Z</time>
      </trkpt>
      <trkpt lat="48.02159" lon="7.12945">
        <ele>683</ele>
        <time>2019-04-14T09:00:27Z</time>
      </trkpt>
      <trkpt lat="48.02177" lon="7.12931">
        <ele>678</ele>
        <time>2019-04-14T09:01:27Z</time>
      </trkpt>
      <trkpt lat="48.02192" lon="7.12925">
        <ele>675</ele>
        <time>2019-04-14T09:02:27Z</time>
      </trkpt>
      <trkpt lat="48.02209" lon="7.12924">
        <ele>673</ele>
        <time>2019-04-14T09:03:27Z</time>
      </trkpt>
      <trkpt lat="48.02273" lon="7.12929">
        <ele>666</ele>
        <time>2019-04-14T09:04:27Z</time>
      </trkpt>
      <trkpt lat="48.02336" lon="7.12942">
        <ele>654</ele>
        <time>2019-04-14T09:05:27Z</time>
      </trkpt>
      <trkpt lat="48.02366" lon="7.12948">
        <ele>652</ele>
        <time>2019-04-14T09:06:27Z</time>
      </trkpt>
      <trkpt lat="48.02387" lon="7.12948">
        <ele>649</ele>
        <time>2019-04-14T09:07:27Z</time>
      </trkpt>
      <trkpt lat="48.02417" lon="7.12947">
        <ele>644</ele>
        <time>2019-04-14T09:08:27Z</time>
      </trkpt>
      <trkpt lat="48.02426" lon="7.12946">
        <ele>643</ele>
        <time>2019-04-14T09:09:27Z</time>
      </trkpt>
      <trkpt lat="48.02432" lon="7.12942">
        <ele>641</ele>
        <time>2019-04-14T09:10:27Z</time>
      </trkpt>
      <trkpt lat="48.02432" lon="7.12942">
        <ele>641</ele>
        <time>2019-04-14T09:11:27Z</time>
      </trkpt>
      <trkpt lat="48.02415" lon="7.12932">
        <ele>640</ele>
        <time>2019-04-14T09:12:27Z</time>
      </trkpt>
      <trkpt lat="48.02368" lon="7.129">
        <ele>637</ele>
        <time>2019-04-14T09:13:27Z</time>
      </trkpt>
      <trkpt lat="48.0232" lon="7.12855">
        <ele>630</ele>
        <time>2019-04-14T09:14:27Z</time>
      </trkpt>
      <trkpt lat="48.02304" lon="7.12841">
        <ele>629</ele>
        <time>2019-04-14T09:15:27Z</time>
      </trkpt>
      <trkpt lat="48.02294" lon="7.1283">
        <ele>627</ele>
        <time>2019-04-14T09:16:27Z</time>
      </trkpt>
      <trkpt lat="48.02292" lon="7.12828">
        <ele>627</ele>
        <time>2019-04-14T09:17:27Z</time>
      </trkpt>
      <trkpt lat="48.0229" lon="7.12826">
        <ele>626</ele>
        <time>2019-04-14T09:18:27Z</time>
      </trkpt>
      <trkpt lat="48.02287" lon="7.1282">
        <ele>624</ele>
        <time>2019-04-14T09:19:27Z</time>
      </trkpt>
      <trkpt lat="48.02297" lon="7.12817">
        <ele>621</ele>
        <time>2019-04-14T09:20:27Z</time>
      </trkpt>
      <trkpt lat="48.0231" lon="7.1282">
        <ele>620</ele>
        <time>2019-04-14T09:21:27Z</time>
      </trkpt>
      <trkpt lat="48.02334" lon="7.12834">
        <ele>620</ele>
        <time>2019-04-14T09:22:27Z</time>
      </trkpt>
      <trkpt lat="48.02361" lon="7.12842">
        <ele>619</ele>
        <time>2019-04-14T09:23:27Z</time>
      </trkpt>
      <trkpt lat="48.02379" lon="7.12841">
        <ele>617</ele>
        <time>2019-04-14T09:24:27Z</time>
      </trkpt>
      <trkpt lat="48.02409" lon="7.12834">
        <ele>611</ele>
        <time>2019-04-14T09:25:27Z</time>
      </trkpt>
      <trkpt lat="48.02439" lon="7.12827">
        <ele>605</ele>
        <time>2019-04-14T09:26:27Z</time>
      </trkpt>
      <trkpt lat="48.02459" lon="7.12828">
        <ele>604</ele>
        <time>2019-04-14T09:27:27Z</time>
      </trkpt>
      <trkpt lat="48.02482" lon="7.12836">
        <ele>605</ele>
        <time>2019-04-14T09:28:27Z</time>
      </trkpt>
      <trkpt lat="48.02506" lon="7.12841">
        <ele>605</ele>
        <time>2019-04-14T09:29:27Z</time>
      </trkpt>
      <trkpt lat="48.02525" lon="7.12838">
        <ele>606</ele>
        <time>2019-04-14T09:30:27Z</time>
      </trkpt>
      <trkpt lat="48.02546" lon="7.12822">
        <ele>603</ele>
        <time>2019-04-14T09:31:27Z</time>
      </trkpt>
      <trkpt lat="48.02569" lon="7.12783">
        <ele>592</ele>
        <time>2019-04-14T09:32:27Z</time>
      </trkpt>
      <trkpt lat="48.02589" lon="7.12754">
        <ele>585</ele>
        <time>2019-04-14T09:33:27Z</time>
      </trkpt>
      <trkpt lat="48.02606" lon="7.12736">
        <ele>582</ele>
        <time>2019-04-14T09:34:27Z</time>
      </trkpt>
      <trkpt lat="48.02621" lon="7.12724">
        <ele>580</ele>
        <time>2019-04-14T09:35:27Z</time>
      </trkpt>
      <trkpt lat="48.0264" lon="7.12716">
        <ele>580</ele>
        <time>2019-04-14T09:36:27Z</time>
      </trkpt>
      <trkpt lat="48.02672" lon="7.1271">
        <ele>580</ele>
        <time>2019-04-14T09:37:27Z</time>
      </trkpt>
      <trkpt lat="48.02716" lon="7.12705">
        <ele>575</ele>
        <time>2019-04-14T09:38:27Z</time>
      </trkpt>
      <trkpt lat="48.02756" lon="7.12698">
        <ele>570</ele>
        <time>2019-04-14T09:39:27Z</time>
      </trkpt>
      <trkpt lat="48.02765" lon="7.12696">
        <ele>569</ele>
        <time>2019-04-14T09:40:27Z</time>
      </trkpt>
      <trkpt lat="48.02765" lon="7.12696">
        <ele>569</ele>
        <time>2019-04-14T09:41:27Z</time>
      </trkpt>
      <trkpt lat="48.02773" lon="7.12697">
        <ele>568</ele>
        <time>2019-04-14T09:42:27Z</time>
      </trkpt>
      <trkpt lat="48.02781" lon="7.12697">
        <ele>568</ele>
        <time>2019-04-14T09:43:27Z</time>
      </trkpt>
      <trkpt lat="48.02794" lon="7.12699">
        <ele>567</ele>
        <time>2019-04-14T09:44:27Z</time>
      </trkpt>
      <trkpt lat="48.0281" lon="7.12704">
        <ele>566</ele>
        <time>2019-04-14T09:45:27Z</time>
      </trkpt>
      <trkpt lat="48.02828" lon="7.12706">
        <ele>564</ele>
        <time>2019-04-14T09:46:27Z</time>
      </trkpt>
      <trkpt lat="48.0284" lon="7.12707">
        <ele>563</ele>
        <time>2019-04-14T09:47:27Z</time>
      </trkpt>
      <trkpt lat="48.0284" lon="7.12707">
        <ele>563</ele>
        <time>2019-04-14T09:48:27Z</time>
      </trkpt>
      <trkpt lat="48.0284" lon="7.12696">
        <ele>563</ele>
        <time>2019-04-14T09:49:27Z</time>
      </trkpt>
      <trkpt lat="48.02838" lon="7.12686">
        <ele>563</ele>
        <time>2019-04-14T09:50:27Z</time>
      </trkpt>
      <trkpt lat="48.02836" lon="7.12681">
        <ele>563</ele>
        <time>2019-04-14T09:51:27Z</time>
      </trkpt>
      <trkpt lat="48.02833" lon="7.12675">
        <ele>563</ele>
        <time>2019-04-14T09:52:27Z</time>
      </trkpt>
      <trkpt lat="48.02826" lon="7.12667">
        <ele>563</ele>
        <time>2019-04-14T09:53:27Z</time>
      </trkpt>
      <trkpt lat="48.02812" lon="7.12657">
        <ele>562</ele>
        <time>2019-04-14T09:54:27Z</time>
      </trkpt>
      <trkpt lat="48.02809" lon="7.12652">
        <ele>562</ele>
        <time>2019-04-14T09:55:27Z</time>
      </trkpt>
      <trkpt lat="48.02804" lon="7.12649">
        <ele>562</ele>
        <time>2019-04-14T09:56:27Z</time>
      </trkpt>
      <trkpt lat="48.02792" lon="7.12642">
        <ele>561</ele>
        <time>2019-04-14T09:57:27Z</time>
      </trkpt>
      <trkpt lat="48.0277" lon="7.12636">
        <ele>559</ele>
        <time>2019-04-14T09:58:27Z</time>
      </trkpt>
      <trkpt lat="48.02739" lon="7.12631">
        <ele>557</ele>
        <time>2019-04-14T09:59:27Z</time>
      </trkpt>
      <trkpt lat="48.02703" lon="7.12631">
        <ele>555</ele>
        <time>2019-04-14T10:00:27Z</time>
      </trkpt>
      <trkpt lat="48.02694" lon="7.12627">
        <ele>554</ele>
        <time>2019-04-14T10:01:27Z</time>
      </trkpt>
      <trkpt lat="48.0269" lon="7.12626">
        <ele>553</ele>
        <time>2019-04-14T10:02:27Z</time>
      </trkpt>
      <trkpt lat="48.02682" lon="7.12619">
        <ele>551</ele>
        <time>2019-04-14T10:03:27Z</time>
      </trkpt>
      <trkpt lat="48.02674" lon="7.12609">
        <ele>548</ele>
        <time>2019-04-14T10:04:27Z</time>
      </trkpt>
      <trkpt lat="48.02663" lon="7.12604">
        <ele>545</ele>
        <time>2019-04-14T10:05:27Z</time>
      </trkpt>
      <trkpt lat="48.0264" lon="7.12599">
        <ele>542</ele>
        <time>2019-04-14T10:06:27Z</time>
      </trkpt>
      <trkpt lat="48.026" lon="7.12602">
        <ele>541</ele>
        <time>2019-04-14T10:07:27Z</time>
      </trkpt>
      <trkpt lat="48.02565" lon="7.12611">
        <ele>540</ele>
        <time>2019-04-14T10:08:27Z</time>
      </trkpt>
      <trkpt lat="48.02542" lon="7.12626">
        <ele>540</ele>
        <time>2019-04-14T10:09:27Z</time>
      </trkpt>
      <trkpt lat="48.02525" lon="7.1264">
        <ele>541</ele>
        <time>2019-04-14T10:10:27Z</time>
      </trkpt>
      <trkpt lat="48.0251" lon="7.12644">
        <ele>540</ele>
        <time>2019-04-14T10:11:27Z</time>
      </trkpt>
      <trkpt lat="48.02481" lon="7.12638">
        <ele>538</ele>
        <time>2019-04-14T10:12:27Z</time>
      </trkpt>
      <trkpt lat="48.02457" lon="7.12633">
        <ele>538</ele>
        <time>2019-04-14T10:13:27Z</time>
      </trkpt>
      <trkpt lat="48.02457" lon="7.12633">
        <ele>538</ele>
        <time>2019-04-14T10:14:27Z</time>
      </trkpt>
      <trkpt lat="48.02476" lon="7.12629">
        <ele>536</ele>
        <time>2019-04-14T10:15:27Z</time>
      </trkpt>
      <trkpt lat="48.02492" lon="7.12622">
        <ele>533</ele>
        <time>2019-04-14T10:16:27Z</time>
      </trkpt>
      <trkpt lat="48.02502" lon="7.12614">
        <ele>531</ele>
        <time>2019-04-14T10:17:27Z</time>
      </trkpt>
      <trkpt lat="48.02508" lon="7.12606">
        <ele>530</ele>
        <time>2019-04-14T10:18:27Z</time>
      </trkpt>
      <trkpt lat="48.02515" lon="7.12588">
        <ele>527</ele>
        <time>2019-04-14T10:19:27Z</time>
      </trkpt>
      <trkpt lat="48.02522" lon="7.12566">
        <ele>524</ele>
        <time>2019-04-14T10:20:27Z</time>
      </trkpt>
      <trkpt lat="48.02524" lon="7.12556">
        <ele>522</ele>
        <time>2019-04-14T10:21:27Z</time>
      </trkpt>
      <trkpt lat="48.02526" lon="7.12545">
        <ele>521</ele>
        <time>2019-04-14T10:22:27Z</time>
      </trkpt>
      <trkpt lat="48.02535" lon="7.12518">
        <ele>516</ele>
        <time>2019-04-14T10:23:27Z</time>
      </trkpt>
      <trkpt lat="48.02542" lon="7.12498">
        <ele>513</ele>
        <time>2019-04-14T10:24:27Z</time>
      </trkpt>
      <trkpt lat="48.02554" lon="7.12472">
        <ele>509</ele>
        <time>2019-04-14T10:25:27Z</time>
      </trkpt>
      <trkpt lat="48.02563" lon="7.12455">
        <ele>506</ele>
        <time>2019-04-14T10:26:27Z</time>
      </trkpt>
      <trkpt lat="48.02576" lon="7.12444">
        <ele>503</ele>
        <time>2019-04-14T10:27:27Z</time>
      </trkpt>
      <trkpt lat="48.02605" lon="7.1242">
        <ele>499</ele>
        <time>2019-04-14T10:28:27Z</time>
      </trkpt>
      <trkpt lat="48.02627" lon="7.12404">
        <ele>498</ele>
        <time>2019-04-14T10:29:27Z</time>
      </trkpt>
      <trkpt lat="48.02654" lon="7.12389">
        <ele>496</ele>
        <time>2019-04-14T10:30:27Z</time>
      </trkpt>
      <trkpt lat="48.02682" lon="7.12368">
        <ele>494</ele>
        <time>2019-04-14T10:31:27Z</time>
      </trkpt>
      <trkpt lat="48.02713" lon="7.1234">
        <ele>493</ele>
        <time>2019-04-14T10:32:27Z</time>
      </trkpt>
      <trkpt lat="48.02738" lon="7.1231">
        <ele>490</ele>
        <time>2019-04-14T10:33:27Z</time>
      </trkpt>
      <trkpt lat="48.02762" lon="7.12293">
        <ele>490</ele>
        <time>2019-04-14T10:34:27Z</time>
      </trkpt>
      <trkpt lat="48.02786" lon="7.12279">
        <ele>490</ele>
        <time>2019-04-14T10:35:27Z</time>
      </trkpt>
      <trkpt lat="48.02807" lon="7.12263">
        <ele>490</ele>
        <time>2019-04-14T10:36:27Z</time>
      </trkpt>
      <trkpt lat="48.02826" lon="7.12238">
        <ele>486</ele>
        <time>2019-04-14T10:37:27Z</time>
      </trkpt>
      <trkpt lat="48.02835" lon="7.12211">
        <ele>480</ele>
        <time>2019-04-14T10:38:27Z</time>
      </trkpt>
      <trkpt lat="48.02835" lon="7.1219">
        <ele>475</ele>
        <time>2019-04-14T10:39:27Z</time>
      </trkpt>
      <trkpt lat="48.02843" lon="7.12145">
        <ele>467</ele>
        <time>2019-04-14T10:40:27Z</time>
      </trkpt>
      <trkpt lat="48.02853" lon="7.12112">
        <ele>463</ele>
        <time>2019-04-14T10:41:27Z</time>
      </trkpt>
      <trkpt lat="48.02864" lon="7.12087">
        <ele>460</ele>
        <time>2019-04-14T10:42:27Z</time>
      </trkpt>
      <trkpt lat="48.0288" lon="7.12072">
        <ele>458</ele>
        <time>2019-04-14T10:43:27Z</time>
      </trkpt>
      <trkpt lat="48.0288" lon="7.12072">
        <ele>458</ele>
        <time>2019-04-14T10:44:27Z</time>
      </trkpt>
      <trkpt lat="48.02887" lon="7.12053">
        <ele>455</ele>
        <time>2019-04-14T10:45:27Z</time>
      </trkpt>
      <trkpt lat="48.02894" lon="7.12041">
        <ele>453</ele>
        <time>2019-04-14T10:46:27Z</time>
      </trkpt>
      <trkpt lat="48.02907" lon="7.12028">
        <ele>450</ele>
        <time>2019-04-14T10:47:27Z</time>
      </trkpt>
      <trkpt lat="48.02923" lon="7.12017">
        <ele>446</ele>
        <time>2019-04-14T10:48:27Z</time>
      </trkpt>
      <trkpt lat="48.02939" lon="7.12008">
        <ele>443</ele>
        <time>2019-04-14T10:49:27Z</time>
      </trkpt>
      <trkpt lat="48.02952" lon="7.12004">
        <ele>441</ele>
        <time>2019-04-14T10:50:27Z</time>
      </trkpt>
      <trkpt lat="48.02973" lon="7.12004">
        <ele>439</ele>
        <time>2019-04-14T10:51:27Z</time>
      </trkpt>
      <trkpt lat="48.02993" lon="7.12002">
        <ele>438</ele>
        <time>2019-04-14T10:52:27Z</time>
      </trkpt>
      <trkpt lat="48.03006" lon="7.12">
        <ele>436</ele>
        <time>2019-04-14T10:53:27Z</time>
      </trkpt>
      <trkpt lat="48.03018" lon="7.11996">
        <ele>434</ele>
        <time>2019-04-14T10:54:27Z</time>
      </trkpt>
      <trkpt lat="48.03026" lon="7.11991">
        <ele>432</ele>
        <time>2019-04-14T10:55:27Z</time>
      </trkpt>
      <trkpt lat="48.03031" lon="7.11984">
        <ele>431</ele>
        <time>2019-04-14T10:56:27Z</time>
      </trkpt>
      <trkpt lat="48.0304" lon="7.1197">
        <ele>428</ele>
        <time>2019-04-14T10:57:27Z</time>
      </trkpt>
      <trkpt lat="48.03056" lon="7.11938">
        <ele>424</ele>
        <time>2019-04-14T10:58:27Z</time>
      </trkpt>
      <trkpt lat="48.03072" lon="7.11909">
        <ele>421</ele>
        <time>2019-04-14T10:59:27Z</time>
      </trkpt>
      <trkpt lat="48.03089" lon="7.11885">
        <ele>419</ele>
        <time>2019-04-14T11:00:27Z</time>
      </trkpt>
      <trkpt lat="48.03098" lon="7.11877">
        <ele>418</ele>
        <time>2019-04-14T11:01:27Z</time>
      </trkpt>
      <trkpt lat="48.03109" lon="7.11869">
        <ele>416</ele>
        <time>2019-04-14T11:02:27Z</time>
      </trkpt>
      <trkpt lat="48.03118" lon="7.11866">
        <ele>415</ele>
        <time>2019-04-14T11:03:27Z</time>
      </trkpt>
      <trkpt lat="48.03129" lon="7.11865">
        <ele>414</ele>
        <time>2019-04-14T11:04:27Z</time>
      </trkpt>
      <trkpt lat="48.03136" lon="7.11863">
        <ele>413</ele>
        <time>2019-04-14T11:05:27Z</time>
      </trkpt>
      <trkpt lat="48.03144" lon="7.1186">
        <ele>412</ele>
        <time>2019-04-14T11:06:27Z</time>
      </trkpt>
      <trkpt lat="48.03155" lon="7.11853">
        <ele>411</ele>
        <time>2019-04-14T11:07:27Z</time>
      </trkpt>
      <trkpt lat="48.03155" lon="7.11853">
        <ele>411</ele>
        <time>2019-04-14T11:08:27Z</time>
      </trkpt>
      <trkpt lat="48.03161" lon="7.11861">
        <ele>411</ele>
        <time>2019-04-14T11:09:27Z</time>
      </trkpt>
      <trkpt lat="48.03172" lon="7.11868">
        <ele>410</ele>
        <time>2019-04-14T11:10:27Z</time>
      </trkpt>
      <trkpt lat="48.03193" lon="7.11877">
        <ele>407</ele>
        <time>2019-04-14T11:11:27Z</time>
      </trkpt>
      <trkpt lat="48.03209" lon="7.11886">
        <ele>405</ele>
        <time>2019-04-14T11:12:27Z</time>
      </trkpt>
      <trkpt lat="48.03222" lon="7.11898">
        <ele>403</ele>
        <time>2019-04-14T11:13:27Z</time>
      </trkpt>
      <trkpt lat="48.0323" lon="7.11909">
        <ele>402</ele>
        <time>2019-04-14T11:14:27Z</time>
      </trkpt>
      <trkpt lat="48.03238" lon="7.11921">
        <ele>401</ele>
        <time>2019-04-14T11:15:27Z</time>
      </trkpt>
      <trkpt lat="48.03242" lon="7.11925">
        <ele>400</ele>
        <time>2019-04-14T11:16:27Z</time>
      </trkpt>
      <trkpt lat="48.03252" lon="7.11933">
        <ele>399</ele>
        <time>2019-04-14T11:17:27Z</time>
      </trkpt>
      <trkpt lat="48.03253" lon="7.11934">
        <ele>399</ele>
        <time>2019-04-14T11:18:27Z</time>
      </trkpt>
      <trkpt lat="48.03261" lon="7.11945">
        <ele>399</ele>
        <time>2019-04-14T11:19:27Z</time>
      </trkpt>
      <trkpt lat="48.03269" lon="7.11944">
        <ele>399</ele>
        <time>2019-04-14T11:20:27Z</time>
      </trkpt>
      <trkpt lat="48.03283" lon="7.11948">
        <ele>399</ele>
        <time>2019-04-14T11:21:27Z</time>
      </trkpt>
      <trkpt lat="48.03292" lon="7.11951">
        <ele>399</ele>
        <time>2019-04-14T11:22:27Z</time>
      </trkpt>
      <trkpt lat="48.03299" lon="7.11954">
        <ele>399</ele>
        <time>2019-04-14T11:23:27Z</time>
      </trkpt>
      <trkpt lat="48.03304" lon="7.11956">
        <ele>399</ele>
        <time>2019-04-14T11:24:27Z</time>
      </trkpt>
      <trkpt lat="48.03311" lon="7.11958">
        <ele>399</ele>
        <time>2019-04-14T11:25:27Z</time>
      </trkpt>
      <trkpt lat="48.03311" lon="7.11958">
        <ele>399</ele>
        <time>2019-04-14T11:26:27Z</time>
      </trkpt>
      <trkpt lat="48.03325" lon="7.11996">
        <ele>398</ele>
        <time>2019-04-14T11:27:27Z</time>
      </trkpt>
      <trkpt lat="48.0333" lon="7.12007">
        <ele>398</ele>
        <time>2019-04-14T11:28:27Z</time>
      </trkpt>
      <trkpt lat="48.03337" lon="7.12012">
        <ele>398</ele>
        <time>2019-04-14T11:29:27Z</time>
      </trkpt>
      <trkpt lat="48.03344" lon="7.12013">
        <ele>398</ele>
        <time>2019-04-14T11:30:27Z</time>
      </trkpt>
      <trkpt lat="48.03351" lon="7.12013">
        <ele>398</ele>
        <time>2019-04-14T11:31:27Z</time>
      </trkpt>
      <trkpt lat="48.0337" lon="7.12007">
        <ele>399</ele>
        <time>2019-04-14T11:32:27Z</time>
      </trkpt>
      <trkpt lat="48.03419" lon="7.1199">
        <ele>400</ele>
        <time>2019-04-14T11:33:27Z</time>
      </trkpt>
      <trkpt lat="48.03472" lon="7.11975">
        <ele>399</ele>
        <time>2019-04-14T11:34:27Z</time>
      </trkpt>
      <trkpt lat="48.03491" lon="7.11969">
        <ele>399</ele>
        <time>2019-04-14T11:35:27Z</time>
      </trkpt>
      <trkpt lat="48.03505" lon="7.11963">
        <ele>399</ele>
        <time>2019-04-14T11:36:27Z</time>
      </trkpt>
      <trkpt lat="48.0352" lon="7.11956">
        <ele>400</ele>
        <time>2019-04-14T11:37:27Z</time>
      </trkpt>
      <trkpt lat="48.0355" lon="7.11934">
        <ele>401</ele>
        <time>2019-04-14T11:38:27Z</time>
      </trkpt>
      <trkpt lat="48.03553" lon="7.11932">
        <ele>401</ele>
        <time>2019-04-14T11:39:27Z</time>
      </trkpt>
      <trkpt lat="48.03568" lon="7.11925">
        <ele>402</ele>
        <time>2019-04-14T11:40:27Z</time>
      </trkpt>
      <trkpt lat="48.03571" lon="7.11923">
        <ele>402</ele>
        <time>2019-04-14T11:41:27Z</time>
      </trkpt>
      <trkpt lat="48.03585" lon="7.11918">
        <ele>402</ele>
        <time>2019-04-14T11:42:27Z</time>
      </trkpt>
      <trkpt lat="48.03608" lon="7.1191">
        <ele>408</ele>
        <time>2019-04-14T11:43:27Z</time>
      </trkpt>
      <trkpt lat="48.03608" lon="7.1191">
        <ele>408</ele>
        <time>2019-04-14T11:44:27Z</time>
      </trkpt>
      <trkpt lat="48.03624" lon="7.1193">
        <ele>409</ele>
        <time>2019-04-14T11:45:27Z</time>
      </trkpt>
      <trkpt lat="48.0364" lon="7.11954">
        <ele>409</ele>
        <time>2019-04-14T11:46:27Z</time>
      </trkpt>
      <trkpt lat="48.03645" lon="7.11963">
        <ele>409</ele>
        <time>2019-04-14T11:47:27Z</time>
      </trkpt>
      <trkpt lat="48.03655" lon="7.11981">
        <ele>408</ele>
        <time>2019-04-14T11:48:27Z</time>
      </trkpt>
      <trkpt lat="48.03665" lon="7.12001">
        <ele>406</ele>
        <time>2019-04-14T11:49:27Z</time>
      </trkpt>
      <trkpt lat="48.03675" lon="7.12025">
        <ele>407</ele>
        <time>2019-04-14T11:50:27Z</time>
      </trkpt>
      <trkpt lat="48.03684" lon="7.12052">
        <ele>406</ele>
        <time>2019-04-14T11:51:27Z</time>
      </trkpt>
      <trkpt lat="48.03692" lon="7.12079">
        <ele>405</ele>
        <time>2019-04-14T11:52:27Z</time>
      </trkpt>
      <trkpt lat="48.03699" lon="7.12107">
        <ele>405</ele>
        <time>2019-04-14T11:53:27Z</time>
      </trkpt>
      <trkpt lat="48.03711" lon="7.12161">
        <ele>404</ele>
        <time>2019-04-14T11:54:27Z</time>
      </trkpt>
      <trkpt lat="48.03719" lon="7.12197">
        <ele>404</ele>
        <time>2019-04-14T11:55:27Z</time>
      </trkpt>
      <trkpt lat="48.03733" lon="7.12263">
        <ele>403</ele>
        <time>2019-04-14T11:56:27Z</time>
      </trkpt>
      <trkpt lat="48.03749" lon="7.1233">
        <ele>401</ele>
        <time>2019-04-14T11:57:27Z</time>
      </trkpt>
      <trkpt lat="48.03758" lon="7.12372">
        <ele>401</ele>
        <time>2019-04-14T11:58:27Z</time>
      </trkpt>
      <trkpt lat="48.03771" lon="7.12428">
        <ele>400</ele>
        <time>2019-04-14T11:59:27Z</time>
      </trkpt>
      <trkpt lat="48.03777" lon="7.12447">
        <ele>400</ele>
        <time>2019-04-14T12:00:27Z</time>
      </trkpt>
      <trkpt lat="48.03781" lon="7.1246">
        <ele>400</ele>
        <time>2019-04-14T12:01:27Z</time>
      </trkpt>
      <trkpt lat="48.03786" lon="7.12472">
        <ele>399</ele>
        <time>2019-04-14T12:02:27Z</time>
      </trkpt>
      <trkpt lat="48.03793" lon="7.12485">
        <ele>399</ele>
        <time>2019-04-14T12:03:27Z</time>
      </trkpt>
      <trkpt lat="48.03801" lon="7.12499">
        <ele>398</ele>
        <time>2019-04-14T12:04:27Z</time>
      </trkpt>
      <trkpt lat="48.03817" lon="7.12522">
        <ele>398</ele>
        <time>2019-04-14T12:05:27Z</time>
      </trkpt>
      <trkpt lat="48.0383" lon="7.12544">
        <ele>398</ele>
        <time>2019-04-14T12:06:27Z</time>
      </trkpt>
      <trkpt lat="48.03843" lon="7.12566">
        <ele>399</ele>
        <time>2019-04-14T12:07:27Z</time>
      </trkpt>
      <trkpt lat="48.03851" lon="7.12583">
        <ele>399</ele>
        <time>2019-04-14T12:08:27Z</time>
      </trkpt>
      <trkpt lat="48.03881" lon="7.12653">
        <ele>399</ele>
        <time>2019-04-14T12:09:27Z</time>
      </trkpt>
      <trkpt lat="48.03903" lon="7.12687">
        <ele>398</ele>
        <time>2019-04-14T12:10:27Z</time>
      </trkpt>
      <trkpt lat="48.03914" lon="7.12708">
        <ele>397</ele>
        <time>2019-04-14T12:11:27Z</time>
      </trkpt>
      <trkpt lat="48.03924" lon="7.12726">
        <ele>396</ele>
        <time>2019-04-14T12:12:27Z</time>
      </trkpt>
      <trkpt lat="48.03936" lon="7.12751">
        <ele>396</ele>
        <time>2019-04-14T12:13:27Z</time>
      </trkpt>
      <trkpt lat="48.03945" lon="7.12771">
        <ele>396</ele>
        <time>2019-04-14T12:14:27Z</time>
      </trkpt>
      <trkpt lat="48.03956" lon="7.12799">
        <ele>396</ele>
        <time>2019-04-14T12:15:27Z</time>
      </trkpt>
      <trkpt lat="48.03963" lon="7.1282">
        <ele>396</ele>
        <time>2019-04-14T12:16:27Z</time>
      </trkpt>
      <trkpt lat="48.03966" lon="7.12828">
        <ele>396</ele>
        <time>2019-04-14T12:17:27Z</time>
      </trkpt>
      <trkpt lat="48.03968" lon="7.12836">
        <ele>396</ele>
        <time>2019-04-14T12:18:27Z</time>
      </trkpt>
      <trkpt lat="48.03971" lon="7.12846">
        <ele>396</ele>
        <time>2019-04-14T12:19:27Z</time>
      </trkpt>
      <trkpt lat="48.03973" lon="7.12854">
        <ele>396</ele>
        <time>2019-04-14T12:20:27Z</time>
      </trkpt>
      <trkpt lat="48.03973" lon="7.12863">
        <ele>396</ele>
        <time>2019-04-14T12:21:27Z</time>
      </trkpt>
      <trkpt lat="48.03973" lon="7.12863">
        <ele>396</ele>
        <time>2019-04-14T12:22:27Z</time>
      </trkpt>
      <trkpt lat="48.03973" lon="7.12864">
        <ele>396</ele>
        <time>2019-04-14T12:23:27Z</time>
      </trkpt>
      <trkpt lat="48.03972" lon="7.12864">
        <ele>396</ele>
        <time>2019-04-14T12:24:27Z</time>
      </trkpt>
      <trkpt lat="48.03972" lon="7.12865">
        <ele>396</ele>
        <time>2019-04-14T12:25:27Z</time>
      </trkpt>
      <trkpt lat="48.03971" lon="7.12865">
        <ele>396</ele>
        <time>2019-04-14T12:26:27Z</time>
      </trkpt>
      <trkpt lat="48.03971" lon="7.12866">
        <ele>396</ele>
        <time>2019-04-14T12:27:27Z</time>
      </trkpt>
      <trkpt lat="48.0397" lon="7.12867">
        <ele>395</ele>
        <time>2019-04-14T12:28:27Z</time>
      </trkpt>
      <trkpt lat="48.0397" lon="7.12868">
        <ele>395</ele>
        <time>2019-04-14T12:29:27Z</time>
      </trkpt>
      <trkpt lat="48.0397" lon="7.12869">
        <ele>395</ele>
        <time>2019-04-14T12:30:27Z</time>
      </trkpt>
      <trkpt lat="48.0397" lon="7.1287">
        <ele>395</ele>
        <time>2019-04-14T12:31:27Z</time>
      </trkpt>
      <trkpt lat="48.03969" lon="7.1287">
        <ele>395</ele>
        <time>2019-04-14T12:32:27Z</time>
      </trkpt>
      <trkpt lat="48.03969" lon="7.12871">
        <ele>395</ele>
        <time>2019-04-14T12:33:27Z</time>
      </trkpt>
      <trkpt lat="48.03969" lon="7.12872">
        <ele>395</ele>
        <time>2019-04-14T12:34:27Z</time>
      </trkpt>
      <trkpt lat="48.03969" lon="7.12873">
        <ele>395</ele>
        <time>2019-04-14T12:35:27Z</time>
      </trkpt>
      <trkpt lat="48.03969" lon="7.12874">
        <ele>395</ele>
        <time>2019-04-14T12:36:27Z</time>
      </trkpt>
      <trkpt lat="48.03969" lon="7.12875">
        <ele>395</ele>
        <time>2019-04-14T12:37:27Z</time>
      </trkpt>
      <trkpt lat="48.03969" lon="7.12876">
        <ele>395</ele>
        <time>2019-04-14T12:38:27Z</time>
      </trkpt>
      <trkpt lat="48.03969" lon="7.12877">
        <ele>395</ele>
        <time>2019-04-14T12:39:27Z</time>
      </trkpt>
      <trkpt lat="48.0397" lon="7.12877">
        <ele>395</ele>
        <time>2019-04-14T12:40:27Z</time>
      </trkpt>
      <trkpt lat="48.0397" lon="7.12878">
        <ele>395</ele>
        <time>2019-04-14T12:41:27Z</time>
      </trkpt>
      <trkpt lat="48.0397" lon="7.12879">
        <ele>395</ele>
        <time>2019-04-14T12:42:27Z</time>
      </trkpt>
      <trkpt lat="48.0397" lon="7.1288">
        <ele>395</ele>
        <time>2019-04-14T12:43:27Z</time>
      </trkpt>
      <trkpt lat="48.03971" lon="7.1288">
        <ele>395</ele>
        <time>2019-04-14T12:44:27Z</time>
      </trkpt>
      <trkpt lat="48.03971" lon="7.12881">
        <ele>395</ele>
        <time>2019-04-14T12:45:27Z</time>
      </trkpt>
      <trkpt lat="48.03971" lon="7.12882">
        <ele>395</ele>
        <time>2019-04-14T12:46:27Z</time>
      </trkpt>
      <trkpt lat="48.03972" lon="7.12882">
        <ele>395</ele>
        <time>2019-04-14T12:47:27Z</time>
      </trkpt>
      <trkpt lat="48.03972" lon="7.12883">
        <ele>395</ele>
        <time>2019-04-14T12:48:27Z</time>
      </trkpt>
      <trkpt lat="48.03971" lon="7.12897">
        <ele>395</ele>
        <time>2019-04-14T12:49:27Z</time>
      </trkpt>
      <trkpt lat="48.03971" lon="7.12901">
        <ele>395</ele>
        <time>2019-04-14T12:50:27Z</time>
      </trkpt>
      <trkpt lat="48.03971" lon="7.12906">
        <ele>395</ele>
        <time>2019-04-14T12:51:27Z</time>
      </trkpt>
      <trkpt lat="48.03973" lon="7.12961">
        <ele>393</ele>
        <time>2019-04-14T12:52:27Z</time>
      </trkpt>
      <trkpt lat="48.03976" lon="7.13053">
        <ele>390</ele>
        <time>2019-04-14T12:53:27Z</time>
      </trkpt>
      <trkpt lat="48.0398" lon="7.1313">
        <ele>388</ele>
        <time>2019-04-14T12:54:27Z</time>
      </trkpt>
      <trkpt lat="48.0398" lon="7.13147">
        <ele>388</ele>
        <time>2019-04-14T12:55:27Z</time>
      </trkpt>
      <trkpt lat="48.03981" lon="7.13163">
        <ele>388</ele>
        <time>2019-04-14T12:56:27Z</time>
      </trkpt>
      <trkpt lat="48.03984" lon="7.13237">
        <ele>385</ele>
        <time>2019-04-14T12:57:27Z</time>
      </trkpt>
      <trkpt lat="48.03984" lon="7.13256">
        <ele>385</ele>
        <time>2019-04-14T12:58:27Z</time>
      </trkpt>
      <trkpt lat="48.03989" lon="7.13377">
        <ele>386</ele>
        <time>2019-04-14T12:59:27Z</time>
      </trkpt>
      <trkpt lat="48.0399" lon="7.13395">
        <ele>386</ele>
        <time>2019-04-14T13:00:27Z</time>
      </trkpt>
      <trkpt lat="48.03993" lon="7.13448">
        <ele>385</ele>
        <time>2019-04-14T13:01:27Z</time>
      </trkpt>
      <trkpt lat="48.03997" lon="7.13518">
        <ele>384</ele>
        <time>2019-04-14T13:02:27Z</time>
      </trkpt>
      <trkpt lat="48.03997" lon="7.13532">
        <ele>384</ele>
        <time>2019-04-14T13:03:27Z</time>
      </trkpt>
      <trkpt lat="48.03998" lon="7.13541">
        <ele>384</ele>
        <time>2019-04-14T13:04:27Z</time>
      </trkpt>
      <trkpt lat="48.03997" lon="7.13545">
        <ele>384</ele>
        <time>2019-04-14T13:05:27Z</time>
      </trkpt>
      <trkpt lat="48.03997" lon="7.1355">
        <ele>385</ele>
        <time>2019-04-14T13:06:27Z</time>
      </trkpt>
      <trkpt lat="48.03996" lon="7.1356">
        <ele>385</ele>
        <time>2019-04-14T13:07:27Z</time>
      </trkpt>
      <trkpt lat="48.03995" lon="7.13567">
        <ele>385</ele>
        <time>2019-04-14T13:08:27Z</time>
      </trkpt>
      <trkpt lat="48.03992" lon="7.13575">
        <ele>385</ele>
        <time>2019-04-14T13:09:27Z</time>
      </trkpt>
      <trkpt lat="48.03988" lon="7.13585">
        <ele>385</ele>
        <time>2019-04-14T13:10:27Z</time>
      </trkpt>
      <trkpt lat="48.03984" lon="7.13594">
        <ele>385</ele>
        <time>2019-04-14T13:11:27Z</time>
      </trkpt>
      <trkpt lat="48.03981" lon="7.13598">
        <ele>385</ele>
        <time>2019-04-14T13:12:27Z</time>
      </trkpt>
      <trkpt lat="48.0398" lon="7.136">
        <ele>385</ele>
        <time>2019-04-14T13:13:27Z</time>
      </trkpt>
      <trkpt lat="48.03973" lon="7.13609">
        <ele>384</ele>
        <time>2019-04-14T13:14:27Z</time>
      </trkpt>
      <trkpt lat="48.03967" lon="7.13618">
        <ele>384</ele>
        <time>2019-04-14T13:15:27Z</time>
      </trkpt>
      <trkpt lat="48.03962" lon="7.13629">
        <ele>384</ele>
        <time>2019-04-14T13:16:27Z</time>
      </trkpt>
      <trkpt lat="48.03959" lon="7.13638">
        <ele>384</ele>
        <time>2019-04-14T13:17:27Z</time>
      </trkpt>
      <trkpt lat="48.03958" lon="7.13645">
        <ele>384</ele>
        <time>2019-04-14T13:18:27Z</time>
      </trkpt>
      <trkpt lat="48.03956" lon="7.13656">
        <ele>384</ele>
        <time>2019-04-14T13:19:27Z</time>
      </trkpt>
      <trkpt lat="48.03955" lon="7.1367">
        <ele>383</ele>
        <time>2019-04-14T13:20:27Z</time>
      </trkpt>
      <trkpt lat="48.03955" lon="7.13683">
        <ele>383</ele>
        <time>2019-04-14T13:21:27Z</time>
      </trkpt>
      <trkpt lat="48.03955" lon="7.13697">
        <ele>382</ele>
        <time>2019-04-14T13:22:27Z</time>
      </trkpt>
      <trkpt lat="48.03955" lon="7.13726">
        <ele>380</ele>
        <time>2019-04-14T13:23:27Z</time>
      </trkpt>
      <trkpt lat="48.03955" lon="7.13749">
        <ele>379</ele>
        <time>2019-04-14T13:24:27Z</time>
      </trkpt>
      <trkpt lat="48.03955" lon="7.13762">
        <ele>379</ele>
        <time>2019-04-14T13:25:27Z</time>
      </trkpt>
      <trkpt lat="48.03953" lon="7.13776">
        <ele>378</ele>
        <time>2019-04-14T13:26:27Z</time>
      </trkpt>
      <trkpt lat="48.03952" lon="7.13787">
        <ele>378</ele>
        <time>2019-04-14T13:27:27Z</time>
      </trkpt>
      <trkpt lat="48.03952" lon="7.1379">
        <ele>378</ele>
        <time>2019-04-14T13:28:27Z</time>
      </trkpt>
      <trkpt lat="48.0395" lon="7.13803">
        <ele>378</ele>
        <time>2019-04-14T13:29:27Z</time>
      </trkpt>
      <trkpt lat="48.03948" lon="7.13817">
        <ele>378</ele>
        <time>2019-04-14T13:30:27Z</time>
      </trkpt>
      <trkpt lat="48.03948" lon="7.13829">
        <ele>378</ele>
        <time>2019-04-14T13:31:27Z</time>
      </trkpt>
      <trkpt lat="48.03947" lon="7.13842">
        <ele>377</ele>
        <time>2019-04-14T13:32:27Z</time>
      </trkpt>
      <trkpt lat="48.03947" lon="7.13846">
        <ele>377</ele>
        <time>2019-04-14T13:33:27Z</time>
      </trkpt>
      <trkpt lat="48.03947" lon="7.13855">
        <ele>377</ele>
        <time>2019-04-14T13:34:27Z</time>
      </trkpt>
      <trkpt lat="48.03947" lon="7.13867">
        <ele>377</ele>
        <time>2019-04-14T13:35:27Z</time>
      </trkpt>
      <trkpt lat="48.03947" lon="7.1388">
        <ele>377</ele>
        <time>2019-04-14T13:36:27Z</time>
      </trkpt>
      <trkpt lat="48.03948" lon="7.13891">
        <ele>376</ele>
        <time>2019-04-14T13:37:27Z</time>
      </trkpt>
      <trkpt lat="48.03948" lon="7.13902">
        <ele>376</ele>
        <time>2019-04-14T13:38:27Z</time>
      </trkpt>
      <trkpt lat="48.03948" lon="7.13914">
        <ele>376</ele>
        <time>2019-04-14T13:39:27Z</time>
      </trkpt>
      <trkpt lat="48.03949" lon="7.13921">
        <ele>376</ele>
        <time>2019-04-14T13:40:27Z</time>
      </trkpt>
      <trkpt lat="48.03949" lon="7.13925">
        <ele>375</ele>
        <time>2019-04-14T13:41:27Z</time>
      </trkpt>
      <trkpt lat="48.03951" lon="7.1393">
        <ele>375</ele>
        <time>2019-04-14T13:42:27Z</time>
      </trkpt>
      <trkpt lat="48.03953" lon="7.13936">
        <ele>375</ele>
        <time>2019-04-14T13:43:27Z</time>
      </trkpt>
      <trkpt lat="48.03957" lon="7.13942">
        <ele>375</ele>
        <time>2019-04-14T13:44:27Z</time>
      </trkpt>
      <trkpt lat="48.03959" lon="7.13945">
        <ele>375</ele>
        <time>2019-04-14T13:45:27Z</time>
      </trkpt>
      <trkpt lat="48.03962" lon="7.1395">
        <ele>375</ele>
        <time>2019-04-14T13:46:27Z</time>
      </trkpt>
      <trkpt lat="48.03964" lon="7.13956">
        <ele>375</ele>
        <time>2019-04-14T13:47:27Z</time>
      </trkpt>
      <trkpt lat="48.03965" lon="7.13961">
        <ele>375</ele>
        <time>2019-04-14T13:48:27Z</time>
      </trkpt>
      <trkpt lat="48.03966" lon="7.13966">
        <ele>375</ele>
        <time>2019-04-14T13:49:27Z</time>
      </trkpt>
      <trkpt lat="48.03965" lon="7.13975">
        <ele>374</ele>
        <time>2019-04-14T13:50:27Z</time>
      </trkpt>
      <trkpt lat="48.03962" lon="7.13984">
        <ele>374</ele>
        <time>2019-04-14T13:51:27Z</time>
      </trkpt>
      <trkpt lat="48.03957" lon="7.13993">
        <ele>374</ele>
        <time>2019-04-14T13:52:27Z</time>
      </trkpt>
      <trkpt lat="48.03955" lon="7.13996">
        <ele>374</ele>
        <time>2019-04-14T13:53:27Z</time>
      </trkpt>
      <trkpt lat="48.03954" lon="7.13999">
        <ele>374</ele>
        <time>2019-04-14T13:54:27Z</time>
      </trkpt>
      <trkpt lat="48.03944" lon="7.14017">
        <ele>374</ele>
        <time>2019-04-14T13:55:27Z</time>
      </trkpt>
      <trkpt lat="48.03941" lon="7.14027">
        <ele>374</ele>
        <time>2019-04-14T13:56:27Z</time>
      </trkpt>
      <trkpt lat="48.03939" lon="7.1403">
        <ele>374</ele>
        <time>2019-04-14T13:57:27Z</time>
      </trkpt>
      <trkpt lat="48.03938" lon="7.14034">
        <ele>374</ele>
        <time>2019-04-14T13:58:27Z</time>
      </trkpt>
      <trkpt lat="48.03931" lon="7.14047">
        <ele>374</ele>
        <time>2019-04-14T13:59:27Z</time>
      </trkpt>
      <trkpt lat="48.03925" lon="7.14065">
        <ele>373</ele>
        <time>2019-04-14T14:00:27Z</time>
      </trkpt>
      <trkpt lat="48.0392" lon="7.14077">
        <ele>373</ele>
        <time>2019-04-14T14:01:27Z</time>
      </trkpt>
      <trkpt lat="48.03912" lon="7.14103">
        <ele>373</ele>
        <time>2019-04-14T14:02:27Z</time>
      </trkpt>
      <trkpt lat="48.03908" lon="7.14117">
        <ele>373</ele>
        <time>2019-04-14T14:03:27Z</time>
      </trkpt>
      <trkpt lat="48.03903" lon="7.14133">
        <ele>373</ele>
        <time>2019-04-14T14:04:27Z</time>
      </trkpt>
      <trkpt lat="48.03893" lon="7.14163">
        <ele>372</ele>
        <time>2019-04-14T14:05:27Z</time>
      </trkpt>
      <trkpt lat="48.0389" lon="7.14172">
        <ele>372</ele>
        <time>2019-04-14T14:06:27Z</time>
      </trkpt>
      <trkpt lat="48.03887" lon="7.14182">
        <ele>372</ele>
        <time>2019-04-14T14:07:27Z</time>
      </trkpt>
      <trkpt lat="48.03881" lon="7.142">
        <ele>373</ele>
        <time>2019-04-14T14:08:27Z</time>
      </trkpt>
      <trkpt lat="48.03878" lon="7.14212">
        <ele>373</ele>
        <time>2019-04-14T14:09:27Z</time>
      </trkpt>
      <trkpt lat="48.03877" lon="7.14221">
        <ele>373</ele>
        <time>2019-04-14T14:10:27Z</time>
      </trkpt>
      <trkpt lat="48.03877" lon="7.14228">
        <ele>373</ele>
        <time>2019-04-14T14:11:27Z</time>
      </trkpt>
      <trkpt lat="48.03877" lon="7.14233">
        <ele>373</ele>
        <time>2019-04-14T14:12:27Z</time>
      </trkpt>
      <trkpt lat="48.03878" lon="7.14236">
        <ele>373</ele>
        <time>2019-04-14T14:13:27Z</time>
      </trkpt>
      <trkpt lat="48.03879" lon="7.1424">
        <ele>373</ele>
        <time>2019-04-14T14:14:27Z</time>
      </trkpt>
      <trkpt lat="48.03881" lon="7.14246">
        <ele>373</ele>
        <time>2019-04-14T14:15:27Z</time>
      </trkpt>
      <trkpt lat="48.03884" lon="7.14256">
        <ele>373</ele>
        <time>2019-04-14T14:16:27Z</time>
      </trkpt>
      <trkpt lat="48.03895" lon="7.1428">
        <ele>373</ele>
        <time>2019-04-14T14:17:27Z</time>
      </trkpt>
      <trkpt lat="48.03896" lon="7.14284">
        <ele>373</ele>
        <time>2019-04-14T14:18:27Z</time>
      </trkpt>
      <trkpt lat="48.03914" lon="7.14328">
        <ele>372</ele>
        <time>2019-04-14T14:19:27Z</time>
      </trkpt>
      <trkpt lat="48.03925" lon="7.1436">
        <ele>371</ele>
        <time>2019-04-14T14:20:27Z</time>
      </trkpt>
      <trkpt lat="48.03935" lon="7.14383">
        <ele>371</ele>
        <time>2019-04-14T14:21:27Z</time>
      </trkpt>
      <trkpt lat="48.03943" lon="7.14406">
        <ele>370</ele>
        <time>2019-04-14T14:22:27Z</time>
      </trkpt>
      <trkpt lat="48.03946" lon="7.14417">
        <ele>370</ele>
        <time>2019-04-14T14:23:27Z</time>
      </trkpt>
      <trkpt lat="48.03946" lon="7.14417">
        <ele>370</ele>
        <time>2019-04-14T14:24:27Z</time>
      </trkpt>
      <trkpt lat="48.03997" lon="7.14385">
        <ele>372</ele>
        <time>2019-04-14T14:25:27Z</time>
      </trkpt>
      <trkpt lat="48.04002" lon="7.14382">
        <ele>372</ele>
        <time>2019-04-14T14:26:27Z</time>
      </trkpt>
      <trkpt lat="48.04034" lon="7.14361">
        <ele>373</ele>
        <time>2019-04-14T14:27:27Z</time>
      </trkpt>
      <trkpt lat="48.04051" lon="7.14358">
        <ele>373</ele>
        <time>2019-04-14T14:28:27Z</time>
      </trkpt>
      <trkpt lat="48.04066" lon="7.14359">
        <ele>373</ele>
        <time>2019-04-14T14:29:27Z</time>
      </trkpt>
      <trkpt lat="48.04079" lon="7.14366">
        <ele>373</ele>
        <time>2019-04-14T14:30:27Z</time>
      </trkpt>
      <trkpt lat="48.04087" lon="7.1437">
        <ele>373</ele>
        <time>2019-04-14T14:31:27Z</time>
      </trkpt>
      <trkpt lat="48.04094" lon="7.14374">
        <ele>373</ele>
        <time>2019-04-14T14:32:27Z</time>
      </trkpt>
      <trkpt lat="48.04097" lon="7.14377">
        <ele>373</ele>
        <time>2019-04-14T14:33:27Z</time>
      </trkpt>
      <trkpt lat="48.04106" lon="7.14384">
        <ele>372</ele>
        <time>2019-04-14T14:34:27Z</time>
      </trkpt>
      <trkpt lat="48.04117" lon="7.14389">
        <ele>372</ele>
        <time>2019-04-14T14:35:27Z</time>
      </trkpt>
      <trkpt lat="48.04126" lon="7.14391">
        <ele>372</ele>
        <time>2019-04-14T14:36:27Z</time>
      </trkpt>
      <trkpt lat="48.04133" lon="7.14388">
        <ele>372</ele>
        <time>2019-04-14T14:37:27Z</time>
      </trkpt>
      <trkpt lat="48.04139" lon="7.14384">
        <ele>372</ele>
        <time>2019-04-14T14:38:27Z</time>
      </trkpt>
      <trkpt lat="48.04145" lon="7.14378">
        <ele>372</ele>
        <time>2019-04-14T14:39:27Z</time>
      </trkpt>
      <trkpt lat="48.04154" lon="7.14378">
        <ele>372</ele>
        <time>2019-04-14T14:40:27Z</time>
      </trkpt>
      <trkpt lat="48.04185" lon="7.14352">
        <ele>372</ele>
        <time>2019-04-14T14:41:27Z</time>
      </trkpt>
      <trkpt lat="48.04185" lon="7.14352">
        <ele>372</ele>
        <time>2019-04-14T14:42:27Z</time>
      </trkpt>
      <trkpt lat="48.04194" lon="7.14369">
        <ele>372</ele>
        <time>2019-04-14T14:43:27Z</time>
      </trkpt>
      <trkpt lat="48.04199" lon="7.14382">
        <ele>372</ele>
        <time>2019-04-14T14:44:27Z</time>
      </trkpt>
      <trkpt lat="48.04203" lon="7.14392">
        <ele>372</ele>
        <time>2019-04-14T14:45:27Z</time>
      </trkpt>
      <trkpt lat="48.04205" lon="7.14397">
        <ele>372</ele>
        <time>2019-04-14T14:46:27Z</time>
      </trkpt>
      <trkpt lat="48.04209" lon="7.14409">
        <ele>372</ele>
        <time>2019-04-14T14:47:27Z</time>
      </trkpt>
      <trkpt lat="48.04216" lon="7.14443">
        <ele>371</ele>
        <time>2019-04-14T14:48:27Z</time>
      </trkpt>
      <trkpt lat="48.04225" lon="7.14483">
        <ele>370</ele>
        <time>2019-04-14T14:49:27Z</time>
      </trkpt>
      <trkpt lat="48.04231" lon="7.14508">
        <ele>370</ele>
        <time>2019-04-14T14:50:27Z</time>
      </trkpt>
      <trkpt lat="48.04234" lon="7.14522">
        <ele>370</ele>
        <time>2019-04-14T14:51:27Z</time>
      </trkpt>
      <trkpt lat="48.04238" lon="7.14537">
        <ele>370</ele>
        <time>2019-04-14T14:52:27Z</time>
      </trkpt>
      <trkpt lat="48.04242" lon="7.14548">
        <ele>371</ele>
        <time>2019-04-14T14:53:27Z</time>
      </trkpt>
      <trkpt lat="48.04249" lon="7.14566">
        <ele>371</ele>
        <time>2019-04-14T14:54:27Z</time>
      </trkpt>
      <trkpt lat="48.04257" lon="7.14581">
        <ele>372</ele>
        <time>2019-04-14T14:55:27Z</time>
      </trkpt>
      <trkpt lat="48.0427" lon="7.14605">
        <ele>375</ele>
        <time>2019-04-14T14:56:27Z</time>
      </trkpt>
      <trkpt lat="48.04276" lon="7.1462">
        <ele>376</ele>
        <time>2019-04-14T14:57:27Z</time>
      </trkpt>
      <trkpt lat="48.04279" lon="7.14628">
        <ele>377</ele>
        <time>2019-04-14T14:58:27Z</time>
      </trkpt>
      <trkpt lat="48.04282" lon="7.14641">
        <ele>378</ele>
        <time>2019-04-14T14:59:27Z</time>
      </trkpt>
      <trkpt lat="48.04285" lon="7.14652">
        <ele>379</ele>
        <time>2019-04-14T15:00:27Z</time>
      </trkpt>
      <trkpt lat="48.04293" lon="7.14699">
        <ele>380</ele>
        <time>2019-04-14T15:01:27Z</time>
      </trkpt>
      <trkpt lat="48.04302" lon="7.14763">
        <ele>380</ele>
        <time>2019-04-14T15:02:27Z</time>
      </trkpt>
      <trkpt lat="48.04307" lon="7.14787">
        <ele>382</ele>
        <time>2019-04-14T15:03:27Z</time>
      </trkpt>
      <trkpt lat="48.04309" lon="7.14804">
        <ele>382</ele>
        <time>2019-04-14T15:04:27Z</time>
      </trkpt>
      <trkpt lat="48.0431" lon="7.1481">
        <ele>382</ele>
        <time>2019-04-14T15:05:27Z</time>
      </trkpt>
      <trkpt lat="48.04312" lon="7.14825">
        <ele>383</ele>
        <time>2019-04-14T15:06:27Z</time>
      </trkpt>
      <trkpt lat="48.04313" lon="7.14835">
        <ele>383</ele>
        <time>2019-04-14T15:07:27Z</time>
      </trkpt>
      <trkpt lat="48.04313" lon="7.14843">
        <ele>383</ele>
        <time>2019-04-14T15:08:27Z</time>
      </trkpt>
      <trkpt lat="48.04314" lon="7.1486">
        <ele>383</ele>
        <time>2019-04-14T15:09:27Z</time>
      </trkpt>
      <trkpt lat="48.04314" lon="7.14881">
        <ele>383</ele>
        <time>2019-04-14T15:10:27Z</time>
      </trkpt>
      <trkpt lat="48.04314" lon="7.14894">
        <ele>383</ele>
        <time>2019-04-14T15:11:27Z</time>
      </trkpt>
      <trkpt lat="48.04314" lon="7.14905">
        <ele>383</ele>
        <time>2019-04-14T15:12:27Z</time>
      </trkpt>
      <trkpt lat="48.04315" lon="7.1492">
        <ele>382</ele>
        <time>2019-04-14T15:13:27Z</time>
      </trkpt>
      <trkpt lat="48.04316" lon="7.14932">
        <ele>382</ele>
        <time>2019-04-14T15:14:27Z</time>
      </trkpt>
      <trkpt lat="48.04317" lon="7.14943">
        <ele>381</ele>
        <time>2019-04-14T15:15:27Z</time>
      </trkpt>
      <trkpt lat="48.04319" lon="7.14954">
        <ele>381</ele>
        <time>2019-04-14T15:16:27Z</time>
      </trkpt>
      <trkpt lat="48.04324" lon="7.14974">
        <ele>380</ele>
        <time>2019-04-14T15:17:27Z</time>
      </trkpt>
      <trkpt lat="48.04327" lon="7.1499">
        <ele>380</ele>
        <time>2019-04-14T15:18:27Z</time>
      </trkpt>
      <trkpt lat="48.04333" lon="7.15011">
        <ele>379</ele>
        <time>2019-04-14T15:19:27Z</time>
      </trkpt>
      <trkpt lat="48.04344" lon="7.15065">
        <ele>376</ele>
        <time>2019-04-14T15:20:27Z</time>
      </trkpt>
      <trkpt lat="48.0435" lon="7.15087">
        <ele>375</ele>
        <time>2019-04-14T15:21:27Z</time>
      </trkpt>
      <trkpt lat="48.04349" lon="7.15112">
        <ele>372</ele>
        <time>2019-04-14T15:22:27Z</time>
      </trkpt>
      <trkpt lat="48.0436" lon="7.15168">
        <ele>367</ele>
        <time>2019-04-14T15:23:27Z</time>
      </trkpt>
      <trkpt lat="48.04363" lon="7.15183">
        <ele>368</ele>
        <time>2019-04-14T15:24:27Z</time>
      </trkpt>
      <trkpt lat="48.04369" lon="7.15212">
        <ele>368</ele>
        <time>2019-04-14T15:25:27Z</time>
      </trkpt>
      <trkpt lat="48.04375" lon="7.15243">
        <ele>367</ele>
        <time>2019-04-14T15:26:27Z</time>
      </trkpt>
      <trkpt lat="48.04388" lon="7.15303">
        <ele>368</ele>
        <time>2019-04-14T15:27:27Z</time>
      </trkpt>
      <trkpt lat="48.04397" lon="7.1534">
        <ele>367</ele>
        <time>2019-04-14T15:28:27Z</time>
      </trkpt>
      <trkpt lat="48.04403" lon="7.15371">
        <ele>366</ele>
        <time>2019-04-14T15:29:27Z</time>
      </trkpt>
      <trkpt lat="48.04407" lon="7.15393">
        <ele>365</ele>
        <time>2019-04-14T15:30:27Z</time>
      </trkpt>
      <trkpt lat="48.04408" lon="7.15411">
        <ele>364</ele>
        <time>2019-04-14T15:31:27Z</time>
      </trkpt>
      <trkpt lat="48.04409" lon="7.15438">
        <ele>364</ele>
        <time>2019-04-14T15:32:27Z</time>
      </trkpt>
      <trkpt lat="48.0441" lon="7.15444">
        <ele>364</ele>
        <time>2019-04-14T15:33:27Z</time>
      </trkpt>
      <trkpt lat="48.0441" lon="7.15461">
        <ele>364</ele>
        <time>2019-04-14T15:34:27Z</time>
      </trkpt>
      <trkpt lat="48.0441" lon="7.1547">
        <ele>364</ele>
        <time>2019-04-14T15:35:27Z</time>
      </trkpt>
      <trkpt lat="48.04408" lon="7.15489">
        <ele>363</ele>
        <time>2019-04-14T15:36:27Z</time>
      </trkpt>
      <trkpt lat="48.04408" lon="7.15489">
        <ele>363</ele>
        <time>2019-04-14T15:37:27Z</time>
      </trkpt>
      <trkpt lat="48.04406" lon="7.15504">
        <ele>363</ele>
        <time>2019-04-14T15:38:27Z</time>
      </trkpt>
      <trkpt lat="48.04414" lon="7.15507">
        <ele>364</ele>
        <time>2019-04-14T15:39:27Z</time>
      </trkpt>
      <trkpt lat="48.04442" lon="7.15514">
        <ele>367</ele>
        <time>2019-04-14T15:40:27Z</time>
      </trkpt>
      <trkpt lat="48.04445" lon="7.15519">
        <ele>368</ele>
        <time>2019-04-14T15:41:27Z</time>
      </trkpt>
      <trkpt lat="48.04446" lon="7.15521">
        <ele>368</ele>
        <time>2019-04-14T15:42:27Z</time>
      </trkpt>
      <trkpt lat="48.04447" lon="7.15523">
        <ele>368</ele>
        <time>2019-04-14T15:43:27Z</time>
      </trkpt>
      <trkpt lat="48.04449" lon="7.15531">
        <ele>368</ele>
        <time>2019-04-14T15:44:27Z</time>
      </trkpt>
      <trkpt lat="48.04455" lon="7.15561">
        <ele>369</ele>
        <time>2019-04-14T15:45:27Z</time>
      </trkpt>
      <trkpt lat="48.04456" lon="7.15573">
        <ele>369</ele>
        <time>2019-04-14T15:46:27Z</time>
      </trkpt>
      <trkpt lat="48.04457" lon="7.15581">
        <ele>369</ele>
        <time>2019-04-14T15:47:27Z</time>
      </trkpt>
      <trkpt lat="48.04457" lon="7.15596">
        <ele>368</ele>
        <time>2019-04-14T15:48:27Z</time>
      </trkpt>
      <trkpt lat="48.04457" lon="7.15619">
        <ele>368</ele>
        <time>2019-04-14T15:49:27Z</time>
      </trkpt>
      <trkpt lat="48.04458" lon="7.15651">
        <ele>367</ele>
        <time>2019-04-14T15:50:27Z</time>
      </trkpt>
      <trkpt lat="48.04459" lon="7.15684">
        <ele>366</ele>
        <time>2019-04-14T15:51:27Z</time>
      </trkpt>
      <trkpt lat="48.04462" lon="7.157">
        <ele>365</ele>
        <time>2019-04-14T15:52:27Z</time>
      </trkpt>
      <trkpt lat="48.04465" lon="7.15717">
        <ele>365</ele>
        <time>2019-04-14T15:53:27Z</time>
      </trkpt>
      <trkpt lat="48.0447" lon="7.15733">
        <ele>364</ele>
        <time>2019-04-14T15:54:27Z</time>
      </trkpt>
      <trkpt lat="48.0448" lon="7.15762">
        <ele>364</ele>
        <time>2019-04-14T15:55:27Z</time>
      </trkpt>
      <trkpt lat="48.04485" lon="7.1577">
        <ele>364</ele>
        <time>2019-04-14T15:56:27Z</time>
      </trkpt>
      <trkpt lat="48.04492" lon="7.15784">
        <ele>364</ele>
        <time>2019-04-14T15:57:27Z</time>
      </trkpt>
      <trkpt lat="48.04501" lon="7.15812">
        <ele>364</ele>
        <time>2019-04-14T15:58:27Z</time>
      </trkpt>
      <trkpt lat="48.0451" lon="7.15845">
        <ele>365</ele>
        <time>2019-04-14T15:59:27Z</time>
      </trkpt>
      <trkpt lat="48.04515" lon="7.15867">
        <ele>365</ele>
        <time>2019-04-14T16:00:27Z</time>
      </trkpt>
      <trkpt lat="48.04521" lon="7.15894">
        <ele>366</ele>
        <time>2019-04-14T16:01:27Z</time>
      </trkpt>
      <trkpt lat="48.04525" lon="7.15916">
        <ele>367</ele>
        <time>2019-04-14T16:02:27Z</time>
      </trkpt>
      <trkpt lat="48.04529" lon="7.15948">
        <ele>366</ele>
        <time>2019-04-14T16:03:27Z</time>
      </trkpt>
      <trkpt lat="48.04532" lon="7.15973">
        <ele>366</ele>
        <time>2019-04-14T16:04:27Z</time>
      </trkpt>
      <trkpt lat="48.04533" lon="7.15983">
        <ele>366</ele>
        <time>2019-04-14T16:05:27Z</time>
      </trkpt>
      <trkpt lat="48.04536" lon="7.16014">
        <ele>365</ele>
        <time>2019-04-14T16:06:27Z</time>
      </trkpt>
      <trkpt lat="48.04546" lon="7.16096">
        <ele>363</ele>
        <time>2019-04-14T16:07:27Z</time>
      </trkpt>
      <trkpt lat="48.0455" lon="7.16125">
        <ele>361</ele>
        <time>2019-04-14T16:08:27Z</time>
      </trkpt>
      <trkpt lat="48.04562" lon="7.16229">
        <ele>360</ele>
        <time>2019-04-14T16:09:27Z</time>
      </trkpt>
      <trkpt lat="48.04565" lon="7.16261">
        <ele>360</ele>
        <time>2019-04-14T16:10:27Z</time>
      </trkpt>
      <trkpt lat="48.04569" lon="7.16295">
        <ele>361</ele>
        <time>2019-04-14T16:11:27Z</time>
      </trkpt>
      <trkpt lat="48.04569" lon="7.16323">
        <ele>361</ele>
        <time>2019-04-14T16:12:27Z</time>
      </trkpt>
      <trkpt lat="48.04568" lon="7.16339">
        <ele>361</ele>
        <time>2019-04-14T16:13:27Z</time>
      </trkpt>
      <trkpt lat="48.04566" lon="7.16352">
        <ele>360</ele>
        <time>2019-04-14T16:14:27Z</time>
      </trkpt>
      <trkpt lat="48.04562" lon="7.16387">
        <ele>359</ele>
        <time>2019-04-14T16:15:27Z</time>
      </trkpt>
      <trkpt lat="48.04557" lon="7.16415">
        <ele>358</ele>
        <time>2019-04-14T16:16:27Z</time>
      </trkpt>
      <trkpt lat="48.04556" lon="7.16442">
        <ele>357</ele>
        <time>2019-04-14T16:17:27Z</time>
      </trkpt>
      <trkpt lat="48.04556" lon="7.16463">
        <ele>357</ele>
        <time>2019-04-14T16:18:27Z</time>
      </trkpt>
      <trkpt lat="48.04556" lon="7.1649">
        <ele>356</ele>
        <time>2019-04-14T16:19:27Z</time>
      </trkpt>
      <trkpt lat="48.04557" lon="7.16514">
        <ele>356</ele>
        <time>2019-04-14T16:20:27Z</time>
      </trkpt>
      <trkpt lat="48.04562" lon="7.1657">
        <ele>359</ele>
        <time>2019-04-14T16:21:27Z</time>
      </trkpt>
      <trkpt lat="48.04559" lon="7.16603">
        <ele>360</ele>
        <time>2019-04-14T16:22:27Z</time>
      </trkpt>
      <trkpt lat="48.04558" lon="7.16634">
        <ele>361</ele>
        <time>2019-04-14T16:23:27Z</time>
      </trkpt>
      <trkpt lat="48.04558" lon="7.16701">
        <ele>362</ele>
        <time>2019-04-14T16:24:27Z</time>
      </trkpt>
      <trkpt lat="48.04563" lon="7.16789">
        <ele>363</ele>
        <time>2019-04-14T16:25:27Z</time>
      </trkpt>
      <trkpt lat="48.04565" lon="7.16843">
        <ele>363</ele>
        <time>2019-04-14T16:26:27Z</time>
      </trkpt>
      <trkpt lat="48.04567" lon="7.16918">
        <ele>361</ele>
        <time>2019-04-14T16:27:27Z</time>
      </trkpt>
      <trkpt lat="48.04569" lon="7.16968">
        <ele>359</ele>
        <time>2019-04-14T16:28:27Z</time>
      </trkpt>
      <trkpt lat="48.04568" lon="7.17013">
        <ele>357</ele>
        <time>2019-04-14T16:29:27Z</time>
      </trkpt>
      <trkpt lat="48.04567" lon="7.1705">
        <ele>355</ele>
        <time>2019-04-14T16:30:27Z</time>
      </trkpt>
      <trkpt lat="48.04567" lon="7.1707">
        <ele>353</ele>
        <time>2019-04-14T16:31:27Z</time>
      </trkpt>
      <trkpt lat="48.04569" lon="7.17086">
        <ele>352</ele>
        <time>2019-04-14T16:32:27Z</time>
      </trkpt>
      <trkpt lat="48.04572" lon="7.17102">
        <ele>352</ele>
        <time>2019-04-14T16:33:27Z</time>
      </trkpt>
      <trkpt lat="48.04576" lon="7.17115">
        <ele>351</ele>
        <time>2019-04-14T16:34:27Z</time>
      </trkpt>
      <trkpt lat="48.04583" lon="7.17138">
        <ele>350</ele>
        <time>2019-04-14T16:35:27Z</time>
      </trkpt>
      <trkpt lat="48.04608" lon="7.17203">
        <ele>352</ele>
        <time>2019-04-14T16:36:27Z</time>
      </trkpt>
      <trkpt lat="48.04613" lon="7.17217">
        <ele>352</ele>
        <time>2019-04-14T16:37:27Z</time>
      </trkpt>
      <trkpt lat="48.04616" lon="7.17228">
        <ele>352</ele>
        <time>2019-04-14T16:38:27Z</time>
      </trkpt>
      <trkpt lat="48.04619" lon="7.17238">
        <ele>352</ele>
        <time>2019-04-14T16:39:27Z</time>
      </trkpt>
      <trkpt lat="48.0462" lon="7.17243">
        <ele>351</ele>
        <time>2019-04-14T16:40:27Z</time>
      </trkpt>
      <trkpt lat="48.04624" lon="7.17253">
        <ele>351</ele>
        <time>2019-04-14T16:41:27Z</time>
      </trkpt>
      <trkpt lat="48.04629" lon="7.17266">
        <ele>351</ele>
        <time>2019-04-14T16:42:27Z</time>
      </trkpt>
      <trkpt lat="48.04631" lon="7.17271">
        <ele>351</ele>
        <time>2019-04-14T16:43:27Z</time>
      </trkpt>
      <trkpt lat="48.04633" lon="7.17277">
        <ele>351</ele>
        <time>2019-04-14T16:44:27Z</time>
      </trkpt>
      <trkpt lat="48.04635" lon="7.17282">
        <ele>351</ele>
        <time>2019-04-14T16:45:27Z</time>
      </trkpt>
      <trkpt lat="48.0464" lon="7.17303">
        <ele>350</ele>
        <time>2019-04-14T16:46:27Z</time>
      </trkpt>
      <trkpt lat="48.04646" lon="7.17322">
        <ele>350</ele>
        <time>2019-04-14T16:47:27Z</time>
      </trkpt>
      <trkpt lat="48.04647" lon="7.17327">
        <ele>350</ele>
        <time>2019-04-14T16:48:27Z</time>
      </trkpt>
      <trkpt lat="48.04648" lon="7.17334">
        <ele>349</ele>
        <time>2019-04-14T16:49:27Z</time>
      </trkpt>
      <trkpt lat="48.04649" lon="7.17341">
        <ele>349</ele>
        <time>2019-04-14T16:50:27Z</time>
      </trkpt>
      <trkpt lat="48.04649" lon="7.17349">
        <ele>349</ele>
        <time>2019-04-14T16:51:27Z</time>
      </trkpt>
      <trkpt lat="48.04649" lon="7.17364">
        <ele>349</ele>
        <time>2019-04-14T16:52:27Z</time>
      </trkpt>
      <trkpt lat="48.04648" lon="7.17379">
        <ele>348</ele>
        <time>2019-04-14T16:53:27Z</time>
      </trkpt>
      <trkpt lat="48.04645" lon="7.17401">
        <ele>347</ele>
        <time>2019-04-14T16:54:27Z</time>
      </trkpt>
      <trkpt lat="48.04643" lon="7.17417">
        <ele>347</ele>
        <time>2019-04-14T16:55:27Z</time>
      </trkpt>
      <trkpt lat="48.04635" lon="7.17462">
        <ele>346</ele>
        <time>2019-04-14T16:56:27Z</time>
      </trkpt>
      <trkpt lat="48.04633" lon="7.17475">
        <ele>346</ele>
        <time>2019-04-14T16:57:27Z</time>
      </trkpt>
      <trkpt lat="48.04631" lon="7.17491">
        <ele>346</ele>
        <time>2019-04-14T16:58:27Z</time>
      </trkpt>
      <trkpt lat="48.04631" lon="7.17503">
        <ele>346</ele>
        <time>2019-04-14T16:59:27Z</time>
      </trkpt>
      <trkpt lat="48.04632" lon="7.17519">
        <ele>346</ele>
        <time>2019-04-14T17:00:27Z</time>
      </trkpt>
      <trkpt lat="48.04633" lon="7.1753">
        <ele>346</ele>
        <time>2019-04-14T17:01:27Z</time>
      </trkpt>
      <trkpt lat="48.04634" lon="7.17536">
        <ele>346</ele>
        <time>2019-04-14T17:02:27Z</time>
      </trkpt>
      <trkpt lat="48.04634" lon="7.1754">
        <ele>346</ele>
        <time>2019-04-14T17:03:27Z</time>
      </trkpt>
      <trkpt lat="48.04637" lon="7.17568">
        <ele>346</ele>
        <time>2019-04-14T17:04:27Z</time>
      </trkpt>
      <trkpt lat="48.04638" lon="7.17598">
        <ele>346</ele>
        <time>2019-04-14T17:05:27Z</time>
      </trkpt>
      <trkpt lat="48.04639" lon="7.17609">
        <ele>345</ele>
        <time>2019-04-14T17:06:27Z</time>
      </trkpt>
      <trkpt lat="48.04639" lon="7.17625">
        <ele>345</ele>
        <time>2019-04-14T17:07:27Z</time>
      </trkpt>
      <trkpt lat="48.04638" lon="7.17636">
        <ele>345</ele>
        <time>2019-04-14T17:08:27Z</time>
      </trkpt>
      <trkpt lat="48.04638" lon="7.17642">
        <ele>345</ele>
        <time>2019-04-14T17:09:27Z</time>
      </trkpt>
      <trkpt lat="48.04633" lon="7.17677">
        <ele>343</ele>
        <time>2019-04-14T17:10:27Z</time>
      </trkpt>
      <trkpt lat="48.04631" lon="7.1771">
        <ele>343</ele>
        <time>2019-04-14T17:11:27Z</time>
      </trkpt>
      <trkpt lat="48.04629" lon="7.17731">
        <ele>343</ele>
        <time>2019-04-14T17:12:27Z</time>
      </trkpt>
      <trkpt lat="48.04626" lon="7.17792">
        <ele>341</ele>
        <time>2019-04-14T17:13:27Z</time>
      </trkpt>
      <trkpt lat="48.04625" lon="7.17816">
        <ele>340</ele>
        <time>2019-04-14T17:14:27Z</time>
      </trkpt>
      <trkpt lat="48.04625" lon="7.1783">
        <ele>340</ele>
        <time>2019-04-14T17:15:27Z</time>
      </trkpt>
      <trkpt lat="48.04625" lon="7.17853">
        <ele>339</ele>
        <time>2019-04-14T17:16:27Z</time>
      </trkpt>
      <trkpt lat="48.04627" lon="7.17887">
        <ele>339</ele>
        <time>2019-04-14T17:17:27Z</time>
      </trkpt>
      <trkpt lat="48.04633" lon="7.17922">
        <ele>338</ele>
        <time>2019-04-14T17:18:27Z</time>
      </trkpt>
      <trkpt lat="48.04642" lon="7.17961">
        <ele>336</ele>
        <time>2019-04-14T17:19:27Z</time>
      </trkpt>
      <trkpt lat="48.04653" lon="7.18003">
        <ele>335</ele>
        <time>2019-04-14T17:20:27Z</time>
      </trkpt>
      <trkpt lat="48.04682" lon="7.18105">
        <ele>335</ele>
        <time>2019-04-14T17:21:27Z</time>
      </trkpt>
      <trkpt lat="48.04724" lon="7.18254">
        <ele>333</ele>
        <time>2019-04-14T17:22:27Z</time>
      </trkpt>
      <trkpt lat="48.04742" lon="7.18316">
        <ele>332</ele>
        <time>2019-04-14T17:23:27Z</time>
      </trkpt>
      <trkpt lat="48.04743" lon="7.18319">
        <ele>332</ele>
        <time>2019-04-14T17:24:27Z</time>
      </trkpt>
      <trkpt lat="48.04746" lon="7.1833">
        <ele>332</ele>
        <time>2019-04-14T17:25:27Z</time>
      </trkpt>
      <trkpt lat="48.0476" lon="7.18379">
        <ele>333</ele>
        <time>2019-04-14T17:26:27Z</time>
      </trkpt>
      <trkpt lat="48.04783" lon="7.18459">
        <ele>335</ele>
        <time>2019-04-14T17:27:27Z</time>
      </trkpt>
      <trkpt lat="48.04794" lon="7.18501">
        <ele>335</ele>
        <time>2019-04-14T17:28:27Z</time>
      </trkpt>
      <trkpt lat="48.04804" lon="7.18549">
        <ele>336</ele>
        <time>2019-04-14T17:29:27Z</time>
      </trkpt>
      <trkpt lat="48.04808" lon="7.18572">
        <ele>336</ele>
        <time>2019-04-14T17:30:27Z</time>
      </trkpt>
      <trkpt lat="48.04812" lon="7.18599">
        <ele>335</ele>
        <time>2019-04-14T17:31:27Z</time>
      </trkpt>
      <trkpt lat="48.04815" lon="7.18623">
        <ele>335</ele>
        <time>2019-04-14T17:32:27Z</time>
      </trkpt>
      <trkpt lat="48.04815" lon="7.18628">
        <ele>335</ele>
        <time>2019-04-14T17:33:27Z</time>
      </trkpt>
      <trkpt lat="48.04819" lon="7.18666">
        <ele>335</ele>
        <time>2019-04-14T17:34:27Z</time>
      </trkpt>
      <trkpt lat="48.04821" lon="7.18683">
        <ele>335</ele>
        <time>2019-04-14T17:35:27Z</time>
      </trkpt>
      <trkpt lat="48.04827" lon="7.18778">
        <ele>331</ele>
        <time>2019-04-14T17:36:27Z</time>
      </trkpt>
      <trkpt lat="48.04831" lon="7.18817">
        <ele>330</ele>
        <time>2019-04-14T17:37:27Z</time>
      </trkpt>
      <trkpt lat="48.04836" lon="7.18856">
        <ele>329</ele>
        <time>2019-04-14T17:38:27Z</time>
      </trkpt>
      <trkpt lat="48.04842" lon="7.18888">
        <ele>329</ele>
        <time>2019-04-14T17:39:27Z</time>
      </trkpt>
      <trkpt lat="48.04844" lon="7.18903">
        <ele>329</ele>
        <time>2019-04-14T17:40:27Z</time>
      </trkpt>
      <trkpt lat="48.0485" lon="7.18934">
        <ele>328</ele>
        <time>2019-04-14T17:41:27Z</time>
      </trkpt>
      <trkpt lat="48.04863" lon="7.18993">
        <ele>327</ele>
        <time>2019-04-14T17:42:27Z</time>
      </trkpt>
      <trkpt lat="48.04886" lon="7.19096">
        <ele>324</ele>
        <time>2019-04-14T17:43:27Z</time>
      </trkpt>
      <trkpt lat="48.04908" lon="7.19186">
        <ele>324</ele>
        <time>2019-04-14T17:44:27Z</time>
      </trkpt>
      <trkpt lat="48.04921" lon="7.19243">
        <ele>323</ele>
        <time>2019-04-14T17:45:27Z</time>
      </trkpt>
      <trkpt lat="48.04923" lon="7.19252">
        <ele>324</ele>
        <time>2019-04-14T17:46:27Z</time>
      </trkpt>
      <trkpt lat="48.0493" lon="7.19286">
        <ele>324</ele>
        <time>2019-04-14T17:47:27Z</time>
      </trkpt>
      <trkpt lat="48.04936" lon="7.19321">
        <ele>323</ele>
        <time>2019-04-14T17:48:27Z</time>
      </trkpt>
      <trkpt lat="48.04943" lon="7.19357">
        <ele>323</ele>
        <time>2019-04-14T17:49:27Z</time>
      </trkpt>
      <trkpt lat="48.04955" lon="7.194">
        <ele>323</ele>
        <time>2019-04-14T17:50:27Z</time>
      </trkpt>
      <trkpt lat="48.04964" lon="7.19429">
        <ele>323</ele>
        <time>2019-04-14T17:51:27Z</time>
      </trkpt>
      <trkpt lat="48.04974" lon="7.19453">
        <ele>323</ele>
        <time>2019-04-14T17:52:27Z</time>
      </trkpt>
      <trkpt lat="48.04983" lon="7.19474">
        <ele>322</ele>
        <time>2019-04-14T17:53:27Z</time>
      </trkpt>
      <trkpt lat="48.05" lon="7.19512">
        <ele>322</ele>
        <time>2019-04-14T17:54:27Z</time>
      </trkpt>
      <trkpt lat="48.05031" lon="7.19576">
        <ele>321</ele>
        <time>2019-04-14T17:55:27Z</time>
      </trkpt>
      <trkpt lat="48.05055" lon="7.19629">
        <ele>321</ele>
        <time>2019-04-14T17:56:27Z</time>
      </trkpt>
      <trkpt lat="48.05058" lon="7.19638">
        <ele>321</ele>
        <time>2019-04-14T17:57:27Z</time>
      </trkpt>
      <trkpt lat="48.05062" lon="7.1965">
        <ele>321</ele>
        <time>2019-04-14T17:58:27Z</time>
      </trkpt>
      <trkpt lat="48.05066" lon="7.19657">
        <ele>321</ele>
        <time>2019-04-14T17:59:27Z</time>
      </trkpt>
      <trkpt lat="48.05075" lon="7.19677">
        <ele>321</ele>
        <time>2019-04-14T18:00:27Z</time>
      </trkpt>
      <trkpt lat="48.05085" lon="7.197">
        <ele>321</ele>
        <time>2019-04-14T18:01:27Z</time>
      </trkpt>
      <trkpt lat="48.05097" lon="7.1973">
        <ele>323</ele>
        <time>2019-04-14T18:02:27Z</time>
      </trkpt>
      <trkpt lat="48.05105" lon="7.19747">
        <ele>323</ele>
        <time>2019-04-14T18:03:27Z</time>
      </trkpt>
      <trkpt lat="48.05111" lon="7.19761">
        <ele>324</ele>
        <time>2019-04-14T18:04:27Z</time>
      </trkpt>
      <trkpt lat="48.05125" lon="7.19796">
        <ele>325</ele>
        <time>2019-04-14T18:05:27Z</time>
      </trkpt>
      <trkpt lat="48.05136" lon="7.19829">
        <ele>325</ele>
        <time>2019-04-14T18:06:27Z</time>
      </trkpt>
      <trkpt lat="48.05145" lon="7.19864">
        <ele>325</ele>
        <time>2019-04-14T18:07:27Z</time>
      </trkpt>
      <trkpt lat="48.05148" lon="7.19872">
        <ele>325</ele>
        <time>2019-04-14T18:08:27Z</time>
      </trkpt>
      <trkpt lat="48.05161" lon="7.19921">
        <ele>324</ele>
        <time>2019-04-14T18:09:27Z</time>
      </trkpt>
      <trkpt lat="48.0517" lon="7.19959">
        <ele>325</ele>
        <time>2019-04-14T18:10:27Z</time>
      </trkpt>
      <trkpt lat="48.05179" lon="7.20002">
        <ele>326</ele>
        <time>2019-04-14T18:11:27Z</time>
      </trkpt>
      <trkpt lat="48.05187" lon="7.2005">
        <ele>327</ele>
        <time>2019-04-14T18:12:27Z</time>
      </trkpt>
      <trkpt lat="48.05195" lon="7.20097">
        <ele>328</ele>
        <time>2019-04-14T18:13:27Z</time>
      </trkpt>
      <trkpt lat="48.052" lon="7.20129">
        <ele>329</ele>
        <time>2019-04-14T18:14:27Z</time>
      </trkpt>
      <trkpt lat="48.05203" lon="7.20148">
        <ele>329</ele>
        <time>2019-04-14T18:15:27Z</time>
      </trkpt>
      <trkpt lat="48.05206" lon="7.2018">
        <ele>328</ele>
        <time>2019-04-14T18:16:27Z</time>
      </trkpt>
      <trkpt lat="48.05207" lon="7.20201">
        <ele>328</ele>
        <time>2019-04-14T18:17:27Z</time>
      </trkpt>
      <trkpt lat="48.05208" lon="7.20219">
        <ele>327</ele>
        <time>2019-04-14T18:18:27Z</time>
      </trkpt>
      <trkpt lat="48.05207" lon="7.20246">
        <ele>326</ele>
        <time>2019-04-14T18:19:27Z</time>
      </trkpt>
      <trkpt lat="48.05206" lon="7.20269">
        <ele>326</ele>
        <time>2019-04-14T18:20:27Z</time>
      </trkpt>
      <trkpt lat="48.05204" lon="7.20299">
        <ele>325</ele>
        <time>2019-04-14T18:21:27Z</time>
      </trkpt>
      <trkpt lat="48.05204" lon="7.20316">
        <ele>325</ele>
        <time>2019-04-14T18:22:27Z</time>
      </trkpt>
      <trkpt lat="48.05203" lon="7.20343">
        <ele>324</ele>
        <time>2019-04-14T18:23:27Z</time>
      </trkpt>
      <trkpt lat="48.05204" lon="7.20359">
        <ele>324</ele>
        <time>2019-04-14T18:24:27Z</time>
      </trkpt>
      <trkpt lat="48.05208" lon="7.2039">
        <ele>324</ele>
        <time>2019-04-14T18:25:27Z</time>
      </trkpt>
      <trkpt lat="48.05212" lon="7.20427">
        <ele>324</ele>
        <time>2019-04-14T18:26:27Z</time>
      </trkpt>
      <trkpt lat="48.05216" lon="7.20468">
        <ele>323</ele>
        <time>2019-04-14T18:27:27Z</time>
      </trkpt>
      <trkpt lat="48.05216" lon="7.20492">
        <ele>323</ele>
        <time>2019-04-14T18:28:27Z</time>
      </trkpt>
      <trkpt lat="48.05216" lon="7.20517">
        <ele>322</ele>
        <time>2019-04-14T18:29:27Z</time>
      </trkpt>
      <trkpt lat="48.05217" lon="7.20532">
        <ele>321</ele>
        <time>2019-04-14T18:30:27Z</time>
      </trkpt>
      <trkpt lat="48.05219" lon="7.20544">
        <ele>321</ele>
        <time>2019-04-14T18:31:27Z</time>
      </trkpt>
      <trkpt lat="48.05221" lon="7.20557">
        <ele>320</ele>
        <time>2019-04-14T18:32:27Z</time>
      </trkpt>
      <trkpt lat="48.05225" lon="7.20572">
        <ele>320</ele>
        <time>2019-04-14T18:33:27Z</time>
      </trkpt>
      <trkpt lat="48.05232" lon="7.20592">
        <ele>319</ele>
        <time>2019-04-14T18:34:27Z</time>
      </trkpt>
      <trkpt lat="48.05241" lon="7.20614">
        <ele>319</ele>
        <time>2019-04-14T18:35:27Z</time>
      </trkpt>
      <trkpt lat="48.05252" lon="7.20637">
        <ele>319</ele>
        <time>2019-04-14T18:36:27Z</time>
      </trkpt>
      <trkpt lat="48.05272" lon="7.20672">
        <ele>319</ele>
        <time>2019-04-14T18:37:27Z</time>
      </trkpt>
      <trkpt lat="48.05292" lon="7.20708">
        <ele>318</ele>
        <time>2019-04-14T18:38:27Z</time>
      </trkpt>
      <trkpt lat="48.05305" lon="7.20734">
        <ele>317</ele>
        <time>2019-04-14T18:39:27Z</time>
      </trkpt>
      <trkpt lat="48.05308" lon="7.20742">
        <ele>317</ele>
        <time>2019-04-14T18:40:27Z</time>
      </trkpt>
      <trkpt lat="48.05316" lon="7.20763">
        <ele>317</ele>
        <time>2019-04-14T18:41:27Z</time>
      </trkpt>
      <trkpt lat="48.0532" lon="7.20776">
        <ele>316</ele>
        <time>2019-04-14T18:42:27Z</time>
      </trkpt>
      <trkpt lat="48.05327" lon="7.20797">
        <ele>316</ele>
        <time>2019-04-14T18:43:27Z</time>
      </trkpt>
      <trkpt lat="48.05345" lon="7.20841">
        <ele>315</ele>
        <time>2019-04-14T18:44:27Z</time>
      </trkpt>
      <trkpt lat="48.05347" lon="7.20853">
        <ele>314</ele>
        <time>2019-04-14T18:45:27Z</time>
      </trkpt>
      <trkpt lat="48.0535" lon="7.20863">
        <ele>314</ele>
        <time>2019-04-14T18:46:27Z</time>
      </trkpt>
      <trkpt lat="48.0535" lon="7.20864">
        <ele>314</ele>
        <time>2019-04-14T18:47:27Z</time>
      </trkpt>
      <trkpt lat="48.0535" lon="7.20865">
        <ele>314</ele>
        <time>2019-04-14T18:48:27Z</time>
      </trkpt>
      <trkpt lat="48.0535" lon="7.20866">
        <ele>314</ele>
        <time>2019-04-14T18:49:27Z</time>
      </trkpt>
      <trkpt lat="48.0535" lon="7.20867">
        <ele>314</ele>
        <time>2019-04-14T18:50:27Z</time>
      </trkpt>
      <trkpt lat="48.0535" lon="7.20868">
        <ele>314</ele>
        <time>2019-04-14T18:51:27Z</time>
      </trkpt>
      <trkpt lat="48.05351" lon="7.20869">
        <ele>314</ele>
        <time>2019-04-14T18:52:27Z</time>
      </trkpt>
      <trkpt lat="48.05351" lon="7.2087">
        <ele>314</ele>
        <time>2019-04-14T18:53:27Z</time>
      </trkpt>
      <trkpt lat="48.05352" lon="7.2087">
        <ele>314</ele>
        <time>2019-04-14T18:54:27Z</time>
      </trkpt>
      <trkpt lat="48.05352" lon="7.20871">
        <ele>314</ele>
        <time>2019-04-14T18:55:27Z</time>
      </trkpt>
      <trkpt lat="48.05353" lon="7.20871">
        <ele>314</ele>
        <time>2019-04-14T18:56:27Z</time>
      </trkpt>
      <trkpt lat="48.05354" lon="7.20871">
        <ele>314</ele>
        <time>2019-04-14T18:57:27Z</time>
      </trkpt>
      <trkpt lat="48.05355" lon="7.20871">
        <ele>314</ele>
        <time>2019-04-14T18:58:27Z</time>
      </trkpt>
      <trkpt lat="48.05358" lon="7.20878">
        <ele>313</ele>
        <time>2019-04-14T18:59:27Z</time>
      </trkpt>
      <trkpt lat="48.05367" lon="7.20888">
        <ele>313</ele>
        <time>2019-04-14T19:00:27Z</time>
      </trkpt>
      <trkpt lat="48.05376" lon="7.20904">
        <ele>313</ele>
        <time>2019-04-14T19:01:27Z</time>
      </trkpt>
      <trkpt lat="48.05385" lon="7.20917">
        <ele>312</ele>
        <time>2019-04-14T19:02:27Z</time>
      </trkpt>
      <trkpt lat="48.054" lon="7.20942">
        <ele>312</ele>
        <time>2019-04-14T19:03:27Z</time>
      </trkpt>
      <trkpt lat="48.05428" lon="7.20985">
        <ele>311</ele>
        <time>2019-04-14T19:04:27Z</time>
      </trkpt>
      <trkpt lat="48.05453" lon="7.21022">
        <ele>310</ele>
        <time>2019-04-14T19:05:27Z</time>
      </trkpt>
      <trkpt lat="48.05478" lon="7.21055">
        <ele>309</ele>
        <time>2019-04-14T19:06:27Z</time>
      </trkpt>
      <trkpt lat="48.05507" lon="7.21096">
        <ele>308</ele>
        <time>2019-04-14T19:07:27Z</time>
      </trkpt>
      <trkpt lat="48.05548" lon="7.21153">
        <ele>308</ele>
        <time>2019-04-14T19:08:27Z</time>
      </trkpt>
      <trkpt lat="48.05569" lon="7.21184">
        <ele>308</ele>
        <time>2019-04-14T19:09:27Z</time>
      </trkpt>
      <trkpt lat="48.05578" lon="7.21195">
        <ele>307</ele>
        <time>2019-04-14T19:10:27Z</time>
      </trkpt>
      <trkpt lat="48.05583" lon="7.21202">
        <ele>307</ele>
        <time>2019-04-14T19:11:27Z</time>
      </trkpt>
      <trkpt lat="48.05607" lon="7.21235">
        <ele>307</ele>
        <time>2019-04-14T19:12:27Z</time>
      </trkpt>
      <trkpt lat="48.05629" lon="7.21267">
        <ele>307</ele>
        <time>2019-04-14T19:13:27Z</time>
      </trkpt>
      <trkpt lat="48.05641" lon="7.21283">
        <ele>307</ele>
        <time>2019-04-14T19:14:27Z</time>
      </trkpt>
      <trkpt lat="48.05675" lon="7.21329">
        <ele>307</ele>
        <time>2019-04-14T19:15:27Z</time>
      </trkpt>
      <trkpt lat="48.05697" lon="7.21362">
        <ele>306</ele>
        <time>2019-04-14T19:16:27Z</time>
      </trkpt>
      <trkpt lat="48.05709" lon="7.21379">
        <ele>306</ele>
        <time>2019-04-14T19:17:27Z</time>
      </trkpt>
      <trkpt lat="48.05731" lon="7.21416">
        <ele>305</ele>
        <time>2019-04-14T19:18:27Z</time>
      </trkpt>
      <trkpt lat="48.05741" lon="7.21436">
        <ele>305</ele>
        <time>2019-04-14T19:19:27Z</time>
      </trkpt>
      <trkpt lat="48.05746" lon="7.21446">
        <ele>304</ele>
        <time>2019-04-14T19:20:27Z</time>
      </trkpt>
      <trkpt lat="48.05755" lon="7.21467">
        <ele>304</ele>
        <time>2019-04-14T19:21:27Z</time>
      </trkpt>
      <trkpt lat="48.0576" lon="7.21479">
        <ele>304</ele>
        <time>2019-04-14T19:22:27Z</time>
      </trkpt>
      <trkpt lat="48.05764" lon="7.21489">
        <ele>303</ele>
        <time>2019-04-14T19:23:27Z</time>
      </trkpt>
      <trkpt lat="48.05788" lon="7.21548">
        <ele>304</ele>
        <time>2019-04-14T19:24:27Z</time>
      </trkpt>
      <trkpt lat="48.05815" lon="7.21612">
        <ele>303</ele>
        <time>2019-04-14T19:25:27Z</time>
      </trkpt>
      <trkpt lat="48.05831" lon="7.21649">
        <ele>303</ele>
        <time>2019-04-14T19:26:27Z</time>
      </trkpt>
      <trkpt lat="48.0584" lon="7.21675">
        <ele>302</ele>
        <time>2019-04-14T19:27:27Z</time>
      </trkpt>
      <trkpt lat="48.05851" lon="7.21707">
        <ele>302</ele>
        <time>2019-04-14T19:28:27Z</time>
      </trkpt>
      <trkpt lat="48.05856" lon="7.21719">
        <ele>302</ele>
        <time>2019-04-14T19:29:27Z</time>
      </trkpt>
      <trkpt lat="48.05893" lon="7.21805">
        <ele>302</ele>
        <time>2019-04-14T19:30:27Z</time>
      </trkpt>
      <trkpt lat="48.05899" lon="7.21818">
        <ele>302</ele>
        <time>2019-04-14T19:31:27Z</time>
      </trkpt>
      <trkpt lat="48.05904" lon="7.21831">
        <ele>302</ele>
        <time>2019-04-14T19:32:27Z</time>
      </trkpt>
      <trkpt lat="48.05916" lon="7.21857">
        <ele>303</ele>
        <time>2019-04-14T19:33:27Z</time>
      </trkpt>
      <trkpt lat="48.05931" lon="7.21895">
        <ele>305</ele>
        <time>2019-04-14T19:34:27Z</time>
      </trkpt>
      <trkpt lat="48.05946" lon="7.2193">
        <ele>306</ele>
        <time>2019-04-14T19:35:27Z</time>
      </trkpt>
      <trkpt lat="48.05956" lon="7.21954">
        <ele>307</ele>
        <time>2019-04-14T19:36:27Z</time>
      </trkpt>
      <trkpt lat="48.05963" lon="7.21971">
        <ele>307</ele>
        <time>2019-04-14T19:37:27Z</time>
      </trkpt>
      <trkpt lat="48.05971" lon="7.21986">
        <ele>308</ele>
        <time>2019-04-14T19:38:27Z</time>
      </trkpt>
      <trkpt lat="48.05979" lon="7.22">
        <ele>309</ele>
        <time>2019-04-14T19:39:27Z</time>
      </trkpt>
      <trkpt lat="48.06" lon="7.2203">
        <ele>312</ele>
        <time>2019-04-14T19:40:27Z</time>
      </trkpt>
      <trkpt lat="48.06011" lon="7.22045">
        <ele>313</ele>
        <time>2019-04-14T19:41:27Z</time>
      </trkpt>
      <trkpt lat="48.06046" lon="7.22089">
        <ele>316</ele>
        <time>2019-04-14T19:42:27Z</time>
      </trkpt>
      <trkpt lat="48.06067" lon="7.22121">
        <ele>317</ele>
        <time>2019-04-14T19:43:27Z</time>
      </trkpt>
      <trkpt lat="48.06088" lon="7.22154">
        <ele>319</ele>
        <time>2019-04-14T19:44:27Z</time>
      </trkpt>
      <trkpt lat="48.06108" lon="7.22183">
        <ele>321</ele>
        <time>2019-04-14T19:45:27Z</time>
      </trkpt>
      <trkpt lat="48.06138" lon="7.22229">
        <ele>321</ele>
        <time>2019-04-14T19:46:27Z</time>
      </trkpt>
      <trkpt lat="48.06158" lon="7.22263">
        <ele>320</ele>
        <time>2019-04-14T19:47:27Z</time>
      </trkpt>
      <trkpt lat="48.06179" lon="7.22297">
        <ele>320</ele>
        <time>2019-04-14T19:48:27Z</time>
      </trkpt>
      <trkpt lat="48.06195" lon="7.22316">
        <ele>320</ele>
        <time>2019-04-14T19:49:27Z</time>
      </trkpt>
      <trkpt lat="48.0621" lon="7.22332">
        <ele>320</ele>
        <time>2019-04-14T19:50:27Z</time>
      </trkpt>
      <trkpt lat="48.06218" lon="7.22341">
        <ele>320</ele>
        <time>2019-04-14T19:51:27Z</time>
      </trkpt>
      <trkpt lat="48.06225" lon="7.22347">
        <ele>320</ele>
        <time>2019-04-14T19:52:27Z</time>
      </trkpt>
      <trkpt lat="48.06234" lon="7.22362">
        <ele>320</ele>
        <time>2019-04-14T19:53:27Z</time>
      </trkpt>
      <trkpt lat="48.06243" lon="7.22381">
        <ele>319</ele>
        <time>2019-04-14T19:54:27Z</time>
      </trkpt>
      <trkpt lat="48.06254" lon="7.22405">
        <ele>319</ele>
        <time>2019-04-14T19:55:27Z</time>
      </trkpt>
      <trkpt lat="48.06269" lon="7.22437">
        <ele>318</ele>
        <time>2019-04-14T19:56:27Z</time>
      </trkpt>
      <trkpt lat="48.06279" lon="7.22467">
        <ele>318</ele>
        <time>2019-04-14T19:57:27Z</time>
      </trkpt>
      <trkpt lat="48.06285" lon="7.22489">
        <ele>317</ele>
        <time>2019-04-14T19:58:27Z</time>
      </trkpt>
      <trkpt lat="48.06287" lon="7.22502">
        <ele>317</ele>
        <time>2019-04-14T19:59:27Z</time>
      </trkpt>
      <trkpt lat="48.06292" lon="7.22524">
        <ele>317</ele>
        <time>2019-04-14T20:00:27Z</time>
      </trkpt>
      <trkpt lat="48.06295" lon="7.22542">
        <ele>317</ele>
        <time>2019-04-14T20:01:27Z</time>
      </trkpt>
      <trkpt lat="48.06305" lon="7.22596">
        <ele>317</ele>
        <time>2019-04-14T20:02:27Z</time>
      </trkpt>
      <trkpt lat="48.06313" lon="7.22641">
        <ele>318</ele>
        <time>2019-04-14T20:03:27Z</time>
      </trkpt>
      <trkpt lat="48.06318" lon="7.22671">
        <ele>318</ele>
        <time>2019-04-14T20:04:27Z</time>
      </trkpt>
      <trkpt lat="48.0632" lon="7.22683">
        <ele>318</ele>
        <time>2019-04-14T20:05:27Z</time>
      </trkpt>
      <trkpt lat="48.06325" lon="7.22705">
        <ele>317</ele>
        <time>2019-04-14T20:06:27Z</time>
      </trkpt>
      <trkpt lat="48.06335" lon="7.22751">
        <ele>316</ele>
        <time>2019-04-14T20:07:27Z</time>
      </trkpt>
      <trkpt lat="48.06337" lon="7.22758">
        <ele>316</ele>
        <time>2019-04-14T20:08:27Z</time>
      </trkpt>
      <trkpt lat="48.06342" lon="7.22777">
        <ele>316</ele>
        <time>2019-04-14T20:09:27Z</time>
      </trkpt>
      <trkpt lat="48.06358" lon="7.22826">
        <ele>315</ele>
        <time>2019-04-14T20:10:27Z</time>
      </trkpt>
      <trkpt lat="48.06371" lon="7.22864">
        <ele>313</ele>
        <time>2019-04-14T20:11:27Z</time>
      </trkpt>
      <trkpt lat="48.06376" lon="7.22874">
        <ele>313</ele>
        <time>2019-04-14T20:12:27Z</time>
      </trkpt>
      <trkpt lat="48.06384" lon="7.22893">
        <ele>312</ele>
        <time>2019-04-14T20:13:27Z</time>
      </trkpt>
      <trkpt lat="48.06394" lon="7.22911">
        <ele>312</ele>
        <time>2019-04-14T20:14:27Z</time>
      </trkpt>
      <trkpt lat="48.06406" lon="7.22929">
        <ele>311</ele>
        <time>2019-04-14T20:15:27Z</time>
      </trkpt>
      <trkpt lat="48.06408" lon="7.22931">
        <ele>311</ele>
        <time>2019-04-14T20:16:27Z</time>
      </trkpt>
      <trkpt lat="48.06424" lon="7.22952">
        <ele>309</ele>
        <time>2019-04-14T20:17:27Z</time>
      </trkpt>
      <trkpt lat="48.06436" lon="7.22963">
        <ele>308</ele>
        <time>2019-04-14T20:18:27Z</time>
      </trkpt>
      <trkpt lat="48.06439" lon="7.22966">
        <ele>308</ele>
        <time>2019-04-14T20:19:27Z</time>
      </trkpt>
      <trkpt lat="48.06459" lon="7.22986">
        <ele>306</ele>
        <time>2019-04-14T20:20:27Z</time>
      </trkpt>
      <trkpt lat="48.0648" lon="7.23006">
        <ele>303</ele>
        <time>2019-04-14T20:21:27Z</time>
      </trkpt>
      <trkpt lat="48.06509" lon="7.23032">
        <ele>300</ele>
        <time>2019-04-14T20:22:27Z</time>
      </trkpt>
      <trkpt lat="48.0653" lon="7.23047">
        <ele>299</ele>
        <time>2019-04-14T20:23:27Z</time>
      </trkpt>
      <trkpt lat="48.06538" lon="7.23051">
        <ele>299</ele>
        <time>2019-04-14T20:24:27Z</time>
      </trkpt>
      <trkpt lat="48.06553" lon="7.23057">
        <ele>298</ele>
        <time>2019-04-14T20:25:27Z</time>
      </trkpt>
      <trkpt lat="48.06571" lon="7.23063">
        <ele>298</ele>
        <time>2019-04-14T20:26:27Z</time>
      </trkpt>
      <trkpt lat="48.06584" lon="7.23066">
        <ele>298</ele>
        <time>2019-04-14T20:27:27Z</time>
      </trkpt>
      <trkpt lat="48.06594" lon="7.23068">
        <ele>298</ele>
        <time>2019-04-14T20:28:27Z</time>
      </trkpt>
      <trkpt lat="48.06596" lon="7.23069">
        <ele>297</ele>
        <time>2019-04-14T20:29:27Z</time>
      </trkpt>
      <trkpt lat="48.06613" lon="7.23074">
        <ele>297</ele>
        <time>2019-04-14T20:30:27Z</time>
      </trkpt>
      <trkpt lat="48.06623" lon="7.23078">
        <ele>296</ele>
        <time>2019-04-14T20:31:27Z</time>
      </trkpt>
      <trkpt lat="48.06633" lon="7.23081">
        <ele>296</ele>
        <time>2019-04-14T20:32:27Z</time>
      </trkpt>
      <trkpt lat="48.06642" lon="7.23086">
        <ele>295</ele>
        <time>2019-04-14T20:33:27Z</time>
      </trkpt>
      <trkpt lat="48.06651" lon="7.23091">
        <ele>294</ele>
        <time>2019-04-14T20:34:27Z</time>
      </trkpt>
      <trkpt lat="48.06658" lon="7.23096">
        <ele>294</ele>
        <time>2019-04-14T20:35:27Z</time>
      </trkpt>
      <trkpt lat="48.06667" lon="7.231">
        <ele>293</ele>
        <time>2019-04-14T20:36:27Z</time>
      </trkpt>
      <trkpt lat="48.06681" lon="7.23109">
        <ele>293</ele>
        <time>2019-04-14T20:37:27Z</time>
      </trkpt>
      <trkpt lat="48.06683" lon="7.2311">
        <ele>293</ele>
        <time>2019-04-14T20:38:27Z</time>
      </trkpt>
      <trkpt lat="48.0676" lon="7.23157">
        <ele>293</ele>
        <time>2019-04-14T20:39:27Z</time>
      </trkpt>
      <trkpt lat="48.06762" lon="7.23158">
        <ele>293</ele>
        <time>2019-04-14T20:40:27Z</time>
      </trkpt>
      <trkpt lat="48.06769" lon="7.23162">
        <ele>293</ele>
        <time>2019-04-14T20:41:27Z</time>
      </trkpt>
      <trkpt lat="48.06802" lon="7.23182">
        <ele>291</ele>
        <time>2019-04-14T20:42:27Z</time>
      </trkpt>
      <trkpt lat="48.06804" lon="7.23183">
        <ele>291</ele>
        <time>2019-04-14T20:43:27Z</time>
      </trkpt>
      <trkpt lat="48.06848" lon="7.2321">
        <ele>291</ele>
        <time>2019-04-14T20:44:27Z</time>
      </trkpt>
      <trkpt lat="48.06862" lon="7.2322">
        <ele>291</ele>
        <time>2019-04-14T20:45:27Z</time>
      </trkpt>
      <trkpt lat="48.06868" lon="7.23225">
        <ele>290</ele>
        <time>2019-04-14T20:46:27Z</time>
      </trkpt>
      <trkpt lat="48.06871" lon="7.23228">
        <ele>290</ele>
        <time>2019-04-14T20:47:27Z</time>
      </trkpt>
      <trkpt lat="48.06874" lon="7.23231">
        <ele>290</ele>
        <time>2019-04-14T20:48:27Z</time>
      </trkpt>
      <trkpt lat="48.06878" lon="7.23234">
        <ele>290</ele>
        <time>2019-04-14T20:49:27Z</time>
      </trkpt>
      <trkpt lat="48.0688" lon="7.23236">
        <ele>290</ele>
        <time>2019-04-14T20:50:27Z</time>
      </trkpt>
      <trkpt lat="48.06884" lon="7.2324">
        <ele>290</ele>
        <time>2019-04-14T20:51:27Z</time>
      </trkpt>
      <trkpt lat="48.06896" lon="7.23254">
        <ele>290</ele>
        <time>2019-04-14T20:52:27Z</time>
      </trkpt>
      <trkpt lat="48.06904" lon="7.23264">
        <ele>290</ele>
        <time>2019-04-14T20:53:27Z</time>
      </trkpt>
      <trkpt lat="48.06913" lon="7.23277">
        <ele>289</ele>
        <time>2019-04-14T20:54:27Z</time>
      </trkpt>
      <trkpt lat="48.06919" lon="7.23287">
        <ele>289</ele>
        <time>2019-04-14T20:55:27Z</time>
      </trkpt>
      <trkpt lat="48.06923" lon="7.23296">
        <ele>289</ele>
        <time>2019-04-14T20:56:27Z</time>
      </trkpt>
      <trkpt lat="48.06928" lon="7.23308">
        <ele>290</ele>
        <time>2019-04-14T20:57:27Z</time>
      </trkpt>
      <trkpt lat="48.06952" lon="7.23368">
        <ele>290</ele>
        <time>2019-04-14T20:58:27Z</time>
      </trkpt>
      <trkpt lat="48.06965" lon="7.23405">
        <ele>289</ele>
        <time>2019-04-14T20:59:27Z</time>
      </trkpt>
      <trkpt lat="48.06977" lon="7.23439">
        <ele>289</ele>
        <time>2019-04-14T21:00:27Z</time>
      </trkpt>
      <trkpt lat="48.06984" lon="7.23458">
        <ele>288</ele>
        <time>2019-04-14T21:01:27Z</time>
      </trkpt>
      <trkpt lat="48.07017" lon="7.23528">
        <ele>287</ele>
        <time>2019-04-14T21:02:27Z</time>
      </trkpt>
      <trkpt lat="48.07022" lon="7.23539">
        <ele>287</ele>
        <time>2019-04-14T21:03:27Z</time>
      </trkpt>
      <trkpt lat="48.07046" lon="7.23594">
        <ele>286</ele>
        <time>2019-04-14T21:04:27Z</time>
      </trkpt>
      <trkpt lat="48.07054" lon="7.23607">
        <ele>287</ele>
        <time>2019-04-14T21:05:27Z</time>
      </trkpt>
      <trkpt lat="48.07062" lon="7.23621">
        <ele>287</ele>
        <time>2019-04-14T21:06:27Z</time>
      </trkpt>
      <trkpt lat="48.0707" lon="7.23635">
        <ele>287</ele>
        <time>2019-04-14T21:07:27Z</time>
      </trkpt>
      <trkpt lat="48.07076" lon="7.23644">
        <ele>287</ele>
        <time>2019-04-14T21:08:27Z</time>
      </trkpt>
      <trkpt lat="48.07081" lon="7.23652">
        <ele>288</ele>
        <time>2019-04-14T21:09:27Z</time>
      </trkpt>
      <trkpt lat="48.07086" lon="7.23658">
        <ele>288</ele>
        <time>2019-04-14T21:10:27Z</time>
      </trkpt>
      <trkpt lat="48.0709" lon="7.23663">
        <ele>288</ele>
        <time>2019-04-14T21:11:27Z</time>
      </trkpt>
      <trkpt lat="48.07093" lon="7.23667">
        <ele>288</ele>
        <time>2019-04-14T21:12:27Z</time>
      </trkpt>
      <trkpt lat="48.07108" lon="7.23683">
        <ele>288</ele>
        <time>2019-04-14T21:13:27Z</time>
      </trkpt>
      <trkpt lat="48.07119" lon="7.23694">
        <ele>288</ele>
        <time>2019-04-14T21:14:27Z</time>
      </trkpt>
      <trkpt lat="48.07125" lon="7.237">
        <ele>288</ele>
        <time>2019-04-14T21:15:27Z</time>
      </trkpt>
      <trkpt lat="48.07129" lon="7.23703">
        <ele>289</ele>
        <time>2019-04-14T21:16:27Z</time>
      </trkpt>
      <trkpt lat="48.07133" lon="7.23706">
        <ele>289</ele>
        <time>2019-04-14T21:17:27Z</time>
      </trkpt>
      <trkpt lat="48.0714" lon="7.2371">
        <ele>289</ele>
        <time>2019-04-14T21:18:27Z</time>
      </trkpt>
      <trkpt lat="48.07147" lon="7.23714">
        <ele>289</ele>
        <time>2019-04-14T21:19:27Z</time>
      </trkpt>
      <trkpt lat="48.07158" lon="7.23719">
        <ele>290</ele>
        <time>2019-04-14T21:20:27Z</time>
      </trkpt>
      <trkpt lat="48.07177" lon="7.23725">
        <ele>290</ele>
        <time>2019-04-14T21:21:27Z</time>
      </trkpt>
      <trkpt lat="48.07198" lon="7.23732">
        <ele>291</ele>
        <time>2019-04-14T21:22:27Z</time>
      </trkpt>
      <trkpt lat="48.07205" lon="7.23733">
        <ele>291</ele>
        <time>2019-04-14T21:23:27Z</time>
      </trkpt>
      <trkpt lat="48.07214" lon="7.23737">
        <ele>291</ele>
        <time>2019-04-14T21:24:27Z</time>
      </trkpt>
      <trkpt lat="48.07225" lon="7.2374">
        <ele>291</ele>
        <time>2019-04-14T21:25:27Z</time>
      </trkpt>
      <trkpt lat="48.07236" lon="7.23744">
        <ele>292</ele>
        <time>2019-04-14T21:26:27Z</time>
      </trkpt>
      <trkpt lat="48.07259" lon="7.23753">
        <ele>292</ele>
        <time>2019-04-14T21:27:27Z</time>
      </trkpt>
      <trkpt lat="48.07278" lon="7.23761">
        <ele>292</ele>
        <time>2019-04-14T21:28:27Z</time>
      </trkpt>
      <trkpt lat="48.07291" lon="7.23766">
        <ele>292</ele>
        <time>2019-04-14T21:29:27Z</time>
      </trkpt>
      <trkpt lat="48.07298" lon="7.23771">
        <ele>292</ele>
        <time>2019-04-14T21:30:27Z</time>
      </trkpt>
      <trkpt lat="48.07304" lon="7.23776">
        <ele>292</ele>
        <time>2019-04-14T21:31:27Z</time>
      </trkpt>
      <trkpt lat="48.07308" lon="7.2378">
        <ele>292</ele>
        <time>2019-04-14T21:32:27Z</time>
      </trkpt>
      <trkpt lat="48.07311" lon="7.23785">
        <ele>292</ele>
        <time>2019-04-14T21:33:27Z</time>
      </trkpt>
      <trkpt lat="48.07325" lon="7.23798">
        <ele>291</ele>
        <time>2019-04-14T21:34:27Z</time>
      </trkpt>
      <trkpt lat="48.07348" lon="7.23821">
        <ele>291</ele>
        <time>2019-04-14T21:35:27Z</time>
      </trkpt>
      <trkpt lat="48.07363" lon="7.23837">
        <ele>292</ele>
        <time>2019-04-14T21:36:27Z</time>
      </trkpt>
      <trkpt lat="48.07371" lon="7.23852">
        <ele>292</ele>
        <time>2019-04-14T21:37:27Z</time>
      </trkpt>
      <trkpt lat="48.07375" lon="7.23861">
        <ele>292</ele>
        <time>2019-04-14T21:38:27Z</time>
      </trkpt>
      <trkpt lat="48.07378" lon="7.23869">
        <ele>292</ele>
        <time>2019-04-14T21:39:27Z</time>
      </trkpt>
      <trkpt lat="48.07385" lon="7.23891">
        <ele>291</ele>
        <time>2019-04-14T21:40:27Z</time>
      </trkpt>
      <trkpt lat="48.07401" lon="7.2396">
        <ele>288</ele>
        <time>2019-04-14T21:41:27Z</time>
      </trkpt>
      <trkpt lat="48.07417" lon="7.24029">
        <ele>283</ele>
        <time>2019-04-14T21:42:27Z</time>
      </trkpt>
      <trkpt lat="48.0742" lon="7.24043">
        <ele>283</ele>
        <time>2019-04-14T21:43:27Z</time>
      </trkpt>
      <trkpt lat="48.07437" lon="7.2412">
        <ele>280</ele>
        <time>2019-04-14T21:44:27Z</time>
      </trkpt>
      <trkpt lat="48.07446" lon="7.24157">
        <ele>279</ele>
        <time>2019-04-14T21:45:27Z</time>
      </trkpt>
      <trkpt lat="48.07451" lon="7.24172">
        <ele>278</ele>
        <time>2019-04-14T21:46:27Z</time>
      </trkpt>
      <trkpt lat="48.07455" lon="7.24185">
        <ele>278</ele>
        <time>2019-04-14T21:47:27Z</time>
      </trkpt>
      <trkpt lat="48.07459" lon="7.24196">
        <ele>277</ele>
        <time>2019-04-14T21:48:27Z</time>
      </trkpt>
      <trkpt lat="48.07463" lon="7.24206">
        <ele>277</ele>
        <time>2019-04-14T21:49:27Z</time>
      </trkpt>
      <trkpt lat="48.07467" lon="7.24213">
        <ele>277</ele>
        <time>2019-04-14T21:50:27Z</time>
      </trkpt>
      <trkpt lat="48.07471" lon="7.24221">
        <ele>276</ele>
        <time>2019-04-14T21:51:27Z</time>
      </trkpt>
      <trkpt lat="48.07488" lon="7.24248">
        <ele>275</ele>
        <time>2019-04-14T21:52:27Z</time>
      </trkpt>
      <trkpt lat="48.07522" lon="7.24302">
        <ele>274</ele>
        <time>2019-04-14T21:53:27Z</time>
      </trkpt>
      <trkpt lat="48.07527" lon="7.24309">
        <ele>274</ele>
        <time>2019-04-14T21:54:27Z</time>
      </trkpt>
      <trkpt lat="48.07548" lon="7.24343">
        <ele>273</ele>
        <time>2019-04-14T21:55:27Z</time>
      </trkpt>
      <trkpt lat="48.07563" lon="7.24365">
        <ele>272</ele>
        <time>2019-04-14T21:56:27Z</time>
      </trkpt>
      <trkpt lat="48.07574" lon="7.24382">
        <ele>271</ele>
        <time>2019-04-14T21:57:27Z</time>
      </trkpt>
      <trkpt lat="48.07586" lon="7.24394">
        <ele>271</ele>
        <time>2019-04-14T21:58:27Z</time>
      </trkpt>
      <trkpt lat="48.07598" lon="7.24404">
        <ele>270</ele>
        <time>2019-04-14T21:59:27Z</time>
      </trkpt>
      <trkpt lat="48.076" lon="7.24405">
        <ele>270</ele>
        <time>2019-04-14T22:00:27Z</time>
      </trkpt>
      <trkpt lat="48.07666" lon="7.24453">
        <ele>267</ele>
        <time>2019-04-14T22:01:27Z</time>
      </trkpt>
      <trkpt lat="48.07695" lon="7.24473">
        <ele>267</ele>
        <time>2019-04-14T22:02:27Z</time>
      </trkpt>
      <trkpt lat="48.07738" lon="7.24504">
        <ele>266</ele>
        <time>2019-04-14T22:03:27Z</time>
      </trkpt>
      <trkpt lat="48.07752" lon="7.24514">
        <ele>265</ele>
        <time>2019-04-14T22:04:27Z</time>
      </trkpt>
      <trkpt lat="48.07781" lon="7.24535">
        <ele>265</ele>
        <time>2019-04-14T22:05:27Z</time>
      </trkpt>
      <trkpt lat="48.07785" lon="7.24539">
        <ele>265</ele>
        <time>2019-04-14T22:06:27Z</time>
      </trkpt>
      <trkpt lat="48.07789" lon="7.24542">
        <ele>266</ele>
        <time>2019-04-14T22:07:27Z</time>
      </trkpt>
      <trkpt lat="48.07793" lon="7.24547">
        <ele>265</ele>
        <time>2019-04-14T22:08:27Z</time>
      </trkpt>
      <trkpt lat="48.07798" lon="7.24553">
        <ele>265</ele>
        <time>2019-04-14T22:09:27Z</time>
      </trkpt>
      <trkpt lat="48.07799" lon="7.24554">
        <ele>265</ele>
        <time>2019-04-14T22:10:27Z</time>
      </trkpt>
      <trkpt lat="48.07811" lon="7.2457">
        <ele>265</ele>
        <time>2019-04-14T22:11:27Z</time>
      </trkpt>
      <trkpt lat="48.07811" lon="7.2457">
        <ele>265</ele>
        <time>2019-04-14T22:12:27Z</time>
      </trkpt>
      <trkpt lat="48.0782" lon="7.24574">
        <ele>266</ele>
        <time>2019-04-14T22:13:27Z</time>
      </trkpt>
      <trkpt lat="48.07821" lon="7.24575">
        <ele>266</ele>
        <time>2019-04-14T22:14:27Z</time>
      </trkpt>
      <trkpt lat="48.07833" lon="7.24583">
        <ele>266</ele>
        <time>2019-04-14T22:15:27Z</time>
      </trkpt>
      <trkpt lat="48.07859" lon="7.24601">
        <ele>267</ele>
        <time>2019-04-14T22:16:27Z</time>
      </trkpt>
      <trkpt lat="48.07891" lon="7.24628">
        <ele>269</ele>
        <time>2019-04-14T22:17:27Z</time>
      </trkpt>
      <trkpt lat="48.07894" lon="7.24629">
        <ele>269</ele>
        <time>2019-04-14T22:18:27Z</time>
      </trkpt>
      <trkpt lat="48.07897" lon="7.24629">
        <ele>269</ele>
        <time>2019-04-14T22:19:27Z</time>
      </trkpt>
      <trkpt lat="48.079" lon="7.24627">
        <ele>270</ele>
        <time>2019-04-14T22:20:27Z</time>
      </trkpt>
      <trkpt lat="48.0791" lon="7.24638">
        <ele>270</ele>
        <time>2019-04-14T22:21:27Z</time>
      </trkpt>
      <trkpt lat="48.07918" lon="7.24651">
        <ele>270</ele>
        <time>2019-04-14T22:22:27Z</time>
      </trkpt>
      <trkpt lat="48.07928" lon="7.24672">
        <ele>272</ele>
        <time>2019-04-14T22:23:27Z</time>
      </trkpt>
      <trkpt lat="48.07939" lon="7.24699">
        <ele>273</ele>
        <time>2019-04-14T22:24:27Z</time>
      </trkpt>
      <trkpt lat="48.0795" lon="7.24731">
        <ele>273</ele>
        <time>2019-04-14T22:25:27Z</time>
      </trkpt>
      <trkpt lat="48.07964" lon="7.24768">
        <ele>273</ele>
        <time>2019-04-14T22:26:27Z</time>
      </trkpt>
      <trkpt lat="48.07976" lon="7.24801">
        <ele>272</ele>
        <time>2019-04-14T22:27:27Z</time>
      </trkpt>
      <trkpt lat="48.07987" lon="7.24828">
        <ele>270</ele>
        <time>2019-04-14T22:28:27Z</time>
      </trkpt>
      <trkpt lat="48.07997" lon="7.24852">
        <ele>268</ele>
        <time>2019-04-14T22:29:27Z</time>
      </trkpt>
      <trkpt lat="48.08006" lon="7.24871">
        <ele>267</ele>
        <time>2019-04-14T22:30:27Z</time>
      </trkpt>
      <trkpt lat="48.08016" lon="7.24887">
        <ele>268</ele>
        <time>2019-04-14T22:31:27Z</time>
      </trkpt>
      <trkpt lat="48.08028" lon="7.24903">
        <ele>268</ele>
        <time>2019-04-14T22:32:27Z</time>
      </trkpt>
      <trkpt lat="48.08044" lon="7.24921">
        <ele>270</ele>
        <time>2019-04-14T22:33:27Z</time>
      </trkpt>
      <trkpt lat="48.08054" lon="7.24933">
        <ele>271</ele>
        <time>2019-04-14T22:34:27Z</time>
      </trkpt>
      <trkpt lat="48.08065" lon="7.24947">
        <ele>271</ele>
        <time>2019-04-14T22:35:27Z</time>
      </trkpt>
      <trkpt lat="48.08073" lon="7.24964">
        <ele>271</ele>
        <time>2019-04-14T22:36:27Z</time>
      </trkpt>
      <trkpt lat="48.08083" lon="7.24989">
        <ele>269</ele>
        <time>2019-04-14T22:37:27Z</time>
      </trkpt>
      <trkpt lat="48.08095" lon="7.25021">
        <ele>270</ele>
        <time>2019-04-14T22:38:27Z</time>
      </trkpt>
      <trkpt lat="48.08105" lon="7.25048">
        <ele>271</ele>
        <time>2019-04-14T22:39:27Z</time>
      </trkpt>
      <trkpt lat="48.08116" lon="7.25094">
        <ele>271</ele>
        <time>2019-04-14T22:40:27Z</time>
      </trkpt>
      <trkpt lat="48.08124" lon="7.25141">
        <ele>270</ele>
        <time>2019-04-14T22:41:27Z</time>
      </trkpt>
      <trkpt lat="48.08137" lon="7.25191">
        <ele>270</ele>
        <time>2019-04-14T22:42:27Z</time>
      </trkpt>
      <trkpt lat="48.08151" lon="7.25242">
        <ele>268</ele>
        <time>2019-04-14T22:43:27Z</time>
      </trkpt>
      <trkpt lat="48.08162" lon="7.25285">
        <ele>266</ele>
        <time>2019-04-14T22:44:27Z</time>
      </trkpt>
      <trkpt lat="48.08173" lon="7.25334">
        <ele>263</ele>
        <time>2019-04-14T22:45:27Z</time>
      </trkpt>
      <trkpt lat="48.0819" lon="7.25404">
        <ele>262</ele>
        <time>2019-04-14T22:46:27Z</time>
      </trkpt>
      <trkpt lat="48.08198" lon="7.25444">
        <ele>262</ele>
        <time>2019-04-14T22:47:27Z</time>
      </trkpt>
      <trkpt lat="48.08205" lon="7.25479">
        <ele>262</ele>
        <time>2019-04-14T22:48:27Z</time>
      </trkpt>
      <trkpt lat="48.08211" lon="7.25507">
        <ele>262</ele>
        <time>2019-04-14T22:49:27Z</time>
      </trkpt>
      <trkpt lat="48.08218" lon="7.25527">
        <ele>262</ele>
        <time>2019-04-14T22:50:27Z</time>
      </trkpt>
      <trkpt lat="48.08236" lon="7.25569">
        <ele>262</ele>
        <time>2019-04-14T22:51:27Z</time>
      </trkpt>
      <trkpt lat="48.08249" lon="7.25597">
        <ele>262</ele>
        <time>2019-04-14T22:52:27Z</time>
      </trkpt>
      <trkpt lat="48.08261" lon="7.25622">
        <ele>261</ele>
        <time>2019-04-14T22:53:27Z</time>
      </trkpt>
      <trkpt lat="48.08274" lon="7.25646">
        <ele>261</ele>
        <time>2019-04-14T22:54:27Z</time>
      </trkpt>
      <trkpt lat="48.08289" lon="7.25669">
        <ele>261</ele>
        <time>2019-04-14T22:55:27Z</time>
      </trkpt>
      <trkpt lat="48.08308" lon="7.25694">
        <ele>261</ele>
        <time>2019-04-14T22:56:27Z</time>
      </trkpt>
      <trkpt lat="48.0832" lon="7.25709">
        <ele>261</ele>
        <time>2019-04-14T22:57:27Z</time>
      </trkpt>
      <trkpt lat="48.08328" lon="7.25719">
        <ele>261</ele>
        <time>2019-04-14T22:58:27Z</time>
      </trkpt>
      <trkpt lat="48.08344" lon="7.25739">
        <ele>260</ele>
        <time>2019-04-14T22:59:27Z</time>
      </trkpt>
      <trkpt lat="48.08357" lon="7.2576">
        <ele>259</ele>
        <time>2019-04-14T23:00:27Z</time>
      </trkpt>
      <trkpt lat="48.08372" lon="7.25794">
        <ele>257</ele>
        <time>2019-04-14T23:01:27Z</time>
      </trkpt>
      <trkpt lat="48.08379" lon="7.2581">
        <ele>256</ele>
        <time>2019-04-14T23:02:27Z</time>
      </trkpt>
      <trkpt lat="48.0838" lon="7.25814">
        <ele>256</ele>
        <time>2019-04-14T23:03:27Z</time>
      </trkpt>
      <trkpt lat="48.08382" lon="7.25818">
        <ele>256</ele>
        <time>2019-04-14T23:04:27Z</time>
      </trkpt>
      <trkpt lat="48.08385" lon="7.25822">
        <ele>256</ele>
        <time>2019-04-14T23:05:27Z</time>
      </trkpt>
      <trkpt lat="48.08385" lon="7.25822">
        <ele>256</ele>
        <time>2019-04-14T23:06:27Z</time>
      </trkpt>
      <trkpt lat="48.08385" lon="7.25847">
        <ele>255</ele>
        <time>2019-04-14T23:07:27Z</time>
      </trkpt>
      <trkpt lat="48.08385" lon="7.25858">
        <ele>255</ele>
        <time>2019-04-14T23:08:27Z</time>
      </trkpt>
      <trkpt lat="48.08386" lon="7.25886">
        <ele>255</ele>
        <time>2019-04-14T23:09:27Z</time>
      </trkpt>
      <trkpt lat="48.08388" lon="7.25917">
        <ele>254</ele>
        <time>2019-04-14T23:10:27Z</time>
      </trkpt>
      <trkpt lat="48.0839" lon="7.25936">
        <ele>254</ele>
        <time>2019-04-14T23:11:27Z</time>
      </trkpt>
      <trkpt lat="48.08399" lon="7.25989">
        <ele>252</ele>
        <time>2019-04-14T23:12:27Z</time>
      </trkpt>
      <trkpt lat="48.08401" lon="7.25999">
        <ele>252</ele>
        <time>2019-04-14T23:13:27Z</time>
      </trkpt>
      <trkpt lat="48.08404" lon="7.26022">
        <ele>252</ele>
        <time>2019-04-14T23:14:27Z</time>
      </trkpt>
      <trkpt lat="48.08414" lon="7.26075">
        <ele>251</ele>
        <time>2019-04-14T23:15:27Z</time>
      </trkpt>
      <trkpt lat="48.08418" lon="7.261">
        <ele>250</ele>
        <time>2019-04-14T23:16:27Z</time>
      </trkpt>
      <trkpt lat="48.08425" lon="7.26129">
        <ele>249</ele>
        <time>2019-04-14T23:17:27Z</time>
      </trkpt>
      <trkpt lat="48.08433" lon="7.26163">
        <ele>247</ele>
        <time>2019-04-14T23:18:27Z</time>
      </trkpt>
      <trkpt lat="48.08435" lon="7.26167">
        <ele>247</ele>
        <time>2019-04-14T23:19:27Z</time>
      </trkpt>
      <trkpt lat="48.08446" lon="7.262">
        <ele>246</ele>
        <time>2019-04-14T23:20:27Z</time>
      </trkpt>
      <trkpt lat="48.08446" lon="7.262">
        <ele>246</ele>
        <time>2019-04-14T23:21:27Z</time>
      </trkpt>
      <trkpt lat="48.08454" lon="7.26224">
        <ele>246</ele>
        <time>2019-04-14T23:22:27Z</time>
      </trkpt>
      <trkpt lat="48.08465" lon="7.26261">
        <ele>245</ele>
        <time>2019-04-14T23:23:27Z</time>
      </trkpt>
      <trkpt lat="48.08472" lon="7.26283">
        <ele>245</ele>
        <time>2019-04-14T23:24:27Z</time>
      </trkpt>
      <trkpt lat="48.08477" lon="7.26303">
        <ele>245</ele>
        <time>2019-04-14T23:25:27Z</time>
      </trkpt>
      <trkpt lat="48.08493" lon="7.26356">
        <ele>244</ele>
        <time>2019-04-14T23:26:27Z</time>
      </trkpt>
      <trkpt lat="48.08502" lon="7.26383">
        <ele>243</ele>
        <time>2019-04-14T23:27:27Z</time>
      </trkpt>
      <trkpt lat="48.08513" lon="7.2642">
        <ele>243</ele>
        <time>2019-04-14T23:28:27Z</time>
      </trkpt>
      <trkpt lat="48.08528" lon="7.26472">
        <ele>244</ele>
        <time>2019-04-14T23:29:27Z</time>
      </trkpt>
      <trkpt lat="48.08539" lon="7.26506">
        <ele>244</ele>
        <time>2019-04-14T23:30:27Z</time>
      </trkpt>
      <trkpt lat="48.08547" lon="7.26534">
        <ele>244</ele>
        <time>2019-04-14T23:31:27Z</time>
      </trkpt>
      <trkpt lat="48.08553" lon="7.26555">
        <ele>244</ele>
        <time>2019-04-14T23:32:27Z</time>
      </trkpt>
      <trkpt lat="48.08556" lon="7.26568">
        <ele>244</ele>
        <time>2019-04-14T23:33:27Z</time>
      </trkpt>
      <trkpt lat="48.08561" lon="7.26587">
        <ele>244</ele>
        <time>2019-04-14T23:34:27Z</time>
      </trkpt>
      <trkpt lat="48.08562" lon="7.26594">
        <ele>244</ele>
        <time>2019-04-14T23:35:27Z</time>
      </trkpt>
      <trkpt lat="48.08565" lon="7.2661">
        <ele>244</ele>
        <time>2019-04-14T23:36:27Z</time>
      </trkpt>
      <trkpt lat="48.08568" lon="7.26625">
        <ele>244</ele>
        <time>2019-04-14T23:37:27Z</time>
      </trkpt>
      <trkpt lat="48.0857" lon="7.26637">
        <ele>244</ele>
        <time>2019-04-14T23:38:27Z</time>
      </trkpt>
      <trkpt lat="48.08572" lon="7.26655">
        <ele>243</ele>
        <time>2019-04-14T23:39:27Z</time>
      </trkpt>
      <trkpt lat="48.08575" lon="7.26697">
        <ele>243</ele>
        <time>2019-04-14T23:40:27Z</time>
      </trkpt>
      <trkpt lat="48.08576" lon="7.26705">
        <ele>243</ele>
        <time>2019-04-14T23:41:27Z</time>
      </trkpt>
      <trkpt lat="48.08582" lon="7.26786">
        <ele>244</ele>
        <time>2019-04-14T23:42:27Z</time>
      </trkpt>
      <trkpt lat="48.08583" lon="7.26826">
        <ele>246</ele>
        <time>2019-04-14T23:43:27Z</time>
      </trkpt>
      <trkpt lat="48.08585" lon="7.26848">
        <ele>246</ele>
        <time>2019-04-14T23:44:27Z</time>
      </trkpt>
      <trkpt lat="48.08585" lon="7.26867">
        <ele>246</ele>
        <time>2019-04-14T23:45:27Z</time>
      </trkpt>
      <trkpt lat="48.08585" lon="7.26884">
        <ele>245</ele>
        <time>2019-04-14T23:46:27Z</time>
      </trkpt>
      <trkpt lat="48.08585" lon="7.26921">
        <ele>244</ele>
        <time>2019-04-14T23:47:27Z</time>
      </trkpt>
      <trkpt lat="48.08584" lon="7.26963">
        <ele>243</ele>
        <time>2019-04-14T23:48:27Z</time>
      </trkpt>
      <trkpt lat="48.08582" lon="7.27045">
        <ele>240</ele>
        <time>2019-04-14T23:49:27Z</time>
      </trkpt>
      <trkpt lat="48.08582" lon="7.27055">
        <ele>240</ele>
        <time>2019-04-14T23:50:27Z</time>
      </trkpt>
      <trkpt lat="48.08576" lon="7.27123">
        <ele>239</ele>
        <time>2019-04-14T23:51:27Z</time>
      </trkpt>
      <trkpt lat="48.08571" lon="7.27179">
        <ele>239</ele>
        <time>2019-04-14T23:52:27Z</time>
      </trkpt>
      <trkpt lat="48.08571" lon="7.27182">
        <ele>239</ele>
        <time>2019-04-14T23:53:27Z</time>
      </trkpt>
      <trkpt lat="48.08571" lon="7.2719">
        <ele>239</ele>
        <time>2019-04-14T23:54:27Z</time>
      </trkpt>
      <trkpt lat="48.08566" lon="7.27289">
        <ele>239</ele>
        <time>2019-04-14T23:55:27Z</time>
      </trkpt>
      <trkpt lat="48.08565" lon="7.27329">
        <ele>239</ele>
        <time>2019-04-14T23:56:27Z</time>
      </trkpt>
      <trkpt lat="48.08565" lon="7.27358">
        <ele>239</ele>
        <time>2019-04-14T23:57:27Z</time>
      </trkpt>
      <trkpt lat="48.08564" lon="7.27373">
        <ele>239</ele>
        <time>2019-04-14T23:58:27Z</time>
      </trkpt>
      <trkpt lat="48.08564" lon="7.2739">
        <ele>238</ele>
        <time>2019-04-14T23:59:27Z</time>
      </trkpt>
      <trkpt lat="48.08565" lon="7.27418">
        <ele>238</ele>
        <time>2019-04-15T00:00:27Z</time>
      </trkpt>
      <trkpt lat="48.08565" lon="7.27439">
        <ele>238</ele>
        <time>2019-04-15T00:01:27Z</time>
      </trkpt>
      <trkpt lat="48.08565" lon="7.2744">
        <ele>238</ele>
        <time>2019-04-15T00:02:27Z</time>
      </trkpt>
      <trkpt lat="48.08566" lon="7.27459">
        <ele>237</ele>
        <time>2019-04-15T00:03:27Z</time>
      </trkpt>
      <trkpt lat="48.08568" lon="7.27501">
        <ele>237</ele>
        <time>2019-04-15T00:04:27Z</time>
      </trkpt>
      <trkpt lat="48.0857" lon="7.27535">
        <ele>237</ele>
        <time>2019-04-15T00:05:27Z</time>
      </trkpt>
      <trkpt lat="48.08571" lon="7.2755">
        <ele>237</ele>
        <time>2019-04-15T00:06:27Z</time>
      </trkpt>
      <trkpt lat="48.08573" lon="7.27578">
        <ele>237</ele>
        <time>2019-04-15T00:07:27Z</time>
      </trkpt>
      <trkpt lat="48.08574" lon="7.27596">
        <ele>237</ele>
        <time>2019-04-15T00:08:27Z</time>
      </trkpt>
      <trkpt lat="48.08575" lon="7.27612">
        <ele>237</ele>
        <time>2019-04-15T00:09:27Z</time>
      </trkpt>
      <trkpt lat="48.08578" lon="7.27644">
        <ele>236</ele>
        <time>2019-04-15T00:10:27Z</time>
      </trkpt>
      <trkpt lat="48.08581" lon="7.27677">
        <ele>236</ele>
        <time>2019-04-15T00:11:27Z</time>
      </trkpt>
      <trkpt lat="48.08584" lon="7.27706">
        <ele>237</ele>
        <time>2019-04-15T00:12:27Z</time>
      </trkpt>
      <trkpt lat="48.08586" lon="7.27727">
        <ele>238</ele>
        <time>2019-04-15T00:13:27Z</time>
      </trkpt>
      <trkpt lat="48.08589" lon="7.27746">
        <ele>238</ele>
        <time>2019-04-15T00:14:27Z</time>
      </trkpt>
      <trkpt lat="48.08594" lon="7.27785">
        <ele>238</ele>
        <time>2019-04-15T00:15:27Z</time>
      </trkpt>
      <trkpt lat="48.08599" lon="7.27815">
        <ele>237</ele>
        <time>2019-04-15T00:16:27Z</time>
      </trkpt>
      <trkpt lat="48.08602" lon="7.27832">
        <ele>237</ele>
        <time>2019-04-15T00:17:27Z</time>
      </trkpt>
      <trkpt lat="48.08603" lon="7.27837">
        <ele>237</ele>
        <time>2019-04-15T00:18:27Z</time>
      </trkpt>
      <trkpt lat="48.08604" lon="7.27839">
        <ele>237</ele>
        <time>2019-04-15T00:19:27Z</time>
      </trkpt>
      <trkpt lat="48.08605" lon="7.27842">
        <ele>237</ele>
        <time>2019-04-15T00:20:27Z</time>
      </trkpt>
      <trkpt lat="48.08608" lon="7.2785">
        <ele>237</ele>
        <time>2019-04-15T00:21:27Z</time>
      </trkpt>
      <trkpt lat="48.0861" lon="7.27855">
        <ele>237</ele>
        <time>2019-04-15T00:22:27Z</time>
      </trkpt>
      <trkpt lat="48.08612" lon="7.27862">
        <ele>237</ele>
        <time>2019-04-15T00:23:27Z</time>
      </trkpt>
      <trkpt lat="48.08615" lon="7.27871">
        <ele>237</ele>
        <time>2019-04-15T00:24:27Z</time>
      </trkpt>
      <trkpt lat="48.08618" lon="7.27883">
        <ele>236</ele>
        <time>2019-04-15T00:25:27Z</time>
      </trkpt>
      <trkpt lat="48.08622" lon="7.27906">
        <ele>236</ele>
        <time>2019-04-15T00:26:27Z</time>
      </trkpt>
      <trkpt lat="48.08626" lon="7.27919">
        <ele>236</ele>
        <time>2019-04-15T00:27:27Z</time>
      </trkpt>
      <trkpt lat="48.08626" lon="7.27929">
        <ele>236</ele>
        <time>2019-04-15T00:28:27Z</time>
      </trkpt>
      <trkpt lat="48.08626" lon="7.27932">
        <ele>236</ele>
        <time>2019-04-15T00:29:27Z</time>
      </trkpt>
      <trkpt lat="48.08626" lon="7.27937">
        <ele>236</ele>
        <time>2019-04-15T00:30:27Z</time>
      </trkpt>
      <trkpt lat="48.08625" lon="7.2794">
        <ele>236</ele>
        <time>2019-04-15T00:31:27Z</time>
      </trkpt>
      <trkpt lat="48.08623" lon="7.27944">
        <ele>235</ele>
        <time>2019-04-15T00:32:27Z</time>
      </trkpt>
      <trkpt lat="48.08623" lon="7.27944">
        <ele>235</ele>
        <time>2019-04-15T00:33:27Z</time>
      </trkpt>
      <trkpt lat="48.08635" lon="7.27964">
        <ele>235</ele>
        <time>2019-04-15T00:34:27Z</time>
      </trkpt>
      <trkpt lat="48.08643" lon="7.27976">
        <ele>235</ele>
        <time>2019-04-15T00:35:27Z</time>
      </trkpt>
      <trkpt lat="48.08654" lon="7.27988">
        <ele>235</ele>
        <time>2019-04-15T00:36:27Z</time>
      </trkpt>
      <trkpt lat="48.08672" lon="7.28003">
        <ele>235</ele>
        <time>2019-04-15T00:37:27Z</time>
      </trkpt>
      <trkpt lat="48.08681" lon="7.28008">
        <ele>235</ele>
        <time>2019-04-15T00:38:27Z</time>
      </trkpt>
      <trkpt lat="48.08684" lon="7.28009">
        <ele>236</ele>
        <time>2019-04-15T00:39:27Z</time>
      </trkpt>
      <trkpt lat="48.08688" lon="7.28011">
        <ele>236</ele>
        <time>2019-04-15T00:40:27Z</time>
      </trkpt>
      <trkpt lat="48.08694" lon="7.28012">
        <ele>236</ele>
        <time>2019-04-15T00:41:27Z</time>
      </trkpt>
      <trkpt lat="48.08705" lon="7.28011">
        <ele>236</ele>
        <time>2019-04-15T00:42:27Z</time>
      </trkpt>
      <trkpt lat="48.08707" lon="7.28011">
        <ele>236</ele>
        <time>2019-04-15T00:43:27Z</time>
      </trkpt>
      <trkpt lat="48.08718" lon="7.28008">
        <ele>237</ele>
        <time>2019-04-15T00:44:27Z</time>
      </trkpt>
      <trkpt lat="48.08729" lon="7.28003">
        <ele>237</ele>
        <time>2019-04-15T00:45:27Z</time>
      </trkpt>
      <trkpt lat="48.08755" lon="7.2799">
        <ele>238</ele>
        <time>2019-04-15T00:46:27Z</time>
      </trkpt>
      <trkpt lat="48.08785" lon="7.27969">
        <ele>238</ele>
        <time>2019-04-15T00:47:27Z</time>
      </trkpt>
      <trkpt lat="48.08796" lon="7.27961">
        <ele>239</ele>
        <time>2019-04-15T00:48:27Z</time>
      </trkpt>
      <trkpt lat="48.0882" lon="7.27945">
        <ele>239</ele>
        <time>2019-04-15T00:49:27Z</time>
      </trkpt>
      <trkpt lat="48.08856" lon="7.27918">
        <ele>240</ele>
        <time>2019-04-15T00:50:27Z</time>
      </trkpt>
      <trkpt lat="48.08888" lon="7.27896">
        <ele>241</ele>
        <time>2019-04-15T00:51:27Z</time>
      </trkpt>
      <trkpt lat="48.08893" lon="7.27892">
        <ele>241</ele>
        <time>2019-04-15T00:52:27Z</time>
      </trkpt>
      <trkpt lat="48.08903" lon="7.27885">
        <ele>241</ele>
        <time>2019-04-15T00:53:27Z</time>
      </trkpt>
      <trkpt lat="48.08916" lon="7.27877">
        <ele>241</ele>
        <time>2019-04-15T00:54:27Z</time>
      </trkpt>
      <trkpt lat="48.08925" lon="7.2787">
        <ele>243</ele>
        <time>2019-04-15T00:55:27Z</time>
      </trkpt>
      <trkpt lat="48.08935" lon="7.2786">
        <ele>245</ele>
        <time>2019-04-15T00:56:27Z</time>
      </trkpt>
      <trkpt lat="48.08938" lon="7.27856">
        <ele>245</ele>
        <time>2019-04-15T00:57:27Z</time>
      </trkpt>
      <trkpt lat="48.08945" lon="7.27849">
        <ele>246</ele>
        <time>2019-04-15T00:58:27Z</time>
      </trkpt>
      <trkpt lat="48.08948" lon="7.27845">
        <ele>247</ele>
        <time>2019-04-15T00:59:27Z</time>
      </trkpt>
      <trkpt lat="48.0895" lon="7.27842">
        <ele>247</ele>
        <time>2019-04-15T01:00:27Z</time>
      </trkpt>
      <trkpt lat="48.08953" lon="7.27837">
        <ele>247</ele>
        <time>2019-04-15T01:01:27Z</time>
      </trkpt>
      <trkpt lat="48.08955" lon="7.27832">
        <ele>247</ele>
        <time>2019-04-15T01:02:27Z</time>
      </trkpt>
      <trkpt lat="48.08957" lon="7.27826">
        <ele>248</ele>
        <time>2019-04-15T01:03:27Z</time>
      </trkpt>
      <trkpt lat="48.08959" lon="7.27821">
        <ele>248</ele>
        <time>2019-04-15T01:04:27Z</time>
      </trkpt>
      <trkpt lat="48.0896" lon="7.27815">
        <ele>248</ele>
        <time>2019-04-15T01:05:27Z</time>
      </trkpt>
      <trkpt lat="48.08961" lon="7.2781">
        <ele>248</ele>
        <time>2019-04-15T01:06:27Z</time>
      </trkpt>
      <trkpt lat="48.08962" lon="7.27802">
        <ele>248</ele>
        <time>2019-04-15T01:07:27Z</time>
      </trkpt>
      <trkpt lat="48.08963" lon="7.27795">
        <ele>248</ele>
        <time>2019-04-15T01:08:27Z</time>
      </trkpt>
      <trkpt lat="48.08965" lon="7.27781">
        <ele>249</ele>
        <time>2019-04-15T01:09:27Z</time>
      </trkpt>
      <trkpt lat="48.08966" lon="7.27759">
        <ele>248</ele>
        <time>2019-04-15T01:10:27Z</time>
      </trkpt>
      <trkpt lat="48.08967" lon="7.27744">
        <ele>249</ele>
        <time>2019-04-15T01:11:27Z</time>
      </trkpt>
      <trkpt lat="48.08966" lon="7.27737">
        <ele>249</ele>
        <time>2019-04-15T01:12:27Z</time>
      </trkpt>
      <trkpt lat="48.08966" lon="7.2773">
        <ele>250</ele>
        <time>2019-04-15T01:13:27Z</time>
      </trkpt>
      <trkpt lat="48.08964" lon="7.27723">
        <ele>250</ele>
        <time>2019-04-15T01:14:27Z</time>
      </trkpt>
      <trkpt lat="48.08963" lon="7.27717">
        <ele>251</ele>
        <time>2019-04-15T01:15:27Z</time>
      </trkpt>
      <trkpt lat="48.08961" lon="7.2771">
        <ele>251</ele>
        <time>2019-04-15T01:16:27Z</time>
      </trkpt>
      <trkpt lat="48.08959" lon="7.27704">
        <ele>251</ele>
        <time>2019-04-15T01:17:27Z</time>
      </trkpt>
      <trkpt lat="48.08954" lon="7.27691">
        <ele>252</ele>
        <time>2019-04-15T01:18:27Z</time>
      </trkpt>
      <trkpt lat="48.08952" lon="7.27685">
        <ele>252</ele>
        <time>2019-04-15T01:19:27Z</time>
      </trkpt>
      <trkpt lat="48.0895" lon="7.27679">
        <ele>252</ele>
        <time>2019-04-15T01:20:27Z</time>
      </trkpt>
      <trkpt lat="48.08948" lon="7.27674">
        <ele>252</ele>
        <time>2019-04-15T01:21:27Z</time>
      </trkpt>
      <trkpt lat="48.08945" lon="7.27669">
        <ele>252</ele>
        <time>2019-04-15T01:22:27Z</time>
      </trkpt>
      <trkpt lat="48.08942" lon="7.27664">
        <ele>252</ele>
        <time>2019-04-15T01:23:27Z</time>
      </trkpt>
      <trkpt lat="48.08939" lon="7.2766">
        <ele>252</ele>
        <time>2019-04-15T01:24:27Z</time>
      </trkpt>
      <trkpt lat="48.08934" lon="7.27651">
        <ele>253</ele>
        <time>2019-04-15T01:25:27Z</time>
      </trkpt>
      <trkpt lat="48.08928" lon="7.27643">
        <ele>253</ele>
        <time>2019-04-15T01:26:27Z</time>
      </trkpt>
      <trkpt lat="48.08927" lon="7.27638">
        <ele>253</ele>
        <time>2019-04-15T01:27:27Z</time>
      </trkpt>
      <trkpt lat="48.08925" lon="7.27633">
        <ele>253</ele>
        <time>2019-04-15T01:28:27Z</time>
      </trkpt>
      <trkpt lat="48.08924" lon="7.27629">
        <ele>254</ele>
        <time>2019-04-15T01:29:27Z</time>
      </trkpt>
      <trkpt lat="48.08924" lon="7.27624">
        <ele>254</ele>
        <time>2019-04-15T01:30:27Z</time>
      </trkpt>
      <trkpt lat="48.08925" lon="7.27619">
        <ele>255</ele>
        <time>2019-04-15T01:31:27Z</time>
      </trkpt>
      <trkpt lat="48.08926" lon="7.27615">
        <ele>256</ele>
        <time>2019-04-15T01:32:27Z</time>
      </trkpt>
      <trkpt lat="48.08928" lon="7.27612">
        <ele>256</ele>
        <time>2019-04-15T01:33:27Z</time>
      </trkpt>
      <trkpt lat="48.0893" lon="7.27609">
        <ele>257</ele>
        <time>2019-04-15T01:34:27Z</time>
      </trkpt>
      <trkpt lat="48.08933" lon="7.27607">
        <ele>258</ele>
        <time>2019-04-15T01:35:27Z</time>
      </trkpt>
      <trkpt lat="48.08935" lon="7.27606">
        <ele>258</ele>
        <time>2019-04-15T01:36:27Z</time>
      </trkpt>
      <trkpt lat="48.08939" lon="7.27606">
        <ele>259</ele>
        <time>2019-04-15T01:37:27Z</time>
      </trkpt>
      <trkpt lat="48.08942" lon="7.27607">
        <ele>259</ele>
        <time>2019-04-15T01:38:27Z</time>
      </trkpt>
      <trkpt lat="48.08945" lon="7.27609">
        <ele>259</ele>
        <time>2019-04-15T01:39:27Z</time>
      </trkpt>
      <trkpt lat="48.08948" lon="7.27612">
        <ele>259</ele>
        <time>2019-04-15T01:40:27Z</time>
      </trkpt>
      <trkpt lat="48.08951" lon="7.27616">
        <ele>259</ele>
        <time>2019-04-15T01:41:27Z</time>
      </trkpt>
      <trkpt lat="48.08958" lon="7.27626">
        <ele>259</ele>
        <time>2019-04-15T01:42:27Z</time>
      </trkpt>
      <trkpt lat="48.08962" lon="7.2763">
        <ele>259</ele>
        <time>2019-04-15T01:43:27Z</time>
      </trkpt>
      <trkpt lat="48.08966" lon="7.27634">
        <ele>260</ele>
        <time>2019-04-15T01:44:27Z</time>
      </trkpt>
      <trkpt lat="48.0897" lon="7.27637">
        <ele>260</ele>
        <time>2019-04-15T01:45:27Z</time>
      </trkpt>
      <trkpt lat="48.08978" lon="7.27642">
        <ele>261</ele>
        <time>2019-04-15T01:46:27Z</time>
      </trkpt>
      <trkpt lat="48.08987" lon="7.27646">
        <ele>261</ele>
        <time>2019-04-15T01:47:27Z</time>
      </trkpt>
      <trkpt lat="48.08995" lon="7.2765">
        <ele>262</ele>
        <time>2019-04-15T01:48:27Z</time>
      </trkpt>
      <trkpt lat="48.09004" lon="7.27654">
        <ele>263</ele>
        <time>2019-04-15T01:49:27Z</time>
      </trkpt>
      <trkpt lat="48.09008" lon="7.27655">
        <ele>262</ele>
        <time>2019-04-15T01:50:27Z</time>
      </trkpt>
      <trkpt lat="48.09012" lon="7.27656">
        <ele>262</ele>
        <time>2019-04-15T01:51:27Z</time>
      </trkpt>
      <trkpt lat="48.09016" lon="7.27657">
        <ele>262</ele>
        <time>2019-04-15T01:52:27Z</time>
      </trkpt>
      <trkpt lat="48.0902" lon="7.27657">
        <ele>262</ele>
        <time>2019-04-15T01:53:27Z</time>
      </trkpt>
      <trkpt lat="48.09028" lon="7.27657">
        <ele>262</ele>
        <time>2019-04-15T01:54:27Z</time>
      </trkpt>
      <trkpt lat="48.09032" lon="7.27656">
        <ele>263</ele>
        <time>2019-04-15T01:55:27Z</time>
      </trkpt>
      <trkpt lat="48.09038" lon="7.27656">
        <ele>263</ele>
        <time>2019-04-15T01:56:27Z</time>
      </trkpt>
      <trkpt lat="48.09044" lon="7.27655">
        <ele>263</ele>
        <time>2019-04-15T01:57:27Z</time>
      </trkpt>
      <trkpt lat="48.09067" lon="7.27651">
        <ele>263</ele>
        <time>2019-04-15T01:58:27Z</time>
      </trkpt>
      <trkpt lat="48.09084" lon="7.27648">
        <ele>264</ele>
        <time>2019-04-15T01:59:27Z</time>
      </trkpt>
      <trkpt lat="48.09094" lon="7.27645">
        <ele>265</ele>
        <time>2019-04-15T02:00:27Z</time>
      </trkpt>
      <trkpt lat="48.091" lon="7.27645">
        <ele>266</ele>
        <time>2019-04-15T02:01:27Z</time>
      </trkpt>
      <trkpt lat="48.09106" lon="7.27644">
        <ele>267</ele>
        <time>2019-04-15T02:02:27Z</time>
      </trkpt>
      <trkpt lat="48.09112" lon="7.27643">
        <ele>267</ele>
        <time>2019-04-15T02:03:27Z</time>
      </trkpt>
      <trkpt lat="48.09117" lon="7.27641">
        <ele>268</ele>
        <time>2019-04-15T02:04:27Z</time>
      </trkpt>
      <trkpt lat="48.09123" lon="7.27639">
        <ele>269</ele>
        <time>2019-04-15T02:05:27Z</time>
      </trkpt>
      <trkpt lat="48.09129" lon="7.27636">
        <ele>269</ele>
        <time>2019-04-15T02:06:27Z</time>
      </trkpt>
      <trkpt lat="48.09134" lon="7.27632">
        <ele>270</ele>
        <time>2019-04-15T02:07:27Z</time>
      </trkpt>
      <trkpt lat="48.09139" lon="7.27627">
        <ele>271</ele>
        <time>2019-04-15T02:08:27Z</time>
      </trkpt>
      <trkpt lat="48.09143" lon="7.27623">
        <ele>271</ele>
        <time>2019-04-15T02:09:27Z</time>
      </trkpt>
      <trkpt lat="48.09148" lon="7.27619">
        <ele>272</ele>
        <time>2019-04-15T02:10:27Z</time>
      </trkpt>
      <trkpt lat="48.09153" lon="7.27617">
        <ele>273</ele>
        <time>2019-04-15T02:11:27Z</time>
      </trkpt>
      <trkpt lat="48.09156" lon="7.27616">
        <ele>273</ele>
        <time>2019-04-15T02:12:27Z</time>
      </trkpt>
      <trkpt lat="48.09159" lon="7.27616">
        <ele>273</ele>
        <time>2019-04-15T02:13:27Z</time>
      </trkpt>
      <trkpt lat="48.09163" lon="7.27616">
        <ele>274</ele>
        <time>2019-04-15T02:14:27Z</time>
      </trkpt>
      <trkpt lat="48.09164" lon="7.27616">
        <ele>274</ele>
        <time>2019-04-15T02:15:27Z</time>
      </trkpt>
      <trkpt lat="48.09169" lon="7.27618">
        <ele>274</ele>
        <time>2019-04-15T02:16:27Z</time>
      </trkpt>
      <trkpt lat="48.09173" lon="7.27622">
        <ele>275</ele>
        <time>2019-04-15T02:17:27Z</time>
      </trkpt>
      <trkpt lat="48.09178" lon="7.27627">
        <ele>276</ele>
        <time>2019-04-15T02:18:27Z</time>
      </trkpt>
      <trkpt lat="48.09181" lon="7.27633">
        <ele>276</ele>
        <time>2019-04-15T02:19:27Z</time>
      </trkpt>
      <trkpt lat="48.09184" lon="7.2764">
        <ele>276</ele>
        <time>2019-04-15T02:20:27Z</time>
      </trkpt>
      <trkpt lat="48.09187" lon="7.27648">
        <ele>277</ele>
        <time>2019-04-15T02:21:27Z</time>
      </trkpt>
      <trkpt lat="48.0919" lon="7.27656">
        <ele>277</ele>
        <time>2019-04-15T02:22:27Z</time>
      </trkpt>
      <trkpt lat="48.09192" lon="7.27664">
        <ele>278</ele>
        <time>2019-04-15T02:23:27Z</time>
      </trkpt>
      <trkpt lat="48.09196" lon="7.2768">
        <ele>279</ele>
        <time>2019-04-15T02:24:27Z</time>
      </trkpt>
      <trkpt lat="48.09198" lon="7.27692">
        <ele>279</ele>
        <time>2019-04-15T02:25:27Z</time>
      </trkpt>
      <trkpt lat="48.09204" lon="7.27722">
        <ele>281</ele>
        <time>2019-04-15T02:26:27Z</time>
      </trkpt>
      <trkpt lat="48.09212" lon="7.27766">
        <ele>284</ele>
        <time>2019-04-15T02:27:27Z</time>
      </trkpt>
      <trkpt lat="48.09213" lon="7.27773">
        <ele>284</ele>
        <time>2019-04-15T02:28:27Z</time>
      </trkpt>
      <trkpt lat="48.09214" lon="7.2778">
        <ele>285</ele>
        <time>2019-04-15T02:29:27Z</time>
      </trkpt>
      <trkpt lat="48.09215" lon="7.27794">
        <ele>286</ele>
        <time>2019-04-15T02:30:27Z</time>
      </trkpt>
      <trkpt lat="48.09217" lon="7.27808">
        <ele>287</ele>
        <time>2019-04-15T02:31:27Z</time>
      </trkpt>
      <trkpt lat="48.0922" lon="7.27835">
        <ele>289</ele>
        <time>2019-04-15T02:32:27Z</time>
      </trkpt>
      <trkpt lat="48.09221" lon="7.27849">
        <ele>289</ele>
        <time>2019-04-15T02:33:27Z</time>
      </trkpt>
      <trkpt lat="48.09222" lon="7.27861">
        <ele>290</ele>
        <time>2019-04-15T02:34:27Z</time>
      </trkpt>
      <trkpt lat="48.09222" lon="7.27867">
        <ele>290</ele>
        <time>2019-04-15T02:35:27Z</time>
      </trkpt>
      <trkpt lat="48.09221" lon="7.27873">
        <ele>290</ele>
        <time>2019-04-15T02:36:27Z</time>
      </trkpt>
      <trkpt lat="48.09221" lon="7.27879">
        <ele>291</ele>
        <time>2019-04-15T02:37:27Z</time>
      </trkpt>
      <trkpt lat="48.0922" lon="7.27885">
        <ele>291</ele>
        <time>2019-04-15T02:38:27Z</time>
      </trkpt>
      <trkpt lat="48.09219" lon="7.2789">
        <ele>291</ele>
        <time>2019-04-15T02:39:27Z</time>
      </trkpt>
      <trkpt lat="48.09217" lon="7.27895">
        <ele>290</ele>
        <time>2019-04-15T02:40:27Z</time>
      </trkpt>
      <trkpt lat="48.09215" lon="7.27904">
        <ele>290</ele>
        <time>2019-04-15T02:41:27Z</time>
      </trkpt>
      <trkpt lat="48.09215" lon="7.27906">
        <ele>290</ele>
        <time>2019-04-15T02:42:27Z</time>
      </trkpt>
      <trkpt lat="48.09214" lon="7.27909">
        <ele>290</ele>
        <time>2019-04-15T02:43:27Z</time>
      </trkpt>
      <trkpt lat="48.09214" lon="7.27911">
        <ele>290</ele>
        <time>2019-04-15T02:44:27Z</time>
      </trkpt>
      <trkpt lat="48.09214" lon="7.27914">
        <ele>291</ele>
        <time>2019-04-15T02:45:27Z</time>
      </trkpt>
      <trkpt lat="48.09214" lon="7.27916">
        <ele>291</ele>
        <time>2019-04-15T02:46:27Z</time>
      </trkpt>
      <trkpt lat="48.09214" lon="7.27918">
        <ele>291</ele>
        <time>2019-04-15T02:47:27Z</time>
      </trkpt>
      <trkpt lat="48.09214" lon="7.2792">
        <ele>291</ele>
        <time>2019-04-15T02:48:27Z</time>
      </trkpt>
      <trkpt lat="48.09215" lon="7.27922">
        <ele>291</ele>
        <time>2019-04-15T02:49:27Z</time>
      </trkpt>
      <trkpt lat="48.09216" lon="7.27925">
        <ele>292</ele>
        <time>2019-04-15T02:50:27Z</time>
      </trkpt>
      <trkpt lat="48.09219" lon="7.27929">
        <ele>293</ele>
        <time>2019-04-15T02:51:27Z</time>
      </trkpt>
      <trkpt lat="48.09221" lon="7.27931">
        <ele>293</ele>
        <time>2019-04-15T02:52:27Z</time>
      </trkpt>
      <trkpt lat="48.09224" lon="7.27932">
        <ele>294</ele>
        <time>2019-04-15T02:53:27Z</time>
      </trkpt>
      <trkpt lat="48.09226" lon="7.27932">
        <ele>294</ele>
        <time>2019-04-15T02:54:27Z</time>
      </trkpt>
      <trkpt lat="48.09229" lon="7.27931">
        <ele>295</ele>
        <time>2019-04-15T02:55:27Z</time>
      </trkpt>
      <trkpt lat="48.09231" lon="7.27929">
        <ele>295</ele>
        <time>2019-04-15T02:56:27Z</time>
      </trkpt>
      <trkpt lat="48.09233" lon="7.27926">
        <ele>295</ele>
        <time>2019-04-15T02:57:27Z</time>
      </trkpt>
      <trkpt lat="48.09235" lon="7.27923">
        <ele>295</ele>
        <time>2019-04-15T02:58:27Z</time>
      </trkpt>
      <trkpt lat="48.09237" lon="7.27918">
        <ele>295</ele>
        <time>2019-04-15T02:59:27Z</time>
      </trkpt>
      <trkpt lat="48.09238" lon="7.27914">
        <ele>295</ele>
        <time>2019-04-15T03:00:27Z</time>
      </trkpt>
      <trkpt lat="48.09239" lon="7.27908">
        <ele>295</ele>
        <time>2019-04-15T03:01:27Z</time>
      </trkpt>
      <trkpt lat="48.09242" lon="7.27895">
        <ele>296</ele>
        <time>2019-04-15T03:02:27Z</time>
      </trkpt>
      <trkpt lat="48.09243" lon="7.27888">
        <ele>296</ele>
        <time>2019-04-15T03:03:27Z</time>
      </trkpt>
      <trkpt lat="48.09245" lon="7.2788">
        <ele>296</ele>
        <time>2019-04-15T03:04:27Z</time>
      </trkpt>
      <trkpt lat="48.09247" lon="7.27872">
        <ele>296</ele>
        <time>2019-04-15T03:05:27Z</time>
      </trkpt>
      <trkpt lat="48.09251" lon="7.27854">
        <ele>297</ele>
        <time>2019-04-15T03:06:27Z</time>
      </trkpt>
      <trkpt lat="48.09257" lon="7.27836">
        <ele>298</ele>
        <time>2019-04-15T03:07:27Z</time>
      </trkpt>
      <trkpt lat="48.0926" lon="7.27826">
        <ele>299</ele>
        <time>2019-04-15T03:08:27Z</time>
      </trkpt>
      <trkpt lat="48.09263" lon="7.27817">
        <ele>299</ele>
        <time>2019-04-15T03:09:27Z</time>
      </trkpt>
      <trkpt lat="48.09267" lon="7.27805">
        <ele>300</ele>
        <time>2019-04-15T03:10:27Z</time>
      </trkpt>
      <trkpt lat="48.09274" lon="7.2779">
        <ele>301</ele>
        <time>2019-04-15T03:11:27Z</time>
      </trkpt>
      <trkpt lat="48.0929" lon="7.27756">
        <ele>303</ele>
        <time>2019-04-15T03:12:27Z</time>
      </trkpt>
      <trkpt lat="48.09294" lon="7.27747">
        <ele>304</ele>
        <time>2019-04-15T03:13:27Z</time>
      </trkpt>
      <trkpt lat="48.09298" lon="7.27737">
        <ele>305</ele>
        <time>2019-04-15T03:14:27Z</time>
      </trkpt>
      <trkpt lat="48.09301" lon="7.27728">
        <ele>305</ele>
        <time>2019-04-15T03:15:27Z</time>
      </trkpt>
      <trkpt lat="48.09305" lon="7.2772">
        <ele>306</ele>
        <time>2019-04-15T03:16:27Z</time>
      </trkpt>
      <trkpt lat="48.09308" lon="7.2771">
        <ele>306</ele>
        <time>2019-04-15T03:17:27Z</time>
      </trkpt>
      <trkpt lat="48.09311" lon="7.27699">
        <ele>306</ele>
        <time>2019-04-15T03:18:27Z</time>
      </trkpt>
      <trkpt lat="48.0932" lon="7.27672">
        <ele>307</ele>
        <time>2019-04-15T03:19:27Z</time>
      </trkpt>
      <trkpt lat="48.09332" lon="7.27637">
        <ele>309</ele>
        <time>2019-04-15T03:20:27Z</time>
      </trkpt>
      <trkpt lat="48.09347" lon="7.27589">
        <ele>310</ele>
        <time>2019-04-15T03:21:27Z</time>
      </trkpt>
      <trkpt lat="48.0935" lon="7.27582">
        <ele>310</ele>
        <time>2019-04-15T03:22:27Z</time>
      </trkpt>
      <trkpt lat="48.09353" lon="7.27575">
        <ele>310</ele>
        <time>2019-04-15T03:23:27Z</time>
      </trkpt>
      <trkpt lat="48.09356" lon="7.2757">
        <ele>311</ele>
        <time>2019-04-15T03:24:27Z</time>
      </trkpt>
      <trkpt lat="48.0936" lon="7.27564">
        <ele>311</ele>
        <time>2019-04-15T03:25:27Z</time>
      </trkpt>
      <trkpt lat="48.09364" lon="7.2756">
        <ele>312</ele>
        <time>2019-04-15T03:26:27Z</time>
      </trkpt>
      <trkpt lat="48.09368" lon="7.27556">
        <ele>312</ele>
        <time>2019-04-15T03:27:27Z</time>
      </trkpt>
      <trkpt lat="48.09373" lon="7.27553">
        <ele>313</ele>
        <time>2019-04-15T03:28:27Z</time>
      </trkpt>
      <trkpt lat="48.09378" lon="7.27551">
        <ele>313</ele>
        <time>2019-04-15T03:29:27Z</time>
      </trkpt>
      <trkpt lat="48.09383" lon="7.2755">
        <ele>314</ele>
        <time>2019-04-15T03:30:27Z</time>
      </trkpt>
      <trkpt lat="48.09395" lon="7.27548">
        <ele>316</ele>
        <time>2019-04-15T03:31:27Z</time>
      </trkpt>
      <trkpt lat="48.09405" lon="7.27548">
        <ele>317</ele>
        <time>2019-04-15T03:32:27Z</time>
      </trkpt>
      <trkpt lat="48.09416" lon="7.27548">
        <ele>319</ele>
        <time>2019-04-15T03:33:27Z</time>
      </trkpt>
      <trkpt lat="48.09421" lon="7.27549">
        <ele>320</ele>
        <time>2019-04-15T03:34:27Z</time>
      </trkpt>
      <trkpt lat="48.09426" lon="7.2755">
        <ele>320</ele>
        <time>2019-04-15T03:35:27Z</time>
      </trkpt>
      <trkpt lat="48.09431" lon="7.27552">
        <ele>321</ele>
        <time>2019-04-15T03:36:27Z</time>
      </trkpt>
      <trkpt lat="48.09436" lon="7.27555">
        <ele>321</ele>
        <time>2019-04-15T03:37:27Z</time>
      </trkpt>
      <trkpt lat="48.0944" lon="7.27558">
        <ele>322</ele>
        <time>2019-04-15T03:38:27Z</time>
      </trkpt>
      <trkpt lat="48.09444" lon="7.27563">
        <ele>322</ele>
        <time>2019-04-15T03:39:27Z</time>
      </trkpt>
      <trkpt lat="48.09447" lon="7.27567">
        <ele>322</ele>
        <time>2019-04-15T03:40:27Z</time>
      </trkpt>
      <trkpt lat="48.0945" lon="7.27572">
        <ele>323</ele>
        <time>2019-04-15T03:41:27Z</time>
      </trkpt>
      <trkpt lat="48.09454" lon="7.27578">
        <ele>323</ele>
        <time>2019-04-15T03:42:27Z</time>
      </trkpt>
      <trkpt lat="48.09457" lon="7.27584">
        <ele>323</ele>
        <time>2019-04-15T03:43:27Z</time>
      </trkpt>
      <trkpt lat="48.0946" lon="7.2759">
        <ele>323</ele>
        <time>2019-04-15T03:44:27Z</time>
      </trkpt>
      <trkpt lat="48.09462" lon="7.27595">
        <ele>323</ele>
        <time>2019-04-15T03:45:27Z</time>
      </trkpt>
      <trkpt lat="48.09473" lon="7.27619">
        <ele>324</ele>
        <time>2019-04-15T03:46:27Z</time>
      </trkpt>
      <trkpt lat="48.09484" lon="7.27643">
        <ele>324</ele>
        <time>2019-04-15T03:47:27Z</time>
      </trkpt>
      <trkpt lat="48.09494" lon="7.27667">
        <ele>323</ele>
        <time>2019-04-15T03:48:27Z</time>
      </trkpt>
      <trkpt lat="48.09502" lon="7.27683">
        <ele>322</ele>
        <time>2019-04-15T03:49:27Z</time>
      </trkpt>
      <trkpt lat="48.09506" lon="7.27691">
        <ele>322</ele>
        <time>2019-04-15T03:50:27Z</time>
      </trkpt>
      <trkpt lat="48.0951" lon="7.27699">
        <ele>322</ele>
        <time>2019-04-15T03:51:27Z</time>
      </trkpt>
      <trkpt lat="48.09514" lon="7.27706">
        <ele>321</ele>
        <time>2019-04-15T03:52:27Z</time>
      </trkpt>
      <trkpt lat="48.09519" lon="7.27712">
        <ele>321</ele>
        <time>2019-04-15T03:53:27Z</time>
      </trkpt>
      <trkpt lat="48.09524" lon="7.27717">
        <ele>320</ele>
        <time>2019-04-15T03:54:27Z</time>
      </trkpt>
      <trkpt lat="48.0953" lon="7.27722">
        <ele>320</ele>
        <time>2019-04-15T03:55:27Z</time>
      </trkpt>
      <trkpt lat="48.09535" lon="7.27725">
        <ele>319</ele>
        <time>2019-04-15T03:56:27Z</time>
      </trkpt>
      <trkpt lat="48.09542" lon="7.27727">
        <ele>318</ele>
        <time>2019-04-15T03:57:27Z</time>
      </trkpt>
      <trkpt lat="48.09548" lon="7.27729">
        <ele>318</ele>
        <time>2019-04-15T03:58:27Z</time>
      </trkpt>
      <trkpt lat="48.09555" lon="7.27729">
        <ele>317</ele>
        <time>2019-04-15T03:59:27Z</time>
      </trkpt>
      <trkpt lat="48.09561" lon="7.27729">
        <ele>317</ele>
        <time>2019-04-15T04:00:27Z</time>
      </trkpt>
      <trkpt lat="48.09568" lon="7.27729">
        <ele>316</ele>
        <time>2019-04-15T04:01:27Z</time>
      </trkpt>
      <trkpt lat="48.09596" lon="7.27727">
        <ele>314</ele>
        <time>2019-04-15T04:02:27Z</time>
      </trkpt>
      <trkpt lat="48.0961" lon="7.27726">
        <ele>313</ele>
        <time>2019-04-15T04:03:27Z</time>
      </trkpt>
      <trkpt lat="48.09633" lon="7.27722">
        <ele>311</ele>
        <time>2019-04-15T04:04:27Z</time>
      </trkpt>
      <trkpt lat="48.09656" lon="7.27714">
        <ele>309</ele>
        <time>2019-04-15T04:05:27Z</time>
      </trkpt>
      <trkpt lat="48.09664" lon="7.27711">
        <ele>309</ele>
        <time>2019-04-15T04:06:27Z</time>
      </trkpt>
      <trkpt lat="48.0968" lon="7.27705">
        <ele>308</ele>
        <time>2019-04-15T04:07:27Z</time>
      </trkpt>
      <trkpt lat="48.09713" lon="7.27689">
        <ele>306</ele>
        <time>2019-04-15T04:08:27Z</time>
      </trkpt>
      <trkpt lat="48.09728" lon="7.27682">
        <ele>306</ele>
        <time>2019-04-15T04:09:27Z</time>
      </trkpt>
      <trkpt lat="48.09736" lon="7.27679">
        <ele>305</ele>
        <time>2019-04-15T04:10:27Z</time>
      </trkpt>
      <trkpt lat="48.0974" lon="7.27677">
        <ele>305</ele>
        <time>2019-04-15T04:11:27Z</time>
      </trkpt>
      <trkpt lat="48.09784" lon="7.27656">
        <ele>305</ele>
        <time>2019-04-15T04:12:27Z</time>
      </trkpt>
      <trkpt lat="48.09836" lon="7.27631">
        <ele>306</ele>
        <time>2019-04-15T04:13:27Z</time>
      </trkpt>
      <trkpt lat="48.09853" lon="7.27622">
        <ele>306</ele>
        <time>2019-04-15T04:14:27Z</time>
      </trkpt>
      <trkpt lat="48.09868" lon="7.27615">
        <ele>306</ele>
        <time>2019-04-15T04:15:27Z</time>
      </trkpt>
      <trkpt lat="48.09873" lon="7.27613">
        <ele>306</ele>
        <time>2019-04-15T04:16:27Z</time>
      </trkpt>
      <trkpt lat="48.09882" lon="7.27609">
        <ele>306</ele>
        <time>2019-04-15T04:17:27Z</time>
      </trkpt>
      <trkpt lat="48.09886" lon="7.27607">
        <ele>306</ele>
        <time>2019-04-15T04:18:27Z</time>
      </trkpt>
      <trkpt lat="48.0989" lon="7.27604">
        <ele>306</ele>
        <time>2019-04-15T04:19:27Z</time>
      </trkpt>
      <trkpt lat="48.09892" lon="7.27603">
        <ele>306</ele>
        <time>2019-04-15T04:20:27Z</time>
      </trkpt>
      <trkpt lat="48.09894" lon="7.27601">
        <ele>306</ele>
        <time>2019-04-15T04:21:27Z</time>
      </trkpt>
      <trkpt lat="48.09896" lon="7.27598">
        <ele>307</ele>
        <time>2019-04-15T04:22:27Z</time>
      </trkpt>
      <trkpt lat="48.09899" lon="7.27593">
        <ele>307</ele>
        <time>2019-04-15T04:23:27Z</time>
      </trkpt>
      <trkpt lat="48.09901" lon="7.27588">
        <ele>307</ele>
        <time>2019-04-15T04:24:27Z</time>
      </trkpt>
      <trkpt lat="48.09902" lon="7.27584">
        <ele>307</ele>
        <time>2019-04-15T04:25:27Z</time>
      </trkpt>
      <trkpt lat="48.09904" lon="7.27578">
        <ele>307</ele>
        <time>2019-04-15T04:26:27Z</time>
      </trkpt>
      <trkpt lat="48.09905" lon="7.27572">
        <ele>308</ele>
        <time>2019-04-15T04:27:27Z</time>
      </trkpt>
      <trkpt lat="48.09906" lon="7.27561">
        <ele>308</ele>
        <time>2019-04-15T04:28:27Z</time>
      </trkpt>
      <trkpt lat="48.09909" lon="7.27542">
        <ele>309</ele>
        <time>2019-04-15T04:29:27Z</time>
      </trkpt>
      <trkpt lat="48.09912" lon="7.27518">
        <ele>310</ele>
        <time>2019-04-15T04:30:27Z</time>
      </trkpt>
      <trkpt lat="48.09915" lon="7.275">
        <ele>311</ele>
        <time>2019-04-15T04:31:27Z</time>
      </trkpt>
      <trkpt lat="48.09917" lon="7.27487">
        <ele>312</ele>
        <time>2019-04-15T04:32:27Z</time>
      </trkpt>
      <trkpt lat="48.09918" lon="7.27475">
        <ele>312</ele>
        <time>2019-04-15T04:33:27Z</time>
      </trkpt>
      <trkpt lat="48.0992" lon="7.27463">
        <ele>313</ele>
        <time>2019-04-15T04:34:27Z</time>
      </trkpt>
      <trkpt lat="48.0992" lon="7.27457">
        <ele>313</ele>
        <time>2019-04-15T04:35:27Z</time>
      </trkpt>
      <trkpt lat="48.09921" lon="7.27452">
        <ele>313</ele>
        <time>2019-04-15T04:36:27Z</time>
      </trkpt>
      <trkpt lat="48.09921" lon="7.27446">
        <ele>314</ele>
        <time>2019-04-15T04:37:27Z</time>
      </trkpt>
      <trkpt lat="48.09922" lon="7.27436">
        <ele>314</ele>
        <time>2019-04-15T04:38:27Z</time>
      </trkpt>
      <trkpt lat="48.09923" lon="7.27431">
        <ele>315</ele>
        <time>2019-04-15T04:39:27Z</time>
      </trkpt>
      <trkpt lat="48.09923" lon="7.27426">
        <ele>315</ele>
        <time>2019-04-15T04:40:27Z</time>
      </trkpt>
      <trkpt lat="48.09924" lon="7.27422">
        <ele>315</ele>
        <time>2019-04-15T04:41:27Z</time>
      </trkpt>
      <trkpt lat="48.09925" lon="7.27418">
        <ele>315</ele>
        <time>2019-04-15T04:42:27Z</time>
      </trkpt>
      <trkpt lat="48.09925" lon="7.27414">
        <ele>315</ele>
        <time>2019-04-15T04:43:27Z</time>
      </trkpt>
      <trkpt lat="48.09926" lon="7.27409">
        <ele>315</ele>
        <time>2019-04-15T04:44:27Z</time>
      </trkpt>
      <trkpt lat="48.09927" lon="7.27405">
        <ele>315</ele>
        <time>2019-04-15T04:45:27Z</time>
      </trkpt>
      <trkpt lat="48.09928" lon="7.27401">
        <ele>315</ele>
        <time>2019-04-15T04:46:27Z</time>
      </trkpt>
      <trkpt lat="48.0993" lon="7.27394">
        <ele>315</ele>
        <time>2019-04-15T04:47:27Z</time>
      </trkpt>
      <trkpt lat="48.09932" lon="7.27386">
        <ele>314</ele>
        <time>2019-04-15T04:48:27Z</time>
      </trkpt>
      <trkpt lat="48.09934" lon="7.2738">
        <ele>314</ele>
        <time>2019-04-15T04:49:27Z</time>
      </trkpt>
      <trkpt lat="48.09935" lon="7.27376">
        <ele>314</ele>
        <time>2019-04-15T04:50:27Z</time>
      </trkpt>
      <trkpt lat="48.09937" lon="7.27373">
        <ele>314</ele>
        <time>2019-04-15T04:51:27Z</time>
      </trkpt>
      <trkpt lat="48.09938" lon="7.2737">
        <ele>314</ele>
        <time>2019-04-15T04:52:27Z</time>
      </trkpt>
      <trkpt lat="48.09938" lon="7.2737">
        <ele>314</ele>
        <time>2019-04-15T04:53:27Z</time>
      </trkpt>
      <trkpt lat="48.09939" lon="7.27367">
        <ele>314</ele>
        <time>2019-04-15T04:54:27Z</time>
      </trkpt>
      <trkpt lat="48.09941" lon="7.27365">
        <ele>313</ele>
        <time>2019-04-15T04:55:27Z</time>
      </trkpt>
      <trkpt lat="48.09943" lon="7.27363">
        <ele>313</ele>
        <time>2019-04-15T04:56:27Z</time>
      </trkpt>
      <trkpt lat="48.09944" lon="7.2736">
        <ele>313</ele>
        <time>2019-04-15T04:57:27Z</time>
      </trkpt>
      <trkpt lat="48.09946" lon="7.27358">
        <ele>313</ele>
        <time>2019-04-15T04:58:27Z</time>
      </trkpt>
      <trkpt lat="48.09948" lon="7.27355">
        <ele>313</ele>
        <time>2019-04-15T04:59:27Z</time>
      </trkpt>
      <trkpt lat="48.09949" lon="7.27352">
        <ele>313</ele>
        <time>2019-04-15T05:00:27Z</time>
      </trkpt>
      <trkpt lat="48.09951" lon="7.27348">
        <ele>313</ele>
        <time>2019-04-15T05:01:27Z</time>
      </trkpt>
      <trkpt lat="48.09954" lon="7.27341">
        <ele>312</ele>
        <time>2019-04-15T05:02:27Z</time>
      </trkpt>
      <trkpt lat="48.09955" lon="7.27337">
        <ele>312</ele>
        <time>2019-04-15T05:03:27Z</time>
      </trkpt>
      <trkpt lat="48.09957" lon="7.27332">
        <ele>312</ele>
        <time>2019-04-15T05:04:27Z</time>
      </trkpt>
      <trkpt lat="48.09959" lon="7.27329">
        <ele>312</ele>
        <time>2019-04-15T05:05:27Z</time>
      </trkpt>
      <trkpt lat="48.09961" lon="7.27326">
        <ele>312</ele>
        <time>2019-04-15T05:06:27Z</time>
      </trkpt>
      <trkpt lat="48.09963" lon="7.27325">
        <ele>312</ele>
        <time>2019-04-15T05:07:27Z</time>
      </trkpt>
      <trkpt lat="48.09965" lon="7.27324">
        <ele>312</ele>
        <time>2019-04-15T05:08:27Z</time>
      </trkpt>
      <trkpt lat="48.09967" lon="7.27323">
        <ele>311</ele>
        <time>2019-04-15T05:09:27Z</time>
      </trkpt>
      <trkpt lat="48.09972" lon="7.27322">
        <ele>311</ele>
        <time>2019-04-15T05:10:27Z</time>
      </trkpt>
      <trkpt lat="48.09972" lon="7.27322">
        <ele>311</ele>
        <time>2019-04-15T05:11:27Z</time>
      </trkpt>
      <trkpt lat="48.09972" lon="7.27308">
        <ele>311</ele>
        <time>2019-04-15T05:12:27Z</time>
      </trkpt>
      <trkpt lat="48.0997" lon="7.27281">
        <ele>312</ele>
        <time>2019-04-15T05:13:27Z</time>
      </trkpt>
      <trkpt lat="48.0997" lon="7.27267">
        <ele>312</ele>
        <time>2019-04-15T05:14:27Z</time>
      </trkpt>
      <trkpt lat="48.0997" lon="7.27252">
        <ele>312</ele>
        <time>2019-04-15T05:15:27Z</time>
      </trkpt>
      <trkpt lat="48.0997" lon="7.27243">
        <ele>312</ele>
        <time>2019-04-15T05:16:27Z</time>
      </trkpt>
      <trkpt lat="48.0997" lon="7.27234">
        <ele>313</ele>
        <time>2019-04-15T05:17:27Z</time>
      </trkpt>
      <trkpt lat="48.09971" lon="7.2723">
        <ele>313</ele>
        <time>2019-04-15T05:18:27Z</time>
      </trkpt>
      <trkpt lat="48.09972" lon="7.27224">
        <ele>313</ele>
        <time>2019-04-15T05:19:27Z</time>
      </trkpt>
      <trkpt lat="48.09973" lon="7.27218">
        <ele>313</ele>
        <time>2019-04-15T05:20:27Z</time>
      </trkpt>
      <trkpt lat="48.09976" lon="7.2721">
        <ele>314</ele>
        <time>2019-04-15T05:21:27Z</time>
      </trkpt>
      <trkpt lat="48.09978" lon="7.27202">
        <ele>314</ele>
        <time>2019-04-15T05:22:27Z</time>
      </trkpt>
      <trkpt lat="48.0998" lon="7.27196">
        <ele>314</ele>
        <time>2019-04-15T05:23:27Z</time>
      </trkpt>
      <trkpt lat="48.09981" lon="7.27193">
        <ele>314</ele>
        <time>2019-04-15T05:24:27Z</time>
      </trkpt>
      <trkpt lat="48.09986" lon="7.27176">
        <ele>315</ele>
        <time>2019-04-15T05:25:27Z</time>
      </trkpt>
      <trkpt lat="48.0999" lon="7.27162">
        <ele>316</ele>
        <time>2019-04-15T05:26:27Z</time>
      </trkpt>
      <trkpt lat="48.09996" lon="7.27141">
        <ele>317</ele>
        <time>2019-04-15T05:27:27Z</time>
      </trkpt>
      <trkpt lat="48.10001" lon="7.27124">
        <ele>319</ele>
        <time>2019-04-15T05:28:27Z</time>
      </trkpt>
      <trkpt lat="48.10015" lon="7.27081">
        <ele>322</ele>
        <time>2019-04-15T05:29:27Z</time>
      </trkpt>
      <trkpt lat="48.10027" lon="7.27044">
        <ele>324</ele>
        <time>2019-04-15T05:30:27Z</time>
      </trkpt>
      <trkpt lat="48.10036" lon="7.27022">
        <ele>325</ele>
        <time>2019-04-15T05:31:27Z</time>
      </trkpt>
      <trkpt lat="48.10046" lon="7.27002">
        <ele>325</ele>
        <time>2019-04-15T05:32:27Z</time>
      </trkpt>
      <trkpt lat="48.10058" lon="7.26982">
        <ele>326</ele>
        <time>2019-04-15T05:33:27Z</time>
      </trkpt>
      <trkpt lat="48.10071" lon="7.26963">
        <ele>326</ele>
        <time>2019-04-15T05:34:27Z</time>
      </trkpt>
      <trkpt lat="48.10078" lon="7.26949">
        <ele>326</ele>
        <time>2019-04-15T05:35:27Z</time>
      </trkpt>
      <trkpt lat="48.10086" lon="7.26933">
        <ele>327</ele>
        <time>2019-04-15T05:36:27Z</time>
      </trkpt>
      <trkpt lat="48.10096" lon="7.26912">
        <ele>328</ele>
        <time>2019-04-15T05:37:27Z</time>
      </trkpt>
      <trkpt lat="48.10106" lon="7.26889">
        <ele>331</ele>
        <time>2019-04-15T05:38:27Z</time>
      </trkpt>
      <trkpt lat="48.10112" lon="7.26874">
        <ele>332</ele>
        <time>2019-04-15T05:39:27Z</time>
      </trkpt>
      <trkpt lat="48.10118" lon="7.26858">
        <ele>332</ele>
        <time>2019-04-15T05:40:27Z</time>
      </trkpt>
      <trkpt lat="48.1012" lon="7.26848">
        <ele>333</ele>
        <time>2019-04-15T05:41:27Z</time>
      </trkpt>
      <trkpt lat="48.10124" lon="7.26831">
        <ele>334</ele>
        <time>2019-04-15T05:42:27Z</time>
      </trkpt>
      <trkpt lat="48.10126" lon="7.26812">
        <ele>335</ele>
        <time>2019-04-15T05:43:27Z</time>
      </trkpt>
      <trkpt lat="48.10128" lon="7.26799">
        <ele>336</ele>
        <time>2019-04-15T05:44:27Z</time>
      </trkpt>
      <trkpt lat="48.10129" lon="7.26784">
        <ele>337</ele>
        <time>2019-04-15T05:45:27Z</time>
      </trkpt>
      <trkpt lat="48.1013" lon="7.26742">
        <ele>341</ele>
        <time>2019-04-15T05:46:27Z</time>
      </trkpt>
      <trkpt lat="48.10129" lon="7.26702">
        <ele>345</ele>
        <time>2019-04-15T05:47:27Z</time>
      </trkpt>
      <trkpt lat="48.10124" lon="7.26601">
        <ele>353</ele>
        <time>2019-04-15T05:48:27Z</time>
      </trkpt>
      <trkpt lat="48.10122" lon="7.26561">
        <ele>355</ele>
        <time>2019-04-15T05:49:27Z</time>
      </trkpt>
      <trkpt lat="48.1012" lon="7.26533">
        <ele>357</ele>
        <time>2019-04-15T05:50:27Z</time>
      </trkpt>
      <trkpt lat="48.10117" lon="7.26505">
        <ele>358</ele>
        <time>2019-04-15T05:51:27Z</time>
      </trkpt>
      <trkpt lat="48.10112" lon="7.26465">
        <ele>360</ele>
        <time>2019-04-15T05:52:27Z</time>
      </trkpt>
      <trkpt lat="48.10104" lon="7.26409">
        <ele>362</ele>
        <time>2019-04-15T05:53:27Z</time>
      </trkpt>
      <trkpt lat="48.10085" lon="7.26226">
        <ele>371</ele>
        <time>2019-04-15T05:54:27Z</time>
      </trkpt>
      <trkpt lat="48.10081" lon="7.2618">
        <ele>373</ele>
        <time>2019-04-15T05:55:27Z</time>
      </trkpt>
      <trkpt lat="48.1008" lon="7.26169">
        <ele>374</ele>
        <time>2019-04-15T05:56:27Z</time>
      </trkpt>
      <trkpt lat="48.10077" lon="7.2614">
        <ele>374</ele>
        <time>2019-04-15T05:57:27Z</time>
      </trkpt>
      <trkpt lat="48.10074" lon="7.26114">
        <ele>373</ele>
        <time>2019-04-15T05:58:27Z</time>
      </trkpt>
      <trkpt lat="48.10071" lon="7.26097">
        <ele>373</ele>
        <time>2019-04-15T05:59:27Z</time>
      </trkpt>
      <trkpt lat="48.10069" lon="7.26089">
        <ele>373</ele>
        <time>2019-04-15T06:00:27Z</time>
      </trkpt>
      <trkpt lat="48.10067" lon="7.26082">
        <ele>374</ele>
        <time>2019-04-15T06:01:27Z</time>
      </trkpt>
      <trkpt lat="48.10062" lon="7.26068">
        <ele>375</ele>
        <time>2019-04-15T06:02:27Z</time>
      </trkpt>
      <trkpt lat="48.10059" lon="7.26062">
        <ele>376</ele>
        <time>2019-04-15T06:03:27Z</time>
      </trkpt>
      <trkpt lat="48.10055" lon="7.26055">
        <ele>377</ele>
        <time>2019-04-15T06:04:27Z</time>
      </trkpt>
      <trkpt lat="48.10052" lon="7.26049">
        <ele>378</ele>
        <time>2019-04-15T06:05:27Z</time>
      </trkpt>
      <trkpt lat="48.10048" lon="7.26043">
        <ele>379</ele>
        <time>2019-04-15T06:06:27Z</time>
      </trkpt>
      <trkpt lat="48.10042" lon="7.26033">
        <ele>381</ele>
        <time>2019-04-15T06:07:27Z</time>
      </trkpt>
      <trkpt lat="48.10039" lon="7.26027">
        <ele>381</ele>
        <time>2019-04-15T06:08:27Z</time>
      </trkpt>
      <trkpt lat="48.10037" lon="7.26022">
        <ele>382</ele>
        <time>2019-04-15T06:09:27Z</time>
      </trkpt>
      <trkpt lat="48.10034" lon="7.26015">
        <ele>382</ele>
        <time>2019-04-15T06:10:27Z</time>
      </trkpt>
      <trkpt lat="48.10032" lon="7.26009">
        <ele>382</ele>
        <time>2019-04-15T06:11:27Z</time>
      </trkpt>
      <trkpt lat="48.10031" lon="7.26002">
        <ele>382</ele>
        <time>2019-04-15T06:12:27Z</time>
      </trkpt>
      <trkpt lat="48.1003" lon="7.25996">
        <ele>383</ele>
        <time>2019-04-15T06:13:27Z</time>
      </trkpt>
      <trkpt lat="48.10029" lon="7.2599">
        <ele>384</ele>
        <time>2019-04-15T06:14:27Z</time>
      </trkpt>
      <trkpt lat="48.10028" lon="7.25983">
        <ele>385</ele>
        <time>2019-04-15T06:15:27Z</time>
      </trkpt>
      <trkpt lat="48.10029" lon="7.25976">
        <ele>386</ele>
        <time>2019-04-15T06:16:27Z</time>
      </trkpt>
      <trkpt lat="48.10029" lon="7.2597">
        <ele>387</ele>
        <time>2019-04-15T06:17:27Z</time>
      </trkpt>
      <trkpt lat="48.1003" lon="7.25964">
        <ele>388</ele>
        <time>2019-04-15T06:18:27Z</time>
      </trkpt>
      <trkpt lat="48.10031" lon="7.25957">
        <ele>389</ele>
        <time>2019-04-15T06:19:27Z</time>
      </trkpt>
      <trkpt lat="48.10033" lon="7.25951">
        <ele>389</ele>
        <time>2019-04-15T06:20:27Z</time>
      </trkpt>
      <trkpt lat="48.10039" lon="7.25934">
        <ele>390</ele>
        <time>2019-04-15T06:21:27Z</time>
      </trkpt>
      <trkpt lat="48.10045" lon="7.25917">
        <ele>392</ele>
        <time>2019-04-15T06:22:27Z</time>
      </trkpt>
      <trkpt lat="48.10051" lon="7.25897">
        <ele>394</ele>
        <time>2019-04-15T06:23:27Z</time>
      </trkpt>
      <trkpt lat="48.10056" lon="7.25874">
        <ele>396</ele>
        <time>2019-04-15T06:24:27Z</time>
      </trkpt>
      <trkpt lat="48.1006" lon="7.25849">
        <ele>398</ele>
        <time>2019-04-15T06:25:27Z</time>
      </trkpt>
      <trkpt lat="48.10062" lon="7.25833">
        <ele>399</ele>
        <time>2019-04-15T06:26:27Z</time>
      </trkpt>
      <trkpt lat="48.10063" lon="7.25826">
        <ele>400</ele>
        <time>2019-04-15T06:27:27Z</time>
      </trkpt>
      <trkpt lat="48.10065" lon="7.25818">
        <ele>400</ele>
        <time>2019-04-15T06:28:27Z</time>
      </trkpt>
      <trkpt lat="48.10068" lon="7.2581">
        <ele>401</ele>
        <time>2019-04-15T06:29:27Z</time>
      </trkpt>
      <trkpt lat="48.10071" lon="7.25803">
        <ele>401</ele>
        <time>2019-04-15T06:30:27Z</time>
      </trkpt>
      <trkpt lat="48.10074" lon="7.25796">
        <ele>401</ele>
        <time>2019-04-15T06:31:27Z</time>
      </trkpt>
      <trkpt lat="48.10078" lon="7.25789">
        <ele>401</ele>
        <time>2019-04-15T06:32:27Z</time>
      </trkpt>
      <trkpt lat="48.10083" lon="7.25783">
        <ele>400</ele>
        <time>2019-04-15T06:33:27Z</time>
      </trkpt>
      <trkpt lat="48.10088" lon="7.25776">
        <ele>401</ele>
        <time>2019-04-15T06:34:27Z</time>
      </trkpt>
      <trkpt lat="48.10098" lon="7.25763">
        <ele>401</ele>
        <time>2019-04-15T06:35:27Z</time>
      </trkpt>
      <trkpt lat="48.10107" lon="7.25751">
        <ele>402</ele>
        <time>2019-04-15T06:36:27Z</time>
      </trkpt>
      <trkpt lat="48.10112" lon="7.25743">
        <ele>402</ele>
        <time>2019-04-15T06:37:27Z</time>
      </trkpt>
      <trkpt lat="48.10115" lon="7.25736">
        <ele>403</ele>
        <time>2019-04-15T06:38:27Z</time>
      </trkpt>
      <trkpt lat="48.10119" lon="7.25728">
        <ele>403</ele>
        <time>2019-04-15T06:39:27Z</time>
      </trkpt>
      <trkpt lat="48.10122" lon="7.25719">
        <ele>404</ele>
        <time>2019-04-15T06:40:27Z</time>
      </trkpt>
      <trkpt lat="48.10125" lon="7.2571">
        <ele>405</ele>
        <time>2019-04-15T06:41:27Z</time>
      </trkpt>
      <trkpt lat="48.10127" lon="7.25701">
        <ele>406</ele>
        <time>2019-04-15T06:42:27Z</time>
      </trkpt>
      <trkpt lat="48.10128" lon="7.25691">
        <ele>407</ele>
        <time>2019-04-15T06:43:27Z</time>
      </trkpt>
      <trkpt lat="48.10129" lon="7.25682">
        <ele>408</ele>
        <time>2019-04-15T06:44:27Z</time>
      </trkpt>
      <trkpt lat="48.10131" lon="7.25671">
        <ele>409</ele>
        <time>2019-04-15T06:45:27Z</time>
      </trkpt>
      <trkpt lat="48.10133" lon="7.25649">
        <ele>411</ele>
        <time>2019-04-15T06:46:27Z</time>
      </trkpt>
      <trkpt lat="48.10134" lon="7.25628">
        <ele>413</ele>
        <time>2019-04-15T06:47:27Z</time>
      </trkpt>
      <trkpt lat="48.10139" lon="7.25584">
        <ele>416</ele>
        <time>2019-04-15T06:48:27Z</time>
      </trkpt>
      <trkpt lat="48.10141" lon="7.25562">
        <ele>417</ele>
        <time>2019-04-15T06:49:27Z</time>
      </trkpt>
      <trkpt lat="48.10142" lon="7.25551">
        <ele>418</ele>
        <time>2019-04-15T06:50:27Z</time>
      </trkpt>
      <trkpt lat="48.10143" lon="7.25541">
        <ele>419</ele>
        <time>2019-04-15T06:51:27Z</time>
      </trkpt>
      <trkpt lat="48.10144" lon="7.2553">
        <ele>419</ele>
        <time>2019-04-15T06:52:27Z</time>
      </trkpt>
      <trkpt lat="48.10144" lon="7.2552">
        <ele>420</ele>
        <time>2019-04-15T06:53:27Z</time>
      </trkpt>
      <trkpt lat="48.10144" lon="7.25509">
        <ele>421</ele>
        <time>2019-04-15T06:54:27Z</time>
      </trkpt>
      <trkpt lat="48.10143" lon="7.25498">
        <ele>423</ele>
        <time>2019-04-15T06:55:27Z</time>
      </trkpt>
      <trkpt lat="48.10141" lon="7.25487">
        <ele>424</ele>
        <time>2019-04-15T06:56:27Z</time>
      </trkpt>
      <trkpt lat="48.1014" lon="7.25477">
        <ele>426</ele>
        <time>2019-04-15T06:57:27Z</time>
      </trkpt>
      <trkpt lat="48.10139" lon="7.25467">
        <ele>428</ele>
        <time>2019-04-15T06:58:27Z</time>
      </trkpt>
      <trkpt lat="48.10138" lon="7.25456">
        <ele>429</ele>
        <time>2019-04-15T06:59:27Z</time>
      </trkpt>
      <trkpt lat="48.10137" lon="7.25446">
        <ele>431</ele>
        <time>2019-04-15T07:00:27Z</time>
      </trkpt>
      <trkpt lat="48.10137" lon="7.25437">
        <ele>432</ele>
        <time>2019-04-15T07:01:27Z</time>
      </trkpt>
      <trkpt lat="48.10136" lon="7.25428">
        <ele>433</ele>
        <time>2019-04-15T07:02:27Z</time>
      </trkpt>
      <trkpt lat="48.10136" lon="7.25419">
        <ele>434</ele>
        <time>2019-04-15T07:03:27Z</time>
      </trkpt>
      <trkpt lat="48.10136" lon="7.25411">
        <ele>435</ele>
        <time>2019-04-15T07:04:27Z</time>
      </trkpt>
      <trkpt lat="48.10135" lon="7.25403">
        <ele>437</ele>
        <time>2019-04-15T07:05:27Z</time>
      </trkpt>
      <trkpt lat="48.10135" lon="7.25399">
        <ele>437</ele>
        <time>2019-04-15T07:06:27Z</time>
      </trkpt>
      <trkpt lat="48.10134" lon="7.25395">
        <ele>438</ele>
        <time>2019-04-15T07:07:27Z</time>
      </trkpt>
      <trkpt lat="48.10132" lon="7.25389">
        <ele>439</ele>
        <time>2019-04-15T07:08:27Z</time>
      </trkpt>
      <trkpt lat="48.1013" lon="7.25385">
        <ele>439</ele>
        <time>2019-04-15T07:09:27Z</time>
      </trkpt>
      <trkpt lat="48.10127" lon="7.25381">
        <ele>440</ele>
        <time>2019-04-15T07:10:27Z</time>
      </trkpt>
      <trkpt lat="48.10125" lon="7.2538">
        <ele>440</ele>
        <time>2019-04-15T07:11:27Z</time>
      </trkpt>
      <trkpt lat="48.10124" lon="7.25379">
        <ele>440</ele>
        <time>2019-04-15T07:12:27Z</time>
      </trkpt>
      <trkpt lat="48.10122" lon="7.25379">
        <ele>440</ele>
        <time>2019-04-15T07:13:27Z</time>
      </trkpt>
      <trkpt lat="48.10121" lon="7.25379">
        <ele>440</ele>
        <time>2019-04-15T07:14:27Z</time>
      </trkpt>
      <trkpt lat="48.10118" lon="7.25379">
        <ele>440</ele>
        <time>2019-04-15T07:15:27Z</time>
      </trkpt>
      <trkpt lat="48.10117" lon="7.2538">
        <ele>440</ele>
        <time>2019-04-15T07:16:27Z</time>
      </trkpt>
      <trkpt lat="48.10114" lon="7.25382">
        <ele>440</ele>
        <time>2019-04-15T07:17:27Z</time>
      </trkpt>
      <trkpt lat="48.10111" lon="7.25385">
        <ele>440</ele>
        <time>2019-04-15T07:18:27Z</time>
      </trkpt>
      <trkpt lat="48.10109" lon="7.2539">
        <ele>439</ele>
        <time>2019-04-15T07:19:27Z</time>
      </trkpt>
      <trkpt lat="48.10108" lon="7.25392">
        <ele>439</ele>
        <time>2019-04-15T07:20:27Z</time>
      </trkpt>
      <trkpt lat="48.10108" lon="7.25395">
        <ele>439</ele>
        <time>2019-04-15T07:21:27Z</time>
      </trkpt>
      <trkpt lat="48.10108" lon="7.25399">
        <ele>439</ele>
        <time>2019-04-15T07:22:27Z</time>
      </trkpt>
      <trkpt lat="48.10108" lon="7.25401">
        <ele>439</ele>
        <time>2019-04-15T07:23:27Z</time>
      </trkpt>
      <trkpt lat="48.10109" lon="7.25408">
        <ele>438</ele>
        <time>2019-04-15T07:24:27Z</time>
      </trkpt>
      <trkpt lat="48.10111" lon="7.25415">
        <ele>437</ele>
        <time>2019-04-15T07:25:27Z</time>
      </trkpt>
      <trkpt lat="48.10112" lon="7.25422">
        <ele>436</ele>
        <time>2019-04-15T07:26:27Z</time>
      </trkpt>
      <trkpt lat="48.10114" lon="7.2543">
        <ele>436</ele>
        <time>2019-04-15T07:27:27Z</time>
      </trkpt>
      <trkpt lat="48.10116" lon="7.25438">
        <ele>435</ele>
        <time>2019-04-15T07:28:27Z</time>
      </trkpt>
      <trkpt lat="48.10118" lon="7.25447">
        <ele>434</ele>
        <time>2019-04-15T07:29:27Z</time>
      </trkpt>
      <trkpt lat="48.10119" lon="7.25456">
        <ele>433</ele>
        <time>2019-04-15T07:30:27Z</time>
      </trkpt>
      <trkpt lat="48.10121" lon="7.25465">
        <ele>431</ele>
        <time>2019-04-15T07:31:27Z</time>
      </trkpt>
      <trkpt lat="48.10121" lon="7.25475">
        <ele>430</ele>
        <time>2019-04-15T07:32:27Z</time>
      </trkpt>
      <trkpt lat="48.10121" lon="7.25484">
        <ele>430</ele>
        <time>2019-04-15T07:33:27Z</time>
      </trkpt>
      <trkpt lat="48.10121" lon="7.25493">
        <ele>429</ele>
        <time>2019-04-15T07:34:27Z</time>
      </trkpt>
      <trkpt lat="48.1012" lon="7.25503">
        <ele>428</ele>
        <time>2019-04-15T07:35:27Z</time>
      </trkpt>
      <trkpt lat="48.10118" lon="7.25511">
        <ele>428</ele>
        <time>2019-04-15T07:36:27Z</time>
      </trkpt>
      <trkpt lat="48.10116" lon="7.2552">
        <ele>428</ele>
        <time>2019-04-15T07:37:27Z</time>
      </trkpt>
      <trkpt lat="48.10113" lon="7.25528">
        <ele>428</ele>
        <time>2019-04-15T07:38:27Z</time>
      </trkpt>
      <trkpt lat="48.1011" lon="7.25537">
        <ele>428</ele>
        <time>2019-04-15T07:39:27Z</time>
      </trkpt>
      <trkpt lat="48.10105" lon="7.25544">
        <ele>428</ele>
        <time>2019-04-15T07:40:27Z</time>
      </trkpt>
      <trkpt lat="48.10101" lon="7.25552">
        <ele>428</ele>
        <time>2019-04-15T07:41:27Z</time>
      </trkpt>
      <trkpt lat="48.10095" lon="7.25559">
        <ele>429</ele>
        <time>2019-04-15T07:42:27Z</time>
      </trkpt>
      <trkpt lat="48.1009" lon="7.25566">
        <ele>430</ele>
        <time>2019-04-15T07:43:27Z</time>
      </trkpt>
      <trkpt lat="48.10085" lon="7.25573">
        <ele>431</ele>
        <time>2019-04-15T07:44:27Z</time>
      </trkpt>
      <trkpt lat="48.1008" lon="7.2558">
        <ele>432</ele>
        <time>2019-04-15T07:45:27Z</time>
      </trkpt>
      <trkpt lat="48.10075" lon="7.25588">
        <ele>433</ele>
        <time>2019-04-15T07:46:27Z</time>
      </trkpt>
      <trkpt lat="48.1007" lon="7.25596">
        <ele>434</ele>
        <time>2019-04-15T07:47:27Z</time>
      </trkpt>
      <trkpt lat="48.10065" lon="7.25604">
        <ele>435</ele>
        <time>2019-04-15T07:48:27Z</time>
      </trkpt>
      <trkpt lat="48.1006" lon="7.25612">
        <ele>436</ele>
        <time>2019-04-15T07:49:27Z</time>
      </trkpt>
      <trkpt lat="48.1005" lon="7.2563">
        <ele>438</ele>
        <time>2019-04-15T07:50:27Z</time>
      </trkpt>
      <trkpt lat="48.10041" lon="7.25648">
        <ele>439</ele>
        <time>2019-04-15T07:51:27Z</time>
      </trkpt>
      <trkpt lat="48.10027" lon="7.25678">
        <ele>439</ele>
        <time>2019-04-15T07:52:27Z</time>
      </trkpt>
      <trkpt lat="48.10012" lon="7.25708">
        <ele>438</ele>
        <time>2019-04-15T07:53:27Z</time>
      </trkpt>
      <trkpt lat="48.09999" lon="7.25738">
        <ele>435</ele>
        <time>2019-04-15T07:54:27Z</time>
      </trkpt>
      <trkpt lat="48.0999" lon="7.25756">
        <ele>433</ele>
        <time>2019-04-15T07:55:27Z</time>
      </trkpt>
      <trkpt lat="48.09987" lon="7.25764">
        <ele>432</ele>
        <time>2019-04-15T07:56:27Z</time>
      </trkpt>
      <trkpt lat="48.09983" lon="7.25771">
        <ele>432</ele>
        <time>2019-04-15T07:57:27Z</time>
      </trkpt>
      <trkpt lat="48.09979" lon="7.25777">
        <ele>431</ele>
        <time>2019-04-15T07:58:27Z</time>
      </trkpt>
      <trkpt lat="48.09974" lon="7.25782">
        <ele>431</ele>
        <time>2019-04-15T07:59:27Z</time>
      </trkpt>
      <trkpt lat="48.0997" lon="7.25785">
        <ele>431</ele>
        <time>2019-04-15T08:00:27Z</time>
      </trkpt>
      <trkpt lat="48.09966" lon="7.25786">
        <ele>431</ele>
        <time>2019-04-15T08:01:27Z</time>
      </trkpt>
      <trkpt lat="48.09962" lon="7.25786">
        <ele>432</ele>
        <time>2019-04-15T08:02:27Z</time>
      </trkpt>
      <trkpt lat="48.09958" lon="7.25784">
        <ele>433</ele>
        <time>2019-04-15T08:03:27Z</time>
      </trkpt>
      <trkpt lat="48.09949" lon="7.25778">
        <ele>436</ele>
        <time>2019-04-15T08:04:27Z</time>
      </trkpt>
      <trkpt lat="48.09934" lon="7.25765">
        <ele>441</ele>
        <time>2019-04-15T08:05:27Z</time>
      </trkpt>
      <trkpt lat="48.09929" lon="7.25761">
        <ele>443</ele>
        <time>2019-04-15T08:06:27Z</time>
      </trkpt>
      <trkpt lat="48.09924" lon="7.25756">
        <ele>445</ele>
        <time>2019-04-15T08:07:27Z</time>
      </trkpt>
      <trkpt lat="48.09918" lon="7.25752">
        <ele>447</ele>
        <time>2019-04-15T08:08:27Z</time>
      </trkpt>
      <trkpt lat="48.09912" lon="7.25747">
        <ele>450</ele>
        <time>2019-04-15T08:09:27Z</time>
      </trkpt>
      <trkpt lat="48.09906" lon="7.25743">
        <ele>452</ele>
        <time>2019-04-15T08:10:27Z</time>
      </trkpt>
      <trkpt lat="48.09901" lon="7.25739">
        <ele>454</ele>
        <time>2019-04-15T08:11:27Z</time>
      </trkpt>
      <trkpt lat="48.09895" lon="7.25736">
        <ele>455</ele>
        <time>2019-04-15T08:12:27Z</time>
      </trkpt>
      <trkpt lat="48.09888" lon="7.25734">
        <ele>457</ele>
        <time>2019-04-15T08:13:27Z</time>
      </trkpt>
      <trkpt lat="48.09882" lon="7.25732">
        <ele>458</ele>
        <time>2019-04-15T08:14:27Z</time>
      </trkpt>
      <trkpt lat="48.09875" lon="7.25732">
        <ele>459</ele>
        <time>2019-04-15T08:15:27Z</time>
      </trkpt>
      <trkpt lat="48.09862" lon="7.25731">
        <ele>460</ele>
        <time>2019-04-15T08:16:27Z</time>
      </trkpt>
      <trkpt lat="48.09856" lon="7.25732">
        <ele>461</ele>
        <time>2019-04-15T08:17:27Z</time>
      </trkpt>
      <trkpt lat="48.09849" lon="7.25733">
        <ele>461</ele>
        <time>2019-04-15T08:18:27Z</time>
      </trkpt>
      <trkpt lat="48.09844" lon="7.25735">
        <ele>461</ele>
        <time>2019-04-15T08:19:27Z</time>
      </trkpt>
      <trkpt lat="48.09838" lon="7.25738">
        <ele>461</ele>
        <time>2019-04-15T08:20:27Z</time>
      </trkpt>
      <trkpt lat="48.09832" lon="7.25741">
        <ele>461</ele>
        <time>2019-04-15T08:21:27Z</time>
      </trkpt>
      <trkpt lat="48.09827" lon="7.25745">
        <ele>461</ele>
        <time>2019-04-15T08:22:27Z</time>
      </trkpt>
      <trkpt lat="48.09822" lon="7.2575">
        <ele>461</ele>
        <time>2019-04-15T08:23:27Z</time>
      </trkpt>
      <trkpt lat="48.09818" lon="7.25756">
        <ele>462</ele>
        <time>2019-04-15T08:24:27Z</time>
      </trkpt>
      <trkpt lat="48.09813" lon="7.25762">
        <ele>462</ele>
        <time>2019-04-15T08:25:27Z</time>
      </trkpt>
      <trkpt lat="48.09809" lon="7.25769">
        <ele>463</ele>
        <time>2019-04-15T08:26:27Z</time>
      </trkpt>
      <trkpt lat="48.09805" lon="7.25776">
        <ele>463</ele>
        <time>2019-04-15T08:27:27Z</time>
      </trkpt>
      <trkpt lat="48.09801" lon="7.25783">
        <ele>464</ele>
        <time>2019-04-15T08:28:27Z</time>
      </trkpt>
      <trkpt lat="48.09798" lon="7.25791">
        <ele>464</ele>
        <time>2019-04-15T08:29:27Z</time>
      </trkpt>
      <trkpt lat="48.09795" lon="7.258">
        <ele>465</ele>
        <time>2019-04-15T08:30:27Z</time>
      </trkpt>
      <trkpt lat="48.09792" lon="7.25809">
        <ele>465</ele>
        <time>2019-04-15T08:31:27Z</time>
      </trkpt>
      <trkpt lat="48.0979" lon="7.25818">
        <ele>465</ele>
        <time>2019-04-15T08:32:27Z</time>
      </trkpt>
      <trkpt lat="48.09788" lon="7.25828">
        <ele>465</ele>
        <time>2019-04-15T08:33:27Z</time>
      </trkpt>
      <trkpt lat="48.09786" lon="7.25841">
        <ele>465</ele>
        <time>2019-04-15T08:34:27Z</time>
      </trkpt>
      <trkpt lat="48.09784" lon="7.25862">
        <ele>466</ele>
        <time>2019-04-15T08:35:27Z</time>
      </trkpt>
      <trkpt lat="48.09784" lon="7.25874">
        <ele>466</ele>
        <time>2019-04-15T08:36:27Z</time>
      </trkpt>
      <trkpt lat="48.09782" lon="7.25926">
        <ele>466</ele>
        <time>2019-04-15T08:37:27Z</time>
      </trkpt>
      <trkpt lat="48.09782" lon="7.2594">
        <ele>466</ele>
        <time>2019-04-15T08:38:27Z</time>
      </trkpt>
      <trkpt lat="48.09781" lon="7.25953">
        <ele>466</ele>
        <time>2019-04-15T08:39:27Z</time>
      </trkpt>
      <trkpt lat="48.09781" lon="7.25967">
        <ele>465</ele>
        <time>2019-04-15T08:40:27Z</time>
      </trkpt>
      <trkpt lat="48.0978" lon="7.25979">
        <ele>466</ele>
        <time>2019-04-15T08:41:27Z</time>
      </trkpt>
      <trkpt lat="48.09779" lon="7.26006">
        <ele>465</ele>
        <time>2019-04-15T08:42:27Z</time>
      </trkpt>
      <trkpt lat="48.09778" lon="7.26046">
        <ele>465</ele>
        <time>2019-04-15T08:43:27Z</time>
      </trkpt>
      <trkpt lat="48.09778" lon="7.26056">
        <ele>465</ele>
        <time>2019-04-15T08:44:27Z</time>
      </trkpt>
      <trkpt lat="48.09776" lon="7.26074">
        <ele>466</ele>
        <time>2019-04-15T08:45:27Z</time>
      </trkpt>
      <trkpt lat="48.09776" lon="7.26082">
        <ele>466</ele>
        <time>2019-04-15T08:46:27Z</time>
      </trkpt>
      <trkpt lat="48.09775" lon="7.2609">
        <ele>465</ele>
        <time>2019-04-15T08:47:27Z</time>
      </trkpt>
      <trkpt lat="48.09774" lon="7.26098">
        <ele>465</ele>
        <time>2019-04-15T08:48:27Z</time>
      </trkpt>
      <trkpt lat="48.09772" lon="7.26106">
        <ele>465</ele>
        <time>2019-04-15T08:49:27Z</time>
      </trkpt>
      <trkpt lat="48.0977" lon="7.26113">
        <ele>465</ele>
        <time>2019-04-15T08:50:27Z</time>
      </trkpt>
      <trkpt lat="48.09768" lon="7.26121">
        <ele>465</ele>
        <time>2019-04-15T08:51:27Z</time>
      </trkpt>
      <trkpt lat="48.09763" lon="7.26136">
        <ele>464</ele>
        <time>2019-04-15T08:52:27Z</time>
      </trkpt>
      <trkpt lat="48.09759" lon="7.26148">
        <ele>464</ele>
        <time>2019-04-15T08:53:27Z</time>
      </trkpt>
      <trkpt lat="48.09756" lon="7.26156">
        <ele>464</ele>
        <time>2019-04-15T08:54:27Z</time>
      </trkpt>
      <trkpt lat="48.09755" lon="7.2616">
        <ele>464</ele>
        <time>2019-04-15T08:55:27Z</time>
      </trkpt>
      <trkpt lat="48.09752" lon="7.26165">
        <ele>464</ele>
        <time>2019-04-15T08:56:27Z</time>
      </trkpt>
      <trkpt lat="48.09749" lon="7.26169">
        <ele>464</ele>
        <time>2019-04-15T08:57:27Z</time>
      </trkpt>
      <trkpt lat="48.09746" lon="7.26171">
        <ele>464</ele>
        <time>2019-04-15T08:58:27Z</time>
      </trkpt>
      <trkpt lat="48.09742" lon="7.26172">
        <ele>464</ele>
        <time>2019-04-15T08:59:27Z</time>
      </trkpt>
      <trkpt lat="48.09739" lon="7.26172">
        <ele>464</ele>
        <time>2019-04-15T09:00:27Z</time>
      </trkpt>
      <trkpt lat="48.09737" lon="7.26172">
        <ele>464</ele>
        <time>2019-04-15T09:01:27Z</time>
      </trkpt>
      <trkpt lat="48.09735" lon="7.2617">
        <ele>464</ele>
        <time>2019-04-15T09:02:27Z</time>
      </trkpt>
      <trkpt lat="48.09734" lon="7.26169">
        <ele>464</ele>
        <time>2019-04-15T09:03:27Z</time>
      </trkpt>
      <trkpt lat="48.09732" lon="7.26165">
        <ele>465</ele>
        <time>2019-04-15T09:04:27Z</time>
      </trkpt>
      <trkpt lat="48.0973" lon="7.2616">
        <ele>466</ele>
        <time>2019-04-15T09:05:27Z</time>
      </trkpt>
      <trkpt lat="48.0973" lon="7.26156">
        <ele>466</ele>
        <time>2019-04-15T09:06:27Z</time>
      </trkpt>
      <trkpt lat="48.0973" lon="7.26151">
        <ele>467</ele>
        <time>2019-04-15T09:07:27Z</time>
      </trkpt>
      <trkpt lat="48.09731" lon="7.26145">
        <ele>467</ele>
        <time>2019-04-15T09:08:27Z</time>
      </trkpt>
      <trkpt lat="48.09733" lon="7.26139">
        <ele>468</ele>
        <time>2019-04-15T09:09:27Z</time>
      </trkpt>
      <trkpt lat="48.09734" lon="7.26133">
        <ele>469</ele>
        <time>2019-04-15T09:10:27Z</time>
      </trkpt>
      <trkpt lat="48.09736" lon="7.26127">
        <ele>469</ele>
        <time>2019-04-15T09:11:27Z</time>
      </trkpt>
      <trkpt lat="48.09739" lon="7.26117">
        <ele>470</ele>
        <time>2019-04-15T09:12:27Z</time>
      </trkpt>
      <trkpt lat="48.0974" lon="7.26109">
        <ele>471</ele>
        <time>2019-04-15T09:13:27Z</time>
      </trkpt>
      <trkpt lat="48.09741" lon="7.26101">
        <ele>472</ele>
        <time>2019-04-15T09:14:27Z</time>
      </trkpt>
      <trkpt lat="48.09742" lon="7.26091">
        <ele>473</ele>
        <time>2019-04-15T09:15:27Z</time>
      </trkpt>
      <trkpt lat="48.09742" lon="7.26081">
        <ele>474</ele>
        <time>2019-04-15T09:16:27Z</time>
      </trkpt>
      <trkpt lat="48.09742" lon="7.26072">
        <ele>475</ele>
        <time>2019-04-15T09:17:27Z</time>
      </trkpt>
      <trkpt lat="48.09741" lon="7.26061">
        <ele>476</ele>
        <time>2019-04-15T09:18:27Z</time>
      </trkpt>
      <trkpt lat="48.0974" lon="7.26039">
        <ele>477</ele>
        <time>2019-04-15T09:19:27Z</time>
      </trkpt>
      <trkpt lat="48.09736" lon="7.25981">
        <ele>482</ele>
        <time>2019-04-15T09:20:27Z</time>
      </trkpt>
      <trkpt lat="48.09734" lon="7.25954">
        <ele>484</ele>
        <time>2019-04-15T09:21:27Z</time>
      </trkpt>
      <trkpt lat="48.0973" lon="7.25903">
        <ele>487</ele>
        <time>2019-04-15T09:22:27Z</time>
      </trkpt>
      <trkpt lat="48.09729" lon="7.2589">
        <ele>487</ele>
        <time>2019-04-15T09:23:27Z</time>
      </trkpt>
      <trkpt lat="48.09725" lon="7.25849">
        <ele>488</ele>
        <time>2019-04-15T09:24:27Z</time>
      </trkpt>
      <trkpt lat="48.09724" lon="7.25836">
        <ele>488</ele>
        <time>2019-04-15T09:25:27Z</time>
      </trkpt>
      <trkpt lat="48.09722" lon="7.25822">
        <ele>489</ele>
        <time>2019-04-15T09:26:27Z</time>
      </trkpt>
      <trkpt lat="48.0972" lon="7.25809">
        <ele>489</ele>
        <time>2019-04-15T09:27:27Z</time>
      </trkpt>
      <trkpt lat="48.09717" lon="7.25795">
        <ele>490</ele>
        <time>2019-04-15T09:28:27Z</time>
      </trkpt>
      <trkpt lat="48.09715" lon="7.25783">
        <ele>490</ele>
        <time>2019-04-15T09:29:27Z</time>
      </trkpt>
      <trkpt lat="48.09705" lon="7.25735">
        <ele>491</ele>
        <time>2019-04-15T09:30:27Z</time>
      </trkpt>
      <trkpt lat="48.09703" lon="7.25724">
        <ele>492</ele>
        <time>2019-04-15T09:31:27Z</time>
      </trkpt>
      <trkpt lat="48.09698" lon="7.25703">
        <ele>494</ele>
        <time>2019-04-15T09:32:27Z</time>
      </trkpt>
      <trkpt lat="48.09697" lon="7.25694">
        <ele>494</ele>
        <time>2019-04-15T09:33:27Z</time>
      </trkpt>
      <trkpt lat="48.09696" lon="7.25686">
        <ele>495</ele>
        <time>2019-04-15T09:34:27Z</time>
      </trkpt>
      <trkpt lat="48.09695" lon="7.25683">
        <ele>495</ele>
        <time>2019-04-15T09:35:27Z</time>
      </trkpt>
      <trkpt lat="48.09695" lon="7.25678">
        <ele>495</ele>
        <time>2019-04-15T09:36:27Z</time>
      </trkpt>
      <trkpt lat="48.09696" lon="7.25671">
        <ele>495</ele>
        <time>2019-04-15T09:37:27Z</time>
      </trkpt>
      <trkpt lat="48.09696" lon="7.25666">
        <ele>496</ele>
        <time>2019-04-15T09:38:27Z</time>
      </trkpt>
      <trkpt lat="48.09697" lon="7.25661">
        <ele>496</ele>
        <time>2019-04-15T09:39:27Z</time>
      </trkpt>
      <trkpt lat="48.09698" lon="7.25657">
        <ele>497</ele>
        <time>2019-04-15T09:40:27Z</time>
      </trkpt>
      <trkpt lat="48.09699" lon="7.25652">
        <ele>498</ele>
        <time>2019-04-15T09:41:27Z</time>
      </trkpt>
      <trkpt lat="48.097" lon="7.25649">
        <ele>498</ele>
        <time>2019-04-15T09:42:27Z</time>
      </trkpt>
      <trkpt lat="48.09702" lon="7.25642">
        <ele>499</ele>
        <time>2019-04-15T09:43:27Z</time>
      </trkpt>
      <trkpt lat="48.09719" lon="7.25627">
        <ele>502</ele>
        <time>2019-04-15T09:44:27Z</time>
      </trkpt>
      <trkpt lat="48.09736" lon="7.2561">
        <ele>506</ele>
        <time>2019-04-15T09:45:27Z</time>
      </trkpt>
      <trkpt lat="48.09765" lon="7.25589">
        <ele>511</ele>
        <time>2019-04-15T09:46:27Z</time>
      </trkpt>
      <trkpt lat="48.09797" lon="7.25574">
        <ele>513</ele>
        <time>2019-04-15T09:47:27Z</time>
      </trkpt>
      <trkpt lat="48.09835" lon="7.25565">
        <ele>514</ele>
        <time>2019-04-15T09:48:27Z</time>
      </trkpt>
      <trkpt lat="48.09859" lon="7.25558">
        <ele>512</ele>
        <time>2019-04-15T09:49:27Z</time>
      </trkpt>
      <trkpt lat="48.09884" lon="7.25555">
        <ele>508</ele>
        <time>2019-04-15T09:50:27Z</time>
      </trkpt>
      <trkpt lat="48.09889" lon="7.25552">
        <ele>508</ele>
        <time>2019-04-15T09:51:27Z</time>
      </trkpt>
      <trkpt lat="48.09892" lon="7.2555">
        <ele>508</ele>
        <time>2019-04-15T09:52:27Z</time>
      </trkpt>
      <trkpt lat="48.09896" lon="7.25547">
        <ele>508</ele>
        <time>2019-04-15T09:53:27Z</time>
      </trkpt>
      <trkpt lat="48.09899" lon="7.25543">
        <ele>508</ele>
        <time>2019-04-15T09:54:27Z</time>
      </trkpt>
      <trkpt lat="48.09903" lon="7.25538">
        <ele>508</ele>
        <time>2019-04-15T09:55:27Z</time>
      </trkpt>
      <trkpt lat="48.09906" lon="7.25531">
        <ele>509</ele>
        <time>2019-04-15T09:56:27Z</time>
      </trkpt>
      <trkpt lat="48.0991" lon="7.25525">
        <ele>509</ele>
        <time>2019-04-15T09:57:27Z</time>
      </trkpt>
      <trkpt lat="48.09919" lon="7.25494">
        <ele>512</ele>
        <time>2019-04-15T09:58:27Z</time>
      </trkpt>
      <trkpt lat="48.09922" lon="7.25473">
        <ele>513</ele>
        <time>2019-04-15T09:59:27Z</time>
      </trkpt>
      <trkpt lat="48.09923" lon="7.25457">
        <ele>514</ele>
        <time>2019-04-15T10:00:27Z</time>
      </trkpt>
      <trkpt lat="48.09923" lon="7.25428">
        <ele>517</ele>
        <time>2019-04-15T10:01:27Z</time>
      </trkpt>
      <trkpt lat="48.09922" lon="7.25417">
        <ele>518</ele>
        <time>2019-04-15T10:02:27Z</time>
      </trkpt>
      <trkpt lat="48.09921" lon="7.25405">
        <ele>519</ele>
        <time>2019-04-15T10:03:27Z</time>
      </trkpt>
      <trkpt lat="48.09918" lon="7.2539">
        <ele>521</ele>
        <time>2019-04-15T10:04:27Z</time>
      </trkpt>
      <trkpt lat="48.09914" lon="7.25376">
        <ele>523</ele>
        <time>2019-04-15T10:05:27Z</time>
      </trkpt>
      <trkpt lat="48.0991" lon="7.25364">
        <ele>525</ele>
        <time>2019-04-15T10:06:27Z</time>
      </trkpt>
      <trkpt lat="48.09899" lon="7.2533">
        <ele>529</ele>
        <time>2019-04-15T10:07:27Z</time>
      </trkpt>
      <trkpt lat="48.09889" lon="7.25289">
        <ele>531</ele>
        <time>2019-04-15T10:08:27Z</time>
      </trkpt>
      <trkpt lat="48.09873" lon="7.25217">
        <ele>535</ele>
        <time>2019-04-15T10:09:27Z</time>
      </trkpt>
      <trkpt lat="48.09865" lon="7.25167">
        <ele>537</ele>
        <time>2019-04-15T10:10:27Z</time>
      </trkpt>
      <trkpt lat="48.0986" lon="7.25109">
        <ele>541</ele>
        <time>2019-04-15T10:11:27Z</time>
      </trkpt>
      <trkpt lat="48.09857" lon="7.25068">
        <ele>542</ele>
        <time>2019-04-15T10:12:27Z</time>
      </trkpt>
      <trkpt lat="48.09856" lon="7.25033">
        <ele>541</ele>
        <time>2019-04-15T10:13:27Z</time>
      </trkpt>
      <trkpt lat="48.09854" lon="7.25017">
        <ele>541</ele>
        <time>2019-04-15T10:14:27Z</time>
      </trkpt>
      <trkpt lat="48.09853" lon="7.25006">
        <ele>541</ele>
        <time>2019-04-15T10:15:27Z</time>
      </trkpt>
      <trkpt lat="48.09852" lon="7.24994">
        <ele>541</ele>
        <time>2019-04-15T10:16:27Z</time>
      </trkpt>
      <trkpt lat="48.0985" lon="7.24981">
        <ele>543</ele>
        <time>2019-04-15T10:17:27Z</time>
      </trkpt>
      <trkpt lat="48.09848" lon="7.24966">
        <ele>544</ele>
        <time>2019-04-15T10:18:27Z</time>
      </trkpt>
      <trkpt lat="48.09846" lon="7.24955">
        <ele>545</ele>
        <time>2019-04-15T10:19:27Z</time>
      </trkpt>
      <trkpt lat="48.09843" lon="7.24942">
        <ele>547</ele>
        <time>2019-04-15T10:20:27Z</time>
      </trkpt>
      <trkpt lat="48.09829" lon="7.24886">
        <ele>552</ele>
        <time>2019-04-15T10:21:27Z</time>
      </trkpt>
      <trkpt lat="48.09814" lon="7.24816">
        <ele>554</ele>
        <time>2019-04-15T10:22:27Z</time>
      </trkpt>
      <trkpt lat="48.09809" lon="7.24795">
        <ele>556</ele>
        <time>2019-04-15T10:23:27Z</time>
      </trkpt>
      <trkpt lat="48.09806" lon="7.24778">
        <ele>557</ele>
        <time>2019-04-15T10:24:27Z</time>
      </trkpt>
      <trkpt lat="48.09806" lon="7.24768">
        <ele>557</ele>
        <time>2019-04-15T10:25:27Z</time>
      </trkpt>
      <trkpt lat="48.09806" lon="7.24756">
        <ele>557</ele>
        <time>2019-04-15T10:26:27Z</time>
      </trkpt>
      <trkpt lat="48.09805" lon="7.24742">
        <ele>558</ele>
        <time>2019-04-15T10:27:27Z</time>
      </trkpt>
      <trkpt lat="48.09805" lon="7.24732">
        <ele>558</ele>
        <time>2019-04-15T10:28:27Z</time>
      </trkpt>
      <trkpt lat="48.09804" lon="7.24716">
        <ele>559</ele>
        <time>2019-04-15T10:29:27Z</time>
      </trkpt>
      <trkpt lat="48.09803" lon="7.24704">
        <ele>560</ele>
        <time>2019-04-15T10:30:27Z</time>
      </trkpt>
      <trkpt lat="48.09798" lon="7.24642">
        <ele>565</ele>
        <time>2019-04-15T10:31:27Z</time>
      </trkpt>
      <trkpt lat="48.09795" lon="7.24596">
        <ele>567</ele>
        <time>2019-04-15T10:32:27Z</time>
      </trkpt>
      <trkpt lat="48.09794" lon="7.24566">
        <ele>569</ele>
        <time>2019-04-15T10:33:27Z</time>
      </trkpt>
      <trkpt lat="48.09795" lon="7.24552">
        <ele>571</ele>
        <time>2019-04-15T10:34:27Z</time>
      </trkpt>
      <trkpt lat="48.09796" lon="7.24542">
        <ele>572</ele>
        <time>2019-04-15T10:35:27Z</time>
      </trkpt>
      <trkpt lat="48.09797" lon="7.24537">
        <ele>572</ele>
        <time>2019-04-15T10:36:27Z</time>
      </trkpt>
      <trkpt lat="48.098" lon="7.24529">
        <ele>572</ele>
        <time>2019-04-15T10:37:27Z</time>
      </trkpt>
      <trkpt lat="48.09802" lon="7.24523">
        <ele>572</ele>
        <time>2019-04-15T10:38:27Z</time>
      </trkpt>
      <trkpt lat="48.09818" lon="7.24495">
        <ele>571</ele>
        <time>2019-04-15T10:39:27Z</time>
      </trkpt>
      <trkpt lat="48.09841" lon="7.24462">
        <ele>569</ele>
        <time>2019-04-15T10:40:27Z</time>
      </trkpt>
      <trkpt lat="48.09856" lon="7.24436">
        <ele>568</ele>
        <time>2019-04-15T10:41:27Z</time>
      </trkpt>
      <trkpt lat="48.09866" lon="7.24408">
        <ele>569</ele>
        <time>2019-04-15T10:42:27Z</time>
      </trkpt>
      <trkpt lat="48.09879" lon="7.24352">
        <ele>572</ele>
        <time>2019-04-15T10:43:27Z</time>
      </trkpt>
      <trkpt lat="48.09888" lon="7.24297">
        <ele>573</ele>
        <time>2019-04-15T10:44:27Z</time>
      </trkpt>
      <trkpt lat="48.0989" lon="7.24271">
        <ele>573</ele>
        <time>2019-04-15T10:45:27Z</time>
      </trkpt>
      <trkpt lat="48.09889" lon="7.24224">
        <ele>574</ele>
        <time>2019-04-15T10:46:27Z</time>
      </trkpt>
      <trkpt lat="48.09887" lon="7.24208">
        <ele>575</ele>
        <time>2019-04-15T10:47:27Z</time>
      </trkpt>
      <trkpt lat="48.09884" lon="7.24196">
        <ele>575</ele>
        <time>2019-04-15T10:48:27Z</time>
      </trkpt>
      <trkpt lat="48.0988" lon="7.24181">
        <ele>576</ele>
        <time>2019-04-15T10:49:27Z</time>
      </trkpt>
      <trkpt lat="48.09877" lon="7.24173">
        <ele>577</ele>
        <time>2019-04-15T10:50:27Z</time>
      </trkpt>
      <trkpt lat="48.09875" lon="7.24165">
        <ele>577</ele>
        <time>2019-04-15T10:51:27Z</time>
      </trkpt>
      <trkpt lat="48.09872" lon="7.24153">
        <ele>578</ele>
        <time>2019-04-15T10:52:27Z</time>
      </trkpt>
      <trkpt lat="48.09868" lon="7.24133">
        <ele>578</ele>
        <time>2019-04-15T10:53:27Z</time>
      </trkpt>
      <trkpt lat="48.09869" lon="7.24121">
        <ele>578</ele>
        <time>2019-04-15T10:54:27Z</time>
      </trkpt>
      <trkpt lat="48.0987" lon="7.2411">
        <ele>578</ele>
        <time>2019-04-15T10:55:27Z</time>
      </trkpt>
      <trkpt lat="48.09871" lon="7.24104">
        <ele>579</ele>
        <time>2019-04-15T10:56:27Z</time>
      </trkpt>
      <trkpt lat="48.09877" lon="7.24074">
        <ele>579</ele>
        <time>2019-04-15T10:57:27Z</time>
      </trkpt>
      <trkpt lat="48.09883" lon="7.24048">
        <ele>581</ele>
        <time>2019-04-15T10:58:27Z</time>
      </trkpt>
      <trkpt lat="48.09887" lon="7.24031">
        <ele>582</ele>
        <time>2019-04-15T10:59:27Z</time>
      </trkpt>
      <trkpt lat="48.09888" lon="7.24026">
        <ele>582</ele>
        <time>2019-04-15T11:00:27Z</time>
      </trkpt>
      <trkpt lat="48.09888" lon="7.2402">
        <ele>582</ele>
        <time>2019-04-15T11:01:27Z</time>
      </trkpt>
      <trkpt lat="48.09888" lon="7.24013">
        <ele>583</ele>
        <time>2019-04-15T11:02:27Z</time>
      </trkpt>
      <trkpt lat="48.09889" lon="7.24006">
        <ele>583</ele>
        <time>2019-04-15T11:03:27Z</time>
      </trkpt>
      <trkpt lat="48.09888" lon="7.23997">
        <ele>584</ele>
        <time>2019-04-15T11:04:27Z</time>
      </trkpt>
      <trkpt lat="48.09883" lon="7.23982">
        <ele>584</ele>
        <time>2019-04-15T11:05:27Z</time>
      </trkpt>
      <trkpt lat="48.09878" lon="7.23969">
        <ele>585</ele>
        <time>2019-04-15T11:06:27Z</time>
      </trkpt>
      <trkpt lat="48.0987" lon="7.23948">
        <ele>586</ele>
        <time>2019-04-15T11:07:27Z</time>
      </trkpt>
      <trkpt lat="48.09862" lon="7.23928">
        <ele>587</ele>
        <time>2019-04-15T11:08:27Z</time>
      </trkpt>
      <trkpt lat="48.0986" lon="7.23921">
        <ele>587</ele>
        <time>2019-04-15T11:09:27Z</time>
      </trkpt>
      <trkpt lat="48.09859" lon="7.23914">
        <ele>587</ele>
        <time>2019-04-15T11:10:27Z</time>
      </trkpt>
      <trkpt lat="48.09858" lon="7.23906">
        <ele>587</ele>
        <time>2019-04-15T11:11:27Z</time>
      </trkpt>
      <trkpt lat="48.09859" lon="7.23897">
        <ele>588</ele>
        <time>2019-04-15T11:12:27Z</time>
      </trkpt>
      <trkpt lat="48.09859" lon="7.23891">
        <ele>588</ele>
        <time>2019-04-15T11:13:27Z</time>
      </trkpt>
      <trkpt lat="48.09861" lon="7.23879">
        <ele>589</ele>
        <time>2019-04-15T11:14:27Z</time>
      </trkpt>
      <trkpt lat="48.09864" lon="7.23863">
        <ele>590</ele>
        <time>2019-04-15T11:15:27Z</time>
      </trkpt>
      <trkpt lat="48.09877" lon="7.23828">
        <ele>595</ele>
        <time>2019-04-15T11:16:27Z</time>
      </trkpt>
      <trkpt lat="48.09888" lon="7.23807">
        <ele>597</ele>
        <time>2019-04-15T11:17:27Z</time>
      </trkpt>
      <trkpt lat="48.09918" lon="7.23765">
        <ele>605</ele>
        <time>2019-04-15T11:18:27Z</time>
      </trkpt>
      <trkpt lat="48.09939" lon="7.23739">
        <ele>609</ele>
        <time>2019-04-15T11:19:27Z</time>
      </trkpt>
      <trkpt lat="48.0995" lon="7.23724">
        <ele>613</ele>
        <time>2019-04-15T11:20:27Z</time>
      </trkpt>
      <trkpt lat="48.09954" lon="7.23714">
        <ele>615</ele>
        <time>2019-04-15T11:21:27Z</time>
      </trkpt>
      <trkpt lat="48.0996" lon="7.23701">
        <ele>618</ele>
        <time>2019-04-15T11:22:27Z</time>
      </trkpt>
      <trkpt lat="48.09961" lon="7.23692">
        <ele>620</ele>
        <time>2019-04-15T11:23:27Z</time>
      </trkpt>
      <trkpt lat="48.09961" lon="7.23683">
        <ele>621</ele>
        <time>2019-04-15T11:24:27Z</time>
      </trkpt>
      <trkpt lat="48.0996" lon="7.23673">
        <ele>622</ele>
        <time>2019-04-15T11:25:27Z</time>
      </trkpt>
      <trkpt lat="48.09959" lon="7.23665">
        <ele>623</ele>
        <time>2019-04-15T11:26:27Z</time>
      </trkpt>
      <trkpt lat="48.09957" lon="7.23658">
        <ele>624</ele>
        <time>2019-04-15T11:27:27Z</time>
      </trkpt>
      <trkpt lat="48.09954" lon="7.23653">
        <ele>623</ele>
        <time>2019-04-15T11:28:27Z</time>
      </trkpt>
      <trkpt lat="48.09953" lon="7.23649">
        <ele>624</ele>
        <time>2019-04-15T11:29:27Z</time>
      </trkpt>
      <trkpt lat="48.0995" lon="7.2364">
        <ele>624</ele>
        <time>2019-04-15T11:30:27Z</time>
      </trkpt>
      <trkpt lat="48.09937" lon="7.23619">
        <ele>624</ele>
        <time>2019-04-15T11:31:27Z</time>
      </trkpt>
      <trkpt lat="48.09931" lon="7.23612">
        <ele>624</ele>
        <time>2019-04-15T11:32:27Z</time>
      </trkpt>
      <trkpt lat="48.09924" lon="7.23603">
        <ele>623</ele>
        <time>2019-04-15T11:33:27Z</time>
      </trkpt>
      <trkpt lat="48.09894" lon="7.23562">
        <ele>624</ele>
        <time>2019-04-15T11:34:27Z</time>
      </trkpt>
      <trkpt lat="48.09855" lon="7.23522">
        <ele>623</ele>
        <time>2019-04-15T11:35:27Z</time>
      </trkpt>
      <trkpt lat="48.0983" lon="7.23498">
        <ele>622</ele>
        <time>2019-04-15T11:36:27Z</time>
      </trkpt>
      <trkpt lat="48.09828" lon="7.23496">
        <ele>621</ele>
        <time>2019-04-15T11:37:27Z</time>
      </trkpt>
      <trkpt lat="48.09814" lon="7.23479">
        <ele>620</ele>
        <time>2019-04-15T11:38:27Z</time>
      </trkpt>
      <trkpt lat="48.09811" lon="7.23473">
        <ele>619</ele>
        <time>2019-04-15T11:39:27Z</time>
      </trkpt>
      <trkpt lat="48.0981" lon="7.23468">
        <ele>619</ele>
        <time>2019-04-15T11:40:27Z</time>
      </trkpt>
      <trkpt lat="48.0981" lon="7.23463">
        <ele>619</ele>
        <time>2019-04-15T11:41:27Z</time>
      </trkpt>
      <trkpt lat="48.0981" lon="7.23459">
        <ele>620</ele>
        <time>2019-04-15T11:42:27Z</time>
      </trkpt>
      <trkpt lat="48.0981" lon="7.23457">
        <ele>620</ele>
        <time>2019-04-15T11:43:27Z</time>
      </trkpt>
      <trkpt lat="48.09812" lon="7.23451">
        <ele>620</ele>
        <time>2019-04-15T11:44:27Z</time>
      </trkpt>
      <trkpt lat="48.09814" lon="7.23449">
        <ele>621</ele>
        <time>2019-04-15T11:45:27Z</time>
      </trkpt>
      <trkpt lat="48.09816" lon="7.23446">
        <ele>621</ele>
        <time>2019-04-15T11:46:27Z</time>
      </trkpt>
      <trkpt lat="48.09823" lon="7.2344">
        <ele>623</ele>
        <time>2019-04-15T11:47:27Z</time>
      </trkpt>
      <trkpt lat="48.09823" lon="7.2344">
        <ele>623</ele>
        <time>2019-04-15T11:48:27Z</time>
      </trkpt>
      <trkpt lat="48.09827" lon="7.23449">
        <ele>623</ele>
        <time>2019-04-15T11:49:27Z</time>
      </trkpt>
      <trkpt lat="48.09831" lon="7.23456">
        <ele>624</ele>
        <time>2019-04-15T11:50:27Z</time>
      </trkpt>
      <trkpt lat="48.09836" lon="7.23462">
        <ele>624</ele>
        <time>2019-04-15T11:51:27Z</time>
      </trkpt>
      <trkpt lat="48.09842" lon="7.23466">
        <ele>625</ele>
        <time>2019-04-15T11:52:27Z</time>
      </trkpt>
      <trkpt lat="48.09848" lon="7.23468">
        <ele>626</ele>
        <time>2019-04-15T11:53:27Z</time>
      </trkpt>
      <trkpt lat="48.09854" lon="7.23468">
        <ele>628</ele>
        <time>2019-04-15T11:54:27Z</time>
      </trkpt>
      <trkpt lat="48.09859" lon="7.23468">
        <ele>629</ele>
        <time>2019-04-15T11:55:27Z</time>
      </trkpt>
      <trkpt lat="48.09867" lon="7.23465">
        <ele>630</ele>
        <time>2019-04-15T11:56:27Z</time>
      </trkpt>
      <trkpt lat="48.09871" lon="7.23461">
        <ele>631</ele>
        <time>2019-04-15T11:57:27Z</time>
      </trkpt>
      <trkpt lat="48.09875" lon="7.23457">
        <ele>632</ele>
        <time>2019-04-15T11:58:27Z</time>
      </trkpt>
      <trkpt lat="48.09879" lon="7.23452">
        <ele>633</ele>
        <time>2019-04-15T11:59:27Z</time>
      </trkpt>
      <trkpt lat="48.09882" lon="7.23449">
        <ele>634</ele>
        <time>2019-04-15T12:00:27Z</time>
      </trkpt>
      <trkpt lat="48.09885" lon="7.2344">
        <ele>635</ele>
        <time>2019-04-15T12:01:27Z</time>
      </trkpt>
      <trkpt lat="48.09886" lon="7.23434">
        <ele>635</ele>
        <time>2019-04-15T12:02:27Z</time>
      </trkpt>
      <trkpt lat="48.09894" lon="7.23355">
        <ele>634</ele>
        <time>2019-04-15T12:03:27Z</time>
      </trkpt>
      <trkpt lat="48.09896" lon="7.23347">
        <ele>634</ele>
        <time>2019-04-15T12:04:27Z</time>
      </trkpt>
      <trkpt lat="48.099" lon="7.23341">
        <ele>634</ele>
        <time>2019-04-15T12:05:27Z</time>
      </trkpt>
      <trkpt lat="48.09905" lon="7.23337">
        <ele>635</ele>
        <time>2019-04-15T12:06:27Z</time>
      </trkpt>
      <trkpt lat="48.09911" lon="7.23336">
        <ele>637</ele>
        <time>2019-04-15T12:07:27Z</time>
      </trkpt>
      <trkpt lat="48.09915" lon="7.23338">
        <ele>638</ele>
        <time>2019-04-15T12:08:27Z</time>
      </trkpt>
      <trkpt lat="48.09917" lon="7.23339">
        <ele>638</ele>
        <time>2019-04-15T12:09:27Z</time>
      </trkpt>
      <trkpt lat="48.0992" lon="7.23343">
        <ele>639</ele>
        <time>2019-04-15T12:10:27Z</time>
      </trkpt>
      <trkpt lat="48.09922" lon="7.23351">
        <ele>640</ele>
        <time>2019-04-15T12:11:27Z</time>
      </trkpt>
      <trkpt lat="48.09924" lon="7.2336">
        <ele>641</ele>
        <time>2019-04-15T12:12:27Z</time>
      </trkpt>
      <trkpt lat="48.09924" lon="7.23371">
        <ele>642</ele>
        <time>2019-04-15T12:13:27Z</time>
      </trkpt>
      <trkpt lat="48.09923" lon="7.2338">
        <ele>642</ele>
        <time>2019-04-15T12:14:27Z</time>
      </trkpt>
      <trkpt lat="48.09922" lon="7.23387">
        <ele>642</ele>
        <time>2019-04-15T12:15:27Z</time>
      </trkpt>
      <trkpt lat="48.09922" lon="7.23394">
        <ele>642</ele>
        <time>2019-04-15T12:16:27Z</time>
      </trkpt>
      <trkpt lat="48.09922" lon="7.23401">
        <ele>643</ele>
        <time>2019-04-15T12:17:27Z</time>
      </trkpt>
      <trkpt lat="48.09921" lon="7.2342">
        <ele>643</ele>
        <time>2019-04-15T12:18:27Z</time>
      </trkpt>
      <trkpt lat="48.09922" lon="7.23427">
        <ele>643</ele>
        <time>2019-04-15T12:19:27Z</time>
      </trkpt>
      <trkpt lat="48.09922" lon="7.23435">
        <ele>643</ele>
        <time>2019-04-15T12:20:27Z</time>
      </trkpt>
      <trkpt lat="48.09924" lon="7.23438">
        <ele>643</ele>
        <time>2019-04-15T12:21:27Z</time>
      </trkpt>
      <trkpt lat="48.09928" lon="7.23447">
        <ele>643</ele>
        <time>2019-04-15T12:22:27Z</time>
      </trkpt>
      <trkpt lat="48.09933" lon="7.23451">
        <ele>644</ele>
        <time>2019-04-15T12:23:27Z</time>
      </trkpt>
      <trkpt lat="48.09938" lon="7.2345">
        <ele>646</ele>
        <time>2019-04-15T12:24:27Z</time>
      </trkpt>
      <trkpt lat="48.09941" lon="7.2345">
        <ele>646</ele>
        <time>2019-04-15T12:25:27Z</time>
      </trkpt>
      <trkpt lat="48.09945" lon="7.23442">
        <ele>648</ele>
        <time>2019-04-15T12:26:27Z</time>
      </trkpt>
      <trkpt lat="48.09945" lon="7.23439">
        <ele>648</ele>
        <time>2019-04-15T12:27:27Z</time>
      </trkpt>
      <trkpt lat="48.09944" lon="7.23434">
        <ele>648</ele>
        <time>2019-04-15T12:28:27Z</time>
      </trkpt>
      <trkpt lat="48.09943" lon="7.2343">
        <ele>648</ele>
        <time>2019-04-15T12:29:27Z</time>
      </trkpt>
      <trkpt lat="48.09942" lon="7.23427">
        <ele>648</ele>
        <time>2019-04-15T12:30:27Z</time>
      </trkpt>
      <trkpt lat="48.09941" lon="7.23423">
        <ele>648</ele>
        <time>2019-04-15T12:31:27Z</time>
      </trkpt>
      <trkpt lat="48.09935" lon="7.23408">
        <ele>646</ele>
        <time>2019-04-15T12:32:27Z</time>
      </trkpt>
      <trkpt lat="48.09934" lon="7.23397">
        <ele>645</ele>
        <time>2019-04-15T12:33:27Z</time>
      </trkpt>
      <trkpt lat="48.09933" lon="7.23392">
        <ele>645</ele>
        <time>2019-04-15T12:34:27Z</time>
      </trkpt>
      <trkpt lat="48.09933" lon="7.23387">
        <ele>645</ele>
        <time>2019-04-15T12:35:27Z</time>
      </trkpt>
      <trkpt lat="48.09933" lon="7.23382">
        <ele>645</ele>
        <time>2019-04-15T12:36:27Z</time>
      </trkpt>
      <trkpt lat="48.09936" lon="7.23372">
        <ele>645</ele>
        <time>2019-04-15T12:37:27Z</time>
      </trkpt>
      <trkpt lat="48.09937" lon="7.23368">
        <ele>645</ele>
        <time>2019-04-15T12:38:27Z</time>
      </trkpt>
      <trkpt lat="48.09947" lon="7.23345">
        <ele>647</ele>
        <time>2019-04-15T12:39:27Z</time>
      </trkpt>
      <trkpt lat="48.09964" lon="7.23308">
        <ele>650</ele>
        <time>2019-04-15T12:40:27Z</time>
      </trkpt>
      <trkpt lat="48.09977" lon="7.23278">
        <ele>653</ele>
        <time>2019-04-15T12:41:27Z</time>
      </trkpt>
      <trkpt lat="48.09983" lon="7.23253">
        <ele>653</ele>
        <time>2019-04-15T12:42:27Z</time>
      </trkpt>
      <trkpt lat="48.09985" lon="7.23241">
        <ele>654</ele>
        <time>2019-04-15T12:43:27Z</time>
      </trkpt>
      <trkpt lat="48.09986" lon="7.23232">
        <ele>654</ele>
        <time>2019-04-15T12:44:27Z</time>
      </trkpt>
      <trkpt lat="48.09987" lon="7.23217">
        <ele>654</ele>
        <time>2019-04-15T12:45:27Z</time>
      </trkpt>
      <trkpt lat="48.09987" lon="7.2321">
        <ele>654</ele>
        <time>2019-04-15T12:46:27Z</time>
      </trkpt>
      <trkpt lat="48.09987" lon="7.23207">
        <ele>654</ele>
        <time>2019-04-15T12:47:27Z</time>
      </trkpt>
      <trkpt lat="48.09987" lon="7.23205">
        <ele>654</ele>
        <time>2019-04-15T12:48:27Z</time>
      </trkpt>
      <trkpt lat="48.09986" lon="7.23194">
        <ele>654</ele>
        <time>2019-04-15T12:49:27Z</time>
      </trkpt>
      <trkpt lat="48.09986" lon="7.23177">
        <ele>654</ele>
        <time>2019-04-15T12:50:27Z</time>
      </trkpt>
      <trkpt lat="48.09984" lon="7.23164">
        <ele>654</ele>
        <time>2019-04-15T12:51:27Z</time>
      </trkpt>
      <trkpt lat="48.09983" lon="7.2315">
        <ele>655</ele>
        <time>2019-04-15T12:52:27Z</time>
      </trkpt>
      <trkpt lat="48.0998" lon="7.23122">
        <ele>656</ele>
        <time>2019-04-15T12:53:27Z</time>
      </trkpt>
      <trkpt lat="48.09977" lon="7.23106">
        <ele>657</ele>
        <time>2019-04-15T12:54:27Z</time>
      </trkpt>
      <trkpt lat="48.09972" lon="7.23092">
        <ele>657</ele>
        <time>2019-04-15T12:55:27Z</time>
      </trkpt>
      <trkpt lat="48.09966" lon="7.23066">
        <ele>658</ele>
        <time>2019-04-15T12:56:27Z</time>
      </trkpt>
      <trkpt lat="48.09963" lon="7.23057">
        <ele>659</ele>
        <time>2019-04-15T12:57:27Z</time>
      </trkpt>
      <trkpt lat="48.0996" lon="7.23049">
        <ele>659</ele>
        <time>2019-04-15T12:58:27Z</time>
      </trkpt>
      <trkpt lat="48.09954" lon="7.23038">
        <ele>659</ele>
        <time>2019-04-15T12:59:27Z</time>
      </trkpt>
      <trkpt lat="48.09949" lon="7.23033">
        <ele>660</ele>
        <time>2019-04-15T13:00:27Z</time>
      </trkpt>
      <trkpt lat="48.09944" lon="7.23027">
        <ele>660</ele>
        <time>2019-04-15T13:01:27Z</time>
      </trkpt>
      <trkpt lat="48.09936" lon="7.2302">
        <ele>660</ele>
        <time>2019-04-15T13:02:27Z</time>
      </trkpt>
      <trkpt lat="48.09931" lon="7.23017">
        <ele>660</ele>
        <time>2019-04-15T13:03:27Z</time>
      </trkpt>
      <trkpt lat="48.09919" lon="7.23011">
        <ele>661</ele>
        <time>2019-04-15T13:04:27Z</time>
      </trkpt>
      <trkpt lat="48.09897" lon="7.23001">
        <ele>660</ele>
        <time>2019-04-15T13:05:27Z</time>
      </trkpt>
      <trkpt lat="48.09864" lon="7.22985">
        <ele>661</ele>
        <time>2019-04-15T13:06:27Z</time>
      </trkpt>
      <trkpt lat="48.09854" lon="7.22978">
        <ele>663</ele>
        <time>2019-04-15T13:07:27Z</time>
      </trkpt>
      <trkpt lat="48.09844" lon="7.22972">
        <ele>664</ele>
        <time>2019-04-15T13:08:27Z</time>
      </trkpt>
      <trkpt lat="48.09833" lon="7.22964">
        <ele>666</ele>
        <time>2019-04-15T13:09:27Z</time>
      </trkpt>
      <trkpt lat="48.09822" lon="7.22954">
        <ele>668</ele>
        <time>2019-04-15T13:10:27Z</time>
      </trkpt>
      <trkpt lat="48.09797" lon="7.22931">
        <ele>672</ele>
        <time>2019-04-15T13:11:27Z</time>
      </trkpt>
      <trkpt lat="48.09772" lon="7.22909">
        <ele>675</ele>
        <time>2019-04-15T13:12:27Z</time>
      </trkpt>
      <trkpt lat="48.09758" lon="7.22897">
        <ele>675</ele>
        <time>2019-04-15T13:13:27Z</time>
      </trkpt>
      <trkpt lat="48.09752" lon="7.2289">
        <ele>674</ele>
        <time>2019-04-15T13:14:27Z</time>
      </trkpt>
      <trkpt lat="48.09747" lon="7.22883">
        <ele>674</ele>
        <time>2019-04-15T13:15:27Z</time>
      </trkpt>
      <trkpt lat="48.09743" lon="7.22874">
        <ele>674</ele>
        <time>2019-04-15T13:16:27Z</time>
      </trkpt>
      <trkpt lat="48.0974" lon="7.22864">
        <ele>674</ele>
        <time>2019-04-15T13:17:27Z</time>
      </trkpt>
      <trkpt lat="48.09738" lon="7.22854">
        <ele>674</ele>
        <time>2019-04-15T13:18:27Z</time>
      </trkpt>
      <trkpt lat="48.09737" lon="7.22844">
        <ele>674</ele>
        <time>2019-04-15T13:19:27Z</time>
      </trkpt>
      <trkpt lat="48.09738" lon="7.22832">
        <ele>675</ele>
        <time>2019-04-15T13:20:27Z</time>
      </trkpt>
      <trkpt lat="48.0974" lon="7.2282">
        <ele>675</ele>
        <time>2019-04-15T13:21:27Z</time>
      </trkpt>
      <trkpt lat="48.09747" lon="7.22803">
        <ele>676</ele>
        <time>2019-04-15T13:22:27Z</time>
      </trkpt>
      <trkpt lat="48.09766" lon="7.22756">
        <ele>677</ele>
        <time>2019-04-15T13:23:27Z</time>
      </trkpt>
      <trkpt lat="48.09776" lon="7.22731">
        <ele>676</ele>
        <time>2019-04-15T13:24:27Z</time>
      </trkpt>
      <trkpt lat="48.09784" lon="7.2271">
        <ele>675</ele>
        <time>2019-04-15T13:25:27Z</time>
      </trkpt>
      <trkpt lat="48.09795" lon="7.22676">
        <ele>675</ele>
        <time>2019-04-15T13:26:27Z</time>
      </trkpt>
      <trkpt lat="48.098" lon="7.22659">
        <ele>675</ele>
        <time>2019-04-15T13:27:27Z</time>
      </trkpt>
      <trkpt lat="48.09805" lon="7.22633">
        <ele>676</ele>
        <time>2019-04-15T13:28:27Z</time>
      </trkpt>
      <trkpt lat="48.09806" lon="7.22621">
        <ele>676</ele>
        <time>2019-04-15T13:29:27Z</time>
      </trkpt>
      <trkpt lat="48.09808" lon="7.22607">
        <ele>677</ele>
        <time>2019-04-15T13:30:27Z</time>
      </trkpt>
      <trkpt lat="48.0981" lon="7.22578">
        <ele>677</ele>
        <time>2019-04-15T13:31:27Z</time>
      </trkpt>
      <trkpt lat="48.09811" lon="7.22549">
        <ele>677</ele>
        <time>2019-04-15T13:32:27Z</time>
      </trkpt>
      <trkpt lat="48.09811" lon="7.22534">
        <ele>677</ele>
        <time>2019-04-15T13:33:27Z</time>
      </trkpt>
      <trkpt lat="48.09812" lon="7.22514">
        <ele>678</ele>
        <time>2019-04-15T13:34:27Z</time>
      </trkpt>
      <trkpt lat="48.09813" lon="7.22494">
        <ele>678</ele>
        <time>2019-04-15T13:35:27Z</time>
      </trkpt>
      <trkpt lat="48.09814" lon="7.22482">
        <ele>678</ele>
        <time>2019-04-15T13:36:27Z</time>
      </trkpt>
      <trkpt lat="48.09815" lon="7.22467">
        <ele>678</ele>
        <time>2019-04-15T13:37:27Z</time>
      </trkpt>
      <trkpt lat="48.09816" lon="7.22459">
        <ele>679</ele>
        <time>2019-04-15T13:38:27Z</time>
      </trkpt>
      <trkpt lat="48.0982" lon="7.22438">
        <ele>680</ele>
        <time>2019-04-15T13:39:27Z</time>
      </trkpt>
      <trkpt lat="48.09826" lon="7.2241">
        <ele>682</ele>
        <time>2019-04-15T13:40:27Z</time>
      </trkpt>
      <trkpt lat="48.0984" lon="7.22359">
        <ele>683</ele>
        <time>2019-04-15T13:41:27Z</time>
      </trkpt>
      <trkpt lat="48.09845" lon="7.22339">
        <ele>683</ele>
        <time>2019-04-15T13:42:27Z</time>
      </trkpt>
      <trkpt lat="48.09848" lon="7.22318">
        <ele>684</ele>
        <time>2019-04-15T13:43:27Z</time>
      </trkpt>
      <trkpt lat="48.09849" lon="7.22297">
        <ele>684</ele>
        <time>2019-04-15T13:44:27Z</time>
      </trkpt>
      <trkpt lat="48.09848" lon="7.22282">
        <ele>684</ele>
        <time>2019-04-15T13:45:27Z</time>
      </trkpt>
      <trkpt lat="48.09847" lon="7.22271">
        <ele>684</ele>
        <time>2019-04-15T13:46:27Z</time>
      </trkpt>
      <trkpt lat="48.09844" lon="7.22248">
        <ele>683</ele>
        <time>2019-04-15T13:47:27Z</time>
      </trkpt>
      <trkpt lat="48.09837" lon="7.22213">
        <ele>683</ele>
        <time>2019-04-15T13:48:27Z</time>
      </trkpt>
      <trkpt lat="48.09832" lon="7.22181">
        <ele>683</ele>
        <time>2019-04-15T13:49:27Z</time>
      </trkpt>
      <trkpt lat="48.09829" lon="7.22158">
        <ele>683</ele>
        <time>2019-04-15T13:50:27Z</time>
      </trkpt>
      <trkpt lat="48.09826" lon="7.22132">
        <ele>684</ele>
        <time>2019-04-15T13:51:27Z</time>
      </trkpt>
      <trkpt lat="48.09824" lon="7.22108">
        <ele>685</ele>
        <time>2019-04-15T13:52:27Z</time>
      </trkpt>
      <trkpt lat="48.09824" lon="7.22107">
        <ele>685</ele>
        <time>2019-04-15T13:53:27Z</time>
      </trkpt>
      <trkpt lat="48.09822" lon="7.22066">
        <ele>687</ele>
        <time>2019-04-15T13:54:27Z</time>
      </trkpt>
      <trkpt lat="48.09821" lon="7.22021">
        <ele>687</ele>
        <time>2019-04-15T13:55:27Z</time>
      </trkpt>
      <trkpt lat="48.09818" lon="7.21994">
        <ele>687</ele>
        <time>2019-04-15T13:56:27Z</time>
      </trkpt>
      <trkpt lat="48.09815" lon="7.21971">
        <ele>687</ele>
        <time>2019-04-15T13:57:27Z</time>
      </trkpt>
      <trkpt lat="48.09809" lon="7.21948">
        <ele>687</ele>
        <time>2019-04-15T13:58:27Z</time>
      </trkpt>
      <trkpt lat="48.098" lon="7.21923">
        <ele>687</ele>
        <time>2019-04-15T13:59:27Z</time>
      </trkpt>
      <trkpt lat="48.0979" lon="7.21895">
        <ele>687</ele>
        <time>2019-04-15T14:00:27Z</time>
      </trkpt>
      <trkpt lat="48.09781" lon="7.21867">
        <ele>688</ele>
        <time>2019-04-15T14:01:27Z</time>
      </trkpt>
      <trkpt lat="48.09774" lon="7.21843">
        <ele>688</ele>
        <time>2019-04-15T14:02:27Z</time>
      </trkpt>
      <trkpt lat="48.0977" lon="7.21821">
        <ele>689</ele>
        <time>2019-04-15T14:03:27Z</time>
      </trkpt>
      <trkpt lat="48.09768" lon="7.21807">
        <ele>689</ele>
        <time>2019-04-15T14:04:27Z</time>
      </trkpt>
      <trkpt lat="48.09768" lon="7.21801">
        <ele>690</ele>
        <time>2019-04-15T14:05:27Z</time>
      </trkpt>
      <trkpt lat="48.09767" lon="7.21793">
        <ele>690</ele>
        <time>2019-04-15T14:06:27Z</time>
      </trkpt>
      <trkpt lat="48.09767" lon="7.21787">
        <ele>690</ele>
        <time>2019-04-15T14:07:27Z</time>
      </trkpt>
      <trkpt lat="48.09766" lon="7.21769">
        <ele>691</ele>
        <time>2019-04-15T14:08:27Z</time>
      </trkpt>
      <trkpt lat="48.09766" lon="7.21758">
        <ele>691</ele>
        <time>2019-04-15T14:09:27Z</time>
      </trkpt>
      <trkpt lat="48.09768" lon="7.21744">
        <ele>692</ele>
        <time>2019-04-15T14:10:27Z</time>
      </trkpt>
      <trkpt lat="48.0977" lon="7.21725">
        <ele>693</ele>
        <time>2019-04-15T14:11:27Z</time>
      </trkpt>
      <trkpt lat="48.09775" lon="7.217">
        <ele>695</ele>
        <time>2019-04-15T14:12:27Z</time>
      </trkpt>
      <trkpt lat="48.09785" lon="7.21663">
        <ele>698</ele>
        <time>2019-04-15T14:13:27Z</time>
      </trkpt>
      <trkpt lat="48.09801" lon="7.21611">
        <ele>703</ele>
        <time>2019-04-15T14:14:27Z</time>
      </trkpt>
      <trkpt lat="48.09809" lon="7.21589">
        <ele>705</ele>
        <time>2019-04-15T14:15:27Z</time>
      </trkpt>
      <trkpt lat="48.09815" lon="7.21579">
        <ele>706</ele>
        <time>2019-04-15T14:16:27Z</time>
      </trkpt>
      <trkpt lat="48.0982" lon="7.21575">
        <ele>706</ele>
        <time>2019-04-15T14:17:27Z</time>
      </trkpt>
      <trkpt lat="48.09826" lon="7.21572">
        <ele>706</ele>
        <time>2019-04-15T14:18:27Z</time>
      </trkpt>
      <trkpt lat="48.09831" lon="7.2157">
        <ele>706</ele>
        <time>2019-04-15T14:19:27Z</time>
      </trkpt>
      <trkpt lat="48.09837" lon="7.21572">
        <ele>706</ele>
        <time>2019-04-15T14:20:27Z</time>
      </trkpt>
      <trkpt lat="48.09845" lon="7.21575">
        <ele>706</ele>
        <time>2019-04-15T14:21:27Z</time>
      </trkpt>
      <trkpt lat="48.09861" lon="7.2159">
        <ele>705</ele>
        <time>2019-04-15T14:22:27Z</time>
      </trkpt>
      <trkpt lat="48.09875" lon="7.21601">
        <ele>705</ele>
        <time>2019-04-15T14:23:27Z</time>
      </trkpt>
      <trkpt lat="48.09894" lon="7.21619">
        <ele>706</ele>
        <time>2019-04-15T14:24:27Z</time>
      </trkpt>
      <trkpt lat="48.09904" lon="7.21627">
        <ele>706</ele>
        <time>2019-04-15T14:25:27Z</time>
      </trkpt>
      <trkpt lat="48.09911" lon="7.21632">
        <ele>707</ele>
        <time>2019-04-15T14:26:27Z</time>
      </trkpt>
      <trkpt lat="48.09925" lon="7.21639">
        <ele>707</ele>
        <time>2019-04-15T14:27:27Z</time>
      </trkpt>
      <trkpt lat="48.09935" lon="7.21639">
        <ele>708</ele>
        <time>2019-04-15T14:28:27Z</time>
      </trkpt>
      <trkpt lat="48.09945" lon="7.21638">
        <ele>708</ele>
        <time>2019-04-15T14:29:27Z</time>
      </trkpt>
      <trkpt lat="48.09948" lon="7.21636">
        <ele>708</ele>
        <time>2019-04-15T14:30:27Z</time>
      </trkpt>
      <trkpt lat="48.0996" lon="7.2163">
        <ele>709</ele>
        <time>2019-04-15T14:31:27Z</time>
      </trkpt>
      <trkpt lat="48.0999" lon="7.21607">
        <ele>711</ele>
        <time>2019-04-15T14:32:27Z</time>
      </trkpt>
      <trkpt lat="48.09999" lon="7.21599">
        <ele>711</ele>
        <time>2019-04-15T14:33:27Z</time>
      </trkpt>
      <trkpt lat="48.10015" lon="7.21586">
        <ele>711</ele>
        <time>2019-04-15T14:34:27Z</time>
      </trkpt>
      <trkpt lat="48.10022" lon="7.21575">
        <ele>711</ele>
        <time>2019-04-15T14:35:27Z</time>
      </trkpt>
      <trkpt lat="48.10026" lon="7.21567">
        <ele>710</ele>
        <time>2019-04-15T14:36:27Z</time>
      </trkpt>
      <trkpt lat="48.10029" lon="7.21557">
        <ele>710</ele>
        <time>2019-04-15T14:37:27Z</time>
      </trkpt>
      <trkpt lat="48.10031" lon="7.21546">
        <ele>711</ele>
        <time>2019-04-15T14:38:27Z</time>
      </trkpt>
      <trkpt lat="48.1003" lon="7.21535">
        <ele>711</ele>
        <time>2019-04-15T14:39:27Z</time>
      </trkpt>
      <trkpt lat="48.10029" lon="7.21522">
        <ele>711</ele>
        <time>2019-04-15T14:40:27Z</time>
      </trkpt>
      <trkpt lat="48.10025" lon="7.21508">
        <ele>712</ele>
        <time>2019-04-15T14:41:27Z</time>
      </trkpt>
      <trkpt lat="48.10003" lon="7.21465">
        <ele>714</ele>
        <time>2019-04-15T14:42:27Z</time>
      </trkpt>
      <trkpt lat="48.09992" lon="7.21441">
        <ele>714</ele>
        <time>2019-04-15T14:43:27Z</time>
      </trkpt>
      <trkpt lat="48.09984" lon="7.2142">
        <ele>715</ele>
        <time>2019-04-15T14:44:27Z</time>
      </trkpt>
      <trkpt lat="48.09979" lon="7.21405">
        <ele>716</ele>
        <time>2019-04-15T14:45:27Z</time>
      </trkpt>
      <trkpt lat="48.09975" lon="7.21385">
        <ele>717</ele>
        <time>2019-04-15T14:46:27Z</time>
      </trkpt>
      <trkpt lat="48.09969" lon="7.21345">
        <ele>718</ele>
        <time>2019-04-15T14:47:27Z</time>
      </trkpt>
      <trkpt lat="48.09961" lon="7.21284">
        <ele>722</ele>
        <time>2019-04-15T14:48:27Z</time>
      </trkpt>
      <trkpt lat="48.0995" lon="7.21206">
        <ele>729</ele>
        <time>2019-04-15T14:49:27Z</time>
      </trkpt>
      <trkpt lat="48.09935" lon="7.2114">
        <ele>734</ele>
        <time>2019-04-15T14:50:27Z</time>
      </trkpt>
      <trkpt lat="48.09926" lon="7.21099">
        <ele>737</ele>
        <time>2019-04-15T14:51:27Z</time>
      </trkpt>
      <trkpt lat="48.09918" lon="7.21065">
        <ele>738</ele>
        <time>2019-04-15T14:52:27Z</time>
      </trkpt>
      <trkpt lat="48.09909" lon="7.21037">
        <ele>739</ele>
        <time>2019-04-15T14:53:27Z</time>
      </trkpt>
      <trkpt lat="48.09903" lon="7.21024">
        <ele>740</ele>
        <time>2019-04-15T14:54:27Z</time>
      </trkpt>
      <trkpt lat="48.09889" lon="7.20997">
        <ele>741</ele>
        <time>2019-04-15T14:55:27Z</time>
      </trkpt>
      <trkpt lat="48.09877" lon="7.2097">
        <ele>742</ele>
        <time>2019-04-15T14:56:27Z</time>
      </trkpt>
      <trkpt lat="48.09872" lon="7.20953">
        <ele>741</ele>
        <time>2019-04-15T14:57:27Z</time>
      </trkpt>
      <trkpt lat="48.09868" lon="7.20941">
        <ele>741</ele>
        <time>2019-04-15T14:58:27Z</time>
      </trkpt>
      <trkpt lat="48.09862" lon="7.20914">
        <ele>741</ele>
        <time>2019-04-15T14:59:27Z</time>
      </trkpt>
      <trkpt lat="48.09856" lon="7.20875">
        <ele>741</ele>
        <time>2019-04-15T15:00:27Z</time>
      </trkpt>
      <trkpt lat="48.09851" lon="7.20828">
        <ele>741</ele>
        <time>2019-04-15T15:01:27Z</time>
      </trkpt>
      <trkpt lat="48.09848" lon="7.20791">
        <ele>741</ele>
        <time>2019-04-15T15:02:27Z</time>
      </trkpt>
      <trkpt lat="48.09846" lon="7.20751">
        <ele>741</ele>
        <time>2019-04-15T15:03:27Z</time>
      </trkpt>
      <trkpt lat="48.09845" lon="7.20703">
        <ele>742</ele>
        <time>2019-04-15T15:04:27Z</time>
      </trkpt>
      <trkpt lat="48.09844" lon="7.20667">
        <ele>742</ele>
        <time>2019-04-15T15:05:27Z</time>
      </trkpt>
      <trkpt lat="48.09841" lon="7.20611">
        <ele>744</ele>
        <time>2019-04-15T15:06:27Z</time>
      </trkpt>
      <trkpt lat="48.09838" lon="7.20567">
        <ele>745</ele>
        <time>2019-04-15T15:07:27Z</time>
      </trkpt>
      <trkpt lat="48.09836" lon="7.20545">
        <ele>745</ele>
        <time>2019-04-15T15:08:27Z</time>
      </trkpt>
      <trkpt lat="48.09832" lon="7.20525">
        <ele>746</ele>
        <time>2019-04-15T15:09:27Z</time>
      </trkpt>
      <trkpt lat="48.09825" lon="7.20508">
        <ele>746</ele>
        <time>2019-04-15T15:10:27Z</time>
      </trkpt>
      <trkpt lat="48.09819" lon="7.20497">
        <ele>747</ele>
        <time>2019-04-15T15:11:27Z</time>
      </trkpt>
      <trkpt lat="48.0981" lon="7.20486">
        <ele>747</ele>
        <time>2019-04-15T15:12:27Z</time>
      </trkpt>
      <trkpt lat="48.09799" lon="7.2048">
        <ele>747</ele>
        <time>2019-04-15T15:13:27Z</time>
      </trkpt>
      <trkpt lat="48.09789" lon="7.20476">
        <ele>747</ele>
        <time>2019-04-15T15:14:27Z</time>
      </trkpt>
      <trkpt lat="48.09775" lon="7.20474">
        <ele>747</ele>
        <time>2019-04-15T15:15:27Z</time>
      </trkpt>
      <trkpt lat="48.09762" lon="7.20472">
        <ele>748</ele>
        <time>2019-04-15T15:16:27Z</time>
      </trkpt>
      <trkpt lat="48.09755" lon="7.2047">
        <ele>748</ele>
        <time>2019-04-15T15:17:27Z</time>
      </trkpt>
      <trkpt lat="48.09736" lon="7.20465">
        <ele>748</ele>
        <time>2019-04-15T15:18:27Z</time>
      </trkpt>
      <trkpt lat="48.09702" lon="7.20453">
        <ele>749</ele>
        <time>2019-04-15T15:19:27Z</time>
      </trkpt>
      <trkpt lat="48.09674" lon="7.20441">
        <ele>750</ele>
        <time>2019-04-15T15:20:27Z</time>
      </trkpt>
      <trkpt lat="48.09643" lon="7.20433">
        <ele>750</ele>
        <time>2019-04-15T15:21:27Z</time>
      </trkpt>
      <trkpt lat="48.09616" lon="7.20427">
        <ele>751</ele>
        <time>2019-04-15T15:22:27Z</time>
      </trkpt>
      <trkpt lat="48.0959" lon="7.20421">
        <ele>751</ele>
        <time>2019-04-15T15:23:27Z</time>
      </trkpt>
      <trkpt lat="48.09574" lon="7.20416">
        <ele>752</ele>
        <time>2019-04-15T15:24:27Z</time>
      </trkpt>
      <trkpt lat="48.09563" lon="7.2041">
        <ele>753</ele>
        <time>2019-04-15T15:25:27Z</time>
      </trkpt>
      <trkpt lat="48.09552" lon="7.20402">
        <ele>753</ele>
        <time>2019-04-15T15:26:27Z</time>
      </trkpt>
      <trkpt lat="48.09544" lon="7.204">
        <ele>754</ele>
        <time>2019-04-15T15:27:27Z</time>
      </trkpt>
      <trkpt lat="48.09538" lon="7.20393">
        <ele>754</ele>
        <time>2019-04-15T15:28:27Z</time>
      </trkpt>
      <trkpt lat="48.09529" lon="7.20382">
        <ele>755</ele>
        <time>2019-04-15T15:29:27Z</time>
      </trkpt>
      <trkpt lat="48.09516" lon="7.20364">
        <ele>756</ele>
        <time>2019-04-15T15:30:27Z</time>
      </trkpt>
      <trkpt lat="48.09507" lon="7.20346">
        <ele>756</ele>
        <time>2019-04-15T15:31:27Z</time>
      </trkpt>
      <trkpt lat="48.095" lon="7.20326">
        <ele>757</ele>
        <time>2019-04-15T15:32:27Z</time>
      </trkpt>
      <trkpt lat="48.09493" lon="7.203">
        <ele>758</ele>
        <time>2019-04-15T15:33:27Z</time>
      </trkpt>
      <trkpt lat="48.0949" lon="7.20281">
        <ele>759</ele>
        <time>2019-04-15T15:34:27Z</time>
      </trkpt>
      <trkpt lat="48.09488" lon="7.20264">
        <ele>759</ele>
        <time>2019-04-15T15:35:27Z</time>
      </trkpt>
      <trkpt lat="48.09487" lon="7.20243">
        <ele>760</ele>
        <time>2019-04-15T15:36:27Z</time>
      </trkpt>
      <trkpt lat="48.0949" lon="7.20225">
        <ele>762</ele>
        <time>2019-04-15T15:37:27Z</time>
      </trkpt>
      <trkpt lat="48.09494" lon="7.20215">
        <ele>762</ele>
        <time>2019-04-15T15:38:27Z</time>
      </trkpt>
      <trkpt lat="48.095" lon="7.20202">
        <ele>762</ele>
        <time>2019-04-15T15:39:27Z</time>
      </trkpt>
      <trkpt lat="48.09509" lon="7.20189">
        <ele>762</ele>
        <time>2019-04-15T15:40:27Z</time>
      </trkpt>
      <trkpt lat="48.09521" lon="7.20177">
        <ele>762</ele>
        <time>2019-04-15T15:41:27Z</time>
      </trkpt>
      <trkpt lat="48.09535" lon="7.20165">
        <ele>762</ele>
        <time>2019-04-15T15:42:27Z</time>
      </trkpt>
      <trkpt lat="48.09548" lon="7.20152">
        <ele>763</ele>
        <time>2019-04-15T15:43:27Z</time>
      </trkpt>
      <trkpt lat="48.09559" lon="7.20142">
        <ele>763</ele>
        <time>2019-04-15T15:44:27Z</time>
      </trkpt>
      <trkpt lat="48.0957" lon="7.20129">
        <ele>763</ele>
        <time>2019-04-15T15:45:27Z</time>
      </trkpt>
      <trkpt lat="48.09579" lon="7.20118">
        <ele>764</ele>
        <time>2019-04-15T15:46:27Z</time>
      </trkpt>
      <trkpt lat="48.09588" lon="7.20103">
        <ele>766</ele>
        <time>2019-04-15T15:47:27Z</time>
      </trkpt>
      <trkpt lat="48.09597" lon="7.20081">
        <ele>769</ele>
        <time>2019-04-15T15:48:27Z</time>
      </trkpt>
      <trkpt lat="48.09605" lon="7.20054">
        <ele>772</ele>
        <time>2019-04-15T15:49:27Z</time>
      </trkpt>
      <trkpt lat="48.09611" lon="7.20023">
        <ele>774</ele>
        <time>2019-04-15T15:50:27Z</time>
      </trkpt>
      <trkpt lat="48.09616" lon="7.19985">
        <ele>775</ele>
        <time>2019-04-15T15:51:27Z</time>
      </trkpt>
      <trkpt lat="48.0962" lon="7.19943">
        <ele>773</ele>
        <time>2019-04-15T15:52:27Z</time>
      </trkpt>
      <trkpt lat="48.09622" lon="7.19928">
        <ele>772</ele>
        <time>2019-04-15T15:53:27Z</time>
      </trkpt>
      <trkpt lat="48.09622" lon="7.19916">
        <ele>771</ele>
        <time>2019-04-15T15:54:27Z</time>
      </trkpt>
      <trkpt lat="48.0962" lon="7.19897">
        <ele>769</ele>
        <time>2019-04-15T15:55:27Z</time>
      </trkpt>
      <trkpt lat="48.09614" lon="7.1988">
        <ele>768</ele>
        <time>2019-04-15T15:56:27Z</time>
      </trkpt>
      <trkpt lat="48.09607" lon="7.19867">
        <ele>768</ele>
        <time>2019-04-15T15:57:27Z</time>
      </trkpt>
      <trkpt lat="48.09601" lon="7.19856">
        <ele>768</ele>
        <time>2019-04-15T15:58:27Z</time>
      </trkpt>
      <trkpt lat="48.09593" lon="7.19843">
        <ele>768</ele>
        <time>2019-04-15T15:59:27Z</time>
      </trkpt>
      <trkpt lat="48.09582" lon="7.19832">
        <ele>769</ele>
        <time>2019-04-15T16:00:27Z</time>
      </trkpt>
      <trkpt lat="48.09569" lon="7.19825">
        <ele>770</ele>
        <time>2019-04-15T16:01:27Z</time>
      </trkpt>
      <trkpt lat="48.09553" lon="7.1982">
        <ele>772</ele>
        <time>2019-04-15T16:02:27Z</time>
      </trkpt>
      <trkpt lat="48.09546" lon="7.19816">
        <ele>772</ele>
        <time>2019-04-15T16:03:27Z</time>
      </trkpt>
      <trkpt lat="48.09535" lon="7.19811">
        <ele>773</ele>
        <time>2019-04-15T16:04:27Z</time>
      </trkpt>
      <trkpt lat="48.09527" lon="7.19803">
        <ele>773</ele>
        <time>2019-04-15T16:05:27Z</time>
      </trkpt>
      <trkpt lat="48.0952" lon="7.19796">
        <ele>774</ele>
        <time>2019-04-15T16:06:27Z</time>
      </trkpt>
      <trkpt lat="48.09508" lon="7.19773">
        <ele>773</ele>
        <time>2019-04-15T16:07:27Z</time>
      </trkpt>
      <trkpt lat="48.09499" lon="7.19755">
        <ele>773</ele>
        <time>2019-04-15T16:08:27Z</time>
      </trkpt>
      <trkpt lat="48.09492" lon="7.19741">
        <ele>771</ele>
        <time>2019-04-15T16:09:27Z</time>
      </trkpt>
      <trkpt lat="48.09486" lon="7.19724">
        <ele>769</ele>
        <time>2019-04-15T16:10:27Z</time>
      </trkpt>
      <trkpt lat="48.09477" lon="7.19704">
        <ele>767</ele>
        <time>2019-04-15T16:11:27Z</time>
      </trkpt>
      <trkpt lat="48.09471" lon="7.19684">
        <ele>765</ele>
        <time>2019-04-15T16:12:27Z</time>
      </trkpt>
      <trkpt lat="48.09467" lon="7.19674">
        <ele>764</ele>
        <time>2019-04-15T16:13:27Z</time>
      </trkpt>
      <trkpt lat="48.09452" lon="7.19628">
        <ele>762</ele>
        <time>2019-04-15T16:14:27Z</time>
      </trkpt>
      <trkpt lat="48.09431" lon="7.1957">
        <ele>760</ele>
        <time>2019-04-15T16:15:27Z</time>
      </trkpt>
      <trkpt lat="48.09418" lon="7.19528">
        <ele>759</ele>
        <time>2019-04-15T16:16:27Z</time>
      </trkpt>
      <trkpt lat="48.09411" lon="7.19505">
        <ele>758</ele>
        <time>2019-04-15T16:17:27Z</time>
      </trkpt>
      <trkpt lat="48.09408" lon="7.19489">
        <ele>759</ele>
        <time>2019-04-15T16:18:27Z</time>
      </trkpt>
      <trkpt lat="48.09406" lon="7.19478">
        <ele>759</ele>
        <time>2019-04-15T16:19:27Z</time>
      </trkpt>
      <trkpt lat="48.09406" lon="7.19464">
        <ele>760</ele>
        <time>2019-04-15T16:20:27Z</time>
      </trkpt>
      <trkpt lat="48.09409" lon="7.1945">
        <ele>761</ele>
        <time>2019-04-15T16:21:27Z</time>
      </trkpt>
      <trkpt lat="48.09412" lon="7.19437">
        <ele>761</ele>
        <time>2019-04-15T16:22:27Z</time>
      </trkpt>
      <trkpt lat="48.09417" lon="7.19421">
        <ele>762</ele>
        <time>2019-04-15T16:23:27Z</time>
      </trkpt>
      <trkpt lat="48.09424" lon="7.19413">
        <ele>763</ele>
        <time>2019-04-15T16:24:27Z</time>
      </trkpt>
      <trkpt lat="48.09428" lon="7.19408">
        <ele>764</ele>
        <time>2019-04-15T16:25:27Z</time>
      </trkpt>
      <trkpt lat="48.09432" lon="7.19404">
        <ele>764</ele>
        <time>2019-04-15T16:26:27Z</time>
      </trkpt>
      <trkpt lat="48.09447" lon="7.19394">
        <ele>766</ele>
        <time>2019-04-15T16:27:27Z</time>
      </trkpt>
      <trkpt lat="48.09482" lon="7.19378">
        <ele>770</ele>
        <time>2019-04-15T16:28:27Z</time>
      </trkpt>
      <trkpt lat="48.09508" lon="7.19368">
        <ele>772</ele>
        <time>2019-04-15T16:29:27Z</time>
      </trkpt>
      <trkpt lat="48.09528" lon="7.19363">
        <ele>773</ele>
        <time>2019-04-15T16:30:27Z</time>
      </trkpt>
      <trkpt lat="48.09542" lon="7.1936">
        <ele>774</ele>
        <time>2019-04-15T16:31:27Z</time>
      </trkpt>
      <trkpt lat="48.09552" lon="7.19359">
        <ele>774</ele>
        <time>2019-04-15T16:32:27Z</time>
      </trkpt>
      <trkpt lat="48.09558" lon="7.19361">
        <ele>774</ele>
        <time>2019-04-15T16:33:27Z</time>
      </trkpt>
      <trkpt lat="48.09583" lon="7.19366">
        <ele>774</ele>
        <time>2019-04-15T16:34:27Z</time>
      </trkpt>
      <trkpt lat="48.09623" lon="7.19381">
        <ele>775</ele>
        <time>2019-04-15T16:35:27Z</time>
      </trkpt>
      <trkpt lat="48.09654" lon="7.19391">
        <ele>775</ele>
        <time>2019-04-15T16:36:27Z</time>
      </trkpt>
      <trkpt lat="48.09663" lon="7.19392">
        <ele>775</ele>
        <time>2019-04-15T16:37:27Z</time>
      </trkpt>
      <trkpt lat="48.09667" lon="7.19392">
        <ele>776</ele>
        <time>2019-04-15T16:38:27Z</time>
      </trkpt>
      <trkpt lat="48.09672" lon="7.19392">
        <ele>776</ele>
        <time>2019-04-15T16:39:27Z</time>
      </trkpt>
      <trkpt lat="48.09679" lon="7.19391">
        <ele>776</ele>
        <time>2019-04-15T16:40:27Z</time>
      </trkpt>
      <trkpt lat="48.09689" lon="7.19388">
        <ele>776</ele>
        <time>2019-04-15T16:41:27Z</time>
      </trkpt>
      <trkpt lat="48.09705" lon="7.1938">
        <ele>777</ele>
        <time>2019-04-15T16:42:27Z</time>
      </trkpt>
      <trkpt lat="48.09725" lon="7.1937">
        <ele>778</ele>
        <time>2019-04-15T16:43:27Z</time>
      </trkpt>
      <trkpt lat="48.09737" lon="7.19365">
        <ele>778</ele>
        <time>2019-04-15T16:44:27Z</time>
      </trkpt>
      <trkpt lat="48.09757" lon="7.19357">
        <ele>778</ele>
        <time>2019-04-15T16:45:27Z</time>
      </trkpt>
      <trkpt lat="48.0979" lon="7.19348">
        <ele>778</ele>
        <time>2019-04-15T16:46:27Z</time>
      </trkpt>
      <trkpt lat="48.09804" lon="7.19345">
        <ele>778</ele>
        <time>2019-04-15T16:47:27Z</time>
      </trkpt>
      <trkpt lat="48.09813" lon="7.19342">
        <ele>778</ele>
        <time>2019-04-15T16:48:27Z</time>
      </trkpt>
      <trkpt lat="48.09828" lon="7.19341">
        <ele>778</ele>
        <time>2019-04-15T16:49:27Z</time>
      </trkpt>
      <trkpt lat="48.09838" lon="7.19342">
        <ele>778</ele>
        <time>2019-04-15T16:50:27Z</time>
      </trkpt>
      <trkpt lat="48.09852" lon="7.19345">
        <ele>778</ele>
        <time>2019-04-15T16:51:27Z</time>
      </trkpt>
      <trkpt lat="48.09869" lon="7.19348">
        <ele>777</ele>
        <time>2019-04-15T16:52:27Z</time>
      </trkpt>
      <trkpt lat="48.0989" lon="7.19353">
        <ele>777</ele>
        <time>2019-04-15T16:53:27Z</time>
      </trkpt>
      <trkpt lat="48.09936" lon="7.19365">
        <ele>775</ele>
        <time>2019-04-15T16:54:27Z</time>
      </trkpt>
      <trkpt lat="48.09959" lon="7.1937">
        <ele>774</ele>
        <time>2019-04-15T16:55:27Z</time>
      </trkpt>
      <trkpt lat="48.09968" lon="7.19372">
        <ele>774</ele>
        <time>2019-04-15T16:56:27Z</time>
      </trkpt>
      <trkpt lat="48.10012" lon="7.19377">
        <ele>772</ele>
        <time>2019-04-15T16:57:27Z</time>
      </trkpt>
      <trkpt lat="48.10025" lon="7.19381">
        <ele>772</ele>
        <time>2019-04-15T16:58:27Z</time>
      </trkpt>
      <trkpt lat="48.10041" lon="7.19387">
        <ele>772</ele>
        <time>2019-04-15T16:59:27Z</time>
      </trkpt>
      <trkpt lat="48.10054" lon="7.19392">
        <ele>772</ele>
        <time>2019-04-15T17:00:27Z</time>
      </trkpt>
      <trkpt lat="48.10068" lon="7.194">
        <ele>771</ele>
        <time>2019-04-15T17:01:27Z</time>
      </trkpt>
      <trkpt lat="48.1008" lon="7.19405">
        <ele>771</ele>
        <time>2019-04-15T17:02:27Z</time>
      </trkpt>
      <trkpt lat="48.10092" lon="7.19409">
        <ele>770</ele>
        <time>2019-04-15T17:03:27Z</time>
      </trkpt>
      <trkpt lat="48.10103" lon="7.19411">
        <ele>769</ele>
        <time>2019-04-15T17:04:27Z</time>
      </trkpt>
      <trkpt lat="48.10113" lon="7.19411">
        <ele>769</ele>
        <time>2019-04-15T17:05:27Z</time>
      </trkpt>
      <trkpt lat="48.1012" lon="7.19411">
        <ele>768</ele>
        <time>2019-04-15T17:06:27Z</time>
      </trkpt>
      <trkpt lat="48.10131" lon="7.19409">
        <ele>768</ele>
        <time>2019-04-15T17:07:27Z</time>
      </trkpt>
      <trkpt lat="48.10141" lon="7.19406">
        <ele>767</ele>
        <time>2019-04-15T17:08:27Z</time>
      </trkpt>
      <trkpt lat="48.10149" lon="7.19402">
        <ele>767</ele>
        <time>2019-04-15T17:09:27Z</time>
      </trkpt>
      <trkpt lat="48.10159" lon="7.19395">
        <ele>767</ele>
        <time>2019-04-15T17:10:27Z</time>
      </trkpt>
      <trkpt lat="48.10168" lon="7.19387">
        <ele>768</ele>
        <time>2019-04-15T17:11:27Z</time>
      </trkpt>
      <trkpt lat="48.10175" lon="7.1938">
        <ele>767</ele>
        <time>2019-04-15T17:12:27Z</time>
      </trkpt>
      <trkpt lat="48.102" lon="7.19353">
        <ele>765</ele>
        <time>2019-04-15T17:13:27Z</time>
      </trkpt>
      <trkpt lat="48.10203" lon="7.19351">
        <ele>764</ele>
        <time>2019-04-15T17:14:27Z</time>
      </trkpt>
      <trkpt lat="48.1021" lon="7.19339">
        <ele>764</ele>
        <time>2019-04-15T17:15:27Z</time>
      </trkpt>
      <trkpt lat="48.10209" lon="7.19331">
        <ele>765</ele>
        <time>2019-04-15T17:16:27Z</time>
      </trkpt>
      <trkpt lat="48.10208" lon="7.19318">
        <ele>766</ele>
        <time>2019-04-15T17:17:27Z</time>
      </trkpt>
      <trkpt lat="48.10206" lon="7.19308">
        <ele>767</ele>
        <time>2019-04-15T17:18:27Z</time>
      </trkpt>
      <trkpt lat="48.10207" lon="7.19303">
        <ele>767</ele>
        <time>2019-04-15T17:19:27Z</time>
      </trkpt>
      <trkpt lat="48.10207" lon="7.19296">
        <ele>767</ele>
        <time>2019-04-15T17:20:27Z</time>
      </trkpt>
      <trkpt lat="48.10207" lon="7.19294">
        <ele>767</ele>
        <time>2019-04-15T17:21:27Z</time>
      </trkpt>
      <trkpt lat="48.10208" lon="7.19284">
        <ele>767</ele>
        <time>2019-04-15T17:22:27Z</time>
      </trkpt>
      <trkpt lat="48.10209" lon="7.1927">
        <ele>768</ele>
        <time>2019-04-15T17:23:27Z</time>
      </trkpt>
      <trkpt lat="48.10209" lon="7.19265">
        <ele>768</ele>
        <time>2019-04-15T17:24:27Z</time>
      </trkpt>
      <trkpt lat="48.10209" lon="7.19259">
        <ele>768</ele>
        <time>2019-04-15T17:25:27Z</time>
      </trkpt>
      <trkpt lat="48.10207" lon="7.19242">
        <ele>769</ele>
        <time>2019-04-15T17:26:27Z</time>
      </trkpt>
      <trkpt lat="48.10206" lon="7.19228">
        <ele>769</ele>
        <time>2019-04-15T17:27:27Z</time>
      </trkpt>
      <trkpt lat="48.10204" lon="7.19196">
        <ele>769</ele>
        <time>2019-04-15T17:28:27Z</time>
      </trkpt>
      <trkpt lat="48.10202" lon="7.19177">
        <ele>769</ele>
        <time>2019-04-15T17:29:27Z</time>
      </trkpt>
      <trkpt lat="48.10201" lon="7.19167">
        <ele>769</ele>
        <time>2019-04-15T17:30:27Z</time>
      </trkpt>
      <trkpt lat="48.102" lon="7.19144">
        <ele>771</ele>
        <time>2019-04-15T17:31:27Z</time>
      </trkpt>
      <trkpt lat="48.102" lon="7.19133">
        <ele>772</ele>
        <time>2019-04-15T17:32:27Z</time>
      </trkpt>
      <trkpt lat="48.10202" lon="7.1912">
        <ele>772</ele>
        <time>2019-04-15T17:33:27Z</time>
      </trkpt>
      <trkpt lat="48.10205" lon="7.19097">
        <ele>772</ele>
        <time>2019-04-15T17:34:27Z</time>
      </trkpt>
      <trkpt lat="48.1021" lon="7.19078">
        <ele>772</ele>
        <time>2019-04-15T17:35:27Z</time>
      </trkpt>
      <trkpt lat="48.10222" lon="7.19026">
        <ele>772</ele>
        <time>2019-04-15T17:36:27Z</time>
      </trkpt>
      <trkpt lat="48.10234" lon="7.18973">
        <ele>772</ele>
        <time>2019-04-15T17:37:27Z</time>
      </trkpt>
      <trkpt lat="48.10242" lon="7.18927">
        <ele>774</ele>
        <time>2019-04-15T17:38:27Z</time>
      </trkpt>
      <trkpt lat="48.10247" lon="7.18874">
        <ele>774</ele>
        <time>2019-04-15T17:39:27Z</time>
      </trkpt>
      <trkpt lat="48.10255" lon="7.18805">
        <ele>773</ele>
        <time>2019-04-15T17:40:27Z</time>
      </trkpt>
      <trkpt lat="48.10263" lon="7.18739">
        <ele>774</ele>
        <time>2019-04-15T17:41:27Z</time>
      </trkpt>
      <trkpt lat="48.10266" lon="7.18717">
        <ele>774</ele>
        <time>2019-04-15T17:42:27Z</time>
      </trkpt>
      <trkpt lat="48.10268" lon="7.18713">
        <ele>774</ele>
        <time>2019-04-15T17:43:27Z</time>
      </trkpt>
      <trkpt lat="48.10273" lon="7.18703">
        <ele>774</ele>
        <time>2019-04-15T17:44:27Z</time>
      </trkpt>
      <trkpt lat="48.1028" lon="7.18693">
        <ele>775</ele>
        <time>2019-04-15T17:45:27Z</time>
      </trkpt>
      <trkpt lat="48.10284" lon="7.18691">
        <ele>774</ele>
        <time>2019-04-15T17:46:27Z</time>
      </trkpt>
      <trkpt lat="48.10288" lon="7.18689">
        <ele>774</ele>
        <time>2019-04-15T17:47:27Z</time>
      </trkpt>
      <trkpt lat="48.10299" lon="7.18686">
        <ele>774</ele>
        <time>2019-04-15T17:48:27Z</time>
      </trkpt>
      <trkpt lat="48.10317" lon="7.18682">
        <ele>774</ele>
        <time>2019-04-15T17:49:27Z</time>
      </trkpt>
      <trkpt lat="48.10332" lon="7.18678">
        <ele>774</ele>
        <time>2019-04-15T17:50:27Z</time>
      </trkpt>
      <trkpt lat="48.10343" lon="7.18673">
        <ele>774</ele>
        <time>2019-04-15T17:51:27Z</time>
      </trkpt>
      <trkpt lat="48.10349" lon="7.18667">
        <ele>775</ele>
        <time>2019-04-15T17:52:27Z</time>
      </trkpt>
      <trkpt lat="48.10353" lon="7.18662">
        <ele>775</ele>
        <time>2019-04-15T17:53:27Z</time>
      </trkpt>
      <trkpt lat="48.10354" lon="7.18659">
        <ele>775</ele>
        <time>2019-04-15T17:54:27Z</time>
      </trkpt>
      <trkpt lat="48.10357" lon="7.18649">
        <ele>775</ele>
        <time>2019-04-15T17:55:27Z</time>
      </trkpt>
      <trkpt lat="48.10357" lon="7.18641">
        <ele>774</ele>
        <time>2019-04-15T17:56:27Z</time>
      </trkpt>
      <trkpt lat="48.10357" lon="7.18625">
        <ele>774</ele>
        <time>2019-04-15T17:57:27Z</time>
      </trkpt>
      <trkpt lat="48.10353" lon="7.18594">
        <ele>773</ele>
        <time>2019-04-15T17:58:27Z</time>
      </trkpt>
      <trkpt lat="48.10348" lon="7.18563">
        <ele>771</ele>
        <time>2019-04-15T17:59:27Z</time>
      </trkpt>
      <trkpt lat="48.10343" lon="7.1854">
        <ele>770</ele>
        <time>2019-04-15T18:00:27Z</time>
      </trkpt>
      <trkpt lat="48.10339" lon="7.18524">
        <ele>770</ele>
        <time>2019-04-15T18:01:27Z</time>
      </trkpt>
      <trkpt lat="48.10332" lon="7.18506">
        <ele>769</ele>
        <time>2019-04-15T18:02:27Z</time>
      </trkpt>
      <trkpt lat="48.10326" lon="7.18495">
        <ele>769</ele>
        <time>2019-04-15T18:03:27Z</time>
      </trkpt>
      <trkpt lat="48.10318" lon="7.18482">
        <ele>769</ele>
        <time>2019-04-15T18:04:27Z</time>
      </trkpt>
      <trkpt lat="48.10304" lon="7.18461">
        <ele>768</ele>
        <time>2019-04-15T18:05:27Z</time>
      </trkpt>
      <trkpt lat="48.10292" lon="7.18442">
        <ele>768</ele>
        <time>2019-04-15T18:06:27Z</time>
      </trkpt>
      <trkpt lat="48.10285" lon="7.18424">
        <ele>767</ele>
        <time>2019-04-15T18:07:27Z</time>
      </trkpt>
      <trkpt lat="48.10284" lon="7.18417">
        <ele>767</ele>
        <time>2019-04-15T18:08:27Z</time>
      </trkpt>
      <trkpt lat="48.10283" lon="7.18412">
        <ele>766</ele>
        <time>2019-04-15T18:09:27Z</time>
      </trkpt>
      <trkpt lat="48.10283" lon="7.18403">
        <ele>766</ele>
        <time>2019-04-15T18:10:27Z</time>
      </trkpt>
      <trkpt lat="48.10284" lon="7.18393">
        <ele>765</ele>
        <time>2019-04-15T18:11:27Z</time>
      </trkpt>
      <trkpt lat="48.10285" lon="7.18386">
        <ele>764</ele>
        <time>2019-04-15T18:12:27Z</time>
      </trkpt>
      <trkpt lat="48.10287" lon="7.18382">
        <ele>764</ele>
        <time>2019-04-15T18:13:27Z</time>
      </trkpt>
      <trkpt lat="48.10293" lon="7.18372">
        <ele>764</ele>
        <time>2019-04-15T18:14:27Z</time>
      </trkpt>
      <trkpt lat="48.10305" lon="7.18358">
        <ele>764</ele>
        <time>2019-04-15T18:15:27Z</time>
      </trkpt>
      <trkpt lat="48.10312" lon="7.18351">
        <ele>764</ele>
        <time>2019-04-15T18:16:27Z</time>
      </trkpt>
      <trkpt lat="48.10319" lon="7.18346">
        <ele>764</ele>
        <time>2019-04-15T18:17:27Z</time>
      </trkpt>
      <trkpt lat="48.10335" lon="7.18336">
        <ele>764</ele>
        <time>2019-04-15T18:18:27Z</time>
      </trkpt>
      <trkpt lat="48.10352" lon="7.18331">
        <ele>762</ele>
        <time>2019-04-15T18:19:27Z</time>
      </trkpt>
      <trkpt lat="48.1036" lon="7.18328">
        <ele>761</ele>
        <time>2019-04-15T18:20:27Z</time>
      </trkpt>
      <trkpt lat="48.10367" lon="7.18329">
        <ele>761</ele>
        <time>2019-04-15T18:21:27Z</time>
      </trkpt>
      <trkpt lat="48.10376" lon="7.1833">
        <ele>761</ele>
        <time>2019-04-15T18:22:27Z</time>
      </trkpt>
      <trkpt lat="48.10382" lon="7.18331">
        <ele>761</ele>
        <time>2019-04-15T18:23:27Z</time>
      </trkpt>
      <trkpt lat="48.10387" lon="7.18333">
        <ele>761</ele>
        <time>2019-04-15T18:24:27Z</time>
      </trkpt>
      <trkpt lat="48.10389" lon="7.18333">
        <ele>761</ele>
        <time>2019-04-15T18:25:27Z</time>
      </trkpt>
      <trkpt lat="48.10396" lon="7.18336">
        <ele>760</ele>
        <time>2019-04-15T18:26:27Z</time>
      </trkpt>
      <trkpt lat="48.10408" lon="7.18344">
        <ele>760</ele>
        <time>2019-04-15T18:27:27Z</time>
      </trkpt>
      <trkpt lat="48.10419" lon="7.18355">
        <ele>760</ele>
        <time>2019-04-15T18:28:27Z</time>
      </trkpt>
      <trkpt lat="48.10429" lon="7.18367">
        <ele>759</ele>
        <time>2019-04-15T18:29:27Z</time>
      </trkpt>
      <trkpt lat="48.10438" lon="7.18385">
        <ele>758</ele>
        <time>2019-04-15T18:30:27Z</time>
      </trkpt>
      <trkpt lat="48.1045" lon="7.18408">
        <ele>758</ele>
        <time>2019-04-15T18:31:27Z</time>
      </trkpt>
      <trkpt lat="48.10458" lon="7.18423">
        <ele>758</ele>
        <time>2019-04-15T18:32:27Z</time>
      </trkpt>
      <trkpt lat="48.10468" lon="7.18435">
        <ele>758</ele>
        <time>2019-04-15T18:33:27Z</time>
      </trkpt>
      <trkpt lat="48.10478" lon="7.18443">
        <ele>757</ele>
        <time>2019-04-15T18:34:27Z</time>
      </trkpt>
      <trkpt lat="48.1049" lon="7.18448">
        <ele>756</ele>
        <time>2019-04-15T18:35:27Z</time>
      </trkpt>
      <trkpt lat="48.105" lon="7.18452">
        <ele>756</ele>
        <time>2019-04-15T18:36:27Z</time>
      </trkpt>
      <trkpt lat="48.1052" lon="7.18455">
        <ele>755</ele>
        <time>2019-04-15T18:37:27Z</time>
      </trkpt>
      <trkpt lat="48.10565" lon="7.18454">
        <ele>753</ele>
        <time>2019-04-15T18:38:27Z</time>
      </trkpt>
      <trkpt lat="48.1059" lon="7.18452">
        <ele>752</ele>
        <time>2019-04-15T18:39:27Z</time>
      </trkpt>
      <trkpt lat="48.10603" lon="7.18447">
        <ele>752</ele>
        <time>2019-04-15T18:40:27Z</time>
      </trkpt>
      <trkpt lat="48.10613" lon="7.18438">
        <ele>751</ele>
        <time>2019-04-15T18:41:27Z</time>
      </trkpt>
      <trkpt lat="48.10621" lon="7.18425">
        <ele>750</ele>
        <time>2019-04-15T18:42:27Z</time>
      </trkpt>
      <trkpt lat="48.10626" lon="7.18413">
        <ele>749</ele>
        <time>2019-04-15T18:43:27Z</time>
      </trkpt>
      <trkpt lat="48.10628" lon="7.18408">
        <ele>749</ele>
        <time>2019-04-15T18:44:27Z</time>
      </trkpt>
      <trkpt lat="48.10629" lon="7.18403">
        <ele>749</ele>
        <time>2019-04-15T18:45:27Z</time>
      </trkpt>
      <trkpt lat="48.1063" lon="7.18399">
        <ele>748</ele>
        <time>2019-04-15T18:46:27Z</time>
      </trkpt>
      <trkpt lat="48.1063" lon="7.18378">
        <ele>746</ele>
        <time>2019-04-15T18:47:27Z</time>
      </trkpt>
      <trkpt lat="48.10627" lon="7.18348">
        <ele>742</ele>
        <time>2019-04-15T18:48:27Z</time>
      </trkpt>
      <trkpt lat="48.10627" lon="7.18347">
        <ele>742</ele>
        <time>2019-04-15T18:49:27Z</time>
      </trkpt>
      <trkpt lat="48.10625" lon="7.18319">
        <ele>738</ele>
        <time>2019-04-15T18:50:27Z</time>
      </trkpt>
      <trkpt lat="48.10627" lon="7.18301">
        <ele>737</ele>
        <time>2019-04-15T18:51:27Z</time>
      </trkpt>
      <trkpt lat="48.10632" lon="7.18286">
        <ele>736</ele>
        <time>2019-04-15T18:52:27Z</time>
      </trkpt>
      <trkpt lat="48.10635" lon="7.1828">
        <ele>735</ele>
        <time>2019-04-15T18:53:27Z</time>
      </trkpt>
      <trkpt lat="48.10639" lon="7.18272">
        <ele>735</ele>
        <time>2019-04-15T18:54:27Z</time>
      </trkpt>
      <trkpt lat="48.10645" lon="7.18262">
        <ele>735</ele>
        <time>2019-04-15T18:55:27Z</time>
      </trkpt>
      <trkpt lat="48.10651" lon="7.18256">
        <ele>735</ele>
        <time>2019-04-15T18:56:27Z</time>
      </trkpt>
      <trkpt lat="48.10656" lon="7.18251">
        <ele>735</ele>
        <time>2019-04-15T18:57:27Z</time>
      </trkpt>
      <trkpt lat="48.1066" lon="7.18249">
        <ele>735</ele>
        <time>2019-04-15T18:58:27Z</time>
      </trkpt>
      <trkpt lat="48.10665" lon="7.18247">
        <ele>735</ele>
        <time>2019-04-15T18:59:27Z</time>
      </trkpt>
      <trkpt lat="48.10673" lon="7.18245">
        <ele>735</ele>
        <time>2019-04-15T19:00:27Z</time>
      </trkpt>
      <trkpt lat="48.10684" lon="7.18245">
        <ele>734</ele>
        <time>2019-04-15T19:01:27Z</time>
      </trkpt>
      <trkpt lat="48.107" lon="7.18247">
        <ele>733</ele>
        <time>2019-04-15T19:02:27Z</time>
      </trkpt>
      <trkpt lat="48.10727" lon="7.18254">
        <ele>733</ele>
        <time>2019-04-15T19:03:27Z</time>
      </trkpt>
      <trkpt lat="48.1079" lon="7.18269">
        <ele>731</ele>
        <time>2019-04-15T19:04:27Z</time>
      </trkpt>
      <trkpt lat="48.10805" lon="7.18272">
        <ele>731</ele>
        <time>2019-04-15T19:05:27Z</time>
      </trkpt>
      <trkpt lat="48.10835" lon="7.18277">
        <ele>730</ele>
        <time>2019-04-15T19:06:27Z</time>
      </trkpt>
      <trkpt lat="48.10839" lon="7.18279">
        <ele>731</ele>
        <time>2019-04-15T19:07:27Z</time>
      </trkpt>
      <trkpt lat="48.10849" lon="7.1828">
        <ele>732</ele>
        <time>2019-04-15T19:08:27Z</time>
      </trkpt>
      <trkpt lat="48.10853" lon="7.1828">
        <ele>732</ele>
        <time>2019-04-15T19:09:27Z</time>
      </trkpt>
      <trkpt lat="48.10864" lon="7.18275">
        <ele>733</ele>
        <time>2019-04-15T19:10:27Z</time>
      </trkpt>
      <trkpt lat="48.10868" lon="7.1827">
        <ele>733</ele>
        <time>2019-04-15T19:11:27Z</time>
      </trkpt>
      <trkpt lat="48.10872" lon="7.18265">
        <ele>733</ele>
        <time>2019-04-15T19:12:27Z</time>
      </trkpt>
      <trkpt lat="48.10875" lon="7.1826">
        <ele>733</ele>
        <time>2019-04-15T19:13:27Z</time>
      </trkpt>
      <trkpt lat="48.10877" lon="7.18255">
        <ele>733</ele>
        <time>2019-04-15T19:14:27Z</time>
      </trkpt>
      <trkpt lat="48.10879" lon="7.18246">
        <ele>733</ele>
        <time>2019-04-15T19:15:27Z</time>
      </trkpt>
      <trkpt lat="48.1088" lon="7.1824">
        <ele>734</ele>
        <time>2019-04-15T19:16:27Z</time>
      </trkpt>
      <trkpt lat="48.1088" lon="7.18232">
        <ele>734</ele>
        <time>2019-04-15T19:17:27Z</time>
      </trkpt>
      <trkpt lat="48.10878" lon="7.18216">
        <ele>734</ele>
        <time>2019-04-15T19:18:27Z</time>
      </trkpt>
      <trkpt lat="48.10873" lon="7.18194">
        <ele>734</ele>
        <time>2019-04-15T19:19:27Z</time>
      </trkpt>
      <trkpt lat="48.10863" lon="7.18159">
        <ele>733</ele>
        <time>2019-04-15T19:20:27Z</time>
      </trkpt>
      <trkpt lat="48.10856" lon="7.18135">
        <ele>733</ele>
        <time>2019-04-15T19:21:27Z</time>
      </trkpt>
      <trkpt lat="48.10847" lon="7.18105">
        <ele>732</ele>
        <time>2019-04-15T19:22:27Z</time>
      </trkpt>
      <trkpt lat="48.10847" lon="7.18103">
        <ele>732</ele>
        <time>2019-04-15T19:23:27Z</time>
      </trkpt>
      <trkpt lat="48.10833" lon="7.18059">
        <ele>733</ele>
        <time>2019-04-15T19:24:27Z</time>
      </trkpt>
      <trkpt lat="48.10826" lon="7.18037">
        <ele>735</ele>
        <time>2019-04-15T19:25:27Z</time>
      </trkpt>
      <trkpt lat="48.10817" lon="7.18021">
        <ele>734</ele>
        <time>2019-04-15T19:26:27Z</time>
      </trkpt>
      <trkpt lat="48.10807" lon="7.18008">
        <ele>732</ele>
        <time>2019-04-15T19:27:27Z</time>
      </trkpt>
      <trkpt lat="48.10793" lon="7.17994">
        <ele>728</ele>
        <time>2019-04-15T19:28:27Z</time>
      </trkpt>
      <trkpt lat="48.1079" lon="7.1799">
        <ele>728</ele>
        <time>2019-04-15T19:29:27Z</time>
      </trkpt>
      <trkpt lat="48.10769" lon="7.17972">
        <ele>722</ele>
        <time>2019-04-15T19:30:27Z</time>
      </trkpt>
      <trkpt lat="48.10762" lon="7.17965">
        <ele>721</ele>
        <time>2019-04-15T19:31:27Z</time>
      </trkpt>
      <trkpt lat="48.10747" lon="7.17951">
        <ele>718</ele>
        <time>2019-04-15T19:32:27Z</time>
      </trkpt>
      <trkpt lat="48.10738" lon="7.17941">
        <ele>718</ele>
        <time>2019-04-15T19:33:27Z</time>
      </trkpt>
      <trkpt lat="48.10734" lon="7.17936">
        <ele>717</ele>
        <time>2019-04-15T19:34:27Z</time>
      </trkpt>
      <trkpt lat="48.10729" lon="7.1793">
        <ele>717</ele>
        <time>2019-04-15T19:35:27Z</time>
      </trkpt>
      <trkpt lat="48.10724" lon="7.17922">
        <ele>717</ele>
        <time>2019-04-15T19:36:27Z</time>
      </trkpt>
      <trkpt lat="48.10719" lon="7.17911">
        <ele>716</ele>
        <time>2019-04-15T19:37:27Z</time>
      </trkpt>
      <trkpt lat="48.10714" lon="7.17892">
        <ele>714</ele>
        <time>2019-04-15T19:38:27Z</time>
      </trkpt>
      <trkpt lat="48.10711" lon="7.17879">
        <ele>713</ele>
        <time>2019-04-15T19:39:27Z</time>
      </trkpt>
      <trkpt lat="48.1071" lon="7.17872">
        <ele>713</ele>
        <time>2019-04-15T19:40:27Z</time>
      </trkpt>
      <trkpt lat="48.10709" lon="7.17852">
        <ele>713</ele>
        <time>2019-04-15T19:41:27Z</time>
      </trkpt>
      <trkpt lat="48.1071" lon="7.17825">
        <ele>713</ele>
        <time>2019-04-15T19:42:27Z</time>
      </trkpt>
      <trkpt lat="48.10713" lon="7.17785">
        <ele>710</ele>
        <time>2019-04-15T19:43:27Z</time>
      </trkpt>
      <trkpt lat="48.10717" lon="7.17757">
        <ele>708</ele>
        <time>2019-04-15T19:44:27Z</time>
      </trkpt>
      <trkpt lat="48.10721" lon="7.17734">
        <ele>707</ele>
        <time>2019-04-15T19:45:27Z</time>
      </trkpt>
      <trkpt lat="48.10729" lon="7.1771">
        <ele>708</ele>
        <time>2019-04-15T19:46:27Z</time>
      </trkpt>
      <trkpt lat="48.10742" lon="7.17677">
        <ele>710</ele>
        <time>2019-04-15T19:47:27Z</time>
      </trkpt>
      <trkpt lat="48.10756" lon="7.1764">
        <ele>710</ele>
        <time>2019-04-15T19:48:27Z</time>
      </trkpt>
      <trkpt lat="48.10766" lon="7.17612">
        <ele>709</ele>
        <time>2019-04-15T19:49:27Z</time>
      </trkpt>
      <trkpt lat="48.10776" lon="7.17576">
        <ele>707</ele>
        <time>2019-04-15T19:50:27Z</time>
      </trkpt>
      <trkpt lat="48.1078" lon="7.17556">
        <ele>704</ele>
        <time>2019-04-15T19:51:27Z</time>
      </trkpt>
      <trkpt lat="48.10789" lon="7.17522">
        <ele>701</ele>
        <time>2019-04-15T19:52:27Z</time>
      </trkpt>
      <trkpt lat="48.10796" lon="7.17497">
        <ele>699</ele>
        <time>2019-04-15T19:53:27Z</time>
      </trkpt>
      <trkpt lat="48.10804" lon="7.17476">
        <ele>696</ele>
        <time>2019-04-15T19:54:27Z</time>
      </trkpt>
      <trkpt lat="48.10811" lon="7.17466">
        <ele>696</ele>
        <time>2019-04-15T19:55:27Z</time>
      </trkpt>
      <trkpt lat="48.10816" lon="7.1746">
        <ele>696</ele>
        <time>2019-04-15T19:56:27Z</time>
      </trkpt>
      <trkpt lat="48.10825" lon="7.17454">
        <ele>697</ele>
        <time>2019-04-15T19:57:27Z</time>
      </trkpt>
      <trkpt lat="48.10841" lon="7.17445">
        <ele>698</ele>
        <time>2019-04-15T19:58:27Z</time>
      </trkpt>
      <trkpt lat="48.10857" lon="7.17439">
        <ele>699</ele>
        <time>2019-04-15T19:59:27Z</time>
      </trkpt>
      <trkpt lat="48.10875" lon="7.17429">
        <ele>699</ele>
        <time>2019-04-15T20:00:27Z</time>
      </trkpt>
      <trkpt lat="48.10892" lon="7.17416">
        <ele>699</ele>
        <time>2019-04-15T20:01:27Z</time>
      </trkpt>
      <trkpt lat="48.10903" lon="7.17409">
        <ele>698</ele>
        <time>2019-04-15T20:02:27Z</time>
      </trkpt>
      <trkpt lat="48.10908" lon="7.17405">
        <ele>697</ele>
        <time>2019-04-15T20:03:27Z</time>
      </trkpt>
      <trkpt lat="48.10926" lon="7.17388">
        <ele>693</ele>
        <time>2019-04-15T20:04:27Z</time>
      </trkpt>
      <trkpt lat="48.10949" lon="7.17371">
        <ele>688</ele>
        <time>2019-04-15T20:05:27Z</time>
      </trkpt>
      <trkpt lat="48.10956" lon="7.17366">
        <ele>687</ele>
        <time>2019-04-15T20:06:27Z</time>
      </trkpt>
      <trkpt lat="48.10961" lon="7.17365">
        <ele>687</ele>
        <time>2019-04-15T20:07:27Z</time>
      </trkpt>
      <trkpt lat="48.10972" lon="7.17363">
        <ele>687</ele>
        <time>2019-04-15T20:08:27Z</time>
      </trkpt>
      <trkpt lat="48.11011" lon="7.17363">
        <ele>688</ele>
        <time>2019-04-15T20:09:27Z</time>
      </trkpt>
      <trkpt lat="48.11035" lon="7.17357">
        <ele>688</ele>
        <time>2019-04-15T20:10:27Z</time>
      </trkpt>
      <trkpt lat="48.11038" lon="7.17356">
        <ele>687</ele>
        <time>2019-04-15T20:11:27Z</time>
      </trkpt>
      <trkpt lat="48.11049" lon="7.17351">
        <ele>687</ele>
        <time>2019-04-15T20:12:27Z</time>
      </trkpt>
      <trkpt lat="48.1106" lon="7.17347">
        <ele>686</ele>
        <time>2019-04-15T20:13:27Z</time>
      </trkpt>
      <trkpt lat="48.11086" lon="7.17336">
        <ele>684</ele>
        <time>2019-04-15T20:14:27Z</time>
      </trkpt>
      <trkpt lat="48.11109" lon="7.17332">
        <ele>681</ele>
        <time>2019-04-15T20:15:27Z</time>
      </trkpt>
      <trkpt lat="48.11113" lon="7.17332">
        <ele>681</ele>
        <time>2019-04-15T20:16:27Z</time>
      </trkpt>
      <trkpt lat="48.11125" lon="7.17335">
        <ele>680</ele>
        <time>2019-04-15T20:17:27Z</time>
      </trkpt>
      <trkpt lat="48.11173" lon="7.17355">
        <ele>681</ele>
        <time>2019-04-15T20:18:27Z</time>
      </trkpt>
      <trkpt lat="48.11181" lon="7.1736">
        <ele>682</ele>
        <time>2019-04-15T20:19:27Z</time>
      </trkpt>
      <trkpt lat="48.11206" lon="7.1737">
        <ele>682</ele>
        <time>2019-04-15T20:20:27Z</time>
      </trkpt>
      <trkpt lat="48.11228" lon="7.17379">
        <ele>683</ele>
        <time>2019-04-15T20:21:27Z</time>
      </trkpt>
      <trkpt lat="48.11249" lon="7.17387">
        <ele>682</ele>
        <time>2019-04-15T20:22:27Z</time>
      </trkpt>
      <trkpt lat="48.11261" lon="7.1739">
        <ele>681</ele>
        <time>2019-04-15T20:23:27Z</time>
      </trkpt>
      <trkpt lat="48.11266" lon="7.17388">
        <ele>679</ele>
        <time>2019-04-15T20:24:27Z</time>
      </trkpt>
      <trkpt lat="48.11274" lon="7.17383">
        <ele>677</ele>
        <time>2019-04-15T20:25:27Z</time>
      </trkpt>
      <trkpt lat="48.11278" lon="7.17372">
        <ele>673</ele>
        <time>2019-04-15T20:26:27Z</time>
      </trkpt>
      <trkpt lat="48.11279" lon="7.17367">
        <ele>672</ele>
        <time>2019-04-15T20:27:27Z</time>
      </trkpt>
      <trkpt lat="48.11279" lon="7.17364">
        <ele>672</ele>
        <time>2019-04-15T20:28:27Z</time>
      </trkpt>
      <trkpt lat="48.11278" lon="7.1736">
        <ele>671</ele>
        <time>2019-04-15T20:29:27Z</time>
      </trkpt>
      <trkpt lat="48.11278" lon="7.17357">
        <ele>670</ele>
        <time>2019-04-15T20:30:27Z</time>
      </trkpt>
      <trkpt lat="48.11276" lon="7.17351">
        <ele>669</ele>
        <time>2019-04-15T20:31:27Z</time>
      </trkpt>
      <trkpt lat="48.11272" lon="7.17345">
        <ele>669</ele>
        <time>2019-04-15T20:32:27Z</time>
      </trkpt>
      <trkpt lat="48.1127" lon="7.17342">
        <ele>669</ele>
        <time>2019-04-15T20:33:27Z</time>
      </trkpt>
      <trkpt lat="48.11255" lon="7.17331">
        <ele>669</ele>
        <time>2019-04-15T20:34:27Z</time>
      </trkpt>
      <trkpt lat="48.11222" lon="7.17318">
        <ele>669</ele>
        <time>2019-04-15T20:35:27Z</time>
      </trkpt>
      <trkpt lat="48.11191" lon="7.17305">
        <ele>668</ele>
        <time>2019-04-15T20:36:27Z</time>
      </trkpt>
      <trkpt lat="48.11147" lon="7.17286">
        <ele>666</ele>
        <time>2019-04-15T20:37:27Z</time>
      </trkpt>
      <trkpt lat="48.11086" lon="7.17259">
        <ele>661</ele>
        <time>2019-04-15T20:38:27Z</time>
      </trkpt>
      <trkpt lat="48.11074" lon="7.17257">
        <ele>660</ele>
        <time>2019-04-15T20:39:27Z</time>
      </trkpt>
      <trkpt lat="48.11062" lon="7.17255">
        <ele>658</ele>
        <time>2019-04-15T20:40:27Z</time>
      </trkpt>
      <trkpt lat="48.11042" lon="7.17254">
        <ele>656</ele>
        <time>2019-04-15T20:41:27Z</time>
      </trkpt>
      <trkpt lat="48.11011" lon="7.17257">
        <ele>655</ele>
        <time>2019-04-15T20:42:27Z</time>
      </trkpt>
      <trkpt lat="48.10978" lon="7.1726">
        <ele>653</ele>
        <time>2019-04-15T20:43:27Z</time>
      </trkpt>
      <trkpt lat="48.10945" lon="7.17265">
        <ele>651</ele>
        <time>2019-04-15T20:44:27Z</time>
      </trkpt>
      <trkpt lat="48.1091" lon="7.17275">
        <ele>651</ele>
        <time>2019-04-15T20:45:27Z</time>
      </trkpt>
      <trkpt lat="48.109" lon="7.17279">
        <ele>651</ele>
        <time>2019-04-15T20:46:27Z</time>
      </trkpt>
      <trkpt lat="48.10872" lon="7.17287">
        <ele>650</ele>
        <time>2019-04-15T20:47:27Z</time>
      </trkpt>
      <trkpt lat="48.10844" lon="7.17297">
        <ele>649</ele>
        <time>2019-04-15T20:48:27Z</time>
      </trkpt>
      <trkpt lat="48.10817" lon="7.17306">
        <ele>648</ele>
        <time>2019-04-15T20:49:27Z</time>
      </trkpt>
      <trkpt lat="48.10798" lon="7.17307">
        <ele>646</ele>
        <time>2019-04-15T20:50:27Z</time>
      </trkpt>
      <trkpt lat="48.10778" lon="7.17307">
        <ele>643</ele>
        <time>2019-04-15T20:51:27Z</time>
      </trkpt>
      <trkpt lat="48.10757" lon="7.17305">
        <ele>639</ele>
        <time>2019-04-15T20:52:27Z</time>
      </trkpt>
      <trkpt lat="48.10744" lon="7.17305">
        <ele>636</ele>
        <time>2019-04-15T20:53:27Z</time>
      </trkpt>
      <trkpt lat="48.10734" lon="7.17306">
        <ele>634</ele>
        <time>2019-04-15T20:54:27Z</time>
      </trkpt>
      <trkpt lat="48.10725" lon="7.17311">
        <ele>633</ele>
        <time>2019-04-15T20:55:27Z</time>
      </trkpt>
      <trkpt lat="48.10718" lon="7.17319">
        <ele>634</ele>
        <time>2019-04-15T20:56:27Z</time>
      </trkpt>
      <trkpt lat="48.10711" lon="7.17328">
        <ele>634</ele>
        <time>2019-04-15T20:57:27Z</time>
      </trkpt>
      <trkpt lat="48.10703" lon="7.17348">
        <ele>636</ele>
        <time>2019-04-15T20:58:27Z</time>
      </trkpt>
      <trkpt lat="48.10691" lon="7.17383">
        <ele>638</ele>
        <time>2019-04-15T20:59:27Z</time>
      </trkpt>
      <trkpt lat="48.10686" lon="7.17398">
        <ele>639</ele>
        <time>2019-04-15T21:00:27Z</time>
      </trkpt>
      <trkpt lat="48.1068" lon="7.17416">
        <ele>639</ele>
        <time>2019-04-15T21:01:27Z</time>
      </trkpt>
      <trkpt lat="48.10674" lon="7.17431">
        <ele>639</ele>
        <time>2019-04-15T21:02:27Z</time>
      </trkpt>
      <trkpt lat="48.10665" lon="7.17446">
        <ele>639</ele>
        <time>2019-04-15T21:03:27Z</time>
      </trkpt>
      <trkpt lat="48.10661" lon="7.17449">
        <ele>640</ele>
        <time>2019-04-15T21:04:27Z</time>
      </trkpt>
      <trkpt lat="48.10656" lon="7.17451">
        <ele>641</ele>
        <time>2019-04-15T21:05:27Z</time>
      </trkpt>
      <trkpt lat="48.10649" lon="7.17453">
        <ele>643</ele>
        <time>2019-04-15T21:06:27Z</time>
      </trkpt>
      <trkpt lat="48.10648" lon="7.17453">
        <ele>644</ele>
        <time>2019-04-15T21:07:27Z</time>
      </trkpt>
      <trkpt lat="48.10642" lon="7.17451">
        <ele>645</ele>
        <time>2019-04-15T21:08:27Z</time>
      </trkpt>
      <trkpt lat="48.10633" lon="7.17445">
        <ele>646</ele>
        <time>2019-04-15T21:09:27Z</time>
      </trkpt>
      <trkpt lat="48.1063" lon="7.1744">
        <ele>646</ele>
        <time>2019-04-15T21:10:27Z</time>
      </trkpt>
      <trkpt lat="48.10628" lon="7.17434">
        <ele>645</ele>
        <time>2019-04-15T21:11:27Z</time>
      </trkpt>
      <trkpt lat="48.10622" lon="7.17415">
        <ele>643</ele>
        <time>2019-04-15T21:12:27Z</time>
      </trkpt>
      <trkpt lat="48.10618" lon="7.17377">
        <ele>636</ele>
        <time>2019-04-15T21:13:27Z</time>
      </trkpt>
      <trkpt lat="48.10616" lon="7.17342">
        <ele>628</ele>
        <time>2019-04-15T21:14:27Z</time>
      </trkpt>
      <trkpt lat="48.10614" lon="7.17328">
        <ele>625</ele>
        <time>2019-04-15T21:15:27Z</time>
      </trkpt>
      <trkpt lat="48.10613" lon="7.17326">
        <ele>624</ele>
        <time>2019-04-15T21:16:27Z</time>
      </trkpt>
      <trkpt lat="48.10611" lon="7.17321">
        <ele>623</ele>
        <time>2019-04-15T21:17:27Z</time>
      </trkpt>
      <trkpt lat="48.10609" lon="7.17318">
        <ele>622</ele>
        <time>2019-04-15T21:18:27Z</time>
      </trkpt>
      <trkpt lat="48.10602" lon="7.17311">
        <ele>621</ele>
        <time>2019-04-15T21:19:27Z</time>
      </trkpt>
      <trkpt lat="48.10592" lon="7.17307">
        <ele>620</ele>
        <time>2019-04-15T21:20:27Z</time>
      </trkpt>
      <trkpt lat="48.10567" lon="7.173">
        <ele>621</ele>
        <time>2019-04-15T21:21:27Z</time>
      </trkpt>
      <trkpt lat="48.10537" lon="7.17292">
        <ele>624</ele>
        <time>2019-04-15T21:22:27Z</time>
      </trkpt>
      <trkpt lat="48.10523" lon="7.17285">
        <ele>624</ele>
        <time>2019-04-15T21:23:27Z</time>
      </trkpt>
      <trkpt lat="48.10507" lon="7.17274">
        <ele>623</ele>
        <time>2019-04-15T21:24:27Z</time>
      </trkpt>
      <trkpt lat="48.10498" lon="7.17262">
        <ele>620</ele>
        <time>2019-04-15T21:25:27Z</time>
      </trkpt>
      <trkpt lat="48.10484" lon="7.17245">
        <ele>619</ele>
        <time>2019-04-15T21:26:27Z</time>
      </trkpt>
      <trkpt lat="48.1046" lon="7.17209">
        <ele>619</ele>
        <time>2019-04-15T21:27:27Z</time>
      </trkpt>
      <trkpt lat="48.10444" lon="7.17182">
        <ele>618</ele>
        <time>2019-04-15T21:28:27Z</time>
      </trkpt>
      <trkpt lat="48.10426" lon="7.17153">
        <ele>617</ele>
        <time>2019-04-15T21:29:27Z</time>
      </trkpt>
      <trkpt lat="48.10424" lon="7.17146">
        <ele>617</ele>
        <time>2019-04-15T21:30:27Z</time>
      </trkpt>
      <trkpt lat="48.10423" lon="7.17143">
        <ele>616</ele>
        <time>2019-04-15T21:31:27Z</time>
      </trkpt>
      <trkpt lat="48.10422" lon="7.17133">
        <ele>616</ele>
        <time>2019-04-15T21:32:27Z</time>
      </trkpt>
      <trkpt lat="48.10423" lon="7.17126">
        <ele>615</ele>
        <time>2019-04-15T21:33:27Z</time>
      </trkpt>
      <trkpt lat="48.10425" lon="7.17122">
        <ele>615</ele>
        <time>2019-04-15T21:34:27Z</time>
      </trkpt>
      <trkpt lat="48.10426" lon="7.1712">
        <ele>615</ele>
        <time>2019-04-15T21:35:27Z</time>
      </trkpt>
      <trkpt lat="48.10429" lon="7.17116">
        <ele>614</ele>
        <time>2019-04-15T21:36:27Z</time>
      </trkpt>
      <trkpt lat="48.10432" lon="7.17113">
        <ele>614</ele>
        <time>2019-04-15T21:37:27Z</time>
      </trkpt>
      <trkpt lat="48.10434" lon="7.17111">
        <ele>614</ele>
        <time>2019-04-15T21:38:27Z</time>
      </trkpt>
      <trkpt lat="48.10436" lon="7.1711">
        <ele>614</ele>
        <time>2019-04-15T21:39:27Z</time>
      </trkpt>
      <trkpt lat="48.10439" lon="7.1711">
        <ele>614</ele>
        <time>2019-04-15T21:40:27Z</time>
      </trkpt>
      <trkpt lat="48.10442" lon="7.1711">
        <ele>614</ele>
        <time>2019-04-15T21:41:27Z</time>
      </trkpt>
      <trkpt lat="48.10444" lon="7.1711">
        <ele>615</ele>
        <time>2019-04-15T21:42:27Z</time>
      </trkpt>
      <trkpt lat="48.10445" lon="7.17111">
        <ele>615</ele>
        <time>2019-04-15T21:43:27Z</time>
      </trkpt>
      <trkpt lat="48.10447" lon="7.17112">
        <ele>615</ele>
        <time>2019-04-15T21:44:27Z</time>
      </trkpt>
      <trkpt lat="48.1045" lon="7.17114">
        <ele>615</ele>
        <time>2019-04-15T21:45:27Z</time>
      </trkpt>
      <trkpt lat="48.10453" lon="7.17117">
        <ele>615</ele>
        <time>2019-04-15T21:46:27Z</time>
      </trkpt>
      <trkpt lat="48.10455" lon="7.1712">
        <ele>615</ele>
        <time>2019-04-15T21:47:27Z</time>
      </trkpt>
      <trkpt lat="48.10459" lon="7.17132">
        <ele>615</ele>
        <time>2019-04-15T21:48:27Z</time>
      </trkpt>
      <trkpt lat="48.10464" lon="7.17148">
        <ele>614</ele>
        <time>2019-04-15T21:49:27Z</time>
      </trkpt>
      <trkpt lat="48.10471" lon="7.17164">
        <ele>613</ele>
        <time>2019-04-15T21:50:27Z</time>
      </trkpt>
      <trkpt lat="48.10474" lon="7.17172">
        <ele>613</ele>
        <time>2019-04-15T21:51:27Z</time>
      </trkpt>
      <trkpt lat="48.10487" lon="7.17193">
        <ele>613</ele>
        <time>2019-04-15T21:52:27Z</time>
      </trkpt>
      <trkpt lat="48.10494" lon="7.17201">
        <ele>613</ele>
        <time>2019-04-15T21:53:27Z</time>
      </trkpt>
      <trkpt lat="48.10505" lon="7.1721">
        <ele>612</ele>
        <time>2019-04-15T21:54:27Z</time>
      </trkpt>
      <trkpt lat="48.10518" lon="7.17217">
        <ele>611</ele>
        <time>2019-04-15T21:55:27Z</time>
      </trkpt>
      <trkpt lat="48.10528" lon="7.17223">
        <ele>611</ele>
        <time>2019-04-15T21:56:27Z</time>
      </trkpt>
      <trkpt lat="48.10553" lon="7.17233">
        <ele>608</ele>
        <time>2019-04-15T21:57:27Z</time>
      </trkpt>
      <trkpt lat="48.10577" lon="7.17236">
        <ele>605</ele>
        <time>2019-04-15T21:58:27Z</time>
      </trkpt>
      <trkpt lat="48.10594" lon="7.17234">
        <ele>604</ele>
        <time>2019-04-15T21:59:27Z</time>
      </trkpt>
      <trkpt lat="48.10597" lon="7.17235">
        <ele>604</ele>
        <time>2019-04-15T22:00:27Z</time>
      </trkpt>
      <trkpt lat="48.10615" lon="7.1723">
        <ele>604</ele>
        <time>2019-04-15T22:01:27Z</time>
      </trkpt>
      <trkpt lat="48.10633" lon="7.17222">
        <ele>603</ele>
        <time>2019-04-15T22:02:27Z</time>
      </trkpt>
      <trkpt lat="48.10647" lon="7.17212">
        <ele>602</ele>
        <time>2019-04-15T22:03:27Z</time>
      </trkpt>
      <trkpt lat="48.1066" lon="7.17201">
        <ele>601</ele>
        <time>2019-04-15T22:04:27Z</time>
      </trkpt>
      <trkpt lat="48.10675" lon="7.17183">
        <ele>599</ele>
        <time>2019-04-15T22:05:27Z</time>
      </trkpt>
      <trkpt lat="48.10688" lon="7.17167">
        <ele>597</ele>
        <time>2019-04-15T22:06:27Z</time>
      </trkpt>
      <trkpt lat="48.10697" lon="7.1715">
        <ele>598</ele>
        <time>2019-04-15T22:07:27Z</time>
      </trkpt>
      <trkpt lat="48.10707" lon="7.17137">
        <ele>598</ele>
        <time>2019-04-15T22:08:27Z</time>
      </trkpt>
      <trkpt lat="48.1072" lon="7.17119">
        <ele>598</ele>
        <time>2019-04-15T22:09:27Z</time>
      </trkpt>
      <trkpt lat="48.10736" lon="7.17103">
        <ele>595</ele>
        <time>2019-04-15T22:10:27Z</time>
      </trkpt>
      <trkpt lat="48.10759" lon="7.17087">
        <ele>591</ele>
        <time>2019-04-15T22:11:27Z</time>
      </trkpt>
      <trkpt lat="48.10794" lon="7.17064">
        <ele>587</ele>
        <time>2019-04-15T22:12:27Z</time>
      </trkpt>
      <trkpt lat="48.10842" lon="7.17033">
        <ele>580</ele>
        <time>2019-04-15T22:13:27Z</time>
      </trkpt>
      <trkpt lat="48.10905" lon="7.16993">
        <ele>574</ele>
        <time>2019-04-15T22:14:27Z</time>
      </trkpt>
      <trkpt lat="48.10957" lon="7.16961">
        <ele>573</ele>
        <time>2019-04-15T22:15:27Z</time>
      </trkpt>
      <trkpt lat="48.10984" lon="7.16946">
        <ele>572</ele>
        <time>2019-04-15T22:16:27Z</time>
      </trkpt>
      <trkpt lat="48.11015" lon="7.16934">
        <ele>570</ele>
        <time>2019-04-15T22:17:27Z</time>
      </trkpt>
      <trkpt lat="48.11031" lon="7.16928">
        <ele>570</ele>
        <time>2019-04-15T22:18:27Z</time>
      </trkpt>
      <trkpt lat="48.11055" lon="7.1692">
        <ele>568</ele>
        <time>2019-04-15T22:19:27Z</time>
      </trkpt>
      <trkpt lat="48.1106" lon="7.16917">
        <ele>567</ele>
        <time>2019-04-15T22:20:27Z</time>
      </trkpt>
      <trkpt lat="48.11067" lon="7.16914">
        <ele>567</ele>
        <time>2019-04-15T22:21:27Z</time>
      </trkpt>
      <trkpt lat="48.11082" lon="7.16904">
        <ele>566</ele>
        <time>2019-04-15T22:22:27Z</time>
      </trkpt>
      <trkpt lat="48.11103" lon="7.16882">
        <ele>566</ele>
        <time>2019-04-15T22:23:27Z</time>
      </trkpt>
      <trkpt lat="48.11123" lon="7.16858">
        <ele>564</ele>
        <time>2019-04-15T22:24:27Z</time>
      </trkpt>
      <trkpt lat="48.11156" lon="7.16816">
        <ele>558</ele>
        <time>2019-04-15T22:25:27Z</time>
      </trkpt>
      <trkpt lat="48.11181" lon="7.16784">
        <ele>555</ele>
        <time>2019-04-15T22:26:27Z</time>
      </trkpt>
      <trkpt lat="48.11185" lon="7.1678">
        <ele>554</ele>
        <time>2019-04-15T22:27:27Z</time>
      </trkpt>
      <trkpt lat="48.11206" lon="7.16755">
        <ele>552</ele>
        <time>2019-04-15T22:28:27Z</time>
      </trkpt>
      <trkpt lat="48.11222" lon="7.16738">
        <ele>552</ele>
        <time>2019-04-15T22:29:27Z</time>
      </trkpt>
      <trkpt lat="48.11229" lon="7.16733">
        <ele>552</ele>
        <time>2019-04-15T22:30:27Z</time>
      </trkpt>
      <trkpt lat="48.1124" lon="7.16723">
        <ele>552</ele>
        <time>2019-04-15T22:31:27Z</time>
      </trkpt>
      <trkpt lat="48.11253" lon="7.16716">
        <ele>552</ele>
        <time>2019-04-15T22:32:27Z</time>
      </trkpt>
      <trkpt lat="48.11267" lon="7.16711">
        <ele>552</ele>
        <time>2019-04-15T22:33:27Z</time>
      </trkpt>
      <trkpt lat="48.11283" lon="7.16707">
        <ele>551</ele>
        <time>2019-04-15T22:34:27Z</time>
      </trkpt>
      <trkpt lat="48.113" lon="7.16707">
        <ele>551</ele>
        <time>2019-04-15T22:35:27Z</time>
      </trkpt>
      <trkpt lat="48.11315" lon="7.1671">
        <ele>550</ele>
        <time>2019-04-15T22:36:27Z</time>
      </trkpt>
      <trkpt lat="48.11331" lon="7.16717">
        <ele>548</ele>
        <time>2019-04-15T22:37:27Z</time>
      </trkpt>
      <trkpt lat="48.11341" lon="7.16722">
        <ele>547</ele>
        <time>2019-04-15T22:38:27Z</time>
      </trkpt>
      <trkpt lat="48.11359" lon="7.16735">
        <ele>545</ele>
        <time>2019-04-15T22:39:27Z</time>
      </trkpt>
      <trkpt lat="48.11381" lon="7.16755">
        <ele>543</ele>
        <time>2019-04-15T22:40:27Z</time>
      </trkpt>
      <trkpt lat="48.11383" lon="7.16757">
        <ele>543</ele>
        <time>2019-04-15T22:41:27Z</time>
      </trkpt>
      <trkpt lat="48.11406" lon="7.1678">
        <ele>543</ele>
        <time>2019-04-15T22:42:27Z</time>
      </trkpt>
      <trkpt lat="48.11426" lon="7.16791">
        <ele>541</ele>
        <time>2019-04-15T22:43:27Z</time>
      </trkpt>
      <trkpt lat="48.11433" lon="7.16794">
        <ele>540</ele>
        <time>2019-04-15T22:44:27Z</time>
      </trkpt>
      <trkpt lat="48.11467" lon="7.16809">
        <ele>535</ele>
        <time>2019-04-15T22:45:27Z</time>
      </trkpt>
      <trkpt lat="48.11486" lon="7.16814">
        <ele>532</ele>
        <time>2019-04-15T22:46:27Z</time>
      </trkpt>
      <trkpt lat="48.1151" lon="7.16821">
        <ele>529</ele>
        <time>2019-04-15T22:47:27Z</time>
      </trkpt>
      <trkpt lat="48.11525" lon="7.16827">
        <ele>529</ele>
        <time>2019-04-15T22:48:27Z</time>
      </trkpt>
      <trkpt lat="48.11541" lon="7.16834">
        <ele>528</ele>
        <time>2019-04-15T22:49:27Z</time>
      </trkpt>
      <trkpt lat="48.11555" lon="7.16836">
        <ele>528</ele>
        <time>2019-04-15T22:50:27Z</time>
      </trkpt>
      <trkpt lat="48.11569" lon="7.16835">
        <ele>527</ele>
        <time>2019-04-15T22:51:27Z</time>
      </trkpt>
      <trkpt lat="48.11596" lon="7.16827">
        <ele>527</ele>
        <time>2019-04-15T22:52:27Z</time>
      </trkpt>
      <trkpt lat="48.11619" lon="7.1682">
        <ele>526</ele>
        <time>2019-04-15T22:53:27Z</time>
      </trkpt>
      <trkpt lat="48.11648" lon="7.16813">
        <ele>525</ele>
        <time>2019-04-15T22:54:27Z</time>
      </trkpt>
      <trkpt lat="48.11666" lon="7.16806">
        <ele>524</ele>
        <time>2019-04-15T22:55:27Z</time>
      </trkpt>
      <trkpt lat="48.11683" lon="7.16796">
        <ele>524</ele>
        <time>2019-04-15T22:56:27Z</time>
      </trkpt>
      <trkpt lat="48.11693" lon="7.16788">
        <ele>523</ele>
        <time>2019-04-15T22:57:27Z</time>
      </trkpt>
      <trkpt lat="48.117" lon="7.16781">
        <ele>523</ele>
        <time>2019-04-15T22:58:27Z</time>
      </trkpt>
      <trkpt lat="48.1174" lon="7.16743">
        <ele>519</ele>
        <time>2019-04-15T22:59:27Z</time>
      </trkpt>
      <trkpt lat="48.11771" lon="7.16713">
        <ele>519</ele>
        <time>2019-04-15T23:00:27Z</time>
      </trkpt>
      <trkpt lat="48.11787" lon="7.16695">
        <ele>519</ele>
        <time>2019-04-15T23:01:27Z</time>
      </trkpt>
      <trkpt lat="48.11805" lon="7.16669">
        <ele>518</ele>
        <time>2019-04-15T23:02:27Z</time>
      </trkpt>
      <trkpt lat="48.11817" lon="7.16656">
        <ele>517</ele>
        <time>2019-04-15T23:03:27Z</time>
      </trkpt>
      <trkpt lat="48.11837" lon="7.16642">
        <ele>515</ele>
        <time>2019-04-15T23:04:27Z</time>
      </trkpt>
      <trkpt lat="48.11858" lon="7.16625">
        <ele>514</ele>
        <time>2019-04-15T23:05:27Z</time>
      </trkpt>
      <trkpt lat="48.11868" lon="7.16613">
        <ele>513</ele>
        <time>2019-04-15T23:06:27Z</time>
      </trkpt>
      <trkpt lat="48.11881" lon="7.16598">
        <ele>512</ele>
        <time>2019-04-15T23:07:27Z</time>
      </trkpt>
      <trkpt lat="48.11903" lon="7.16578">
        <ele>510</ele>
        <time>2019-04-15T23:08:27Z</time>
      </trkpt>
      <trkpt lat="48.11921" lon="7.16568">
        <ele>509</ele>
        <time>2019-04-15T23:09:27Z</time>
      </trkpt>
      <trkpt lat="48.11938" lon="7.16562">
        <ele>508</ele>
        <time>2019-04-15T23:10:27Z</time>
      </trkpt>
      <trkpt lat="48.11955" lon="7.16561">
        <ele>506</ele>
        <time>2019-04-15T23:11:27Z</time>
      </trkpt>
      <trkpt lat="48.11974" lon="7.16564">
        <ele>505</ele>
        <time>2019-04-15T23:12:27Z</time>
      </trkpt>
      <trkpt lat="48.11981" lon="7.16566">
        <ele>504</ele>
        <time>2019-04-15T23:13:27Z</time>
      </trkpt>
      <trkpt lat="48.12002" lon="7.16571">
        <ele>503</ele>
        <time>2019-04-15T23:14:27Z</time>
      </trkpt>
      <trkpt lat="48.12027" lon="7.16577">
        <ele>502</ele>
        <time>2019-04-15T23:15:27Z</time>
      </trkpt>
      <trkpt lat="48.12039" lon="7.16578">
        <ele>501</ele>
        <time>2019-04-15T23:16:27Z</time>
      </trkpt>
      <trkpt lat="48.12059" lon="7.16577">
        <ele>501</ele>
        <time>2019-04-15T23:17:27Z</time>
      </trkpt>
      <trkpt lat="48.12062" lon="7.16577">
        <ele>500</ele>
        <time>2019-04-15T23:18:27Z</time>
      </trkpt>
      <trkpt lat="48.12104" lon="7.16564">
        <ele>499</ele>
        <time>2019-04-15T23:19:27Z</time>
      </trkpt>
      <trkpt lat="48.1211" lon="7.16562">
        <ele>499</ele>
        <time>2019-04-15T23:20:27Z</time>
      </trkpt>
      <trkpt lat="48.12133" lon="7.16556">
        <ele>498</ele>
        <time>2019-04-15T23:21:27Z</time>
      </trkpt>
      <trkpt lat="48.12152" lon="7.16549">
        <ele>497</ele>
        <time>2019-04-15T23:22:27Z</time>
      </trkpt>
      <trkpt lat="48.12192" lon="7.16536">
        <ele>496</ele>
        <time>2019-04-15T23:23:27Z</time>
      </trkpt>
      <trkpt lat="48.12224" lon="7.16526">
        <ele>495</ele>
        <time>2019-04-15T23:24:27Z</time>
      </trkpt>
      <trkpt lat="48.12254" lon="7.16514">
        <ele>494</ele>
        <time>2019-04-15T23:25:27Z</time>
      </trkpt>
      <trkpt lat="48.1228" lon="7.165">
        <ele>491</ele>
        <time>2019-04-15T23:26:27Z</time>
      </trkpt>
      <trkpt lat="48.123" lon="7.1649">
        <ele>491</ele>
        <time>2019-04-15T23:27:27Z</time>
      </trkpt>
      <trkpt lat="48.12313" lon="7.16485">
        <ele>490</ele>
        <time>2019-04-15T23:28:27Z</time>
      </trkpt>
      <trkpt lat="48.12322" lon="7.16483">
        <ele>490</ele>
        <time>2019-04-15T23:29:27Z</time>
      </trkpt>
      <trkpt lat="48.12332" lon="7.16481">
        <ele>490</ele>
        <time>2019-04-15T23:30:27Z</time>
      </trkpt>
      <trkpt lat="48.12346" lon="7.16482">
        <ele>489</ele>
        <time>2019-04-15T23:31:27Z</time>
      </trkpt>
      <trkpt lat="48.12355" lon="7.16483">
        <ele>488</ele>
        <time>2019-04-15T23:32:27Z</time>
      </trkpt>
      <trkpt lat="48.12373" lon="7.16487">
        <ele>486</ele>
        <time>2019-04-15T23:33:27Z</time>
      </trkpt>
      <trkpt lat="48.12391" lon="7.16492">
        <ele>485</ele>
        <time>2019-04-15T23:34:27Z</time>
      </trkpt>
      <trkpt lat="48.12401" lon="7.16497">
        <ele>484</ele>
        <time>2019-04-15T23:35:27Z</time>
      </trkpt>
      <trkpt lat="48.12408" lon="7.16502">
        <ele>483</ele>
        <time>2019-04-15T23:36:27Z</time>
      </trkpt>
      <trkpt lat="48.12428" lon="7.16515">
        <ele>483</ele>
        <time>2019-04-15T23:37:27Z</time>
      </trkpt>
      <trkpt lat="48.12438" lon="7.16518">
        <ele>482</ele>
        <time>2019-04-15T23:38:27Z</time>
      </trkpt>
      <trkpt lat="48.12454" lon="7.16518">
        <ele>480</ele>
        <time>2019-04-15T23:39:27Z</time>
      </trkpt>
      <trkpt lat="48.12461" lon="7.16515">
        <ele>479</ele>
        <time>2019-04-15T23:40:27Z</time>
      </trkpt>
      <trkpt lat="48.12471" lon="7.1651">
        <ele>477</ele>
        <time>2019-04-15T23:41:27Z</time>
      </trkpt>
      <trkpt lat="48.12482" lon="7.16506">
        <ele>476</ele>
        <time>2019-04-15T23:42:27Z</time>
      </trkpt>
      <trkpt lat="48.12486" lon="7.16505">
        <ele>475</ele>
        <time>2019-04-15T23:43:27Z</time>
      </trkpt>
      <trkpt lat="48.1249" lon="7.16504">
        <ele>475</ele>
        <time>2019-04-15T23:44:27Z</time>
      </trkpt>
      <trkpt lat="48.12494" lon="7.16502">
        <ele>475</ele>
        <time>2019-04-15T23:45:27Z</time>
      </trkpt>
      <trkpt lat="48.12501" lon="7.165">
        <ele>474</ele>
        <time>2019-04-15T23:46:27Z</time>
      </trkpt>
      <trkpt lat="48.1252" lon="7.16495">
        <ele>474</ele>
        <time>2019-04-15T23:47:27Z</time>
      </trkpt>
      <trkpt lat="48.1254" lon="7.16494">
        <ele>473</ele>
        <time>2019-04-15T23:48:27Z</time>
      </trkpt>
      <trkpt lat="48.12546" lon="7.16494">
        <ele>473</ele>
        <time>2019-04-15T23:49:27Z</time>
      </trkpt>
      <trkpt lat="48.1256" lon="7.16493">
        <ele>472</ele>
        <time>2019-04-15T23:50:27Z</time>
      </trkpt>
      <trkpt lat="48.12585" lon="7.16494">
        <ele>471</ele>
        <time>2019-04-15T23:51:27Z</time>
      </trkpt>
      <trkpt lat="48.12597" lon="7.16494">
        <ele>471</ele>
        <time>2019-04-15T23:52:27Z</time>
      </trkpt>
      <trkpt lat="48.1261" lon="7.16494">
        <ele>471</ele>
        <time>2019-04-15T23:53:27Z</time>
      </trkpt>
      <trkpt lat="48.12616" lon="7.16494">
        <ele>471</ele>
        <time>2019-04-15T23:54:27Z</time>
      </trkpt>
      <trkpt lat="48.1262" lon="7.16494">
        <ele>471</ele>
        <time>2019-04-15T23:55:27Z</time>
      </trkpt>
      <trkpt lat="48.1262" lon="7.16494">
        <ele>471</ele>
        <time>2019-04-15T23:56:27Z</time>
      </trkpt>
      <trkpt lat="48.1263" lon="7.16509">
        <ele>471</ele>
        <time>2019-04-15T23:57:27Z</time>
      </trkpt>
      <trkpt lat="48.12632" lon="7.16512">
        <ele>471</ele>
        <time>2019-04-15T23:58:27Z</time>
      </trkpt>
      <trkpt lat="48.12645" lon="7.1653">
        <ele>470</ele>
        <time>2019-04-15T23:59:27Z</time>
      </trkpt>
      <trkpt lat="48.12668" lon="7.16564">
        <ele>468</ele>
        <time>2019-04-16T00:00:27Z</time>
      </trkpt>
      <trkpt lat="48.12675" lon="7.16571">
        <ele>468</ele>
        <time>2019-04-16T00:01:27Z</time>
      </trkpt>
      <trkpt lat="48.12682" lon="7.16578">
        <ele>467</ele>
        <time>2019-04-16T00:02:27Z</time>
      </trkpt>
      <trkpt lat="48.12694" lon="7.1659">
        <ele>467</ele>
        <time>2019-04-16T00:03:27Z</time>
      </trkpt>
      <trkpt lat="48.12703" lon="7.166">
        <ele>467</ele>
        <time>2019-04-16T00:04:27Z</time>
      </trkpt>
      <trkpt lat="48.12712" lon="7.16609">
        <ele>467</ele>
        <time>2019-04-16T00:05:27Z</time>
      </trkpt>
      <trkpt lat="48.1273" lon="7.16627">
        <ele>467</ele>
        <time>2019-04-16T00:06:27Z</time>
      </trkpt>
      <trkpt lat="48.12733" lon="7.1663">
        <ele>467</ele>
        <time>2019-04-16T00:07:27Z</time>
      </trkpt>
      <trkpt lat="48.12759" lon="7.16656">
        <ele>466</ele>
        <time>2019-04-16T00:08:27Z</time>
      </trkpt>
      <trkpt lat="48.12789" lon="7.16683">
        <ele>463</ele>
        <time>2019-04-16T00:09:27Z</time>
      </trkpt>
      <trkpt lat="48.12799" lon="7.16691">
        <ele>462</ele>
        <time>2019-04-16T00:10:27Z</time>
      </trkpt>
      <trkpt lat="48.12814" lon="7.16701">
        <ele>461</ele>
        <time>2019-04-16T00:11:27Z</time>
      </trkpt>
      <trkpt lat="48.12827" lon="7.16709">
        <ele>460</ele>
        <time>2019-04-16T00:12:27Z</time>
      </trkpt>
      <trkpt lat="48.1284" lon="7.16719">
        <ele>460</ele>
        <time>2019-04-16T00:13:27Z</time>
      </trkpt>
      <trkpt lat="48.12845" lon="7.16725">
        <ele>459</ele>
        <time>2019-04-16T00:14:27Z</time>
      </trkpt>
      <trkpt lat="48.1288" lon="7.16763">
        <ele>457</ele>
        <time>2019-04-16T00:15:27Z</time>
      </trkpt>
      <trkpt lat="48.12912" lon="7.16798">
        <ele>455</ele>
        <time>2019-04-16T00:16:27Z</time>
      </trkpt>
      <trkpt lat="48.12956" lon="7.16847">
        <ele>452</ele>
        <time>2019-04-16T00:17:27Z</time>
      </trkpt>
      <trkpt lat="48.12975" lon="7.16869">
        <ele>451</ele>
        <time>2019-04-16T00:18:27Z</time>
      </trkpt>
      <trkpt lat="48.12977" lon="7.16872">
        <ele>451</ele>
        <time>2019-04-16T00:19:27Z</time>
      </trkpt>
      <trkpt lat="48.12983" lon="7.1688">
        <ele>451</ele>
        <time>2019-04-16T00:20:27Z</time>
      </trkpt>
      <trkpt lat="48.12998" lon="7.16896">
        <ele>450</ele>
        <time>2019-04-16T00:21:27Z</time>
      </trkpt>
      <trkpt lat="48.13011" lon="7.16907">
        <ele>450</ele>
        <time>2019-04-16T00:22:27Z</time>
      </trkpt>
      <trkpt lat="48.13024" lon="7.16918">
        <ele>449</ele>
        <time>2019-04-16T00:23:27Z</time>
      </trkpt>
      <trkpt lat="48.13037" lon="7.16927">
        <ele>448</ele>
        <time>2019-04-16T00:24:27Z</time>
      </trkpt>
      <trkpt lat="48.13042" lon="7.1693">
        <ele>448</ele>
        <time>2019-04-16T00:25:27Z</time>
      </trkpt>
      <trkpt lat="48.13073" lon="7.16954">
        <ele>446</ele>
        <time>2019-04-16T00:26:27Z</time>
      </trkpt>
      <trkpt lat="48.13076" lon="7.16957">
        <ele>446</ele>
        <time>2019-04-16T00:27:27Z</time>
      </trkpt>
      <trkpt lat="48.13084" lon="7.16966">
        <ele>446</ele>
        <time>2019-04-16T00:28:27Z</time>
      </trkpt>
      <trkpt lat="48.13097" lon="7.16982">
        <ele>445</ele>
        <time>2019-04-16T00:29:27Z</time>
      </trkpt>
      <trkpt lat="48.13117" lon="7.17013">
        <ele>444</ele>
        <time>2019-04-16T00:30:27Z</time>
      </trkpt>
      <trkpt lat="48.13162" lon="7.17091">
        <ele>442</ele>
        <time>2019-04-16T00:31:27Z</time>
      </trkpt>
      <trkpt lat="48.1318" lon="7.17112">
        <ele>443</ele>
        <time>2019-04-16T00:32:27Z</time>
      </trkpt>
      <trkpt lat="48.13206" lon="7.17131">
        <ele>442</ele>
        <time>2019-04-16T00:33:27Z</time>
      </trkpt>
      <trkpt lat="48.13239" lon="7.17155">
        <ele>439</ele>
        <time>2019-04-16T00:34:27Z</time>
      </trkpt>
      <trkpt lat="48.13262" lon="7.1717">
        <ele>437</ele>
        <time>2019-04-16T00:35:27Z</time>
      </trkpt>
      <trkpt lat="48.13301" lon="7.17191">
        <ele>435</ele>
        <time>2019-04-16T00:36:27Z</time>
      </trkpt>
      <trkpt lat="48.13318" lon="7.172">
        <ele>434</ele>
        <time>2019-04-16T00:37:27Z</time>
      </trkpt>
      <trkpt lat="48.13363" lon="7.17216">
        <ele>434</ele>
        <time>2019-04-16T00:38:27Z</time>
      </trkpt>
      <trkpt lat="48.13396" lon="7.17225">
        <ele>434</ele>
        <time>2019-04-16T00:39:27Z</time>
      </trkpt>
      <trkpt lat="48.1342" lon="7.17235">
        <ele>434</ele>
        <time>2019-04-16T00:40:27Z</time>
      </trkpt>
      <trkpt lat="48.13432" lon="7.17239">
        <ele>436</ele>
        <time>2019-04-16T00:41:27Z</time>
      </trkpt>
      <trkpt lat="48.13441" lon="7.17243">
        <ele>438</ele>
        <time>2019-04-16T00:42:27Z</time>
      </trkpt>
      <trkpt lat="48.13457" lon="7.17252">
        <ele>439</ele>
        <time>2019-04-16T00:43:27Z</time>
      </trkpt>
      <trkpt lat="48.13472" lon="7.17263">
        <ele>440</ele>
        <time>2019-04-16T00:44:27Z</time>
      </trkpt>
      <trkpt lat="48.13475" lon="7.17266">
        <ele>440</ele>
        <time>2019-04-16T00:45:27Z</time>
      </trkpt>
      <trkpt lat="48.1348" lon="7.1727">
        <ele>440</ele>
        <time>2019-04-16T00:46:27Z</time>
      </trkpt>
      <trkpt lat="48.1349" lon="7.17284">
        <ele>438</ele>
        <time>2019-04-16T00:47:27Z</time>
      </trkpt>
      <trkpt lat="48.13499" lon="7.173">
        <ele>436</ele>
        <time>2019-04-16T00:48:27Z</time>
      </trkpt>
      <trkpt lat="48.13505" lon="7.17317">
        <ele>433</ele>
        <time>2019-04-16T00:49:27Z</time>
      </trkpt>
      <trkpt lat="48.13505" lon="7.17319">
        <ele>433</ele>
        <time>2019-04-16T00:50:27Z</time>
      </trkpt>
      <trkpt lat="48.13506" lon="7.17329">
        <ele>431</ele>
        <time>2019-04-16T00:51:27Z</time>
      </trkpt>
      <trkpt lat="48.13506" lon="7.17331">
        <ele>430</ele>
        <time>2019-04-16T00:52:27Z</time>
      </trkpt>
      <trkpt lat="48.13516" lon="7.17361">
        <ele>429</ele>
        <time>2019-04-16T00:53:27Z</time>
      </trkpt>
      <trkpt lat="48.13524" lon="7.1738">
        <ele>428</ele>
        <time>2019-04-16T00:54:27Z</time>
      </trkpt>
      <trkpt lat="48.13538" lon="7.17408">
        <ele>425</ele>
        <time>2019-04-16T00:55:27Z</time>
      </trkpt>
      <trkpt lat="48.13542" lon="7.17418">
        <ele>424</ele>
        <time>2019-04-16T00:56:27Z</time>
      </trkpt>
      <trkpt lat="48.13551" lon="7.17431">
        <ele>424</ele>
        <time>2019-04-16T00:57:27Z</time>
      </trkpt>
      <trkpt lat="48.13556" lon="7.17436">
        <ele>424</ele>
        <time>2019-04-16T00:58:27Z</time>
      </trkpt>
      <trkpt lat="48.13567" lon="7.17451">
        <ele>423</ele>
        <time>2019-04-16T00:59:27Z</time>
      </trkpt>
      <trkpt lat="48.13574" lon="7.17459">
        <ele>423</ele>
        <time>2019-04-16T01:00:27Z</time>
      </trkpt>
      <trkpt lat="48.13581" lon="7.17466">
        <ele>423</ele>
        <time>2019-04-16T01:01:27Z</time>
      </trkpt>
      <trkpt lat="48.13583" lon="7.17468">
        <ele>423</ele>
        <time>2019-04-16T01:02:27Z</time>
      </trkpt>
      <trkpt lat="48.13584" lon="7.1747">
        <ele>422</ele>
        <time>2019-04-16T01:03:27Z</time>
      </trkpt>
      <trkpt lat="48.136" lon="7.17482">
        <ele>422</ele>
        <time>2019-04-16T01:04:27Z</time>
      </trkpt>
      <trkpt lat="48.13607" lon="7.17486">
        <ele>421</ele>
        <time>2019-04-16T01:05:27Z</time>
      </trkpt>
      <trkpt lat="48.13612" lon="7.1749">
        <ele>421</ele>
        <time>2019-04-16T01:06:27Z</time>
      </trkpt>
      <trkpt lat="48.13625" lon="7.17499">
        <ele>420</ele>
        <time>2019-04-16T01:07:27Z</time>
      </trkpt>
      <trkpt lat="48.13632" lon="7.17504">
        <ele>420</ele>
        <time>2019-04-16T01:08:27Z</time>
      </trkpt>
      <trkpt lat="48.13638" lon="7.17508">
        <ele>420</ele>
        <time>2019-04-16T01:09:27Z</time>
      </trkpt>
      <trkpt lat="48.13642" lon="7.1751">
        <ele>420</ele>
        <time>2019-04-16T01:10:27Z</time>
      </trkpt>
      <trkpt lat="48.13647" lon="7.17513">
        <ele>419</ele>
        <time>2019-04-16T01:11:27Z</time>
      </trkpt>
      <trkpt lat="48.13652" lon="7.17515">
        <ele>419</ele>
        <time>2019-04-16T01:12:27Z</time>
      </trkpt>
      <trkpt lat="48.13656" lon="7.17516">
        <ele>419</ele>
        <time>2019-04-16T01:13:27Z</time>
      </trkpt>
      <trkpt lat="48.13664" lon="7.17517">
        <ele>419</ele>
        <time>2019-04-16T01:14:27Z</time>
      </trkpt>
      <trkpt lat="48.13668" lon="7.17517">
        <ele>419</ele>
        <time>2019-04-16T01:15:27Z</time>
      </trkpt>
      <trkpt lat="48.13672" lon="7.17518">
        <ele>419</ele>
        <time>2019-04-16T01:16:27Z</time>
      </trkpt>
      <trkpt lat="48.13678" lon="7.17518">
        <ele>419</ele>
        <time>2019-04-16T01:17:27Z</time>
      </trkpt>
      <trkpt lat="48.1369" lon="7.17517">
        <ele>418</ele>
        <time>2019-04-16T01:18:27Z</time>
      </trkpt>
      <trkpt lat="48.13701" lon="7.17515">
        <ele>418</ele>
        <time>2019-04-16T01:19:27Z</time>
      </trkpt>
      <trkpt lat="48.13712" lon="7.17514">
        <ele>418</ele>
        <time>2019-04-16T01:20:27Z</time>
      </trkpt>
      <trkpt lat="48.13727" lon="7.17513">
        <ele>417</ele>
        <time>2019-04-16T01:21:27Z</time>
      </trkpt>
      <trkpt lat="48.1374" lon="7.17514">
        <ele>417</ele>
        <time>2019-04-16T01:22:27Z</time>
      </trkpt>
      <trkpt lat="48.13746" lon="7.17516">
        <ele>417</ele>
        <time>2019-04-16T01:23:27Z</time>
      </trkpt>
      <trkpt lat="48.13752" lon="7.17517">
        <ele>417</ele>
        <time>2019-04-16T01:24:27Z</time>
      </trkpt>
      <trkpt lat="48.13764" lon="7.1752">
        <ele>417</ele>
        <time>2019-04-16T01:25:27Z</time>
      </trkpt>
      <trkpt lat="48.13769" lon="7.17522">
        <ele>418</ele>
        <time>2019-04-16T01:26:27Z</time>
      </trkpt>
      <trkpt lat="48.13784" lon="7.17529">
        <ele>418</ele>
        <time>2019-04-16T01:27:27Z</time>
      </trkpt>
      <trkpt lat="48.13796" lon="7.17535">
        <ele>418</ele>
        <time>2019-04-16T01:28:27Z</time>
      </trkpt>
      <trkpt lat="48.13803" lon="7.17539">
        <ele>418</ele>
        <time>2019-04-16T01:29:27Z</time>
      </trkpt>
      <trkpt lat="48.1381" lon="7.17544">
        <ele>418</ele>
        <time>2019-04-16T01:30:27Z</time>
      </trkpt>
      <trkpt lat="48.13817" lon="7.1755">
        <ele>418</ele>
        <time>2019-04-16T01:31:27Z</time>
      </trkpt>
      <trkpt lat="48.13822" lon="7.17555">
        <ele>417</ele>
        <time>2019-04-16T01:32:27Z</time>
      </trkpt>
      <trkpt lat="48.13828" lon="7.17562">
        <ele>416</ele>
        <time>2019-04-16T01:33:27Z</time>
      </trkpt>
      <trkpt lat="48.13833" lon="7.1757">
        <ele>415</ele>
        <time>2019-04-16T01:34:27Z</time>
      </trkpt>
      <trkpt lat="48.1384" lon="7.17582">
        <ele>414</ele>
        <time>2019-04-16T01:35:27Z</time>
      </trkpt>
      <trkpt lat="48.13845" lon="7.17591">
        <ele>415</ele>
        <time>2019-04-16T01:36:27Z</time>
      </trkpt>
      <trkpt lat="48.13852" lon="7.17607">
        <ele>416</ele>
        <time>2019-04-16T01:37:27Z</time>
      </trkpt>
      <trkpt lat="48.13864" lon="7.17628">
        <ele>417</ele>
        <time>2019-04-16T01:38:27Z</time>
      </trkpt>
      <trkpt lat="48.13868" lon="7.17635">
        <ele>418</ele>
        <time>2019-04-16T01:39:27Z</time>
      </trkpt>
      <trkpt lat="48.13889" lon="7.17674">
        <ele>420</ele>
        <time>2019-04-16T01:40:27Z</time>
      </trkpt>
      <trkpt lat="48.13898" lon="7.1769">
        <ele>420</ele>
        <time>2019-04-16T01:41:27Z</time>
      </trkpt>
      <trkpt lat="48.13906" lon="7.17704">
        <ele>420</ele>
        <time>2019-04-16T01:42:27Z</time>
      </trkpt>
      <trkpt lat="48.13912" lon="7.17716">
        <ele>419</ele>
        <time>2019-04-16T01:43:27Z</time>
      </trkpt>
      <trkpt lat="48.13916" lon="7.17724">
        <ele>419</ele>
        <time>2019-04-16T01:44:27Z</time>
      </trkpt>
      <trkpt lat="48.1392" lon="7.17729">
        <ele>419</ele>
        <time>2019-04-16T01:45:27Z</time>
      </trkpt>
      <trkpt lat="48.13926" lon="7.17739">
        <ele>419</ele>
        <time>2019-04-16T01:46:27Z</time>
      </trkpt>
      <trkpt lat="48.1393" lon="7.17746">
        <ele>419</ele>
        <time>2019-04-16T01:47:27Z</time>
      </trkpt>
      <trkpt lat="48.13936" lon="7.17754">
        <ele>419</ele>
        <time>2019-04-16T01:48:27Z</time>
      </trkpt>
      <trkpt lat="48.13941" lon="7.17761">
        <ele>419</ele>
        <time>2019-04-16T01:49:27Z</time>
      </trkpt>
      <trkpt lat="48.13949" lon="7.17768">
        <ele>419</ele>
        <time>2019-04-16T01:50:27Z</time>
      </trkpt>
      <trkpt lat="48.13954" lon="7.17773">
        <ele>419</ele>
        <time>2019-04-16T01:51:27Z</time>
      </trkpt>
      <trkpt lat="48.1396" lon="7.17779">
        <ele>418</ele>
        <time>2019-04-16T01:52:27Z</time>
      </trkpt>
      <trkpt lat="48.13967" lon="7.17785">
        <ele>418</ele>
        <time>2019-04-16T01:53:27Z</time>
      </trkpt>
      <trkpt lat="48.13974" lon="7.1779">
        <ele>418</ele>
        <time>2019-04-16T01:54:27Z</time>
      </trkpt>
      <trkpt lat="48.13981" lon="7.17794">
        <ele>417</ele>
        <time>2019-04-16T01:55:27Z</time>
      </trkpt>
      <trkpt lat="48.13988" lon="7.17799">
        <ele>417</ele>
        <time>2019-04-16T01:56:27Z</time>
      </trkpt>
      <trkpt lat="48.13995" lon="7.17803">
        <ele>416</ele>
        <time>2019-04-16T01:57:27Z</time>
      </trkpt>
      <trkpt lat="48.14003" lon="7.17807">
        <ele>416</ele>
        <time>2019-04-16T01:58:27Z</time>
      </trkpt>
      <trkpt lat="48.14025" lon="7.1782">
        <ele>415</ele>
        <time>2019-04-16T01:59:27Z</time>
      </trkpt>
      <trkpt lat="48.14056" lon="7.17837">
        <ele>415</ele>
        <time>2019-04-16T02:00:27Z</time>
      </trkpt>
      <trkpt lat="48.14063" lon="7.17842">
        <ele>416</ele>
        <time>2019-04-16T02:01:27Z</time>
      </trkpt>
      <trkpt lat="48.1407" lon="7.17846">
        <ele>416</ele>
        <time>2019-04-16T02:02:27Z</time>
      </trkpt>
      <trkpt lat="48.14078" lon="7.17851">
        <ele>416</ele>
        <time>2019-04-16T02:03:27Z</time>
      </trkpt>
      <trkpt lat="48.14085" lon="7.17857">
        <ele>416</ele>
        <time>2019-04-16T02:04:27Z</time>
      </trkpt>
      <trkpt lat="48.14093" lon="7.17863">
        <ele>416</ele>
        <time>2019-04-16T02:05:27Z</time>
      </trkpt>
      <trkpt lat="48.141" lon="7.17869">
        <ele>417</ele>
        <time>2019-04-16T02:06:27Z</time>
      </trkpt>
      <trkpt lat="48.14107" lon="7.17876">
        <ele>417</ele>
        <time>2019-04-16T02:07:27Z</time>
      </trkpt>
      <trkpt lat="48.14112" lon="7.17883">
        <ele>417</ele>
        <time>2019-04-16T02:08:27Z</time>
      </trkpt>
      <trkpt lat="48.14118" lon="7.17891">
        <ele>416</ele>
        <time>2019-04-16T02:09:27Z</time>
      </trkpt>
      <trkpt lat="48.14123" lon="7.17899">
        <ele>416</ele>
        <time>2019-04-16T02:10:27Z</time>
      </trkpt>
      <trkpt lat="48.1413" lon="7.17908">
        <ele>416</ele>
        <time>2019-04-16T02:11:27Z</time>
      </trkpt>
      <trkpt lat="48.14135" lon="7.17917">
        <ele>415</ele>
        <time>2019-04-16T02:12:27Z</time>
      </trkpt>
      <trkpt lat="48.14143" lon="7.1793">
        <ele>415</ele>
        <time>2019-04-16T02:13:27Z</time>
      </trkpt>
      <trkpt lat="48.14151" lon="7.17945">
        <ele>414</ele>
        <time>2019-04-16T02:14:27Z</time>
      </trkpt>
      <trkpt lat="48.14156" lon="7.17954">
        <ele>414</ele>
        <time>2019-04-16T02:15:27Z</time>
      </trkpt>
      <trkpt lat="48.14163" lon="7.17971">
        <ele>411</ele>
        <time>2019-04-16T02:16:27Z</time>
      </trkpt>
      <trkpt lat="48.14168" lon="7.17986">
        <ele>410</ele>
        <time>2019-04-16T02:17:27Z</time>
      </trkpt>
      <trkpt lat="48.14172" lon="7.18001">
        <ele>409</ele>
        <time>2019-04-16T02:18:27Z</time>
      </trkpt>
      <trkpt lat="48.14175" lon="7.18017">
        <ele>409</ele>
        <time>2019-04-16T02:19:27Z</time>
      </trkpt>
      <trkpt lat="48.14178" lon="7.18032">
        <ele>409</ele>
        <time>2019-04-16T02:20:27Z</time>
      </trkpt>
      <trkpt lat="48.14186" lon="7.18068">
        <ele>408</ele>
        <time>2019-04-16T02:21:27Z</time>
      </trkpt>
      <trkpt lat="48.1419" lon="7.18084">
        <ele>408</ele>
        <time>2019-04-16T02:22:27Z</time>
      </trkpt>
      <trkpt lat="48.14195" lon="7.18098">
        <ele>407</ele>
        <time>2019-04-16T02:23:27Z</time>
      </trkpt>
      <trkpt lat="48.14198" lon="7.18109">
        <ele>406</ele>
        <time>2019-04-16T02:24:27Z</time>
      </trkpt>
      <trkpt lat="48.14201" lon="7.18115">
        <ele>406</ele>
        <time>2019-04-16T02:25:27Z</time>
      </trkpt>
      <trkpt lat="48.14207" lon="7.18126">
        <ele>405</ele>
        <time>2019-04-16T02:26:27Z</time>
      </trkpt>
      <trkpt lat="48.14212" lon="7.18135">
        <ele>404</ele>
        <time>2019-04-16T02:27:27Z</time>
      </trkpt>
      <trkpt lat="48.14218" lon="7.18143">
        <ele>403</ele>
        <time>2019-04-16T02:28:27Z</time>
      </trkpt>
      <trkpt lat="48.14224" lon="7.18151">
        <ele>401</ele>
        <time>2019-04-16T02:29:27Z</time>
      </trkpt>
      <trkpt lat="48.14234" lon="7.1816">
        <ele>399</ele>
        <time>2019-04-16T02:30:27Z</time>
      </trkpt>
      <trkpt lat="48.14254" lon="7.18173">
        <ele>396</ele>
        <time>2019-04-16T02:31:27Z</time>
      </trkpt>
      <trkpt lat="48.1428" lon="7.18189">
        <ele>393</ele>
        <time>2019-04-16T02:32:27Z</time>
      </trkpt>
      <trkpt lat="48.14292" lon="7.18197">
        <ele>392</ele>
        <time>2019-04-16T02:33:27Z</time>
      </trkpt>
      <trkpt lat="48.14303" lon="7.18205">
        <ele>390</ele>
        <time>2019-04-16T02:34:27Z</time>
      </trkpt>
      <trkpt lat="48.14336" lon="7.18226">
        <ele>388</ele>
        <time>2019-04-16T02:35:27Z</time>
      </trkpt>
      <trkpt lat="48.14342" lon="7.18234">
        <ele>387</ele>
        <time>2019-04-16T02:36:27Z</time>
      </trkpt>
      <trkpt lat="48.14346" lon="7.18239">
        <ele>387</ele>
        <time>2019-04-16T02:37:27Z</time>
      </trkpt>
      <trkpt lat="48.14347" lon="7.1824">
        <ele>387</ele>
        <time>2019-04-16T02:38:27Z</time>
      </trkpt>
      <trkpt lat="48.14358" lon="7.18245">
        <ele>387</ele>
        <time>2019-04-16T02:39:27Z</time>
      </trkpt>
      <trkpt lat="48.1437" lon="7.1825">
        <ele>386</ele>
        <time>2019-04-16T02:40:27Z</time>
      </trkpt>
      <trkpt lat="48.14378" lon="7.18252">
        <ele>386</ele>
        <time>2019-04-16T02:41:27Z</time>
      </trkpt>
      <trkpt lat="48.14391" lon="7.18255">
        <ele>385</ele>
        <time>2019-04-16T02:42:27Z</time>
      </trkpt>
      <trkpt lat="48.14412" lon="7.18261">
        <ele>385</ele>
        <time>2019-04-16T02:43:27Z</time>
      </trkpt>
      <trkpt lat="48.14422" lon="7.18264">
        <ele>384</ele>
        <time>2019-04-16T02:44:27Z</time>
      </trkpt>
      <trkpt lat="48.14438" lon="7.18264">
        <ele>384</ele>
        <time>2019-04-16T02:45:27Z</time>
      </trkpt>
      <trkpt lat="48.14446" lon="7.18266">
        <ele>384</ele>
        <time>2019-04-16T02:46:27Z</time>
      </trkpt>
      <trkpt lat="48.14473" lon="7.18271">
        <ele>383</ele>
        <time>2019-04-16T02:47:27Z</time>
      </trkpt>
      <trkpt lat="48.14495" lon="7.18282">
        <ele>382</ele>
        <time>2019-04-16T02:48:27Z</time>
      </trkpt>
      <trkpt lat="48.14495" lon="7.18282">
        <ele>382</ele>
        <time>2019-04-16T02:49:27Z</time>
      </trkpt>
      <trkpt lat="48.14496" lon="7.18286">
        <ele>382</ele>
        <time>2019-04-16T02:50:27Z</time>
      </trkpt>
      <trkpt lat="48.14497" lon="7.18289">
        <ele>382</ele>
        <time>2019-04-16T02:51:27Z</time>
      </trkpt>
      <trkpt lat="48.14499" lon="7.18293">
        <ele>382</ele>
        <time>2019-04-16T02:52:27Z</time>
      </trkpt>
      <trkpt lat="48.14501" lon="7.18296">
        <ele>382</ele>
        <time>2019-04-16T02:53:27Z</time>
      </trkpt>
      <trkpt lat="48.14503" lon="7.18299">
        <ele>382</ele>
        <time>2019-04-16T02:54:27Z</time>
      </trkpt>
      <trkpt lat="48.14505" lon="7.18301">
        <ele>382</ele>
        <time>2019-04-16T02:55:27Z</time>
      </trkpt>
      <trkpt lat="48.14507" lon="7.18303">
        <ele>382</ele>
        <time>2019-04-16T02:56:27Z</time>
      </trkpt>
      <trkpt lat="48.1451" lon="7.18304">
        <ele>382</ele>
        <time>2019-04-16T02:57:27Z</time>
      </trkpt>
      <trkpt lat="48.14513" lon="7.18306">
        <ele>382</ele>
        <time>2019-04-16T02:58:27Z</time>
      </trkpt>
      <trkpt lat="48.14515" lon="7.18306">
        <ele>382</ele>
        <time>2019-04-16T02:59:27Z</time>
      </trkpt>
      <trkpt lat="48.14518" lon="7.18306">
        <ele>382</ele>
        <time>2019-04-16T03:00:27Z</time>
      </trkpt>
      <trkpt lat="48.14522" lon="7.18306">
        <ele>382</ele>
        <time>2019-04-16T03:01:27Z</time>
      </trkpt>
      <trkpt lat="48.14524" lon="7.18305">
        <ele>382</ele>
        <time>2019-04-16T03:02:27Z</time>
      </trkpt>
      <trkpt lat="48.14527" lon="7.18304">
        <ele>383</ele>
        <time>2019-04-16T03:03:27Z</time>
      </trkpt>
      <trkpt lat="48.14529" lon="7.18303">
        <ele>383</ele>
        <time>2019-04-16T03:04:27Z</time>
      </trkpt>
      <trkpt lat="48.14532" lon="7.18301">
        <ele>383</ele>
        <time>2019-04-16T03:05:27Z</time>
      </trkpt>
      <trkpt lat="48.14534" lon="7.18299">
        <ele>383</ele>
        <time>2019-04-16T03:06:27Z</time>
      </trkpt>
      <trkpt lat="48.14536" lon="7.18297">
        <ele>383</ele>
        <time>2019-04-16T03:07:27Z</time>
      </trkpt>
      <trkpt lat="48.14538" lon="7.18294">
        <ele>383</ele>
        <time>2019-04-16T03:08:27Z</time>
      </trkpt>
      <trkpt lat="48.14539" lon="7.18292">
        <ele>383</ele>
        <time>2019-04-16T03:09:27Z</time>
      </trkpt>
      <trkpt lat="48.14541" lon="7.18288">
        <ele>384</ele>
        <time>2019-04-16T03:10:27Z</time>
      </trkpt>
      <trkpt lat="48.14542" lon="7.18284">
        <ele>384</ele>
        <time>2019-04-16T03:11:27Z</time>
      </trkpt>
      <trkpt lat="48.14543" lon="7.1828">
        <ele>384</ele>
        <time>2019-04-16T03:12:27Z</time>
      </trkpt>
      <trkpt lat="48.14544" lon="7.18276">
        <ele>384</ele>
        <time>2019-04-16T03:13:27Z</time>
      </trkpt>
      <trkpt lat="48.14545" lon="7.18272">
        <ele>384</ele>
        <time>2019-04-16T03:14:27Z</time>
      </trkpt>
      <trkpt lat="48.14545" lon="7.18267">
        <ele>385</ele>
        <time>2019-04-16T03:15:27Z</time>
      </trkpt>
      <trkpt lat="48.14545" lon="7.18263">
        <ele>385</ele>
        <time>2019-04-16T03:16:27Z</time>
      </trkpt>
      <trkpt lat="48.14544" lon="7.18259">
        <ele>385</ele>
        <time>2019-04-16T03:17:27Z</time>
      </trkpt>
      <trkpt lat="48.14543" lon="7.18255">
        <ele>385</ele>
        <time>2019-04-16T03:18:27Z</time>
      </trkpt>
      <trkpt lat="48.14542" lon="7.18251">
        <ele>385</ele>
        <time>2019-04-16T03:19:27Z</time>
      </trkpt>
      <trkpt lat="48.14541" lon="7.18247">
        <ele>385</ele>
        <time>2019-04-16T03:20:27Z</time>
      </trkpt>
      <trkpt lat="48.14539" lon="7.18243">
        <ele>386</ele>
        <time>2019-04-16T03:21:27Z</time>
      </trkpt>
      <trkpt lat="48.14537" lon="7.1824">
        <ele>386</ele>
        <time>2019-04-16T03:22:27Z</time>
      </trkpt>
      <trkpt lat="48.14536" lon="7.18238">
        <ele>386</ele>
        <time>2019-04-16T03:23:27Z</time>
      </trkpt>
      <trkpt lat="48.14539" lon="7.18227">
        <ele>387</ele>
        <time>2019-04-16T03:24:27Z</time>
      </trkpt>
      <trkpt lat="48.14544" lon="7.18215">
        <ele>388</ele>
        <time>2019-04-16T03:25:27Z</time>
      </trkpt>
      <trkpt lat="48.14569" lon="7.18146">
        <ele>392</ele>
        <time>2019-04-16T03:26:27Z</time>
      </trkpt>
      <trkpt lat="48.14574" lon="7.18126">
        <ele>392</ele>
        <time>2019-04-16T03:27:27Z</time>
      </trkpt>
      <trkpt lat="48.1458" lon="7.18107">
        <ele>392</ele>
        <time>2019-04-16T03:28:27Z</time>
      </trkpt>
      <trkpt lat="48.1459" lon="7.18077">
        <ele>393</ele>
        <time>2019-04-16T03:29:27Z</time>
      </trkpt>
      <trkpt lat="48.14603" lon="7.18036">
        <ele>393</ele>
        <time>2019-04-16T03:30:27Z</time>
      </trkpt>
      <trkpt lat="48.14615" lon="7.17995">
        <ele>392</ele>
        <time>2019-04-16T03:31:27Z</time>
      </trkpt>
      <trkpt lat="48.14619" lon="7.17982">
        <ele>392</ele>
        <time>2019-04-16T03:32:27Z</time>
      </trkpt>
      <trkpt lat="48.14622" lon="7.17962">
        <ele>392</ele>
        <time>2019-04-16T03:33:27Z</time>
      </trkpt>
      <trkpt lat="48.14623" lon="7.17958">
        <ele>392</ele>
        <time>2019-04-16T03:34:27Z</time>
      </trkpt>
      <trkpt lat="48.14626" lon="7.17933">
        <ele>392</ele>
        <time>2019-04-16T03:35:27Z</time>
      </trkpt>
      <trkpt lat="48.14628" lon="7.1792">
        <ele>392</ele>
        <time>2019-04-16T03:36:27Z</time>
      </trkpt>
      <trkpt lat="48.14629" lon="7.17905">
        <ele>392</ele>
        <time>2019-04-16T03:37:27Z</time>
      </trkpt>
      <trkpt lat="48.1463" lon="7.1789">
        <ele>392</ele>
        <time>2019-04-16T03:38:27Z</time>
      </trkpt>
      <trkpt lat="48.14633" lon="7.17869">
        <ele>393</ele>
        <time>2019-04-16T03:39:27Z</time>
      </trkpt>
      <trkpt lat="48.14635" lon="7.17854">
        <ele>393</ele>
        <time>2019-04-16T03:40:27Z</time>
      </trkpt>
      <trkpt lat="48.14637" lon="7.17844">
        <ele>393</ele>
        <time>2019-04-16T03:41:27Z</time>
      </trkpt>
      <trkpt lat="48.14638" lon="7.17836">
        <ele>394</ele>
        <time>2019-04-16T03:42:27Z</time>
      </trkpt>
      <trkpt lat="48.14641" lon="7.17826">
        <ele>394</ele>
        <time>2019-04-16T03:43:27Z</time>
      </trkpt>
      <trkpt lat="48.14645" lon="7.1781">
        <ele>394</ele>
        <time>2019-04-16T03:44:27Z</time>
      </trkpt>
      <trkpt lat="48.14645" lon="7.17809">
        <ele>394</ele>
        <time>2019-04-16T03:45:27Z</time>
      </trkpt>
      <trkpt lat="48.14649" lon="7.17796">
        <ele>395</ele>
        <time>2019-04-16T03:46:27Z</time>
      </trkpt>
      <trkpt lat="48.14651" lon="7.17793">
        <ele>395</ele>
        <time>2019-04-16T03:47:27Z</time>
      </trkpt>
      <trkpt lat="48.14654" lon="7.17785">
        <ele>395</ele>
        <time>2019-04-16T03:48:27Z</time>
      </trkpt>
      <trkpt lat="48.14657" lon="7.17778">
        <ele>395</ele>
        <time>2019-04-16T03:49:27Z</time>
      </trkpt>
      <trkpt lat="48.14661" lon="7.1777">
        <ele>394</ele>
        <time>2019-04-16T03:50:27Z</time>
      </trkpt>
      <trkpt lat="48.1467" lon="7.17751">
        <ele>394</ele>
        <time>2019-04-16T03:51:27Z</time>
      </trkpt>
      <trkpt lat="48.14672" lon="7.17749">
        <ele>395</ele>
        <time>2019-04-16T03:52:27Z</time>
      </trkpt>
      <trkpt lat="48.14685" lon="7.17725">
        <ele>396</ele>
        <time>2019-04-16T03:53:27Z</time>
      </trkpt>
      <trkpt lat="48.14685" lon="7.17724">
        <ele>396</ele>
        <time>2019-04-16T03:54:27Z</time>
      </trkpt>
      <trkpt lat="48.14714" lon="7.17676">
        <ele>396</ele>
        <time>2019-04-16T03:55:27Z</time>
      </trkpt>
      <trkpt lat="48.14718" lon="7.17672">
        <ele>396</ele>
        <time>2019-04-16T03:56:27Z</time>
      </trkpt>
      <trkpt lat="48.14747" lon="7.17634">
        <ele>398</ele>
        <time>2019-04-16T03:57:27Z</time>
      </trkpt>
      <trkpt lat="48.14754" lon="7.17626">
        <ele>398</ele>
        <time>2019-04-16T03:58:27Z</time>
      </trkpt>
      <trkpt lat="48.14783" lon="7.17597">
        <ele>401</ele>
        <time>2019-04-16T03:59:27Z</time>
      </trkpt>
      <trkpt lat="48.14798" lon="7.17585">
        <ele>401</ele>
        <time>2019-04-16T04:00:27Z</time>
      </trkpt>
      <trkpt lat="48.14813" lon="7.17573">
        <ele>402</ele>
        <time>2019-04-16T04:01:27Z</time>
      </trkpt>
      <trkpt lat="48.14813" lon="7.17573">
        <ele>402</ele>
        <time>2019-04-16T04:02:27Z</time>
      </trkpt>
      <trkpt lat="48.14811" lon="7.17561">
        <ele>403</ele>
        <time>2019-04-16T04:03:27Z</time>
      </trkpt>
      <trkpt lat="48.14811" lon="7.17548">
        <ele>404</ele>
        <time>2019-04-16T04:04:27Z</time>
      </trkpt>
      <trkpt lat="48.1481" lon="7.17537">
        <ele>404</ele>
        <time>2019-04-16T04:05:27Z</time>
      </trkpt>
      <trkpt lat="48.1481" lon="7.17507">
        <ele>406</ele>
        <time>2019-04-16T04:06:27Z</time>
      </trkpt>
      <trkpt lat="48.14818" lon="7.17488">
        <ele>406</ele>
        <time>2019-04-16T04:07:27Z</time>
      </trkpt>
      <trkpt lat="48.14824" lon="7.17477">
        <ele>406</ele>
        <time>2019-04-16T04:08:27Z</time>
      </trkpt>
      <trkpt lat="48.14839" lon="7.17447">
        <ele>406</ele>
        <time>2019-04-16T04:09:27Z</time>
      </trkpt>
      <trkpt lat="48.14904" lon="7.17335">
        <ele>410</ele>
        <time>2019-04-16T04:10:27Z</time>
      </trkpt>
      <trkpt lat="48.14922" lon="7.17303">
        <ele>412</ele>
        <time>2019-04-16T04:11:27Z</time>
      </trkpt>
      <trkpt lat="48.14938" lon="7.17277">
        <ele>414</ele>
        <time>2019-04-16T04:12:27Z</time>
      </trkpt>
      <trkpt lat="48.14952" lon="7.17255">
        <ele>415</ele>
        <time>2019-04-16T04:13:27Z</time>
      </trkpt>
      <trkpt lat="48.14963" lon="7.17239">
        <ele>415</ele>
        <time>2019-04-16T04:14:27Z</time>
      </trkpt>
      <trkpt lat="48.14967" lon="7.17234">
        <ele>415</ele>
        <time>2019-04-16T04:15:27Z</time>
      </trkpt>
      <trkpt lat="48.14991" lon="7.17202">
        <ele>413</ele>
        <time>2019-04-16T04:16:27Z</time>
      </trkpt>
      <trkpt lat="48.15005" lon="7.17186">
        <ele>412</ele>
        <time>2019-04-16T04:17:27Z</time>
      </trkpt>
      <trkpt lat="48.1502" lon="7.1717">
        <ele>413</ele>
        <time>2019-04-16T04:18:27Z</time>
      </trkpt>
      <trkpt lat="48.15054" lon="7.17138">
        <ele>414</ele>
        <time>2019-04-16T04:19:27Z</time>
      </trkpt>
      <trkpt lat="48.15059" lon="7.17133">
        <ele>414</ele>
        <time>2019-04-16T04:20:27Z</time>
      </trkpt>
      <trkpt lat="48.151" lon="7.17089">
        <ele>415</ele>
        <time>2019-04-16T04:21:27Z</time>
      </trkpt>
      <trkpt lat="48.15106" lon="7.17082">
        <ele>415</ele>
        <time>2019-04-16T04:22:27Z</time>
      </trkpt>
      <trkpt lat="48.15131" lon="7.17053">
        <ele>416</ele>
        <time>2019-04-16T04:23:27Z</time>
      </trkpt>
      <trkpt lat="48.1514" lon="7.17042">
        <ele>416</ele>
        <time>2019-04-16T04:24:27Z</time>
      </trkpt>
      <trkpt lat="48.15159" lon="7.17016">
        <ele>415</ele>
        <time>2019-04-16T04:25:27Z</time>
      </trkpt>
      <trkpt lat="48.15171" lon="7.16999">
        <ele>415</ele>
        <time>2019-04-16T04:26:27Z</time>
      </trkpt>
      <trkpt lat="48.1518" lon="7.16983">
        <ele>416</ele>
        <time>2019-04-16T04:27:27Z</time>
      </trkpt>
      <trkpt lat="48.1519" lon="7.16965">
        <ele>417</ele>
        <time>2019-04-16T04:28:27Z</time>
      </trkpt>
    </trkseg>
  </trk>
</gpx>